<?xml version="1.0" encoding="UTF-8" standalone="no" ?>
<gpx xmlns="http://www.topografix.com/GPX/1/1" xmlns:xsi="http://www.w3.org/2001/XMLSchema-instance" xsi:schemaLocation="http://www.topografix.com/GPX/1/1 http://www.topografix.com/GPX/1/1/gpx.xsd" version="1.1" creator="VisuGPX - https://www.visugpx.com">
  <metadata>
    <name>CMC Nordique en Bouconne</name>
    <desc><![CDATA[Nordique en Bouconne]]></desc>
  </metadata>
  <wpt lat="43.6184" lon="1.19035">
    <ele>175</ele>
    <name><![CDATA[Pause à 07/05/2016 à 11:37]]></name>
    <desc><![CDATA[Pause de 2min 17s]]></desc>
  </wpt>
  <wpt lat="43.61258" lon="1.1818">
    <ele>205</ele>
    <name><![CDATA[Pause à 07/05/2016 à 11:17]]></name>
    <desc><![CDATA[Pause de 2min 54s]]></desc>
  </wpt>
  <wpt lat="43.61386" lon="1.19833">
    <ele>169</ele>
    <name><![CDATA[Pause à 07/05/2016 à 11:54]]></name>
    <desc><![CDATA[Pause de 2min 3s]]></desc>
  </wpt>
  <wpt lat="43.61375" lon="1.19805">
    <ele>167</ele>
    <name><![CDATA[Pause à 07/05/2016 à 9:24]]></name>
    <desc><![CDATA[Pause de 6min 15s]]></desc>
  </wpt>
  <trk>
    <name><![CDATA[Lasserre 7-5-16]]></name>
    <trkseg>
      <trkpt lat="43.61374" lon="1.19806">
        <ele>168</ele>
        <time>2016-05-07T07:22:23Z</time>
      </trkpt>
      <trkpt lat="43.61375" lon="1.19805">
        <ele>167</ele>
        <time>2016-05-07T07:22:24Z</time>
      </trkpt>
      <trkpt lat="43.61375" lon="1.19805">
        <ele>166</ele>
        <time>2016-05-07T07:22:26Z</time>
      </trkpt>
      <trkpt lat="43.61379" lon="1.19813">
        <ele>164</ele>
        <time>2016-05-07T07:22:46Z</time>
      </trkpt>
      <trkpt lat="43.6137" lon="1.19811">
        <ele>163</ele>
        <time>2016-05-07T07:22:54Z</time>
      </trkpt>
      <trkpt lat="43.61369" lon="1.19811">
        <ele>162</ele>
        <time>2016-05-07T07:22:56Z</time>
      </trkpt>
      <trkpt lat="43.61369" lon="1.19811">
        <ele>162</ele>
        <time>2016-05-07T07:23:12Z</time>
      </trkpt>
      <trkpt lat="43.61369" lon="1.19811">
        <ele>162</ele>
        <time>2016-05-07T07:23:13Z</time>
      </trkpt>
      <trkpt lat="43.61369" lon="1.19811">
        <ele>165</ele>
        <time>2016-05-07T07:23:30Z</time>
      </trkpt>
      <trkpt lat="43.61369" lon="1.19811">
        <ele>164</ele>
        <time>2016-05-07T07:23:32Z</time>
      </trkpt>
      <trkpt lat="43.61369" lon="1.19811">
        <ele>164</ele>
        <time>2016-05-07T07:23:48Z</time>
      </trkpt>
      <trkpt lat="43.61369" lon="1.19811">
        <ele>164</ele>
        <time>2016-05-07T07:23:49Z</time>
      </trkpt>
      <trkpt lat="43.61377" lon="1.19815">
        <ele>162</ele>
        <time>2016-05-07T07:24:04Z</time>
      </trkpt>
      <trkpt lat="43.61379" lon="1.19815">
        <ele>160</ele>
        <time>2016-05-07T07:24:06Z</time>
      </trkpt>
      <trkpt lat="43.61388" lon="1.19866">
        <ele>156</ele>
        <time>2016-05-07T07:28:39Z</time>
      </trkpt>
      <trkpt lat="43.61385" lon="1.19874">
        <ele>156</ele>
        <time>2016-05-07T07:28:44Z</time>
      </trkpt>
      <trkpt lat="43.61383" lon="1.1988">
        <ele>156</ele>
        <time>2016-05-07T07:28:48Z</time>
      </trkpt>
      <trkpt lat="43.61378" lon="1.19887">
        <ele>156</ele>
        <time>2016-05-07T07:28:53Z</time>
      </trkpt>
      <trkpt lat="43.61373" lon="1.19891">
        <ele>156</ele>
        <time>2016-05-07T07:28:58Z</time>
      </trkpt>
      <trkpt lat="43.61368" lon="1.19897">
        <ele>156</ele>
        <time>2016-05-07T07:29:01Z</time>
      </trkpt>
      <trkpt lat="43.61365" lon="1.19904">
        <ele>156</ele>
        <time>2016-05-07T07:29:05Z</time>
      </trkpt>
      <trkpt lat="43.61364" lon="1.19907">
        <ele>156</ele>
        <time>2016-05-07T07:29:07Z</time>
      </trkpt>
      <trkpt lat="43.6136" lon="1.19914">
        <ele>156</ele>
        <time>2016-05-07T07:29:12Z</time>
      </trkpt>
      <trkpt lat="43.61356" lon="1.19921">
        <ele>155</ele>
        <time>2016-05-07T07:29:17Z</time>
      </trkpt>
      <trkpt lat="43.61355" lon="1.19924">
        <ele>155</ele>
        <time>2016-05-07T07:29:21Z</time>
      </trkpt>
      <trkpt lat="43.61352" lon="1.19928">
        <ele>155</ele>
        <time>2016-05-07T07:29:24Z</time>
      </trkpt>
      <trkpt lat="43.6135" lon="1.1993">
        <ele>155</ele>
        <time>2016-05-07T07:29:26Z</time>
      </trkpt>
      <trkpt lat="43.61349" lon="1.1993">
        <ele>156</ele>
        <time>2016-05-07T07:29:27Z</time>
      </trkpt>
      <trkpt lat="43.61342" lon="1.19936">
        <ele>156</ele>
        <time>2016-05-07T07:29:32Z</time>
      </trkpt>
      <trkpt lat="43.61342" lon="1.19936">
        <ele>156</ele>
        <time>2016-05-07T07:29:32Z</time>
      </trkpt>
      <trkpt lat="43.61339" lon="1.19935">
        <ele>156</ele>
        <time>2016-05-07T07:29:33Z</time>
      </trkpt>
      <trkpt lat="43.61335" lon="1.19937">
        <ele>156</ele>
        <time>2016-05-07T07:29:35Z</time>
      </trkpt>
      <trkpt lat="43.61329" lon="1.19942">
        <ele>156</ele>
        <time>2016-05-07T07:29:39Z</time>
      </trkpt>
      <trkpt lat="43.61327" lon="1.1995">
        <ele>156</ele>
        <time>2016-05-07T07:29:45Z</time>
      </trkpt>
      <trkpt lat="43.6133" lon="1.19959">
        <ele>156</ele>
        <time>2016-05-07T07:29:50Z</time>
      </trkpt>
      <trkpt lat="43.61331" lon="1.19966">
        <ele>156</ele>
        <time>2016-05-07T07:29:53Z</time>
      </trkpt>
      <trkpt lat="43.6133" lon="1.19974">
        <ele>155</ele>
        <time>2016-05-07T07:29:56Z</time>
      </trkpt>
      <trkpt lat="43.61328" lon="1.19984">
        <ele>155</ele>
        <time>2016-05-07T07:30:01Z</time>
      </trkpt>
      <trkpt lat="43.61325" lon="1.19993">
        <ele>155</ele>
        <time>2016-05-07T07:30:06Z</time>
      </trkpt>
      <trkpt lat="43.61326" lon="1.20002">
        <ele>155</ele>
        <time>2016-05-07T07:30:11Z</time>
      </trkpt>
      <trkpt lat="43.61323" lon="1.20011">
        <ele>155</ele>
        <time>2016-05-07T07:30:16Z</time>
      </trkpt>
      <trkpt lat="43.61323" lon="1.20022">
        <ele>155</ele>
        <time>2016-05-07T07:30:21Z</time>
      </trkpt>
      <trkpt lat="43.61324" lon="1.20029">
        <ele>155</ele>
        <time>2016-05-07T07:30:24Z</time>
      </trkpt>
      <trkpt lat="43.61324" lon="1.20036">
        <ele>155</ele>
        <time>2016-05-07T07:30:28Z</time>
      </trkpt>
      <trkpt lat="43.61322" lon="1.20043">
        <ele>155</ele>
        <time>2016-05-07T07:30:33Z</time>
      </trkpt>
      <trkpt lat="43.61324" lon="1.2005">
        <ele>155</ele>
        <time>2016-05-07T07:30:36Z</time>
      </trkpt>
      <trkpt lat="43.61325" lon="1.20061">
        <ele>154</ele>
        <time>2016-05-07T07:30:40Z</time>
      </trkpt>
      <trkpt lat="43.61326" lon="1.20067">
        <ele>154</ele>
        <time>2016-05-07T07:30:43Z</time>
      </trkpt>
      <trkpt lat="43.61327" lon="1.20076">
        <ele>154</ele>
        <time>2016-05-07T07:30:48Z</time>
      </trkpt>
      <trkpt lat="43.61329" lon="1.20082">
        <ele>154</ele>
        <time>2016-05-07T07:30:52Z</time>
      </trkpt>
      <trkpt lat="43.61329" lon="1.20086">
        <ele>153</ele>
        <time>2016-05-07T07:30:55Z</time>
      </trkpt>
      <trkpt lat="43.61332" lon="1.20093">
        <ele>153</ele>
        <time>2016-05-07T07:31:00Z</time>
      </trkpt>
      <trkpt lat="43.61335" lon="1.20101">
        <ele>153</ele>
        <time>2016-05-07T07:31:04Z</time>
      </trkpt>
      <trkpt lat="43.61336" lon="1.20107">
        <ele>153</ele>
        <time>2016-05-07T07:31:07Z</time>
      </trkpt>
      <trkpt lat="43.61337" lon="1.20114">
        <ele>152</ele>
        <time>2016-05-07T07:31:11Z</time>
      </trkpt>
      <trkpt lat="43.61338" lon="1.20118">
        <ele>152</ele>
        <time>2016-05-07T07:31:14Z</time>
      </trkpt>
      <trkpt lat="43.61342" lon="1.20126">
        <ele>152</ele>
        <time>2016-05-07T07:31:17Z</time>
      </trkpt>
      <trkpt lat="43.61346" lon="1.20133">
        <ele>151</ele>
        <time>2016-05-07T07:31:21Z</time>
      </trkpt>
      <trkpt lat="43.61348" lon="1.20134">
        <ele>151</ele>
        <time>2016-05-07T07:31:22Z</time>
      </trkpt>
      <trkpt lat="43.61348" lon="1.20137">
        <ele>150</ele>
        <time>2016-05-07T07:31:24Z</time>
      </trkpt>
      <trkpt lat="43.61348" lon="1.20142">
        <ele>150</ele>
        <time>2016-05-07T07:31:27Z</time>
      </trkpt>
      <trkpt lat="43.6135" lon="1.20147">
        <ele>150</ele>
        <time>2016-05-07T07:31:29Z</time>
      </trkpt>
      <trkpt lat="43.61352" lon="1.20153">
        <ele>149</ele>
        <time>2016-05-07T07:31:32Z</time>
      </trkpt>
      <trkpt lat="43.61354" lon="1.2016">
        <ele>149</ele>
        <time>2016-05-07T07:31:36Z</time>
      </trkpt>
      <trkpt lat="43.61353" lon="1.20166">
        <ele>149</ele>
        <time>2016-05-07T07:31:39Z</time>
      </trkpt>
      <trkpt lat="43.61353" lon="1.20169">
        <ele>148</ele>
        <time>2016-05-07T07:31:41Z</time>
      </trkpt>
      <trkpt lat="43.61352" lon="1.20175">
        <ele>148</ele>
        <time>2016-05-07T07:31:45Z</time>
      </trkpt>
      <trkpt lat="43.61352" lon="1.20179">
        <ele>148</ele>
        <time>2016-05-07T07:31:47Z</time>
      </trkpt>
      <trkpt lat="43.61352" lon="1.20187">
        <ele>147</ele>
        <time>2016-05-07T07:31:51Z</time>
      </trkpt>
      <trkpt lat="43.6135" lon="1.20192">
        <ele>147</ele>
        <time>2016-05-07T07:31:54Z</time>
      </trkpt>
      <trkpt lat="43.61349" lon="1.20193">
        <ele>147</ele>
        <time>2016-05-07T07:31:55Z</time>
      </trkpt>
      <trkpt lat="43.61347" lon="1.20199">
        <ele>147</ele>
        <time>2016-05-07T07:31:58Z</time>
      </trkpt>
      <trkpt lat="43.61346" lon="1.2021">
        <ele>147</ele>
        <time>2016-05-07T07:32:02Z</time>
      </trkpt>
      <trkpt lat="43.61344" lon="1.20217">
        <ele>146</ele>
        <time>2016-05-07T07:32:05Z</time>
      </trkpt>
      <trkpt lat="43.61342" lon="1.20222">
        <ele>146</ele>
        <time>2016-05-07T07:32:07Z</time>
      </trkpt>
      <trkpt lat="43.61338" lon="1.20226">
        <ele>146</ele>
        <time>2016-05-07T07:32:11Z</time>
      </trkpt>
      <trkpt lat="43.61336" lon="1.20229">
        <ele>146</ele>
        <time>2016-05-07T07:32:13Z</time>
      </trkpt>
      <trkpt lat="43.61335" lon="1.2023">
        <ele>146</ele>
        <time>2016-05-07T07:32:14Z</time>
      </trkpt>
      <trkpt lat="43.61335" lon="1.20234">
        <ele>146</ele>
        <time>2016-05-07T07:32:15Z</time>
      </trkpt>
      <trkpt lat="43.61334" lon="1.20237">
        <ele>146</ele>
        <time>2016-05-07T07:32:17Z</time>
      </trkpt>
      <trkpt lat="43.61333" lon="1.20238">
        <ele>146</ele>
        <time>2016-05-07T07:32:18Z</time>
      </trkpt>
      <trkpt lat="43.61331" lon="1.2024">
        <ele>145</ele>
        <time>2016-05-07T07:32:20Z</time>
      </trkpt>
      <trkpt lat="43.61327" lon="1.20242">
        <ele>145</ele>
        <time>2016-05-07T07:32:22Z</time>
      </trkpt>
      <trkpt lat="43.61326" lon="1.20248">
        <ele>145</ele>
        <time>2016-05-07T07:32:25Z</time>
      </trkpt>
      <trkpt lat="43.61324" lon="1.20251">
        <ele>145</ele>
        <time>2016-05-07T07:32:27Z</time>
      </trkpt>
      <trkpt lat="43.61321" lon="1.20256">
        <ele>145</ele>
        <time>2016-05-07T07:32:30Z</time>
      </trkpt>
      <trkpt lat="43.61319" lon="1.20258">
        <ele>145</ele>
        <time>2016-05-07T07:32:31Z</time>
      </trkpt>
      <trkpt lat="43.61316" lon="1.2026">
        <ele>145</ele>
        <time>2016-05-07T07:32:33Z</time>
      </trkpt>
      <trkpt lat="43.61315" lon="1.2026">
        <ele>145</ele>
        <time>2016-05-07T07:32:34Z</time>
      </trkpt>
      <trkpt lat="43.61311" lon="1.20261">
        <ele>145</ele>
        <time>2016-05-07T07:32:36Z</time>
      </trkpt>
      <trkpt lat="43.6131" lon="1.20262">
        <ele>145</ele>
        <time>2016-05-07T07:32:37Z</time>
      </trkpt>
      <trkpt lat="43.61307" lon="1.20265">
        <ele>145</ele>
        <time>2016-05-07T07:32:39Z</time>
      </trkpt>
      <trkpt lat="43.61305" lon="1.20266">
        <ele>145</ele>
        <time>2016-05-07T07:32:40Z</time>
      </trkpt>
      <trkpt lat="43.61303" lon="1.20268">
        <ele>145</ele>
        <time>2016-05-07T07:32:42Z</time>
      </trkpt>
      <trkpt lat="43.61302" lon="1.20271">
        <ele>145</ele>
        <time>2016-05-07T07:32:44Z</time>
      </trkpt>
      <trkpt lat="43.613" lon="1.20275">
        <ele>145</ele>
        <time>2016-05-07T07:32:46Z</time>
      </trkpt>
      <trkpt lat="43.61299" lon="1.20276">
        <ele>145</ele>
        <time>2016-05-07T07:32:47Z</time>
      </trkpt>
      <trkpt lat="43.61298" lon="1.20279">
        <ele>145</ele>
        <time>2016-05-07T07:32:49Z</time>
      </trkpt>
      <trkpt lat="43.61297" lon="1.2028">
        <ele>145</ele>
        <time>2016-05-07T07:32:50Z</time>
      </trkpt>
      <trkpt lat="43.61295" lon="1.20284">
        <ele>145</ele>
        <time>2016-05-07T07:32:52Z</time>
      </trkpt>
      <trkpt lat="43.61292" lon="1.20287">
        <ele>145</ele>
        <time>2016-05-07T07:32:54Z</time>
      </trkpt>
      <trkpt lat="43.61292" lon="1.20289">
        <ele>145</ele>
        <time>2016-05-07T07:32:55Z</time>
      </trkpt>
      <trkpt lat="43.61292" lon="1.20292">
        <ele>145</ele>
        <time>2016-05-07T07:32:57Z</time>
      </trkpt>
      <trkpt lat="43.61292" lon="1.20294">
        <ele>145</ele>
        <time>2016-05-07T07:32:58Z</time>
      </trkpt>
      <trkpt lat="43.61291" lon="1.20296">
        <ele>145</ele>
        <time>2016-05-07T07:32:59Z</time>
      </trkpt>
      <trkpt lat="43.61287" lon="1.20299">
        <ele>145</ele>
        <time>2016-05-07T07:33:01Z</time>
      </trkpt>
      <trkpt lat="43.61286" lon="1.20301">
        <ele>145</ele>
        <time>2016-05-07T07:33:03Z</time>
      </trkpt>
      <trkpt lat="43.61285" lon="1.20304">
        <ele>145</ele>
        <time>2016-05-07T07:33:05Z</time>
      </trkpt>
      <trkpt lat="43.61285" lon="1.20306">
        <ele>145</ele>
        <time>2016-05-07T07:33:06Z</time>
      </trkpt>
      <trkpt lat="43.61283" lon="1.20308">
        <ele>145</ele>
        <time>2016-05-07T07:33:08Z</time>
      </trkpt>
      <trkpt lat="43.61281" lon="1.20309">
        <ele>145</ele>
        <time>2016-05-07T07:33:09Z</time>
      </trkpt>
      <trkpt lat="43.61278" lon="1.20312">
        <ele>145</ele>
        <time>2016-05-07T07:33:11Z</time>
      </trkpt>
      <trkpt lat="43.61276" lon="1.20314">
        <ele>145</ele>
        <time>2016-05-07T07:33:13Z</time>
      </trkpt>
      <trkpt lat="43.61276" lon="1.20315">
        <ele>145</ele>
        <time>2016-05-07T07:33:14Z</time>
      </trkpt>
      <trkpt lat="43.61275" lon="1.20316">
        <ele>145</ele>
        <time>2016-05-07T07:33:15Z</time>
      </trkpt>
      <trkpt lat="43.61272" lon="1.2032">
        <ele>145</ele>
        <time>2016-05-07T07:33:18Z</time>
      </trkpt>
      <trkpt lat="43.61272" lon="1.20321">
        <ele>145</ele>
        <time>2016-05-07T07:33:19Z</time>
      </trkpt>
      <trkpt lat="43.61271" lon="1.20323">
        <ele>145</ele>
        <time>2016-05-07T07:33:20Z</time>
      </trkpt>
      <trkpt lat="43.6127" lon="1.20325">
        <ele>145</ele>
        <time>2016-05-07T07:33:22Z</time>
      </trkpt>
      <trkpt lat="43.61269" lon="1.20326">
        <ele>145</ele>
        <time>2016-05-07T07:33:23Z</time>
      </trkpt>
      <trkpt lat="43.61269" lon="1.20328">
        <ele>145</ele>
        <time>2016-05-07T07:33:24Z</time>
      </trkpt>
      <trkpt lat="43.61268" lon="1.20332">
        <ele>145</ele>
        <time>2016-05-07T07:33:26Z</time>
      </trkpt>
      <trkpt lat="43.61265" lon="1.20334">
        <ele>145</ele>
        <time>2016-05-07T07:33:28Z</time>
      </trkpt>
      <trkpt lat="43.61261" lon="1.20337">
        <ele>145</ele>
        <time>2016-05-07T07:33:31Z</time>
      </trkpt>
      <trkpt lat="43.61261" lon="1.20338">
        <ele>145</ele>
        <time>2016-05-07T07:33:32Z</time>
      </trkpt>
      <trkpt lat="43.61261" lon="1.20342">
        <ele>145</ele>
        <time>2016-05-07T07:33:34Z</time>
      </trkpt>
      <trkpt lat="43.61259" lon="1.20344">
        <ele>145</ele>
        <time>2016-05-07T07:33:36Z</time>
      </trkpt>
      <trkpt lat="43.61257" lon="1.20346">
        <ele>145</ele>
        <time>2016-05-07T07:33:38Z</time>
      </trkpt>
      <trkpt lat="43.61255" lon="1.20347">
        <ele>145</ele>
        <time>2016-05-07T07:33:39Z</time>
      </trkpt>
      <trkpt lat="43.61252" lon="1.2035">
        <ele>145</ele>
        <time>2016-05-07T07:33:41Z</time>
      </trkpt>
      <trkpt lat="43.61246" lon="1.20353">
        <ele>145</ele>
        <time>2016-05-07T07:33:44Z</time>
      </trkpt>
      <trkpt lat="43.61244" lon="1.20354">
        <ele>145</ele>
        <time>2016-05-07T07:33:45Z</time>
      </trkpt>
      <trkpt lat="43.61241" lon="1.20357">
        <ele>145</ele>
        <time>2016-05-07T07:33:48Z</time>
      </trkpt>
      <trkpt lat="43.61239" lon="1.20358">
        <ele>145</ele>
        <time>2016-05-07T07:33:51Z</time>
      </trkpt>
      <trkpt lat="43.61237" lon="1.20359">
        <ele>146</ele>
        <time>2016-05-07T07:33:52Z</time>
      </trkpt>
      <trkpt lat="43.61236" lon="1.20361">
        <ele>146</ele>
        <time>2016-05-07T07:33:53Z</time>
      </trkpt>
      <trkpt lat="43.61235" lon="1.20363">
        <ele>146</ele>
        <time>2016-05-07T07:33:55Z</time>
      </trkpt>
      <trkpt lat="43.61234" lon="1.20364">
        <ele>146</ele>
        <time>2016-05-07T07:33:56Z</time>
      </trkpt>
      <trkpt lat="43.61232" lon="1.20367">
        <ele>146</ele>
        <time>2016-05-07T07:33:57Z</time>
      </trkpt>
      <trkpt lat="43.6123" lon="1.20368">
        <ele>146</ele>
        <time>2016-05-07T07:33:59Z</time>
      </trkpt>
      <trkpt lat="43.61229" lon="1.20369">
        <ele>146</ele>
        <time>2016-05-07T07:34:00Z</time>
      </trkpt>
      <trkpt lat="43.61228" lon="1.2037">
        <ele>146</ele>
        <time>2016-05-07T07:34:01Z</time>
      </trkpt>
      <trkpt lat="43.61227" lon="1.20372">
        <ele>146</ele>
        <time>2016-05-07T07:34:02Z</time>
      </trkpt>
      <trkpt lat="43.61225" lon="1.20374">
        <ele>146</ele>
        <time>2016-05-07T07:34:04Z</time>
      </trkpt>
      <trkpt lat="43.61224" lon="1.20375">
        <ele>146</ele>
        <time>2016-05-07T07:34:05Z</time>
      </trkpt>
      <trkpt lat="43.61223" lon="1.20377">
        <ele>146</ele>
        <time>2016-05-07T07:34:06Z</time>
      </trkpt>
      <trkpt lat="43.61222" lon="1.20379">
        <ele>146</ele>
        <time>2016-05-07T07:34:08Z</time>
      </trkpt>
      <trkpt lat="43.6122" lon="1.2038">
        <ele>146</ele>
        <time>2016-05-07T07:34:09Z</time>
      </trkpt>
      <trkpt lat="43.61218" lon="1.20384">
        <ele>146</ele>
        <time>2016-05-07T07:34:11Z</time>
      </trkpt>
      <trkpt lat="43.61214" lon="1.20391">
        <ele>146</ele>
        <time>2016-05-07T07:34:14Z</time>
      </trkpt>
      <trkpt lat="43.6121" lon="1.20393">
        <ele>146</ele>
        <time>2016-05-07T07:34:15Z</time>
      </trkpt>
      <trkpt lat="43.61207" lon="1.20396">
        <ele>146</ele>
        <time>2016-05-07T07:34:17Z</time>
      </trkpt>
      <trkpt lat="43.61205" lon="1.20399">
        <ele>146</ele>
        <time>2016-05-07T07:34:19Z</time>
      </trkpt>
      <trkpt lat="43.61204" lon="1.20399">
        <ele>146</ele>
        <time>2016-05-07T07:34:20Z</time>
      </trkpt>
      <trkpt lat="43.61203" lon="1.20402">
        <ele>146</ele>
        <time>2016-05-07T07:34:22Z</time>
      </trkpt>
      <trkpt lat="43.612" lon="1.20406">
        <ele>146</ele>
        <time>2016-05-07T07:34:25Z</time>
      </trkpt>
      <trkpt lat="43.61199" lon="1.20408">
        <ele>146</ele>
        <time>2016-05-07T07:34:26Z</time>
      </trkpt>
      <trkpt lat="43.61197" lon="1.2041">
        <ele>146</ele>
        <time>2016-05-07T07:34:28Z</time>
      </trkpt>
      <trkpt lat="43.61194" lon="1.20413">
        <ele>147</ele>
        <time>2016-05-07T07:34:30Z</time>
      </trkpt>
      <trkpt lat="43.6119" lon="1.20414">
        <ele>147</ele>
        <time>2016-05-07T07:34:32Z</time>
      </trkpt>
      <trkpt lat="43.61187" lon="1.20416">
        <ele>147</ele>
        <time>2016-05-07T07:34:34Z</time>
      </trkpt>
      <trkpt lat="43.61187" lon="1.20419">
        <ele>147</ele>
        <time>2016-05-07T07:34:36Z</time>
      </trkpt>
      <trkpt lat="43.61185" lon="1.20421">
        <ele>147</ele>
        <time>2016-05-07T07:34:38Z</time>
      </trkpt>
      <trkpt lat="43.61184" lon="1.20424">
        <ele>147</ele>
        <time>2016-05-07T07:34:40Z</time>
      </trkpt>
      <trkpt lat="43.61183" lon="1.20429">
        <ele>147</ele>
        <time>2016-05-07T07:34:42Z</time>
      </trkpt>
      <trkpt lat="43.61181" lon="1.20434">
        <ele>147</ele>
        <time>2016-05-07T07:34:44Z</time>
      </trkpt>
      <trkpt lat="43.61179" lon="1.2044">
        <ele>147</ele>
        <time>2016-05-07T07:34:48Z</time>
      </trkpt>
      <trkpt lat="43.61178" lon="1.20444">
        <ele>146</ele>
        <time>2016-05-07T07:34:50Z</time>
      </trkpt>
      <trkpt lat="43.61177" lon="1.20446">
        <ele>146</ele>
        <time>2016-05-07T07:34:51Z</time>
      </trkpt>
      <trkpt lat="43.61174" lon="1.20451">
        <ele>146</ele>
        <time>2016-05-07T07:34:53Z</time>
      </trkpt>
      <trkpt lat="43.61173" lon="1.20453">
        <ele>147</ele>
        <time>2016-05-07T07:34:54Z</time>
      </trkpt>
      <trkpt lat="43.61172" lon="1.20455">
        <ele>147</ele>
        <time>2016-05-07T07:34:56Z</time>
      </trkpt>
      <trkpt lat="43.61171" lon="1.20456">
        <ele>147</ele>
        <time>2016-05-07T07:34:57Z</time>
      </trkpt>
      <trkpt lat="43.6117" lon="1.20457">
        <ele>147</ele>
        <time>2016-05-07T07:34:58Z</time>
      </trkpt>
      <trkpt lat="43.61165" lon="1.2046">
        <ele>147</ele>
        <time>2016-05-07T07:35:01Z</time>
      </trkpt>
      <trkpt lat="43.61163" lon="1.20461">
        <ele>147</ele>
        <time>2016-05-07T07:35:02Z</time>
      </trkpt>
      <trkpt lat="43.61159" lon="1.20465">
        <ele>147</ele>
        <time>2016-05-07T07:35:06Z</time>
      </trkpt>
      <trkpt lat="43.61158" lon="1.20465">
        <ele>147</ele>
        <time>2016-05-07T07:35:07Z</time>
      </trkpt>
      <trkpt lat="43.61155" lon="1.2047">
        <ele>147</ele>
        <time>2016-05-07T07:35:10Z</time>
      </trkpt>
      <trkpt lat="43.61153" lon="1.20473">
        <ele>147</ele>
        <time>2016-05-07T07:35:12Z</time>
      </trkpt>
      <trkpt lat="43.61151" lon="1.20476">
        <ele>148</ele>
        <time>2016-05-07T07:35:15Z</time>
      </trkpt>
      <trkpt lat="43.61145" lon="1.20478">
        <ele>148</ele>
        <time>2016-05-07T07:35:19Z</time>
      </trkpt>
      <trkpt lat="43.61143" lon="1.20477">
        <ele>148</ele>
        <time>2016-05-07T07:35:20Z</time>
      </trkpt>
      <trkpt lat="43.6114" lon="1.20479">
        <ele>149</ele>
        <time>2016-05-07T07:35:24Z</time>
      </trkpt>
      <trkpt lat="43.61138" lon="1.20479">
        <ele>149</ele>
        <time>2016-05-07T07:35:26Z</time>
      </trkpt>
      <trkpt lat="43.61137" lon="1.20478">
        <ele>149</ele>
        <time>2016-05-07T07:35:28Z</time>
      </trkpt>
      <trkpt lat="43.61132" lon="1.20479">
        <ele>149</ele>
        <time>2016-05-07T07:35:30Z</time>
      </trkpt>
      <trkpt lat="43.61129" lon="1.20479">
        <ele>150</ele>
        <time>2016-05-07T07:35:32Z</time>
      </trkpt>
      <trkpt lat="43.61129" lon="1.2048">
        <ele>150</ele>
        <time>2016-05-07T07:35:33Z</time>
      </trkpt>
      <trkpt lat="43.61128" lon="1.20479">
        <ele>150</ele>
        <time>2016-05-07T07:35:34Z</time>
      </trkpt>
      <trkpt lat="43.61125" lon="1.2048">
        <ele>150</ele>
        <time>2016-05-07T07:35:36Z</time>
      </trkpt>
      <trkpt lat="43.61121" lon="1.20481">
        <ele>150</ele>
        <time>2016-05-07T07:35:38Z</time>
      </trkpt>
      <trkpt lat="43.61119" lon="1.2048">
        <ele>150</ele>
        <time>2016-05-07T07:35:39Z</time>
      </trkpt>
      <trkpt lat="43.61114" lon="1.20482">
        <ele>150</ele>
        <time>2016-05-07T07:35:42Z</time>
      </trkpt>
      <trkpt lat="43.61111" lon="1.20481">
        <ele>150</ele>
        <time>2016-05-07T07:35:43Z</time>
      </trkpt>
      <trkpt lat="43.6111" lon="1.20481">
        <ele>150</ele>
        <time>2016-05-07T07:35:45Z</time>
      </trkpt>
      <trkpt lat="43.61104" lon="1.20481">
        <ele>150</ele>
        <time>2016-05-07T07:35:48Z</time>
      </trkpt>
      <trkpt lat="43.611" lon="1.20482">
        <ele>150</ele>
        <time>2016-05-07T07:35:51Z</time>
      </trkpt>
      <trkpt lat="43.61097" lon="1.2048">
        <ele>150</ele>
        <time>2016-05-07T07:35:54Z</time>
      </trkpt>
      <trkpt lat="43.61097" lon="1.2048">
        <ele>150</ele>
        <time>2016-05-07T07:35:55Z</time>
      </trkpt>
      <trkpt lat="43.61095" lon="1.2048">
        <ele>150</ele>
        <time>2016-05-07T07:35:56Z</time>
      </trkpt>
      <trkpt lat="43.61094" lon="1.20479">
        <ele>150</ele>
        <time>2016-05-07T07:35:58Z</time>
      </trkpt>
      <trkpt lat="43.61092" lon="1.2048">
        <ele>150</ele>
        <time>2016-05-07T07:35:59Z</time>
      </trkpt>
      <trkpt lat="43.61091" lon="1.20479">
        <ele>150</ele>
        <time>2016-05-07T07:36:00Z</time>
      </trkpt>
      <trkpt lat="43.61085" lon="1.20476">
        <ele>150</ele>
        <time>2016-05-07T07:36:02Z</time>
      </trkpt>
      <trkpt lat="43.61081" lon="1.20476">
        <ele>151</ele>
        <time>2016-05-07T07:36:04Z</time>
      </trkpt>
      <trkpt lat="43.61079" lon="1.20474">
        <ele>151</ele>
        <time>2016-05-07T07:36:05Z</time>
      </trkpt>
      <trkpt lat="43.61079" lon="1.20473">
        <ele>151</ele>
        <time>2016-05-07T07:36:06Z</time>
      </trkpt>
      <trkpt lat="43.61076" lon="1.20472">
        <ele>151</ele>
        <time>2016-05-07T07:36:08Z</time>
      </trkpt>
      <trkpt lat="43.61075" lon="1.20472">
        <ele>151</ele>
        <time>2016-05-07T07:36:09Z</time>
      </trkpt>
      <trkpt lat="43.61072" lon="1.20471">
        <ele>151</ele>
        <time>2016-05-07T07:36:11Z</time>
      </trkpt>
      <trkpt lat="43.61069" lon="1.20468">
        <ele>151</ele>
        <time>2016-05-07T07:36:13Z</time>
      </trkpt>
      <trkpt lat="43.61069" lon="1.20467">
        <ele>151</ele>
        <time>2016-05-07T07:36:14Z</time>
      </trkpt>
      <trkpt lat="43.61068" lon="1.20467">
        <ele>151</ele>
        <time>2016-05-07T07:36:15Z</time>
      </trkpt>
      <trkpt lat="43.61067" lon="1.20465">
        <ele>151</ele>
        <time>2016-05-07T07:36:16Z</time>
      </trkpt>
      <trkpt lat="43.61062" lon="1.20462">
        <ele>151</ele>
        <time>2016-05-07T07:36:18Z</time>
      </trkpt>
      <trkpt lat="43.61061" lon="1.20461">
        <ele>152</ele>
        <time>2016-05-07T07:36:19Z</time>
      </trkpt>
      <trkpt lat="43.61059" lon="1.2046">
        <ele>152</ele>
        <time>2016-05-07T07:36:20Z</time>
      </trkpt>
      <trkpt lat="43.61057" lon="1.20457">
        <ele>152</ele>
        <time>2016-05-07T07:36:22Z</time>
      </trkpt>
      <trkpt lat="43.61055" lon="1.20457">
        <ele>152</ele>
        <time>2016-05-07T07:36:23Z</time>
      </trkpt>
      <trkpt lat="43.61054" lon="1.20457">
        <ele>152</ele>
        <time>2016-05-07T07:36:24Z</time>
      </trkpt>
      <trkpt lat="43.61055" lon="1.20458">
        <ele>152</ele>
        <time>2016-05-07T07:36:27Z</time>
      </trkpt>
      <trkpt lat="43.61055" lon="1.20458">
        <ele>152</ele>
        <time>2016-05-07T07:36:28Z</time>
      </trkpt>
      <trkpt lat="43.61051" lon="1.20457">
        <ele>152</ele>
        <time>2016-05-07T07:36:33Z</time>
      </trkpt>
      <trkpt lat="43.61045" lon="1.20455">
        <ele>152</ele>
        <time>2016-05-07T07:36:35Z</time>
      </trkpt>
      <trkpt lat="43.61038" lon="1.20452">
        <ele>152</ele>
        <time>2016-05-07T07:36:39Z</time>
      </trkpt>
      <trkpt lat="43.61037" lon="1.2045">
        <ele>153</ele>
        <time>2016-05-07T07:36:41Z</time>
      </trkpt>
      <trkpt lat="43.61035" lon="1.2045">
        <ele>153</ele>
        <time>2016-05-07T07:36:43Z</time>
      </trkpt>
      <trkpt lat="43.61034" lon="1.2045">
        <ele>153</ele>
        <time>2016-05-07T07:36:44Z</time>
      </trkpt>
      <trkpt lat="43.61033" lon="1.2045">
        <ele>153</ele>
        <time>2016-05-07T07:36:46Z</time>
      </trkpt>
      <trkpt lat="43.6103" lon="1.20448">
        <ele>153</ele>
        <time>2016-05-07T07:36:48Z</time>
      </trkpt>
      <trkpt lat="43.61022" lon="1.20446">
        <ele>153</ele>
        <time>2016-05-07T07:36:53Z</time>
      </trkpt>
      <trkpt lat="43.6102" lon="1.20443">
        <ele>153</ele>
        <time>2016-05-07T07:36:55Z</time>
      </trkpt>
      <trkpt lat="43.61015" lon="1.20441">
        <ele>153</ele>
        <time>2016-05-07T07:36:57Z</time>
      </trkpt>
      <trkpt lat="43.61011" lon="1.2044">
        <ele>153</ele>
        <time>2016-05-07T07:37:00Z</time>
      </trkpt>
      <trkpt lat="43.6101" lon="1.2044">
        <ele>153</ele>
        <time>2016-05-07T07:37:01Z</time>
      </trkpt>
      <trkpt lat="43.61008" lon="1.2044">
        <ele>153</ele>
        <time>2016-05-07T07:37:02Z</time>
      </trkpt>
      <trkpt lat="43.61004" lon="1.20439">
        <ele>153</ele>
        <time>2016-05-07T07:37:04Z</time>
      </trkpt>
      <trkpt lat="43.61003" lon="1.2044">
        <ele>153</ele>
        <time>2016-05-07T07:37:05Z</time>
      </trkpt>
      <trkpt lat="43.61" lon="1.20437">
        <ele>153</ele>
        <time>2016-05-07T07:37:07Z</time>
      </trkpt>
      <trkpt lat="43.60999" lon="1.20436">
        <ele>153</ele>
        <time>2016-05-07T07:37:08Z</time>
      </trkpt>
      <trkpt lat="43.60996" lon="1.20434">
        <ele>153</ele>
        <time>2016-05-07T07:37:09Z</time>
      </trkpt>
      <trkpt lat="43.60995" lon="1.20434">
        <ele>153</ele>
        <time>2016-05-07T07:37:10Z</time>
      </trkpt>
      <trkpt lat="43.60991" lon="1.20434">
        <ele>153</ele>
        <time>2016-05-07T07:37:12Z</time>
      </trkpt>
      <trkpt lat="43.60988" lon="1.20432">
        <ele>153</ele>
        <time>2016-05-07T07:37:14Z</time>
      </trkpt>
      <trkpt lat="43.60984" lon="1.2043">
        <ele>153</ele>
        <time>2016-05-07T07:37:16Z</time>
      </trkpt>
      <trkpt lat="43.60984" lon="1.20429">
        <ele>153</ele>
        <time>2016-05-07T07:37:18Z</time>
      </trkpt>
      <trkpt lat="43.60985" lon="1.20429">
        <ele>153</ele>
        <time>2016-05-07T07:37:19Z</time>
      </trkpt>
      <trkpt lat="43.60983" lon="1.20426">
        <ele>153</ele>
        <time>2016-05-07T07:37:21Z</time>
      </trkpt>
      <trkpt lat="43.60981" lon="1.20425">
        <ele>153</ele>
        <time>2016-05-07T07:37:23Z</time>
      </trkpt>
      <trkpt lat="43.6098" lon="1.20424">
        <ele>153</ele>
        <time>2016-05-07T07:37:24Z</time>
      </trkpt>
      <trkpt lat="43.60978" lon="1.20423">
        <ele>154</ele>
        <time>2016-05-07T07:37:25Z</time>
      </trkpt>
      <trkpt lat="43.60976" lon="1.2042">
        <ele>154</ele>
        <time>2016-05-07T07:37:27Z</time>
      </trkpt>
      <trkpt lat="43.60975" lon="1.20418">
        <ele>154</ele>
        <time>2016-05-07T07:37:28Z</time>
      </trkpt>
      <trkpt lat="43.60974" lon="1.20417">
        <ele>154</ele>
        <time>2016-05-07T07:37:29Z</time>
      </trkpt>
      <trkpt lat="43.60972" lon="1.20415">
        <ele>154</ele>
        <time>2016-05-07T07:37:31Z</time>
      </trkpt>
      <trkpt lat="43.60971" lon="1.20415">
        <ele>154</ele>
        <time>2016-05-07T07:37:32Z</time>
      </trkpt>
      <trkpt lat="43.60968" lon="1.20414">
        <ele>154</ele>
        <time>2016-05-07T07:37:34Z</time>
      </trkpt>
      <trkpt lat="43.60967" lon="1.20414">
        <ele>154</ele>
        <time>2016-05-07T07:37:35Z</time>
      </trkpt>
      <trkpt lat="43.60967" lon="1.20415">
        <ele>154</ele>
        <time>2016-05-07T07:37:36Z</time>
      </trkpt>
      <trkpt lat="43.60965" lon="1.20415">
        <ele>154</ele>
        <time>2016-05-07T07:37:37Z</time>
      </trkpt>
      <trkpt lat="43.60963" lon="1.20417">
        <ele>154</ele>
        <time>2016-05-07T07:37:39Z</time>
      </trkpt>
      <trkpt lat="43.6096" lon="1.20417">
        <ele>154</ele>
        <time>2016-05-07T07:37:40Z</time>
      </trkpt>
      <trkpt lat="43.60957" lon="1.20418">
        <ele>154</ele>
        <time>2016-05-07T07:37:41Z</time>
      </trkpt>
      <trkpt lat="43.60954" lon="1.20418">
        <ele>154</ele>
        <time>2016-05-07T07:37:43Z</time>
      </trkpt>
      <trkpt lat="43.60951" lon="1.20417">
        <ele>154</ele>
        <time>2016-05-07T07:37:44Z</time>
      </trkpt>
      <trkpt lat="43.6095" lon="1.20417">
        <ele>154</ele>
        <time>2016-05-07T07:37:45Z</time>
      </trkpt>
      <trkpt lat="43.60948" lon="1.20417">
        <ele>154</ele>
        <time>2016-05-07T07:37:46Z</time>
      </trkpt>
      <trkpt lat="43.60947" lon="1.20417">
        <ele>154</ele>
        <time>2016-05-07T07:37:48Z</time>
      </trkpt>
      <trkpt lat="43.60947" lon="1.20416">
        <ele>154</ele>
        <time>2016-05-07T07:37:49Z</time>
      </trkpt>
      <trkpt lat="43.60944" lon="1.20414">
        <ele>154</ele>
        <time>2016-05-07T07:37:51Z</time>
      </trkpt>
      <trkpt lat="43.60943" lon="1.20414">
        <ele>154</ele>
        <time>2016-05-07T07:37:53Z</time>
      </trkpt>
      <trkpt lat="43.60943" lon="1.20413">
        <ele>154</ele>
        <time>2016-05-07T07:37:54Z</time>
      </trkpt>
      <trkpt lat="43.60941" lon="1.20413">
        <ele>155</ele>
        <time>2016-05-07T07:37:56Z</time>
      </trkpt>
      <trkpt lat="43.60939" lon="1.20413">
        <ele>155</ele>
        <time>2016-05-07T07:37:58Z</time>
      </trkpt>
      <trkpt lat="43.60937" lon="1.20414">
        <ele>155</ele>
        <time>2016-05-07T07:38:00Z</time>
      </trkpt>
      <trkpt lat="43.60932" lon="1.20415">
        <ele>155</ele>
        <time>2016-05-07T07:38:03Z</time>
      </trkpt>
      <trkpt lat="43.60931" lon="1.20414">
        <ele>155</ele>
        <time>2016-05-07T07:38:04Z</time>
      </trkpt>
      <trkpt lat="43.60928" lon="1.20414">
        <ele>155</ele>
        <time>2016-05-07T07:38:06Z</time>
      </trkpt>
      <trkpt lat="43.60928" lon="1.20414">
        <ele>155</ele>
        <time>2016-05-07T07:38:07Z</time>
      </trkpt>
      <trkpt lat="43.60924" lon="1.20413">
        <ele>156</ele>
        <time>2016-05-07T07:38:09Z</time>
      </trkpt>
      <trkpt lat="43.60922" lon="1.20412">
        <ele>156</ele>
        <time>2016-05-07T07:38:10Z</time>
      </trkpt>
      <trkpt lat="43.60918" lon="1.20411">
        <ele>156</ele>
        <time>2016-05-07T07:38:11Z</time>
      </trkpt>
      <trkpt lat="43.60911" lon="1.20408">
        <ele>156</ele>
        <time>2016-05-07T07:38:14Z</time>
      </trkpt>
      <trkpt lat="43.6091" lon="1.20408">
        <ele>156</ele>
        <time>2016-05-07T07:38:15Z</time>
      </trkpt>
      <trkpt lat="43.6091" lon="1.20408">
        <ele>157</ele>
        <time>2016-05-07T07:38:16Z</time>
      </trkpt>
      <trkpt lat="43.60906" lon="1.20408">
        <ele>157</ele>
        <time>2016-05-07T07:38:18Z</time>
      </trkpt>
      <trkpt lat="43.60905" lon="1.20407">
        <ele>157</ele>
        <time>2016-05-07T07:38:19Z</time>
      </trkpt>
      <trkpt lat="43.60906" lon="1.20408">
        <ele>157</ele>
        <time>2016-05-07T07:38:20Z</time>
      </trkpt>
      <trkpt lat="43.60903" lon="1.20409">
        <ele>157</ele>
        <time>2016-05-07T07:38:22Z</time>
      </trkpt>
      <trkpt lat="43.60902" lon="1.2041">
        <ele>157</ele>
        <time>2016-05-07T07:38:24Z</time>
      </trkpt>
      <trkpt lat="43.60901" lon="1.2041">
        <ele>157</ele>
        <time>2016-05-07T07:38:25Z</time>
      </trkpt>
      <trkpt lat="43.60895" lon="1.20408">
        <ele>157</ele>
        <time>2016-05-07T07:38:27Z</time>
      </trkpt>
      <trkpt lat="43.60893" lon="1.20408">
        <ele>157</ele>
        <time>2016-05-07T07:38:28Z</time>
      </trkpt>
      <trkpt lat="43.60891" lon="1.20408">
        <ele>157</ele>
        <time>2016-05-07T07:38:30Z</time>
      </trkpt>
      <trkpt lat="43.60891" lon="1.20408">
        <ele>157</ele>
        <time>2016-05-07T07:38:31Z</time>
      </trkpt>
      <trkpt lat="43.60888" lon="1.20408">
        <ele>157</ele>
        <time>2016-05-07T07:38:33Z</time>
      </trkpt>
      <trkpt lat="43.60884" lon="1.20411">
        <ele>157</ele>
        <time>2016-05-07T07:38:37Z</time>
      </trkpt>
      <trkpt lat="43.60883" lon="1.20411">
        <ele>157</ele>
        <time>2016-05-07T07:38:38Z</time>
      </trkpt>
      <trkpt lat="43.60881" lon="1.20411">
        <ele>157</ele>
        <time>2016-05-07T07:38:40Z</time>
      </trkpt>
      <trkpt lat="43.60879" lon="1.20412">
        <ele>157</ele>
        <time>2016-05-07T07:38:42Z</time>
      </trkpt>
      <trkpt lat="43.60877" lon="1.20412">
        <ele>157</ele>
        <time>2016-05-07T07:38:44Z</time>
      </trkpt>
      <trkpt lat="43.60873" lon="1.20412">
        <ele>157</ele>
        <time>2016-05-07T07:38:46Z</time>
      </trkpt>
      <trkpt lat="43.60866" lon="1.20415">
        <ele>157</ele>
        <time>2016-05-07T07:38:50Z</time>
      </trkpt>
      <trkpt lat="43.60863" lon="1.20417">
        <ele>157</ele>
        <time>2016-05-07T07:38:52Z</time>
      </trkpt>
      <trkpt lat="43.60862" lon="1.20418">
        <ele>157</ele>
        <time>2016-05-07T07:38:53Z</time>
      </trkpt>
      <trkpt lat="43.60859" lon="1.20419">
        <ele>157</ele>
        <time>2016-05-07T07:38:54Z</time>
      </trkpt>
      <trkpt lat="43.60857" lon="1.20419">
        <ele>157</ele>
        <time>2016-05-07T07:38:56Z</time>
      </trkpt>
      <trkpt lat="43.60854" lon="1.2042">
        <ele>157</ele>
        <time>2016-05-07T07:38:58Z</time>
      </trkpt>
      <trkpt lat="43.60852" lon="1.20422">
        <ele>157</ele>
        <time>2016-05-07T07:39:00Z</time>
      </trkpt>
      <trkpt lat="43.60848" lon="1.20423">
        <ele>157</ele>
        <time>2016-05-07T07:39:02Z</time>
      </trkpt>
      <trkpt lat="43.60848" lon="1.20425">
        <ele>157</ele>
        <time>2016-05-07T07:39:03Z</time>
      </trkpt>
      <trkpt lat="43.60846" lon="1.20425">
        <ele>157</ele>
        <time>2016-05-07T07:39:04Z</time>
      </trkpt>
      <trkpt lat="43.60844" lon="1.20426">
        <ele>157</ele>
        <time>2016-05-07T07:39:05Z</time>
      </trkpt>
      <trkpt lat="43.60843" lon="1.20428">
        <ele>157</ele>
        <time>2016-05-07T07:39:07Z</time>
      </trkpt>
      <trkpt lat="43.60843" lon="1.20429">
        <ele>157</ele>
        <time>2016-05-07T07:39:08Z</time>
      </trkpt>
      <trkpt lat="43.60841" lon="1.2043">
        <ele>157</ele>
        <time>2016-05-07T07:39:10Z</time>
      </trkpt>
      <trkpt lat="43.6084" lon="1.20432">
        <ele>157</ele>
        <time>2016-05-07T07:39:12Z</time>
      </trkpt>
      <trkpt lat="43.60838" lon="1.20435">
        <ele>157</ele>
        <time>2016-05-07T07:39:14Z</time>
      </trkpt>
      <trkpt lat="43.60835" lon="1.20436">
        <ele>157</ele>
        <time>2016-05-07T07:39:16Z</time>
      </trkpt>
      <trkpt lat="43.60833" lon="1.20438">
        <ele>158</ele>
        <time>2016-05-07T07:39:18Z</time>
      </trkpt>
      <trkpt lat="43.60831" lon="1.20439">
        <ele>158</ele>
        <time>2016-05-07T07:39:19Z</time>
      </trkpt>
      <trkpt lat="43.60827" lon="1.20437">
        <ele>158</ele>
        <time>2016-05-07T07:39:21Z</time>
      </trkpt>
      <trkpt lat="43.60823" lon="1.20437">
        <ele>158</ele>
        <time>2016-05-07T07:39:23Z</time>
      </trkpt>
      <trkpt lat="43.60821" lon="1.20436">
        <ele>158</ele>
        <time>2016-05-07T07:39:24Z</time>
      </trkpt>
      <trkpt lat="43.60817" lon="1.20434">
        <ele>158</ele>
        <time>2016-05-07T07:39:27Z</time>
      </trkpt>
      <trkpt lat="43.60815" lon="1.20433">
        <ele>158</ele>
        <time>2016-05-07T07:39:29Z</time>
      </trkpt>
      <trkpt lat="43.60814" lon="1.20434">
        <ele>158</ele>
        <time>2016-05-07T07:39:30Z</time>
      </trkpt>
      <trkpt lat="43.60809" lon="1.20434">
        <ele>157</ele>
        <time>2016-05-07T07:39:33Z</time>
      </trkpt>
      <trkpt lat="43.60807" lon="1.20432">
        <ele>157</ele>
        <time>2016-05-07T07:39:35Z</time>
      </trkpt>
      <trkpt lat="43.60804" lon="1.20432">
        <ele>157</ele>
        <time>2016-05-07T07:39:37Z</time>
      </trkpt>
      <trkpt lat="43.60799" lon="1.20429">
        <ele>158</ele>
        <time>2016-05-07T07:39:39Z</time>
      </trkpt>
      <trkpt lat="43.60797" lon="1.20429">
        <ele>158</ele>
        <time>2016-05-07T07:39:41Z</time>
      </trkpt>
      <trkpt lat="43.60795" lon="1.20428">
        <ele>158</ele>
        <time>2016-05-07T07:39:43Z</time>
      </trkpt>
      <trkpt lat="43.60792" lon="1.20428">
        <ele>158</ele>
        <time>2016-05-07T07:39:45Z</time>
      </trkpt>
      <trkpt lat="43.60792" lon="1.20428">
        <ele>158</ele>
        <time>2016-05-07T07:39:46Z</time>
      </trkpt>
      <trkpt lat="43.60788" lon="1.20426">
        <ele>158</ele>
        <time>2016-05-07T07:39:48Z</time>
      </trkpt>
      <trkpt lat="43.60786" lon="1.20424">
        <ele>158</ele>
        <time>2016-05-07T07:39:50Z</time>
      </trkpt>
      <trkpt lat="43.60787" lon="1.20422">
        <ele>158</ele>
        <time>2016-05-07T07:39:51Z</time>
      </trkpt>
      <trkpt lat="43.60786" lon="1.20421">
        <ele>158</ele>
        <time>2016-05-07T07:39:52Z</time>
      </trkpt>
      <trkpt lat="43.60781" lon="1.20419">
        <ele>158</ele>
        <time>2016-05-07T07:39:54Z</time>
      </trkpt>
      <trkpt lat="43.6078" lon="1.20419">
        <ele>159</ele>
        <time>2016-05-07T07:39:56Z</time>
      </trkpt>
      <trkpt lat="43.60778" lon="1.20418">
        <ele>159</ele>
        <time>2016-05-07T07:39:58Z</time>
      </trkpt>
      <trkpt lat="43.60776" lon="1.20417">
        <ele>159</ele>
        <time>2016-05-07T07:40:00Z</time>
      </trkpt>
      <trkpt lat="43.60774" lon="1.20415">
        <ele>159</ele>
        <time>2016-05-07T07:40:02Z</time>
      </trkpt>
      <trkpt lat="43.6077" lon="1.20413">
        <ele>159</ele>
        <time>2016-05-07T07:40:04Z</time>
      </trkpt>
      <trkpt lat="43.60766" lon="1.20413">
        <ele>160</ele>
        <time>2016-05-07T07:40:06Z</time>
      </trkpt>
      <trkpt lat="43.60765" lon="1.20414">
        <ele>160</ele>
        <time>2016-05-07T07:40:08Z</time>
      </trkpt>
      <trkpt lat="43.60764" lon="1.20414">
        <ele>160</ele>
        <time>2016-05-07T07:40:10Z</time>
      </trkpt>
      <trkpt lat="43.60763" lon="1.20413">
        <ele>160</ele>
        <time>2016-05-07T07:40:11Z</time>
      </trkpt>
      <trkpt lat="43.6076" lon="1.20412">
        <ele>160</ele>
        <time>2016-05-07T07:40:16Z</time>
      </trkpt>
      <trkpt lat="43.60757" lon="1.2041">
        <ele>161</ele>
        <time>2016-05-07T07:40:18Z</time>
      </trkpt>
      <trkpt lat="43.60755" lon="1.20409">
        <ele>161</ele>
        <time>2016-05-07T07:40:20Z</time>
      </trkpt>
      <trkpt lat="43.60753" lon="1.2041">
        <ele>161</ele>
        <time>2016-05-07T07:40:22Z</time>
      </trkpt>
      <trkpt lat="43.60745" lon="1.20407">
        <ele>161</ele>
        <time>2016-05-07T07:40:25Z</time>
      </trkpt>
      <trkpt lat="43.60743" lon="1.20405">
        <ele>161</ele>
        <time>2016-05-07T07:40:27Z</time>
      </trkpt>
      <trkpt lat="43.60741" lon="1.20405">
        <ele>161</ele>
        <time>2016-05-07T07:40:29Z</time>
      </trkpt>
      <trkpt lat="43.60739" lon="1.20404">
        <ele>161</ele>
        <time>2016-05-07T07:40:31Z</time>
      </trkpt>
      <trkpt lat="43.60738" lon="1.20403">
        <ele>162</ele>
        <time>2016-05-07T07:40:32Z</time>
      </trkpt>
      <trkpt lat="43.60738" lon="1.20401">
        <ele>162</ele>
        <time>2016-05-07T07:40:34Z</time>
      </trkpt>
      <trkpt lat="43.60738" lon="1.204">
        <ele>162</ele>
        <time>2016-05-07T07:40:35Z</time>
      </trkpt>
      <trkpt lat="43.60737" lon="1.20398">
        <ele>162</ele>
        <time>2016-05-07T07:40:37Z</time>
      </trkpt>
      <trkpt lat="43.60736" lon="1.20399">
        <ele>162</ele>
        <time>2016-05-07T07:40:38Z</time>
      </trkpt>
      <trkpt lat="43.60735" lon="1.20399">
        <ele>162</ele>
        <time>2016-05-07T07:40:40Z</time>
      </trkpt>
      <trkpt lat="43.6073" lon="1.20395">
        <ele>162</ele>
        <time>2016-05-07T07:40:41Z</time>
      </trkpt>
      <trkpt lat="43.60728" lon="1.20395">
        <ele>163</ele>
        <time>2016-05-07T07:40:42Z</time>
      </trkpt>
      <trkpt lat="43.60727" lon="1.20394">
        <ele>163</ele>
        <time>2016-05-07T07:40:43Z</time>
      </trkpt>
      <trkpt lat="43.60725" lon="1.2039">
        <ele>163</ele>
        <time>2016-05-07T07:40:45Z</time>
      </trkpt>
      <trkpt lat="43.60723" lon="1.20389">
        <ele>162</ele>
        <time>2016-05-07T07:40:46Z</time>
      </trkpt>
      <trkpt lat="43.6072" lon="1.20387">
        <ele>162</ele>
        <time>2016-05-07T07:40:48Z</time>
      </trkpt>
      <trkpt lat="43.60719" lon="1.20385">
        <ele>162</ele>
        <time>2016-05-07T07:40:49Z</time>
      </trkpt>
      <trkpt lat="43.60716" lon="1.20384">
        <ele>162</ele>
        <time>2016-05-07T07:40:51Z</time>
      </trkpt>
      <trkpt lat="43.60714" lon="1.20384">
        <ele>162</ele>
        <time>2016-05-07T07:40:52Z</time>
      </trkpt>
      <trkpt lat="43.6071" lon="1.20382">
        <ele>162</ele>
        <time>2016-05-07T07:40:54Z</time>
      </trkpt>
      <trkpt lat="43.60708" lon="1.20383">
        <ele>162</ele>
        <time>2016-05-07T07:40:55Z</time>
      </trkpt>
      <trkpt lat="43.60705" lon="1.20379">
        <ele>162</ele>
        <time>2016-05-07T07:40:57Z</time>
      </trkpt>
      <trkpt lat="43.60699" lon="1.20376">
        <ele>162</ele>
        <time>2016-05-07T07:40:59Z</time>
      </trkpt>
      <trkpt lat="43.60697" lon="1.20376">
        <ele>162</ele>
        <time>2016-05-07T07:41:00Z</time>
      </trkpt>
      <trkpt lat="43.60695" lon="1.20374">
        <ele>162</ele>
        <time>2016-05-07T07:41:01Z</time>
      </trkpt>
      <trkpt lat="43.60691" lon="1.20371">
        <ele>162</ele>
        <time>2016-05-07T07:41:03Z</time>
      </trkpt>
      <trkpt lat="43.60687" lon="1.20369">
        <ele>162</ele>
        <time>2016-05-07T07:41:05Z</time>
      </trkpt>
      <trkpt lat="43.60684" lon="1.20367">
        <ele>162</ele>
        <time>2016-05-07T07:41:07Z</time>
      </trkpt>
      <trkpt lat="43.60683" lon="1.20365">
        <ele>162</ele>
        <time>2016-05-07T07:41:09Z</time>
      </trkpt>
      <trkpt lat="43.6068" lon="1.20365">
        <ele>162</ele>
        <time>2016-05-07T07:41:11Z</time>
      </trkpt>
      <trkpt lat="43.60678" lon="1.20365">
        <ele>162</ele>
        <time>2016-05-07T07:41:13Z</time>
      </trkpt>
      <trkpt lat="43.60676" lon="1.20365">
        <ele>162</ele>
        <time>2016-05-07T07:41:15Z</time>
      </trkpt>
      <trkpt lat="43.60674" lon="1.20363">
        <ele>162</ele>
        <time>2016-05-07T07:41:17Z</time>
      </trkpt>
      <trkpt lat="43.60672" lon="1.20361">
        <ele>162</ele>
        <time>2016-05-07T07:41:18Z</time>
      </trkpt>
      <trkpt lat="43.6067" lon="1.2036">
        <ele>162</ele>
        <time>2016-05-07T07:41:20Z</time>
      </trkpt>
      <trkpt lat="43.60667" lon="1.20358">
        <ele>162</ele>
        <time>2016-05-07T07:41:22Z</time>
      </trkpt>
      <trkpt lat="43.60664" lon="1.20357">
        <ele>162</ele>
        <time>2016-05-07T07:41:24Z</time>
      </trkpt>
      <trkpt lat="43.60662" lon="1.20355">
        <ele>162</ele>
        <time>2016-05-07T07:41:25Z</time>
      </trkpt>
      <trkpt lat="43.60661" lon="1.20353">
        <ele>162</ele>
        <time>2016-05-07T07:41:26Z</time>
      </trkpt>
      <trkpt lat="43.60657" lon="1.2035">
        <ele>162</ele>
        <time>2016-05-07T07:41:30Z</time>
      </trkpt>
      <trkpt lat="43.60654" lon="1.20347">
        <ele>162</ele>
        <time>2016-05-07T07:41:32Z</time>
      </trkpt>
      <trkpt lat="43.60653" lon="1.20345">
        <ele>161</ele>
        <time>2016-05-07T07:41:33Z</time>
      </trkpt>
      <trkpt lat="43.60652" lon="1.20343">
        <ele>161</ele>
        <time>2016-05-07T07:41:34Z</time>
      </trkpt>
      <trkpt lat="43.6065" lon="1.2034">
        <ele>161</ele>
        <time>2016-05-07T07:41:36Z</time>
      </trkpt>
      <trkpt lat="43.60648" lon="1.20337">
        <ele>161</ele>
        <time>2016-05-07T07:41:38Z</time>
      </trkpt>
      <trkpt lat="43.60644" lon="1.20333">
        <ele>161</ele>
        <time>2016-05-07T07:41:40Z</time>
      </trkpt>
      <trkpt lat="43.60643" lon="1.20331">
        <ele>161</ele>
        <time>2016-05-07T07:41:42Z</time>
      </trkpt>
      <trkpt lat="43.60643" lon="1.20331">
        <ele>161</ele>
        <time>2016-05-07T07:41:43Z</time>
      </trkpt>
      <trkpt lat="43.60643" lon="1.2033">
        <ele>161</ele>
        <time>2016-05-07T07:41:44Z</time>
      </trkpt>
      <trkpt lat="43.6064" lon="1.20327">
        <ele>160</ele>
        <time>2016-05-07T07:41:46Z</time>
      </trkpt>
      <trkpt lat="43.6064" lon="1.20326">
        <ele>160</ele>
        <time>2016-05-07T07:41:47Z</time>
      </trkpt>
      <trkpt lat="43.60639" lon="1.20325">
        <ele>160</ele>
        <time>2016-05-07T07:41:48Z</time>
      </trkpt>
      <trkpt lat="43.60638" lon="1.20324">
        <ele>160</ele>
        <time>2016-05-07T07:41:50Z</time>
      </trkpt>
      <trkpt lat="43.60632" lon="1.20323">
        <ele>160</ele>
        <time>2016-05-07T07:41:52Z</time>
      </trkpt>
      <trkpt lat="43.6063" lon="1.20321">
        <ele>160</ele>
        <time>2016-05-07T07:41:54Z</time>
      </trkpt>
      <trkpt lat="43.60629" lon="1.2032">
        <ele>160</ele>
        <time>2016-05-07T07:41:55Z</time>
      </trkpt>
      <trkpt lat="43.60626" lon="1.20317">
        <ele>160</ele>
        <time>2016-05-07T07:41:57Z</time>
      </trkpt>
      <trkpt lat="43.60625" lon="1.20316">
        <ele>160</ele>
        <time>2016-05-07T07:41:58Z</time>
      </trkpt>
      <trkpt lat="43.60621" lon="1.20311">
        <ele>160</ele>
        <time>2016-05-07T07:42:01Z</time>
      </trkpt>
      <trkpt lat="43.60619" lon="1.20308">
        <ele>160</ele>
        <time>2016-05-07T07:42:03Z</time>
      </trkpt>
      <trkpt lat="43.60618" lon="1.20307">
        <ele>160</ele>
        <time>2016-05-07T07:42:04Z</time>
      </trkpt>
      <trkpt lat="43.60618" lon="1.20305">
        <ele>160</ele>
        <time>2016-05-07T07:42:07Z</time>
      </trkpt>
      <trkpt lat="43.60617" lon="1.20303">
        <ele>160</ele>
        <time>2016-05-07T07:42:08Z</time>
      </trkpt>
      <trkpt lat="43.60616" lon="1.20301">
        <ele>160</ele>
        <time>2016-05-07T07:42:09Z</time>
      </trkpt>
      <trkpt lat="43.60614" lon="1.20297">
        <ele>160</ele>
        <time>2016-05-07T07:42:11Z</time>
      </trkpt>
      <trkpt lat="43.60614" lon="1.20296">
        <ele>160</ele>
        <time>2016-05-07T07:42:12Z</time>
      </trkpt>
      <trkpt lat="43.60613" lon="1.20293">
        <ele>160</ele>
        <time>2016-05-07T07:42:14Z</time>
      </trkpt>
      <trkpt lat="43.60613" lon="1.20292">
        <ele>159</ele>
        <time>2016-05-07T07:42:16Z</time>
      </trkpt>
      <trkpt lat="43.60609" lon="1.20288">
        <ele>159</ele>
        <time>2016-05-07T07:42:18Z</time>
      </trkpt>
      <trkpt lat="43.60608" lon="1.20286">
        <ele>159</ele>
        <time>2016-05-07T07:42:20Z</time>
      </trkpt>
      <trkpt lat="43.60606" lon="1.20283">
        <ele>159</ele>
        <time>2016-05-07T07:42:21Z</time>
      </trkpt>
      <trkpt lat="43.60605" lon="1.20279">
        <ele>159</ele>
        <time>2016-05-07T07:42:23Z</time>
      </trkpt>
      <trkpt lat="43.60601" lon="1.20274">
        <ele>159</ele>
        <time>2016-05-07T07:42:25Z</time>
      </trkpt>
      <trkpt lat="43.606" lon="1.20273">
        <ele>159</ele>
        <time>2016-05-07T07:42:26Z</time>
      </trkpt>
      <trkpt lat="43.60598" lon="1.20271">
        <ele>159</ele>
        <time>2016-05-07T07:42:27Z</time>
      </trkpt>
      <trkpt lat="43.60597" lon="1.20266">
        <ele>159</ele>
        <time>2016-05-07T07:42:29Z</time>
      </trkpt>
      <trkpt lat="43.60595" lon="1.20264">
        <ele>159</ele>
        <time>2016-05-07T07:42:30Z</time>
      </trkpt>
      <trkpt lat="43.60595" lon="1.20262">
        <ele>159</ele>
        <time>2016-05-07T07:42:31Z</time>
      </trkpt>
      <trkpt lat="43.60594" lon="1.2026">
        <ele>159</ele>
        <time>2016-05-07T07:42:33Z</time>
      </trkpt>
      <trkpt lat="43.60593" lon="1.20259">
        <ele>159</ele>
        <time>2016-05-07T07:42:34Z</time>
      </trkpt>
      <trkpt lat="43.60591" lon="1.20257">
        <ele>159</ele>
        <time>2016-05-07T07:42:36Z</time>
      </trkpt>
      <trkpt lat="43.60589" lon="1.20255">
        <ele>159</ele>
        <time>2016-05-07T07:42:37Z</time>
      </trkpt>
      <trkpt lat="43.60587" lon="1.20251">
        <ele>159</ele>
        <time>2016-05-07T07:42:39Z</time>
      </trkpt>
      <trkpt lat="43.60585" lon="1.2025">
        <ele>159</ele>
        <time>2016-05-07T07:42:41Z</time>
      </trkpt>
      <trkpt lat="43.60584" lon="1.20248">
        <ele>159</ele>
        <time>2016-05-07T07:42:42Z</time>
      </trkpt>
      <trkpt lat="43.60582" lon="1.20244">
        <ele>159</ele>
        <time>2016-05-07T07:42:44Z</time>
      </trkpt>
      <trkpt lat="43.6058" lon="1.20241">
        <ele>159</ele>
        <time>2016-05-07T07:42:45Z</time>
      </trkpt>
      <trkpt lat="43.60577" lon="1.20238">
        <ele>159</ele>
        <time>2016-05-07T07:42:47Z</time>
      </trkpt>
      <trkpt lat="43.60576" lon="1.20238">
        <ele>159</ele>
        <time>2016-05-07T07:42:48Z</time>
      </trkpt>
      <trkpt lat="43.60577" lon="1.20237">
        <ele>159</ele>
        <time>2016-05-07T07:42:50Z</time>
      </trkpt>
      <trkpt lat="43.60576" lon="1.20235">
        <ele>159</ele>
        <time>2016-05-07T07:42:52Z</time>
      </trkpt>
      <trkpt lat="43.60575" lon="1.20231">
        <ele>159</ele>
        <time>2016-05-07T07:42:54Z</time>
      </trkpt>
      <trkpt lat="43.60575" lon="1.2023">
        <ele>159</ele>
        <time>2016-05-07T07:42:55Z</time>
      </trkpt>
      <trkpt lat="43.60576" lon="1.20228">
        <ele>159</ele>
        <time>2016-05-07T07:42:57Z</time>
      </trkpt>
      <trkpt lat="43.60576" lon="1.20226">
        <ele>159</ele>
        <time>2016-05-07T07:42:58Z</time>
      </trkpt>
      <trkpt lat="43.60576" lon="1.20225">
        <ele>159</ele>
        <time>2016-05-07T07:42:59Z</time>
      </trkpt>
      <trkpt lat="43.60574" lon="1.20224">
        <ele>159</ele>
        <time>2016-05-07T07:43:00Z</time>
      </trkpt>
      <trkpt lat="43.60574" lon="1.2022">
        <ele>159</ele>
        <time>2016-05-07T07:43:02Z</time>
      </trkpt>
      <trkpt lat="43.60573" lon="1.20218">
        <ele>159</ele>
        <time>2016-05-07T07:43:03Z</time>
      </trkpt>
      <trkpt lat="43.60571" lon="1.20216">
        <ele>159</ele>
        <time>2016-05-07T07:43:05Z</time>
      </trkpt>
      <trkpt lat="43.60569" lon="1.20214">
        <ele>159</ele>
        <time>2016-05-07T07:43:07Z</time>
      </trkpt>
      <trkpt lat="43.6057" lon="1.20211">
        <ele>159</ele>
        <time>2016-05-07T07:43:09Z</time>
      </trkpt>
      <trkpt lat="43.60569" lon="1.2021">
        <ele>159</ele>
        <time>2016-05-07T07:43:10Z</time>
      </trkpt>
      <trkpt lat="43.60566" lon="1.20204">
        <ele>159</ele>
        <time>2016-05-07T07:43:12Z</time>
      </trkpt>
      <trkpt lat="43.60566" lon="1.20201">
        <ele>159</ele>
        <time>2016-05-07T07:43:14Z</time>
      </trkpt>
      <trkpt lat="43.60566" lon="1.202">
        <ele>159</ele>
        <time>2016-05-07T07:43:15Z</time>
      </trkpt>
      <trkpt lat="43.60566" lon="1.20199">
        <ele>159</ele>
        <time>2016-05-07T07:43:16Z</time>
      </trkpt>
      <trkpt lat="43.60564" lon="1.20195">
        <ele>159</ele>
        <time>2016-05-07T07:43:18Z</time>
      </trkpt>
      <trkpt lat="43.60563" lon="1.20193">
        <ele>159</ele>
        <time>2016-05-07T07:43:19Z</time>
      </trkpt>
      <trkpt lat="43.60561" lon="1.20192">
        <ele>159</ele>
        <time>2016-05-07T07:43:20Z</time>
      </trkpt>
      <trkpt lat="43.6056" lon="1.2019">
        <ele>159</ele>
        <time>2016-05-07T07:43:21Z</time>
      </trkpt>
      <trkpt lat="43.6056" lon="1.20185">
        <ele>159</ele>
        <time>2016-05-07T07:43:23Z</time>
      </trkpt>
      <trkpt lat="43.60558" lon="1.20183">
        <ele>159</ele>
        <time>2016-05-07T07:43:24Z</time>
      </trkpt>
      <trkpt lat="43.60555" lon="1.20177">
        <ele>159</ele>
        <time>2016-05-07T07:43:25Z</time>
      </trkpt>
      <trkpt lat="43.60555" lon="1.20173">
        <ele>159</ele>
        <time>2016-05-07T07:43:27Z</time>
      </trkpt>
      <trkpt lat="43.60554" lon="1.20171">
        <ele>159</ele>
        <time>2016-05-07T07:43:28Z</time>
      </trkpt>
      <trkpt lat="43.60552" lon="1.20168">
        <ele>159</ele>
        <time>2016-05-07T07:43:29Z</time>
      </trkpt>
      <trkpt lat="43.60551" lon="1.20164">
        <ele>159</ele>
        <time>2016-05-07T07:43:31Z</time>
      </trkpt>
      <trkpt lat="43.60548" lon="1.20161">
        <ele>159</ele>
        <time>2016-05-07T07:43:32Z</time>
      </trkpt>
      <trkpt lat="43.60547" lon="1.20159">
        <ele>159</ele>
        <time>2016-05-07T07:43:33Z</time>
      </trkpt>
      <trkpt lat="43.60545" lon="1.20154">
        <ele>159</ele>
        <time>2016-05-07T07:43:35Z</time>
      </trkpt>
      <trkpt lat="43.60545" lon="1.20151">
        <ele>158</ele>
        <time>2016-05-07T07:43:37Z</time>
      </trkpt>
      <trkpt lat="43.60545" lon="1.2015">
        <ele>158</ele>
        <time>2016-05-07T07:43:38Z</time>
      </trkpt>
      <trkpt lat="43.60543" lon="1.20144">
        <ele>158</ele>
        <time>2016-05-07T07:43:40Z</time>
      </trkpt>
      <trkpt lat="43.60542" lon="1.20139">
        <ele>158</ele>
        <time>2016-05-07T07:43:42Z</time>
      </trkpt>
      <trkpt lat="43.60539" lon="1.20136">
        <ele>157</ele>
        <time>2016-05-07T07:43:44Z</time>
      </trkpt>
      <trkpt lat="43.60538" lon="1.20134">
        <ele>157</ele>
        <time>2016-05-07T07:43:45Z</time>
      </trkpt>
      <trkpt lat="43.60537" lon="1.20131">
        <ele>157</ele>
        <time>2016-05-07T07:43:46Z</time>
      </trkpt>
      <trkpt lat="43.60535" lon="1.20129">
        <ele>156</ele>
        <time>2016-05-07T07:43:48Z</time>
      </trkpt>
      <trkpt lat="43.60535" lon="1.20128">
        <ele>156</ele>
        <time>2016-05-07T07:43:49Z</time>
      </trkpt>
      <trkpt lat="43.60533" lon="1.20125">
        <ele>156</ele>
        <time>2016-05-07T07:43:51Z</time>
      </trkpt>
      <trkpt lat="43.60532" lon="1.20122">
        <ele>155</ele>
        <time>2016-05-07T07:43:53Z</time>
      </trkpt>
      <trkpt lat="43.60533" lon="1.20121">
        <ele>155</ele>
        <time>2016-05-07T07:43:54Z</time>
      </trkpt>
      <trkpt lat="43.60533" lon="1.20119">
        <ele>155</ele>
        <time>2016-05-07T07:43:56Z</time>
      </trkpt>
      <trkpt lat="43.60532" lon="1.20118">
        <ele>155</ele>
        <time>2016-05-07T07:43:57Z</time>
      </trkpt>
      <trkpt lat="43.60531" lon="1.20116">
        <ele>155</ele>
        <time>2016-05-07T07:43:59Z</time>
      </trkpt>
      <trkpt lat="43.60529" lon="1.20114">
        <ele>155</ele>
        <time>2016-05-07T07:44:01Z</time>
      </trkpt>
      <trkpt lat="43.60527" lon="1.20113">
        <ele>155</ele>
        <time>2016-05-07T07:44:03Z</time>
      </trkpt>
      <trkpt lat="43.60526" lon="1.2011">
        <ele>155</ele>
        <time>2016-05-07T07:44:04Z</time>
      </trkpt>
      <trkpt lat="43.60524" lon="1.20108">
        <ele>154</ele>
        <time>2016-05-07T07:44:06Z</time>
      </trkpt>
      <trkpt lat="43.60521" lon="1.20106">
        <ele>154</ele>
        <time>2016-05-07T07:44:09Z</time>
      </trkpt>
      <trkpt lat="43.60519" lon="1.20105">
        <ele>154</ele>
        <time>2016-05-07T07:44:10Z</time>
      </trkpt>
      <trkpt lat="43.60517" lon="1.20104">
        <ele>154</ele>
        <time>2016-05-07T07:44:12Z</time>
      </trkpt>
      <trkpt lat="43.60516" lon="1.20104">
        <ele>154</ele>
        <time>2016-05-07T07:44:13Z</time>
      </trkpt>
      <trkpt lat="43.60516" lon="1.20103">
        <ele>154</ele>
        <time>2016-05-07T07:44:14Z</time>
      </trkpt>
      <trkpt lat="43.60515" lon="1.20102">
        <ele>154</ele>
        <time>2016-05-07T07:44:16Z</time>
      </trkpt>
      <trkpt lat="43.60507" lon="1.2009">
        <ele>155</ele>
        <time>2016-05-07T07:44:21Z</time>
      </trkpt>
      <trkpt lat="43.60503" lon="1.20087">
        <ele>155</ele>
        <time>2016-05-07T07:44:23Z</time>
      </trkpt>
      <trkpt lat="43.60501" lon="1.20083">
        <ele>155</ele>
        <time>2016-05-07T07:44:25Z</time>
      </trkpt>
      <trkpt lat="43.60498" lon="1.20079">
        <ele>155</ele>
        <time>2016-05-07T07:44:27Z</time>
      </trkpt>
      <trkpt lat="43.60497" lon="1.20076">
        <ele>155</ele>
        <time>2016-05-07T07:44:28Z</time>
      </trkpt>
      <trkpt lat="43.60496" lon="1.20075">
        <ele>155</ele>
        <time>2016-05-07T07:44:29Z</time>
      </trkpt>
      <trkpt lat="43.60495" lon="1.20073">
        <ele>155</ele>
        <time>2016-05-07T07:44:31Z</time>
      </trkpt>
      <trkpt lat="43.60495" lon="1.20072">
        <ele>155</ele>
        <time>2016-05-07T07:44:32Z</time>
      </trkpt>
      <trkpt lat="43.6049" lon="1.20069">
        <ele>155</ele>
        <time>2016-05-07T07:44:35Z</time>
      </trkpt>
      <trkpt lat="43.60487" lon="1.20067">
        <ele>155</ele>
        <time>2016-05-07T07:44:38Z</time>
      </trkpt>
      <trkpt lat="43.60486" lon="1.20065">
        <ele>155</ele>
        <time>2016-05-07T07:44:40Z</time>
      </trkpt>
      <trkpt lat="43.60483" lon="1.20064">
        <ele>155</ele>
        <time>2016-05-07T07:44:42Z</time>
      </trkpt>
      <trkpt lat="43.60482" lon="1.20063">
        <ele>155</ele>
        <time>2016-05-07T07:44:43Z</time>
      </trkpt>
      <trkpt lat="43.6048" lon="1.20061">
        <ele>155</ele>
        <time>2016-05-07T07:44:45Z</time>
      </trkpt>
      <trkpt lat="43.60478" lon="1.2006">
        <ele>155</ele>
        <time>2016-05-07T07:44:46Z</time>
      </trkpt>
      <trkpt lat="43.60476" lon="1.20056">
        <ele>155</ele>
        <time>2016-05-07T07:44:48Z</time>
      </trkpt>
      <trkpt lat="43.60475" lon="1.20053">
        <ele>155</ele>
        <time>2016-05-07T07:44:50Z</time>
      </trkpt>
      <trkpt lat="43.60472" lon="1.20051">
        <ele>154</ele>
        <time>2016-05-07T07:44:53Z</time>
      </trkpt>
      <trkpt lat="43.60471" lon="1.2005">
        <ele>154</ele>
        <time>2016-05-07T07:44:54Z</time>
      </trkpt>
      <trkpt lat="43.60469" lon="1.20048">
        <ele>154</ele>
        <time>2016-05-07T07:44:56Z</time>
      </trkpt>
      <trkpt lat="43.60469" lon="1.20048">
        <ele>154</ele>
        <time>2016-05-07T07:44:57Z</time>
      </trkpt>
      <trkpt lat="43.60468" lon="1.20047">
        <ele>154</ele>
        <time>2016-05-07T07:44:58Z</time>
      </trkpt>
      <trkpt lat="43.60466" lon="1.20044">
        <ele>154</ele>
        <time>2016-05-07T07:45:00Z</time>
      </trkpt>
      <trkpt lat="43.60462" lon="1.20041">
        <ele>154</ele>
        <time>2016-05-07T07:45:03Z</time>
      </trkpt>
      <trkpt lat="43.60461" lon="1.20037">
        <ele>153</ele>
        <time>2016-05-07T07:45:05Z</time>
      </trkpt>
      <trkpt lat="43.6046" lon="1.20032">
        <ele>153</ele>
        <time>2016-05-07T07:45:07Z</time>
      </trkpt>
      <trkpt lat="43.6046" lon="1.20026">
        <ele>153</ele>
        <time>2016-05-07T07:45:09Z</time>
      </trkpt>
      <trkpt lat="43.60459" lon="1.20022">
        <ele>153</ele>
        <time>2016-05-07T07:45:11Z</time>
      </trkpt>
      <trkpt lat="43.60458" lon="1.2002">
        <ele>153</ele>
        <time>2016-05-07T07:45:12Z</time>
      </trkpt>
      <trkpt lat="43.60456" lon="1.20019">
        <ele>153</ele>
        <time>2016-05-07T07:45:14Z</time>
      </trkpt>
      <trkpt lat="43.60452" lon="1.20015">
        <ele>153</ele>
        <time>2016-05-07T07:45:16Z</time>
      </trkpt>
      <trkpt lat="43.6045" lon="1.20013">
        <ele>153</ele>
        <time>2016-05-07T07:45:17Z</time>
      </trkpt>
      <trkpt lat="43.60448" lon="1.20012">
        <ele>153</ele>
        <time>2016-05-07T07:45:19Z</time>
      </trkpt>
      <trkpt lat="43.60447" lon="1.2001">
        <ele>153</ele>
        <time>2016-05-07T07:45:20Z</time>
      </trkpt>
      <trkpt lat="43.60445" lon="1.20007">
        <ele>152</ele>
        <time>2016-05-07T07:45:22Z</time>
      </trkpt>
      <trkpt lat="43.60444" lon="1.20005">
        <ele>152</ele>
        <time>2016-05-07T07:45:23Z</time>
      </trkpt>
      <trkpt lat="43.6044" lon="1.20002">
        <ele>152</ele>
        <time>2016-05-07T07:45:25Z</time>
      </trkpt>
      <trkpt lat="43.60439" lon="1.19999">
        <ele>152</ele>
        <time>2016-05-07T07:45:27Z</time>
      </trkpt>
      <trkpt lat="43.60438" lon="1.19997">
        <ele>152</ele>
        <time>2016-05-07T07:45:29Z</time>
      </trkpt>
      <trkpt lat="43.60437" lon="1.19997">
        <ele>152</ele>
        <time>2016-05-07T07:45:30Z</time>
      </trkpt>
      <trkpt lat="43.60433" lon="1.19996">
        <ele>152</ele>
        <time>2016-05-07T07:45:32Z</time>
      </trkpt>
      <trkpt lat="43.6043" lon="1.19995">
        <ele>152</ele>
        <time>2016-05-07T07:45:34Z</time>
      </trkpt>
      <trkpt lat="43.60429" lon="1.19993">
        <ele>152</ele>
        <time>2016-05-07T07:45:36Z</time>
      </trkpt>
      <trkpt lat="43.60428" lon="1.19992">
        <ele>152</ele>
        <time>2016-05-07T07:45:37Z</time>
      </trkpt>
      <trkpt lat="43.60426" lon="1.19991">
        <ele>152</ele>
        <time>2016-05-07T07:45:39Z</time>
      </trkpt>
      <trkpt lat="43.60425" lon="1.1999">
        <ele>152</ele>
        <time>2016-05-07T07:45:40Z</time>
      </trkpt>
      <trkpt lat="43.6042" lon="1.19986">
        <ele>152</ele>
        <time>2016-05-07T07:45:43Z</time>
      </trkpt>
      <trkpt lat="43.60416" lon="1.19984">
        <ele>152</ele>
        <time>2016-05-07T07:45:44Z</time>
      </trkpt>
      <trkpt lat="43.60412" lon="1.19982">
        <ele>152</ele>
        <time>2016-05-07T07:45:46Z</time>
      </trkpt>
      <trkpt lat="43.60403" lon="1.19978">
        <ele>152</ele>
        <time>2016-05-07T07:45:50Z</time>
      </trkpt>
      <trkpt lat="43.60404" lon="1.19975">
        <ele>152</ele>
        <time>2016-05-07T07:45:51Z</time>
      </trkpt>
      <trkpt lat="43.60401" lon="1.19972">
        <ele>152</ele>
        <time>2016-05-07T07:45:53Z</time>
      </trkpt>
      <trkpt lat="43.604" lon="1.1997">
        <ele>152</ele>
        <time>2016-05-07T07:45:54Z</time>
      </trkpt>
      <trkpt lat="43.60397" lon="1.19968">
        <ele>152</ele>
        <time>2016-05-07T07:45:56Z</time>
      </trkpt>
      <trkpt lat="43.60396" lon="1.19965">
        <ele>152</ele>
        <time>2016-05-07T07:45:58Z</time>
      </trkpt>
      <trkpt lat="43.60393" lon="1.19962">
        <ele>152</ele>
        <time>2016-05-07T07:46:00Z</time>
      </trkpt>
      <trkpt lat="43.60392" lon="1.19957">
        <ele>152</ele>
        <time>2016-05-07T07:46:02Z</time>
      </trkpt>
      <trkpt lat="43.60391" lon="1.19954">
        <ele>152</ele>
        <time>2016-05-07T07:46:04Z</time>
      </trkpt>
      <trkpt lat="43.60391" lon="1.19952">
        <ele>152</ele>
        <time>2016-05-07T07:46:05Z</time>
      </trkpt>
      <trkpt lat="43.60391" lon="1.19949">
        <ele>152</ele>
        <time>2016-05-07T07:46:07Z</time>
      </trkpt>
      <trkpt lat="43.60389" lon="1.19946">
        <ele>152</ele>
        <time>2016-05-07T07:46:09Z</time>
      </trkpt>
      <trkpt lat="43.60388" lon="1.19945">
        <ele>152</ele>
        <time>2016-05-07T07:46:10Z</time>
      </trkpt>
      <trkpt lat="43.60388" lon="1.19942">
        <ele>152</ele>
        <time>2016-05-07T07:46:12Z</time>
      </trkpt>
      <trkpt lat="43.6039" lon="1.19941">
        <ele>151</ele>
        <time>2016-05-07T07:46:14Z</time>
      </trkpt>
      <trkpt lat="43.60389" lon="1.1994">
        <ele>151</ele>
        <time>2016-05-07T07:46:16Z</time>
      </trkpt>
      <trkpt lat="43.60386" lon="1.19934">
        <ele>151</ele>
        <time>2016-05-07T07:46:20Z</time>
      </trkpt>
      <trkpt lat="43.60386" lon="1.19933">
        <ele>151</ele>
        <time>2016-05-07T07:46:22Z</time>
      </trkpt>
      <trkpt lat="43.60383" lon="1.19931">
        <ele>152</ele>
        <time>2016-05-07T07:46:24Z</time>
      </trkpt>
      <trkpt lat="43.60381" lon="1.1993">
        <ele>152</ele>
        <time>2016-05-07T07:46:25Z</time>
      </trkpt>
      <trkpt lat="43.60377" lon="1.19931">
        <ele>152</ele>
        <time>2016-05-07T07:46:27Z</time>
      </trkpt>
      <trkpt lat="43.60376" lon="1.1993">
        <ele>152</ele>
        <time>2016-05-07T07:46:28Z</time>
      </trkpt>
      <trkpt lat="43.60375" lon="1.19929">
        <ele>152</ele>
        <time>2016-05-07T07:46:29Z</time>
      </trkpt>
      <trkpt lat="43.60373" lon="1.19928">
        <ele>152</ele>
        <time>2016-05-07T07:46:31Z</time>
      </trkpt>
      <trkpt lat="43.60372" lon="1.19928">
        <ele>152</ele>
        <time>2016-05-07T07:46:32Z</time>
      </trkpt>
      <trkpt lat="43.6037" lon="1.19928">
        <ele>152</ele>
        <time>2016-05-07T07:46:34Z</time>
      </trkpt>
      <trkpt lat="43.60368" lon="1.19925">
        <ele>152</ele>
        <time>2016-05-07T07:46:36Z</time>
      </trkpt>
      <trkpt lat="43.60366" lon="1.19923">
        <ele>152</ele>
        <time>2016-05-07T07:46:38Z</time>
      </trkpt>
      <trkpt lat="43.60365" lon="1.19922">
        <ele>152</ele>
        <time>2016-05-07T07:46:39Z</time>
      </trkpt>
      <trkpt lat="43.60363" lon="1.19921">
        <ele>152</ele>
        <time>2016-05-07T07:46:40Z</time>
      </trkpt>
      <trkpt lat="43.6036" lon="1.19919">
        <ele>152</ele>
        <time>2016-05-07T07:46:42Z</time>
      </trkpt>
      <trkpt lat="43.60352" lon="1.19912">
        <ele>152</ele>
        <time>2016-05-07T07:46:45Z</time>
      </trkpt>
      <trkpt lat="43.60344" lon="1.19906">
        <ele>152</ele>
        <time>2016-05-07T07:46:49Z</time>
      </trkpt>
      <trkpt lat="43.60342" lon="1.19904">
        <ele>152</ele>
        <time>2016-05-07T07:46:51Z</time>
      </trkpt>
      <trkpt lat="43.60342" lon="1.19903">
        <ele>152</ele>
        <time>2016-05-07T07:46:52Z</time>
      </trkpt>
      <trkpt lat="43.60341" lon="1.19903">
        <ele>152</ele>
        <time>2016-05-07T07:46:53Z</time>
      </trkpt>
      <trkpt lat="43.6034" lon="1.19898">
        <ele>151</ele>
        <time>2016-05-07T07:46:55Z</time>
      </trkpt>
      <trkpt lat="43.60337" lon="1.19895">
        <ele>151</ele>
        <time>2016-05-07T07:46:57Z</time>
      </trkpt>
      <trkpt lat="43.60335" lon="1.19892">
        <ele>151</ele>
        <time>2016-05-07T07:46:59Z</time>
      </trkpt>
      <trkpt lat="43.60333" lon="1.19889">
        <ele>151</ele>
        <time>2016-05-07T07:47:01Z</time>
      </trkpt>
      <trkpt lat="43.60333" lon="1.19887">
        <ele>151</ele>
        <time>2016-05-07T07:47:02Z</time>
      </trkpt>
      <trkpt lat="43.60332" lon="1.19886">
        <ele>151</ele>
        <time>2016-05-07T07:47:04Z</time>
      </trkpt>
      <trkpt lat="43.60332" lon="1.19886">
        <ele>151</ele>
        <time>2016-05-07T07:47:05Z</time>
      </trkpt>
      <trkpt lat="43.60329" lon="1.19882">
        <ele>151</ele>
        <time>2016-05-07T07:47:07Z</time>
      </trkpt>
      <trkpt lat="43.60328" lon="1.19879">
        <ele>151</ele>
        <time>2016-05-07T07:47:09Z</time>
      </trkpt>
      <trkpt lat="43.60327" lon="1.19877">
        <ele>151</ele>
        <time>2016-05-07T07:47:10Z</time>
      </trkpt>
      <trkpt lat="43.60327" lon="1.19874">
        <ele>151</ele>
        <time>2016-05-07T07:47:12Z</time>
      </trkpt>
      <trkpt lat="43.60328" lon="1.19871">
        <ele>151</ele>
        <time>2016-05-07T07:47:14Z</time>
      </trkpt>
      <trkpt lat="43.60328" lon="1.19869">
        <ele>151</ele>
        <time>2016-05-07T07:47:15Z</time>
      </trkpt>
      <trkpt lat="43.60327" lon="1.19865">
        <ele>151</ele>
        <time>2016-05-07T07:47:17Z</time>
      </trkpt>
      <trkpt lat="43.60325" lon="1.19859">
        <ele>151</ele>
        <time>2016-05-07T07:47:19Z</time>
      </trkpt>
      <trkpt lat="43.60324" lon="1.19856">
        <ele>151</ele>
        <time>2016-05-07T07:47:20Z</time>
      </trkpt>
      <trkpt lat="43.60324" lon="1.19852">
        <ele>151</ele>
        <time>2016-05-07T07:47:21Z</time>
      </trkpt>
      <trkpt lat="43.60324" lon="1.1985">
        <ele>152</ele>
        <time>2016-05-07T07:47:22Z</time>
      </trkpt>
      <trkpt lat="43.60325" lon="1.19848">
        <ele>152</ele>
        <time>2016-05-07T07:47:24Z</time>
      </trkpt>
      <trkpt lat="43.60324" lon="1.19846">
        <ele>152</ele>
        <time>2016-05-07T07:47:25Z</time>
      </trkpt>
      <trkpt lat="43.60324" lon="1.19843">
        <ele>152</ele>
        <time>2016-05-07T07:47:27Z</time>
      </trkpt>
      <trkpt lat="43.60325" lon="1.19842">
        <ele>152</ele>
        <time>2016-05-07T07:47:28Z</time>
      </trkpt>
      <trkpt lat="43.60324" lon="1.19835">
        <ele>152</ele>
        <time>2016-05-07T07:47:30Z</time>
      </trkpt>
      <trkpt lat="43.6032" lon="1.19825">
        <ele>152</ele>
        <time>2016-05-07T07:47:33Z</time>
      </trkpt>
      <trkpt lat="43.6032" lon="1.19821">
        <ele>152</ele>
        <time>2016-05-07T07:47:35Z</time>
      </trkpt>
      <trkpt lat="43.60323" lon="1.19819">
        <ele>153</ele>
        <time>2016-05-07T07:47:36Z</time>
      </trkpt>
      <trkpt lat="43.60326" lon="1.19817">
        <ele>153</ele>
        <time>2016-05-07T07:47:38Z</time>
      </trkpt>
      <trkpt lat="43.60326" lon="1.19815">
        <ele>153</ele>
        <time>2016-05-07T07:47:39Z</time>
      </trkpt>
      <trkpt lat="43.60326" lon="1.1981">
        <ele>153</ele>
        <time>2016-05-07T07:47:41Z</time>
      </trkpt>
      <trkpt lat="43.60326" lon="1.19805">
        <ele>153</ele>
        <time>2016-05-07T07:47:43Z</time>
      </trkpt>
      <trkpt lat="43.60325" lon="1.19803">
        <ele>153</ele>
        <time>2016-05-07T07:47:44Z</time>
      </trkpt>
      <trkpt lat="43.60326" lon="1.198">
        <ele>153</ele>
        <time>2016-05-07T07:47:46Z</time>
      </trkpt>
      <trkpt lat="43.60327" lon="1.19798">
        <ele>154</ele>
        <time>2016-05-07T07:47:48Z</time>
      </trkpt>
      <trkpt lat="43.60329" lon="1.19795">
        <ele>154</ele>
        <time>2016-05-07T07:47:50Z</time>
      </trkpt>
      <trkpt lat="43.60329" lon="1.19791">
        <ele>154</ele>
        <time>2016-05-07T07:47:52Z</time>
      </trkpt>
      <trkpt lat="43.60329" lon="1.19787">
        <ele>154</ele>
        <time>2016-05-07T07:47:54Z</time>
      </trkpt>
      <trkpt lat="43.6033" lon="1.19784">
        <ele>154</ele>
        <time>2016-05-07T07:47:55Z</time>
      </trkpt>
      <trkpt lat="43.6033" lon="1.1978">
        <ele>154</ele>
        <time>2016-05-07T07:47:57Z</time>
      </trkpt>
      <trkpt lat="43.6033" lon="1.19777">
        <ele>154</ele>
        <time>2016-05-07T07:47:59Z</time>
      </trkpt>
      <trkpt lat="43.60327" lon="1.19776">
        <ele>154</ele>
        <time>2016-05-07T07:48:00Z</time>
      </trkpt>
      <trkpt lat="43.60326" lon="1.19772">
        <ele>154</ele>
        <time>2016-05-07T07:48:02Z</time>
      </trkpt>
      <trkpt lat="43.60326" lon="1.19771">
        <ele>154</ele>
        <time>2016-05-07T07:48:03Z</time>
      </trkpt>
      <trkpt lat="43.60326" lon="1.1977">
        <ele>154</ele>
        <time>2016-05-07T07:48:04Z</time>
      </trkpt>
      <trkpt lat="43.60325" lon="1.19764">
        <ele>154</ele>
        <time>2016-05-07T07:48:06Z</time>
      </trkpt>
      <trkpt lat="43.60325" lon="1.19761">
        <ele>154</ele>
        <time>2016-05-07T07:48:08Z</time>
      </trkpt>
      <trkpt lat="43.60325" lon="1.1976">
        <ele>155</ele>
        <time>2016-05-07T07:48:09Z</time>
      </trkpt>
      <trkpt lat="43.60326" lon="1.19757">
        <ele>155</ele>
        <time>2016-05-07T07:48:11Z</time>
      </trkpt>
      <trkpt lat="43.60326" lon="1.19754">
        <ele>155</ele>
        <time>2016-05-07T07:48:12Z</time>
      </trkpt>
      <trkpt lat="43.60327" lon="1.19749">
        <ele>155</ele>
        <time>2016-05-07T07:48:14Z</time>
      </trkpt>
      <trkpt lat="43.60327" lon="1.19741">
        <ele>155</ele>
        <time>2016-05-07T07:48:16Z</time>
      </trkpt>
      <trkpt lat="43.60322" lon="1.19726">
        <ele>155</ele>
        <time>2016-05-07T07:48:20Z</time>
      </trkpt>
      <trkpt lat="43.6032" lon="1.19721">
        <ele>155</ele>
        <time>2016-05-07T07:48:21Z</time>
      </trkpt>
      <trkpt lat="43.60321" lon="1.19719">
        <ele>155</ele>
        <time>2016-05-07T07:48:23Z</time>
      </trkpt>
      <trkpt lat="43.6032" lon="1.19717">
        <ele>155</ele>
        <time>2016-05-07T07:48:25Z</time>
      </trkpt>
      <trkpt lat="43.60318" lon="1.19714">
        <ele>155</ele>
        <time>2016-05-07T07:48:27Z</time>
      </trkpt>
      <trkpt lat="43.60318" lon="1.19712">
        <ele>155</ele>
        <time>2016-05-07T07:48:28Z</time>
      </trkpt>
      <trkpt lat="43.60318" lon="1.19708">
        <ele>155</ele>
        <time>2016-05-07T07:48:30Z</time>
      </trkpt>
      <trkpt lat="43.60318" lon="1.19705">
        <ele>155</ele>
        <time>2016-05-07T07:48:32Z</time>
      </trkpt>
      <trkpt lat="43.60317" lon="1.19699">
        <ele>155</ele>
        <time>2016-05-07T07:48:34Z</time>
      </trkpt>
      <trkpt lat="43.60318" lon="1.19697">
        <ele>155</ele>
        <time>2016-05-07T07:48:35Z</time>
      </trkpt>
      <trkpt lat="43.60318" lon="1.19693">
        <ele>155</ele>
        <time>2016-05-07T07:48:37Z</time>
      </trkpt>
      <trkpt lat="43.60318" lon="1.19689">
        <ele>156</ele>
        <time>2016-05-07T07:48:38Z</time>
      </trkpt>
      <trkpt lat="43.60318" lon="1.19681">
        <ele>156</ele>
        <time>2016-05-07T07:48:40Z</time>
      </trkpt>
      <trkpt lat="43.60317" lon="1.19678">
        <ele>156</ele>
        <time>2016-05-07T07:48:41Z</time>
      </trkpt>
      <trkpt lat="43.60321" lon="1.19669">
        <ele>156</ele>
        <time>2016-05-07T07:48:45Z</time>
      </trkpt>
      <trkpt lat="43.60322" lon="1.19668">
        <ele>156</ele>
        <time>2016-05-07T07:48:46Z</time>
      </trkpt>
      <trkpt lat="43.60324" lon="1.19666">
        <ele>156</ele>
        <time>2016-05-07T07:48:48Z</time>
      </trkpt>
      <trkpt lat="43.60325" lon="1.19665">
        <ele>156</ele>
        <time>2016-05-07T07:48:49Z</time>
      </trkpt>
      <trkpt lat="43.60326" lon="1.19664">
        <ele>156</ele>
        <time>2016-05-07T07:48:50Z</time>
      </trkpt>
      <trkpt lat="43.60327" lon="1.1966">
        <ele>156</ele>
        <time>2016-05-07T07:48:52Z</time>
      </trkpt>
      <trkpt lat="43.60327" lon="1.19657">
        <ele>156</ele>
        <time>2016-05-07T07:48:53Z</time>
      </trkpt>
      <trkpt lat="43.60327" lon="1.19654">
        <ele>157</ele>
        <time>2016-05-07T07:48:54Z</time>
      </trkpt>
      <trkpt lat="43.60328" lon="1.19647">
        <ele>157</ele>
        <time>2016-05-07T07:48:56Z</time>
      </trkpt>
      <trkpt lat="43.60328" lon="1.19641">
        <ele>157</ele>
        <time>2016-05-07T07:48:58Z</time>
      </trkpt>
      <trkpt lat="43.60328" lon="1.19637">
        <ele>157</ele>
        <time>2016-05-07T07:49:00Z</time>
      </trkpt>
      <trkpt lat="43.60329" lon="1.19634">
        <ele>157</ele>
        <time>2016-05-07T07:49:01Z</time>
      </trkpt>
      <trkpt lat="43.60331" lon="1.19625">
        <ele>158</ele>
        <time>2016-05-07T07:49:04Z</time>
      </trkpt>
      <trkpt lat="43.6033" lon="1.19617">
        <ele>158</ele>
        <time>2016-05-07T07:49:06Z</time>
      </trkpt>
      <trkpt lat="43.6033" lon="1.19612">
        <ele>158</ele>
        <time>2016-05-07T07:49:08Z</time>
      </trkpt>
      <trkpt lat="43.60331" lon="1.19608">
        <ele>158</ele>
        <time>2016-05-07T07:49:10Z</time>
      </trkpt>
      <trkpt lat="43.60332" lon="1.19605">
        <ele>158</ele>
        <time>2016-05-07T07:49:12Z</time>
      </trkpt>
      <trkpt lat="43.60331" lon="1.19603">
        <ele>158</ele>
        <time>2016-05-07T07:49:13Z</time>
      </trkpt>
      <trkpt lat="43.60331" lon="1.19598">
        <ele>158</ele>
        <time>2016-05-07T07:49:15Z</time>
      </trkpt>
      <trkpt lat="43.6033" lon="1.19595">
        <ele>158</ele>
        <time>2016-05-07T07:49:16Z</time>
      </trkpt>
      <trkpt lat="43.60332" lon="1.1959">
        <ele>159</ele>
        <time>2016-05-07T07:49:18Z</time>
      </trkpt>
      <trkpt lat="43.60332" lon="1.19588">
        <ele>159</ele>
        <time>2016-05-07T07:49:19Z</time>
      </trkpt>
      <trkpt lat="43.60333" lon="1.19583">
        <ele>159</ele>
        <time>2016-05-07T07:49:21Z</time>
      </trkpt>
      <trkpt lat="43.60333" lon="1.19581">
        <ele>159</ele>
        <time>2016-05-07T07:49:23Z</time>
      </trkpt>
      <trkpt lat="43.60333" lon="1.19576">
        <ele>159</ele>
        <time>2016-05-07T07:49:25Z</time>
      </trkpt>
      <trkpt lat="43.60333" lon="1.19574">
        <ele>159</ele>
        <time>2016-05-07T07:49:26Z</time>
      </trkpt>
      <trkpt lat="43.60333" lon="1.19573">
        <ele>159</ele>
        <time>2016-05-07T07:49:27Z</time>
      </trkpt>
      <trkpt lat="43.60332" lon="1.1957">
        <ele>159</ele>
        <time>2016-05-07T07:49:29Z</time>
      </trkpt>
      <trkpt lat="43.60332" lon="1.19566">
        <ele>159</ele>
        <time>2016-05-07T07:49:31Z</time>
      </trkpt>
      <trkpt lat="43.60331" lon="1.19561">
        <ele>159</ele>
        <time>2016-05-07T07:49:33Z</time>
      </trkpt>
      <trkpt lat="43.60332" lon="1.19558">
        <ele>159</ele>
        <time>2016-05-07T07:49:35Z</time>
      </trkpt>
      <trkpt lat="43.60332" lon="1.19556">
        <ele>160</ele>
        <time>2016-05-07T07:49:36Z</time>
      </trkpt>
      <trkpt lat="43.60333" lon="1.1955">
        <ele>160</ele>
        <time>2016-05-07T07:49:38Z</time>
      </trkpt>
      <trkpt lat="43.60335" lon="1.19548">
        <ele>160</ele>
        <time>2016-05-07T07:49:39Z</time>
      </trkpt>
      <trkpt lat="43.60338" lon="1.19541">
        <ele>160</ele>
        <time>2016-05-07T07:49:41Z</time>
      </trkpt>
      <trkpt lat="43.60339" lon="1.19535">
        <ele>160</ele>
        <time>2016-05-07T07:49:43Z</time>
      </trkpt>
      <trkpt lat="43.60342" lon="1.19531">
        <ele>161</ele>
        <time>2016-05-07T07:49:45Z</time>
      </trkpt>
      <trkpt lat="43.60342" lon="1.19527">
        <ele>161</ele>
        <time>2016-05-07T07:49:47Z</time>
      </trkpt>
      <trkpt lat="43.60342" lon="1.19524">
        <ele>161</ele>
        <time>2016-05-07T07:49:48Z</time>
      </trkpt>
      <trkpt lat="43.60344" lon="1.19521">
        <ele>161</ele>
        <time>2016-05-07T07:49:50Z</time>
      </trkpt>
      <trkpt lat="43.60346" lon="1.1952">
        <ele>161</ele>
        <time>2016-05-07T07:49:51Z</time>
      </trkpt>
      <trkpt lat="43.60344" lon="1.19519">
        <ele>161</ele>
        <time>2016-05-07T07:49:52Z</time>
      </trkpt>
      <trkpt lat="43.60344" lon="1.19515">
        <ele>162</ele>
        <time>2016-05-07T07:49:54Z</time>
      </trkpt>
      <trkpt lat="43.60344" lon="1.19514">
        <ele>162</ele>
        <time>2016-05-07T07:49:55Z</time>
      </trkpt>
      <trkpt lat="43.60343" lon="1.19507">
        <ele>162</ele>
        <time>2016-05-07T07:49:57Z</time>
      </trkpt>
      <trkpt lat="43.60345" lon="1.19502">
        <ele>162</ele>
        <time>2016-05-07T07:49:59Z</time>
      </trkpt>
      <trkpt lat="43.60346" lon="1.195">
        <ele>162</ele>
        <time>2016-05-07T07:50:00Z</time>
      </trkpt>
      <trkpt lat="43.60345" lon="1.19493">
        <ele>162</ele>
        <time>2016-05-07T07:50:03Z</time>
      </trkpt>
      <trkpt lat="43.60344" lon="1.19491">
        <ele>162</ele>
        <time>2016-05-07T07:50:04Z</time>
      </trkpt>
      <trkpt lat="43.60345" lon="1.19487">
        <ele>162</ele>
        <time>2016-05-07T07:50:06Z</time>
      </trkpt>
      <trkpt lat="43.60346" lon="1.19485">
        <ele>163</ele>
        <time>2016-05-07T07:50:08Z</time>
      </trkpt>
      <trkpt lat="43.60348" lon="1.19483">
        <ele>163</ele>
        <time>2016-05-07T07:50:10Z</time>
      </trkpt>
      <trkpt lat="43.6035" lon="1.19482">
        <ele>163</ele>
        <time>2016-05-07T07:50:12Z</time>
      </trkpt>
      <trkpt lat="43.6035" lon="1.1948">
        <ele>163</ele>
        <time>2016-05-07T07:50:14Z</time>
      </trkpt>
      <trkpt lat="43.60347" lon="1.19475">
        <ele>163</ele>
        <time>2016-05-07T07:50:16Z</time>
      </trkpt>
      <trkpt lat="43.60348" lon="1.19472">
        <ele>163</ele>
        <time>2016-05-07T07:50:18Z</time>
      </trkpt>
      <trkpt lat="43.60347" lon="1.19467">
        <ele>163</ele>
        <time>2016-05-07T07:50:20Z</time>
      </trkpt>
      <trkpt lat="43.60345" lon="1.1946">
        <ele>163</ele>
        <time>2016-05-07T07:50:22Z</time>
      </trkpt>
      <trkpt lat="43.60344" lon="1.1945">
        <ele>163</ele>
        <time>2016-05-07T07:50:25Z</time>
      </trkpt>
      <trkpt lat="43.60344" lon="1.19449">
        <ele>163</ele>
        <time>2016-05-07T07:50:26Z</time>
      </trkpt>
      <trkpt lat="43.60342" lon="1.19445">
        <ele>163</ele>
        <time>2016-05-07T07:50:27Z</time>
      </trkpt>
      <trkpt lat="43.60342" lon="1.19443">
        <ele>164</ele>
        <time>2016-05-07T07:50:28Z</time>
      </trkpt>
      <trkpt lat="43.60342" lon="1.19441">
        <ele>164</ele>
        <time>2016-05-07T07:50:30Z</time>
      </trkpt>
      <trkpt lat="43.60343" lon="1.19439">
        <ele>164</ele>
        <time>2016-05-07T07:50:31Z</time>
      </trkpt>
      <trkpt lat="43.60342" lon="1.19436">
        <ele>164</ele>
        <time>2016-05-07T07:50:33Z</time>
      </trkpt>
      <trkpt lat="43.60342" lon="1.19436">
        <ele>164</ele>
        <time>2016-05-07T07:50:34Z</time>
      </trkpt>
      <trkpt lat="43.60341" lon="1.19423">
        <ele>164</ele>
        <time>2016-05-07T07:50:40Z</time>
      </trkpt>
      <trkpt lat="43.6034" lon="1.19421">
        <ele>164</ele>
        <time>2016-05-07T07:50:41Z</time>
      </trkpt>
      <trkpt lat="43.60339" lon="1.19421">
        <ele>164</ele>
        <time>2016-05-07T07:50:43Z</time>
      </trkpt>
      <trkpt lat="43.60337" lon="1.19419">
        <ele>163</ele>
        <time>2016-05-07T07:50:48Z</time>
      </trkpt>
      <trkpt lat="43.60337" lon="1.19419">
        <ele>163</ele>
        <time>2016-05-07T07:50:50Z</time>
      </trkpt>
      <trkpt lat="43.60337" lon="1.1942">
        <ele>162</ele>
        <time>2016-05-07T07:50:51Z</time>
      </trkpt>
      <trkpt lat="43.60338" lon="1.19421">
        <ele>161</ele>
        <time>2016-05-07T07:50:53Z</time>
      </trkpt>
      <trkpt lat="43.60338" lon="1.1942">
        <ele>161</ele>
        <time>2016-05-07T07:50:54Z</time>
      </trkpt>
      <trkpt lat="43.60337" lon="1.19421">
        <ele>161</ele>
        <time>2016-05-07T07:50:55Z</time>
      </trkpt>
      <trkpt lat="43.60336" lon="1.19421">
        <ele>160</ele>
        <time>2016-05-07T07:50:57Z</time>
      </trkpt>
      <trkpt lat="43.60334" lon="1.19417">
        <ele>160</ele>
        <time>2016-05-07T07:51:04Z</time>
      </trkpt>
      <trkpt lat="43.60333" lon="1.19416">
        <ele>160</ele>
        <time>2016-05-07T07:51:06Z</time>
      </trkpt>
      <trkpt lat="43.60333" lon="1.19414">
        <ele>160</ele>
        <time>2016-05-07T07:51:08Z</time>
      </trkpt>
      <trkpt lat="43.60333" lon="1.19413">
        <ele>160</ele>
        <time>2016-05-07T07:51:10Z</time>
      </trkpt>
      <trkpt lat="43.60333" lon="1.19413">
        <ele>160</ele>
        <time>2016-05-07T07:51:11Z</time>
      </trkpt>
      <trkpt lat="43.60333" lon="1.19413">
        <ele>160</ele>
        <time>2016-05-07T07:51:13Z</time>
      </trkpt>
      <trkpt lat="43.60334" lon="1.19415">
        <ele>160</ele>
        <time>2016-05-07T07:51:18Z</time>
      </trkpt>
      <trkpt lat="43.60333" lon="1.19417">
        <ele>160</ele>
        <time>2016-05-07T07:51:20Z</time>
      </trkpt>
      <trkpt lat="43.60333" lon="1.1942">
        <ele>160</ele>
        <time>2016-05-07T07:51:22Z</time>
      </trkpt>
      <trkpt lat="43.60333" lon="1.19425">
        <ele>160</ele>
        <time>2016-05-07T07:51:24Z</time>
      </trkpt>
      <trkpt lat="43.60331" lon="1.19427">
        <ele>160</ele>
        <time>2016-05-07T07:51:26Z</time>
      </trkpt>
      <trkpt lat="43.60331" lon="1.19433">
        <ele>159</ele>
        <time>2016-05-07T07:51:36Z</time>
      </trkpt>
      <trkpt lat="43.6033" lon="1.19433">
        <ele>159</ele>
        <time>2016-05-07T07:51:37Z</time>
      </trkpt>
      <trkpt lat="43.6033" lon="1.19432">
        <ele>159</ele>
        <time>2016-05-07T07:51:39Z</time>
      </trkpt>
      <trkpt lat="43.60331" lon="1.19431">
        <ele>159</ele>
        <time>2016-05-07T07:51:40Z</time>
      </trkpt>
      <trkpt lat="43.6033" lon="1.1943">
        <ele>159</ele>
        <time>2016-05-07T07:51:43Z</time>
      </trkpt>
      <trkpt lat="43.60326" lon="1.19426">
        <ele>159</ele>
        <time>2016-05-07T07:51:53Z</time>
      </trkpt>
      <trkpt lat="43.60326" lon="1.19426">
        <ele>158</ele>
        <time>2016-05-07T07:51:55Z</time>
      </trkpt>
      <trkpt lat="43.60326" lon="1.19426">
        <ele>158</ele>
        <time>2016-05-07T07:51:57Z</time>
      </trkpt>
      <trkpt lat="43.60335" lon="1.19434">
        <ele>157</ele>
        <time>2016-05-07T07:52:01Z</time>
      </trkpt>
      <trkpt lat="43.6034" lon="1.19438">
        <ele>156</ele>
        <time>2016-05-07T07:52:04Z</time>
      </trkpt>
      <trkpt lat="43.60341" lon="1.19439">
        <ele>156</ele>
        <time>2016-05-07T07:52:05Z</time>
      </trkpt>
      <trkpt lat="43.60343" lon="1.19441">
        <ele>156</ele>
        <time>2016-05-07T07:52:07Z</time>
      </trkpt>
      <trkpt lat="43.60344" lon="1.19442">
        <ele>156</ele>
        <time>2016-05-07T07:52:09Z</time>
      </trkpt>
      <trkpt lat="43.60344" lon="1.19442">
        <ele>156</ele>
        <time>2016-05-07T07:52:10Z</time>
      </trkpt>
      <trkpt lat="43.60346" lon="1.19444">
        <ele>156</ele>
        <time>2016-05-07T07:52:12Z</time>
      </trkpt>
      <trkpt lat="43.60345" lon="1.19445">
        <ele>156</ele>
        <time>2016-05-07T07:52:13Z</time>
      </trkpt>
      <trkpt lat="43.60345" lon="1.19447">
        <ele>156</ele>
        <time>2016-05-07T07:52:14Z</time>
      </trkpt>
      <trkpt lat="43.60346" lon="1.19447">
        <ele>156</ele>
        <time>2016-05-07T07:52:16Z</time>
      </trkpt>
      <trkpt lat="43.60346" lon="1.19447">
        <ele>156</ele>
        <time>2016-05-07T07:52:22Z</time>
      </trkpt>
      <trkpt lat="43.60346" lon="1.19447">
        <ele>156</ele>
        <time>2016-05-07T07:52:23Z</time>
      </trkpt>
      <trkpt lat="43.60346" lon="1.19449">
        <ele>156</ele>
        <time>2016-05-07T07:52:25Z</time>
      </trkpt>
      <trkpt lat="43.60345" lon="1.1945">
        <ele>156</ele>
        <time>2016-05-07T07:52:26Z</time>
      </trkpt>
      <trkpt lat="43.60345" lon="1.1945">
        <ele>155</ele>
        <time>2016-05-07T07:52:28Z</time>
      </trkpt>
      <trkpt lat="43.60346" lon="1.19456">
        <ele>155</ele>
        <time>2016-05-07T07:52:35Z</time>
      </trkpt>
      <trkpt lat="43.60346" lon="1.19457">
        <ele>155</ele>
        <time>2016-05-07T07:52:36Z</time>
      </trkpt>
      <trkpt lat="43.60346" lon="1.19458">
        <ele>155</ele>
        <time>2016-05-07T07:52:37Z</time>
      </trkpt>
      <trkpt lat="43.60346" lon="1.19459">
        <ele>155</ele>
        <time>2016-05-07T07:52:39Z</time>
      </trkpt>
      <trkpt lat="43.60346" lon="1.19459">
        <ele>155</ele>
        <time>2016-05-07T07:52:40Z</time>
      </trkpt>
      <trkpt lat="43.60347" lon="1.19459">
        <ele>155</ele>
        <time>2016-05-07T07:52:42Z</time>
      </trkpt>
      <trkpt lat="43.60343" lon="1.19454">
        <ele>155</ele>
        <time>2016-05-07T07:52:54Z</time>
      </trkpt>
      <trkpt lat="43.60339" lon="1.19453">
        <ele>155</ele>
        <time>2016-05-07T07:52:58Z</time>
      </trkpt>
      <trkpt lat="43.60338" lon="1.19454">
        <ele>155</ele>
        <time>2016-05-07T07:52:59Z</time>
      </trkpt>
      <trkpt lat="43.60337" lon="1.19452">
        <ele>155</ele>
        <time>2016-05-07T07:53:01Z</time>
      </trkpt>
      <trkpt lat="43.60337" lon="1.19451">
        <ele>155</ele>
        <time>2016-05-07T07:53:02Z</time>
      </trkpt>
      <trkpt lat="43.60338" lon="1.19451">
        <ele>155</ele>
        <time>2016-05-07T07:53:03Z</time>
      </trkpt>
      <trkpt lat="43.60339" lon="1.19451">
        <ele>155</ele>
        <time>2016-05-07T07:53:05Z</time>
      </trkpt>
      <trkpt lat="43.60338" lon="1.19446">
        <ele>155</ele>
        <time>2016-05-07T07:53:10Z</time>
      </trkpt>
      <trkpt lat="43.60337" lon="1.19443">
        <ele>155</ele>
        <time>2016-05-07T07:53:12Z</time>
      </trkpt>
      <trkpt lat="43.60337" lon="1.19442">
        <ele>155</ele>
        <time>2016-05-07T07:53:13Z</time>
      </trkpt>
      <trkpt lat="43.60337" lon="1.19441">
        <ele>155</ele>
        <time>2016-05-07T07:53:14Z</time>
      </trkpt>
      <trkpt lat="43.60337" lon="1.19438">
        <ele>155</ele>
        <time>2016-05-07T07:53:16Z</time>
      </trkpt>
      <trkpt lat="43.60337" lon="1.19437">
        <ele>155</ele>
        <time>2016-05-07T07:53:17Z</time>
      </trkpt>
      <trkpt lat="43.60338" lon="1.19436">
        <ele>155</ele>
        <time>2016-05-07T07:53:18Z</time>
      </trkpt>
      <trkpt lat="43.60338" lon="1.19432">
        <ele>155</ele>
        <time>2016-05-07T07:53:20Z</time>
      </trkpt>
      <trkpt lat="43.60338" lon="1.19429">
        <ele>155</ele>
        <time>2016-05-07T07:53:22Z</time>
      </trkpt>
      <trkpt lat="43.60337" lon="1.19428">
        <ele>155</ele>
        <time>2016-05-07T07:53:24Z</time>
      </trkpt>
      <trkpt lat="43.60336" lon="1.19424">
        <ele>154</ele>
        <time>2016-05-07T07:53:26Z</time>
      </trkpt>
      <trkpt lat="43.60337" lon="1.19422">
        <ele>154</ele>
        <time>2016-05-07T07:53:28Z</time>
      </trkpt>
      <trkpt lat="43.60336" lon="1.19421">
        <ele>154</ele>
        <time>2016-05-07T07:53:29Z</time>
      </trkpt>
      <trkpt lat="43.60334" lon="1.1942">
        <ele>154</ele>
        <time>2016-05-07T07:53:31Z</time>
      </trkpt>
      <trkpt lat="43.60333" lon="1.19415">
        <ele>154</ele>
        <time>2016-05-07T07:53:34Z</time>
      </trkpt>
      <trkpt lat="43.60334" lon="1.19415">
        <ele>154</ele>
        <time>2016-05-07T07:53:36Z</time>
      </trkpt>
      <trkpt lat="43.60329" lon="1.19418">
        <ele>154</ele>
        <time>2016-05-07T07:53:50Z</time>
      </trkpt>
      <trkpt lat="43.60329" lon="1.19419">
        <ele>154</ele>
        <time>2016-05-07T07:53:52Z</time>
      </trkpt>
      <trkpt lat="43.60332" lon="1.19429">
        <ele>154</ele>
        <time>2016-05-07T07:53:58Z</time>
      </trkpt>
      <trkpt lat="43.60333" lon="1.19428">
        <ele>154</ele>
        <time>2016-05-07T07:53:59Z</time>
      </trkpt>
      <trkpt lat="43.60333" lon="1.19428">
        <ele>155</ele>
        <time>2016-05-07T07:54:01Z</time>
      </trkpt>
      <trkpt lat="43.60333" lon="1.19428">
        <ele>155</ele>
        <time>2016-05-07T07:54:02Z</time>
      </trkpt>
      <trkpt lat="43.60333" lon="1.19426">
        <ele>155</ele>
        <time>2016-05-07T07:54:08Z</time>
      </trkpt>
      <trkpt lat="43.60332" lon="1.19425">
        <ele>155</ele>
        <time>2016-05-07T07:54:10Z</time>
      </trkpt>
      <trkpt lat="43.60336" lon="1.19423">
        <ele>154</ele>
        <time>2016-05-07T07:54:14Z</time>
      </trkpt>
      <trkpt lat="43.60337" lon="1.19423">
        <ele>154</ele>
        <time>2016-05-07T07:54:15Z</time>
      </trkpt>
      <trkpt lat="43.60334" lon="1.19425">
        <ele>154</ele>
        <time>2016-05-07T07:54:19Z</time>
      </trkpt>
      <trkpt lat="43.60335" lon="1.19425">
        <ele>155</ele>
        <time>2016-05-07T07:54:21Z</time>
      </trkpt>
      <trkpt lat="43.60334" lon="1.19425">
        <ele>155</ele>
        <time>2016-05-07T07:54:22Z</time>
      </trkpt>
      <trkpt lat="43.60336" lon="1.19425">
        <ele>155</ele>
        <time>2016-05-07T07:54:24Z</time>
      </trkpt>
      <trkpt lat="43.60336" lon="1.19424">
        <ele>156</ele>
        <time>2016-05-07T07:54:25Z</time>
      </trkpt>
      <trkpt lat="43.60336" lon="1.19424">
        <ele>156</ele>
        <time>2016-05-07T07:54:26Z</time>
      </trkpt>
      <trkpt lat="43.60335" lon="1.19424">
        <ele>156</ele>
        <time>2016-05-07T07:54:28Z</time>
      </trkpt>
      <trkpt lat="43.60335" lon="1.19423">
        <ele>156</ele>
        <time>2016-05-07T07:54:30Z</time>
      </trkpt>
      <trkpt lat="43.6033" lon="1.19421">
        <ele>156</ele>
        <time>2016-05-07T07:54:34Z</time>
      </trkpt>
      <trkpt lat="43.60321" lon="1.19412">
        <ele>157</ele>
        <time>2016-05-07T07:54:39Z</time>
      </trkpt>
      <trkpt lat="43.60321" lon="1.19412">
        <ele>157</ele>
        <time>2016-05-07T07:54:40Z</time>
      </trkpt>
      <trkpt lat="43.6032" lon="1.19411">
        <ele>157</ele>
        <time>2016-05-07T07:54:42Z</time>
      </trkpt>
      <trkpt lat="43.60319" lon="1.19409">
        <ele>157</ele>
        <time>2016-05-07T07:54:43Z</time>
      </trkpt>
      <trkpt lat="43.6032" lon="1.19406">
        <ele>157</ele>
        <time>2016-05-07T07:54:45Z</time>
      </trkpt>
      <trkpt lat="43.60319" lon="1.19404">
        <ele>157</ele>
        <time>2016-05-07T07:54:47Z</time>
      </trkpt>
      <trkpt lat="43.60318" lon="1.19402">
        <ele>157</ele>
        <time>2016-05-07T07:54:48Z</time>
      </trkpt>
      <trkpt lat="43.60318" lon="1.194">
        <ele>157</ele>
        <time>2016-05-07T07:54:50Z</time>
      </trkpt>
      <trkpt lat="43.60317" lon="1.194">
        <ele>157</ele>
        <time>2016-05-07T07:54:51Z</time>
      </trkpt>
      <trkpt lat="43.60315" lon="1.19397">
        <ele>157</ele>
        <time>2016-05-07T07:54:53Z</time>
      </trkpt>
      <trkpt lat="43.60315" lon="1.19397">
        <ele>157</ele>
        <time>2016-05-07T07:54:54Z</time>
      </trkpt>
      <trkpt lat="43.60313" lon="1.19396">
        <ele>157</ele>
        <time>2016-05-07T07:54:56Z</time>
      </trkpt>
      <trkpt lat="43.60312" lon="1.19395">
        <ele>157</ele>
        <time>2016-05-07T07:54:57Z</time>
      </trkpt>
      <trkpt lat="43.60312" lon="1.19394">
        <ele>157</ele>
        <time>2016-05-07T07:54:58Z</time>
      </trkpt>
      <trkpt lat="43.60312" lon="1.1939">
        <ele>157</ele>
        <time>2016-05-07T07:55:00Z</time>
      </trkpt>
      <trkpt lat="43.60312" lon="1.19388">
        <ele>157</ele>
        <time>2016-05-07T07:55:01Z</time>
      </trkpt>
      <trkpt lat="43.60311" lon="1.19386">
        <ele>157</ele>
        <time>2016-05-07T07:55:02Z</time>
      </trkpt>
      <trkpt lat="43.60309" lon="1.19383">
        <ele>157</ele>
        <time>2016-05-07T07:55:04Z</time>
      </trkpt>
      <trkpt lat="43.60309" lon="1.19382">
        <ele>157</ele>
        <time>2016-05-07T07:55:05Z</time>
      </trkpt>
      <trkpt lat="43.60309" lon="1.1938">
        <ele>157</ele>
        <time>2016-05-07T07:55:06Z</time>
      </trkpt>
      <trkpt lat="43.60307" lon="1.19378">
        <ele>157</ele>
        <time>2016-05-07T07:55:08Z</time>
      </trkpt>
      <trkpt lat="43.60307" lon="1.19378">
        <ele>157</ele>
        <time>2016-05-07T07:55:09Z</time>
      </trkpt>
      <trkpt lat="43.60305" lon="1.19378">
        <ele>157</ele>
        <time>2016-05-07T07:55:11Z</time>
      </trkpt>
      <trkpt lat="43.60291" lon="1.19371">
        <ele>157</ele>
        <time>2016-05-07T07:55:17Z</time>
      </trkpt>
      <trkpt lat="43.60288" lon="1.19369">
        <ele>157</ele>
        <time>2016-05-07T07:55:19Z</time>
      </trkpt>
      <trkpt lat="43.60286" lon="1.19366">
        <ele>157</ele>
        <time>2016-05-07T07:55:21Z</time>
      </trkpt>
      <trkpt lat="43.60284" lon="1.19364">
        <ele>157</ele>
        <time>2016-05-07T07:55:22Z</time>
      </trkpt>
      <trkpt lat="43.60283" lon="1.19362">
        <ele>157</ele>
        <time>2016-05-07T07:55:24Z</time>
      </trkpt>
      <trkpt lat="43.60283" lon="1.19361">
        <ele>157</ele>
        <time>2016-05-07T07:55:25Z</time>
      </trkpt>
      <trkpt lat="43.60281" lon="1.19358">
        <ele>157</ele>
        <time>2016-05-07T07:55:27Z</time>
      </trkpt>
      <trkpt lat="43.60281" lon="1.19355">
        <ele>157</ele>
        <time>2016-05-07T07:55:28Z</time>
      </trkpt>
      <trkpt lat="43.6028" lon="1.19353">
        <ele>157</ele>
        <time>2016-05-07T07:55:29Z</time>
      </trkpt>
      <trkpt lat="43.60279" lon="1.1935">
        <ele>157</ele>
        <time>2016-05-07T07:55:31Z</time>
      </trkpt>
      <trkpt lat="43.60278" lon="1.1935">
        <ele>157</ele>
        <time>2016-05-07T07:55:32Z</time>
      </trkpt>
      <trkpt lat="43.60275" lon="1.19347">
        <ele>157</ele>
        <time>2016-05-07T07:55:34Z</time>
      </trkpt>
      <trkpt lat="43.60275" lon="1.19344">
        <ele>157</ele>
        <time>2016-05-07T07:55:35Z</time>
      </trkpt>
      <trkpt lat="43.60272" lon="1.19342">
        <ele>157</ele>
        <time>2016-05-07T07:55:37Z</time>
      </trkpt>
      <trkpt lat="43.60269" lon="1.19341">
        <ele>157</ele>
        <time>2016-05-07T07:55:39Z</time>
      </trkpt>
      <trkpt lat="43.60266" lon="1.1934">
        <ele>157</ele>
        <time>2016-05-07T07:55:41Z</time>
      </trkpt>
      <trkpt lat="43.60265" lon="1.19338">
        <ele>157</ele>
        <time>2016-05-07T07:55:42Z</time>
      </trkpt>
      <trkpt lat="43.60263" lon="1.19337">
        <ele>157</ele>
        <time>2016-05-07T07:55:43Z</time>
      </trkpt>
      <trkpt lat="43.60261" lon="1.19334">
        <ele>157</ele>
        <time>2016-05-07T07:55:45Z</time>
      </trkpt>
      <trkpt lat="43.60261" lon="1.19333">
        <ele>157</ele>
        <time>2016-05-07T07:55:46Z</time>
      </trkpt>
      <trkpt lat="43.6026" lon="1.19329">
        <ele>157</ele>
        <time>2016-05-07T07:55:48Z</time>
      </trkpt>
      <trkpt lat="43.60257" lon="1.19324">
        <ele>158</ele>
        <time>2016-05-07T07:55:50Z</time>
      </trkpt>
      <trkpt lat="43.60247" lon="1.19311">
        <ele>158</ele>
        <time>2016-05-07T07:55:56Z</time>
      </trkpt>
      <trkpt lat="43.60244" lon="1.19309">
        <ele>158</ele>
        <time>2016-05-07T07:55:58Z</time>
      </trkpt>
      <trkpt lat="43.60243" lon="1.19308">
        <ele>159</ele>
        <time>2016-05-07T07:55:59Z</time>
      </trkpt>
      <trkpt lat="43.60242" lon="1.19307">
        <ele>159</ele>
        <time>2016-05-07T07:56:00Z</time>
      </trkpt>
      <trkpt lat="43.60241" lon="1.19302">
        <ele>159</ele>
        <time>2016-05-07T07:56:02Z</time>
      </trkpt>
      <trkpt lat="43.6024" lon="1.19299">
        <ele>159</ele>
        <time>2016-05-07T07:56:03Z</time>
      </trkpt>
      <trkpt lat="43.60239" lon="1.19297">
        <ele>159</ele>
        <time>2016-05-07T07:56:04Z</time>
      </trkpt>
      <trkpt lat="43.60234" lon="1.19289">
        <ele>159</ele>
        <time>2016-05-07T07:56:08Z</time>
      </trkpt>
      <trkpt lat="43.60235" lon="1.19287">
        <ele>159</ele>
        <time>2016-05-07T07:56:10Z</time>
      </trkpt>
      <trkpt lat="43.60233" lon="1.19285">
        <ele>159</ele>
        <time>2016-05-07T07:56:11Z</time>
      </trkpt>
      <trkpt lat="43.60231" lon="1.19281">
        <ele>159</ele>
        <time>2016-05-07T07:56:13Z</time>
      </trkpt>
      <trkpt lat="43.60229" lon="1.19279">
        <ele>159</ele>
        <time>2016-05-07T07:56:14Z</time>
      </trkpt>
      <trkpt lat="43.60228" lon="1.19278">
        <ele>159</ele>
        <time>2016-05-07T07:56:15Z</time>
      </trkpt>
      <trkpt lat="43.60227" lon="1.19274">
        <ele>159</ele>
        <time>2016-05-07T07:56:17Z</time>
      </trkpt>
      <trkpt lat="43.60226" lon="1.1927">
        <ele>159</ele>
        <time>2016-05-07T07:56:19Z</time>
      </trkpt>
      <trkpt lat="43.60225" lon="1.19269">
        <ele>159</ele>
        <time>2016-05-07T07:56:20Z</time>
      </trkpt>
      <trkpt lat="43.60224" lon="1.19266">
        <ele>159</ele>
        <time>2016-05-07T07:56:22Z</time>
      </trkpt>
      <trkpt lat="43.60224" lon="1.19265">
        <ele>159</ele>
        <time>2016-05-07T07:56:23Z</time>
      </trkpt>
      <trkpt lat="43.60223" lon="1.19262">
        <ele>159</ele>
        <time>2016-05-07T07:56:25Z</time>
      </trkpt>
      <trkpt lat="43.60222" lon="1.19259">
        <ele>159</ele>
        <time>2016-05-07T07:56:27Z</time>
      </trkpt>
      <trkpt lat="43.60221" lon="1.19255">
        <ele>160</ele>
        <time>2016-05-07T07:56:29Z</time>
      </trkpt>
      <trkpt lat="43.60221" lon="1.1925">
        <ele>160</ele>
        <time>2016-05-07T07:56:31Z</time>
      </trkpt>
      <trkpt lat="43.60221" lon="1.19245">
        <ele>160</ele>
        <time>2016-05-07T07:56:33Z</time>
      </trkpt>
      <trkpt lat="43.6022" lon="1.19243">
        <ele>160</ele>
        <time>2016-05-07T07:56:34Z</time>
      </trkpt>
      <trkpt lat="43.60219" lon="1.19239">
        <ele>160</ele>
        <time>2016-05-07T07:56:36Z</time>
      </trkpt>
      <trkpt lat="43.60219" lon="1.19236">
        <ele>160</ele>
        <time>2016-05-07T07:56:37Z</time>
      </trkpt>
      <trkpt lat="43.60217" lon="1.19228">
        <ele>160</ele>
        <time>2016-05-07T07:56:39Z</time>
      </trkpt>
      <trkpt lat="43.60214" lon="1.19223">
        <ele>160</ele>
        <time>2016-05-07T07:56:41Z</time>
      </trkpt>
      <trkpt lat="43.60212" lon="1.19215">
        <ele>160</ele>
        <time>2016-05-07T07:56:43Z</time>
      </trkpt>
      <trkpt lat="43.60212" lon="1.19211">
        <ele>160</ele>
        <time>2016-05-07T07:56:45Z</time>
      </trkpt>
      <trkpt lat="43.60211" lon="1.19206">
        <ele>160</ele>
        <time>2016-05-07T07:56:47Z</time>
      </trkpt>
      <trkpt lat="43.6021" lon="1.192">
        <ele>159</ele>
        <time>2016-05-07T07:56:49Z</time>
      </trkpt>
      <trkpt lat="43.60209" lon="1.19197">
        <ele>159</ele>
        <time>2016-05-07T07:56:50Z</time>
      </trkpt>
      <trkpt lat="43.60207" lon="1.19194">
        <ele>159</ele>
        <time>2016-05-07T07:56:51Z</time>
      </trkpt>
      <trkpt lat="43.60206" lon="1.19189">
        <ele>159</ele>
        <time>2016-05-07T07:56:53Z</time>
      </trkpt>
      <trkpt lat="43.60204" lon="1.19185">
        <ele>159</ele>
        <time>2016-05-07T07:56:55Z</time>
      </trkpt>
      <trkpt lat="43.60203" lon="1.19182">
        <ele>159</ele>
        <time>2016-05-07T07:56:57Z</time>
      </trkpt>
      <trkpt lat="43.60203" lon="1.19181">
        <ele>159</ele>
        <time>2016-05-07T07:56:58Z</time>
      </trkpt>
      <trkpt lat="43.60201" lon="1.19178">
        <ele>159</ele>
        <time>2016-05-07T07:57:00Z</time>
      </trkpt>
      <trkpt lat="43.60199" lon="1.19177">
        <ele>159</ele>
        <time>2016-05-07T07:57:02Z</time>
      </trkpt>
      <trkpt lat="43.60195" lon="1.19175">
        <ele>159</ele>
        <time>2016-05-07T07:57:04Z</time>
      </trkpt>
      <trkpt lat="43.60194" lon="1.19175">
        <ele>159</ele>
        <time>2016-05-07T07:57:05Z</time>
      </trkpt>
      <trkpt lat="43.60192" lon="1.19173">
        <ele>159</ele>
        <time>2016-05-07T07:57:07Z</time>
      </trkpt>
      <trkpt lat="43.60187" lon="1.19171">
        <ele>159</ele>
        <time>2016-05-07T07:57:09Z</time>
      </trkpt>
      <trkpt lat="43.60185" lon="1.19169">
        <ele>159</ele>
        <time>2016-05-07T07:57:10Z</time>
      </trkpt>
      <trkpt lat="43.60182" lon="1.19165">
        <ele>159</ele>
        <time>2016-05-07T07:57:12Z</time>
      </trkpt>
      <trkpt lat="43.6018" lon="1.19162">
        <ele>159</ele>
        <time>2016-05-07T07:57:13Z</time>
      </trkpt>
      <trkpt lat="43.60178" lon="1.19158">
        <ele>159</ele>
        <time>2016-05-07T07:57:15Z</time>
      </trkpt>
      <trkpt lat="43.60177" lon="1.19156">
        <ele>159</ele>
        <time>2016-05-07T07:57:16Z</time>
      </trkpt>
      <trkpt lat="43.60174" lon="1.19153">
        <ele>159</ele>
        <time>2016-05-07T07:57:18Z</time>
      </trkpt>
      <trkpt lat="43.60172" lon="1.19151">
        <ele>159</ele>
        <time>2016-05-07T07:57:20Z</time>
      </trkpt>
      <trkpt lat="43.60167" lon="1.19145">
        <ele>159</ele>
        <time>2016-05-07T07:57:23Z</time>
      </trkpt>
      <trkpt lat="43.60166" lon="1.19143">
        <ele>159</ele>
        <time>2016-05-07T07:57:24Z</time>
      </trkpt>
      <trkpt lat="43.60163" lon="1.19142">
        <ele>159</ele>
        <time>2016-05-07T07:57:26Z</time>
      </trkpt>
      <trkpt lat="43.60161" lon="1.19142">
        <ele>160</ele>
        <time>2016-05-07T07:57:27Z</time>
      </trkpt>
      <trkpt lat="43.60161" lon="1.19142">
        <ele>160</ele>
        <time>2016-05-07T07:57:28Z</time>
      </trkpt>
      <trkpt lat="43.6016" lon="1.19141">
        <ele>160</ele>
        <time>2016-05-07T07:57:30Z</time>
      </trkpt>
      <trkpt lat="43.60159" lon="1.19139">
        <ele>160</ele>
        <time>2016-05-07T07:57:31Z</time>
      </trkpt>
      <trkpt lat="43.60157" lon="1.19136">
        <ele>160</ele>
        <time>2016-05-07T07:57:33Z</time>
      </trkpt>
      <trkpt lat="43.60156" lon="1.19132">
        <ele>160</ele>
        <time>2016-05-07T07:57:35Z</time>
      </trkpt>
      <trkpt lat="43.60155" lon="1.19131">
        <ele>160</ele>
        <time>2016-05-07T07:57:36Z</time>
      </trkpt>
      <trkpt lat="43.60151" lon="1.19128">
        <ele>160</ele>
        <time>2016-05-07T07:57:38Z</time>
      </trkpt>
      <trkpt lat="43.60149" lon="1.19126">
        <ele>160</ele>
        <time>2016-05-07T07:57:40Z</time>
      </trkpt>
      <trkpt lat="43.60147" lon="1.19124">
        <ele>160</ele>
        <time>2016-05-07T07:57:42Z</time>
      </trkpt>
      <trkpt lat="43.60146" lon="1.19122">
        <ele>160</ele>
        <time>2016-05-07T07:57:43Z</time>
      </trkpt>
      <trkpt lat="43.60143" lon="1.1912">
        <ele>160</ele>
        <time>2016-05-07T07:57:45Z</time>
      </trkpt>
      <trkpt lat="43.60141" lon="1.19118">
        <ele>160</ele>
        <time>2016-05-07T07:57:47Z</time>
      </trkpt>
      <trkpt lat="43.6014" lon="1.19115">
        <ele>160</ele>
        <time>2016-05-07T07:57:49Z</time>
      </trkpt>
      <trkpt lat="43.60138" lon="1.19114">
        <ele>160</ele>
        <time>2016-05-07T07:57:51Z</time>
      </trkpt>
      <trkpt lat="43.60131" lon="1.19104">
        <ele>160</ele>
        <time>2016-05-07T07:57:54Z</time>
      </trkpt>
      <trkpt lat="43.60118" lon="1.1909">
        <ele>160</ele>
        <time>2016-05-07T07:57:59Z</time>
      </trkpt>
      <trkpt lat="43.60117" lon="1.19089">
        <ele>160</ele>
        <time>2016-05-07T07:58:00Z</time>
      </trkpt>
      <trkpt lat="43.60114" lon="1.19086">
        <ele>160</ele>
        <time>2016-05-07T07:58:02Z</time>
      </trkpt>
      <trkpt lat="43.60115" lon="1.19085">
        <ele>160</ele>
        <time>2016-05-07T07:58:03Z</time>
      </trkpt>
      <trkpt lat="43.60114" lon="1.19083">
        <ele>161</ele>
        <time>2016-05-07T07:58:04Z</time>
      </trkpt>
      <trkpt lat="43.60112" lon="1.19082">
        <ele>161</ele>
        <time>2016-05-07T07:58:06Z</time>
      </trkpt>
      <trkpt lat="43.60111" lon="1.19081">
        <ele>161</ele>
        <time>2016-05-07T07:58:07Z</time>
      </trkpt>
      <trkpt lat="43.60109" lon="1.19079">
        <ele>161</ele>
        <time>2016-05-07T07:58:09Z</time>
      </trkpt>
      <trkpt lat="43.60106" lon="1.19076">
        <ele>161</ele>
        <time>2016-05-07T07:58:11Z</time>
      </trkpt>
      <trkpt lat="43.60102" lon="1.19071">
        <ele>162</ele>
        <time>2016-05-07T07:58:14Z</time>
      </trkpt>
      <trkpt lat="43.601" lon="1.19071">
        <ele>162</ele>
        <time>2016-05-07T07:58:15Z</time>
      </trkpt>
      <trkpt lat="43.60096" lon="1.19068">
        <ele>162</ele>
        <time>2016-05-07T07:58:18Z</time>
      </trkpt>
      <trkpt lat="43.60095" lon="1.19068">
        <ele>162</ele>
        <time>2016-05-07T07:58:19Z</time>
      </trkpt>
      <trkpt lat="43.60092" lon="1.19067">
        <ele>162</ele>
        <time>2016-05-07T07:58:21Z</time>
      </trkpt>
      <trkpt lat="43.6009" lon="1.19066">
        <ele>163</ele>
        <time>2016-05-07T07:58:23Z</time>
      </trkpt>
      <trkpt lat="43.60089" lon="1.19066">
        <ele>163</ele>
        <time>2016-05-07T07:58:24Z</time>
      </trkpt>
      <trkpt lat="43.60084" lon="1.19063">
        <ele>163</ele>
        <time>2016-05-07T07:58:26Z</time>
      </trkpt>
      <trkpt lat="43.6007" lon="1.19061">
        <ele>164</ele>
        <time>2016-05-07T07:58:32Z</time>
      </trkpt>
      <trkpt lat="43.60067" lon="1.19063">
        <ele>164</ele>
        <time>2016-05-07T07:58:34Z</time>
      </trkpt>
      <trkpt lat="43.60064" lon="1.19064">
        <ele>164</ele>
        <time>2016-05-07T07:58:36Z</time>
      </trkpt>
      <trkpt lat="43.60062" lon="1.19064">
        <ele>164</ele>
        <time>2016-05-07T07:58:37Z</time>
      </trkpt>
      <trkpt lat="43.60061" lon="1.19065">
        <ele>165</ele>
        <time>2016-05-07T07:58:38Z</time>
      </trkpt>
      <trkpt lat="43.60058" lon="1.19066">
        <ele>165</ele>
        <time>2016-05-07T07:58:40Z</time>
      </trkpt>
      <trkpt lat="43.60055" lon="1.19067">
        <ele>165</ele>
        <time>2016-05-07T07:58:41Z</time>
      </trkpt>
      <trkpt lat="43.60049" lon="1.19069">
        <ele>165</ele>
        <time>2016-05-07T07:58:45Z</time>
      </trkpt>
      <trkpt lat="43.60046" lon="1.1907">
        <ele>165</ele>
        <time>2016-05-07T07:58:47Z</time>
      </trkpt>
      <trkpt lat="43.60042" lon="1.19071">
        <ele>165</ele>
        <time>2016-05-07T07:58:49Z</time>
      </trkpt>
      <trkpt lat="43.60038" lon="1.19073">
        <ele>165</ele>
        <time>2016-05-07T07:58:51Z</time>
      </trkpt>
      <trkpt lat="43.60037" lon="1.19074">
        <ele>165</ele>
        <time>2016-05-07T07:58:52Z</time>
      </trkpt>
      <trkpt lat="43.60035" lon="1.19075">
        <ele>165</ele>
        <time>2016-05-07T07:58:54Z</time>
      </trkpt>
      <trkpt lat="43.60034" lon="1.19078">
        <ele>165</ele>
        <time>2016-05-07T07:58:55Z</time>
      </trkpt>
      <trkpt lat="43.60028" lon="1.19082">
        <ele>165</ele>
        <time>2016-05-07T07:58:59Z</time>
      </trkpt>
      <trkpt lat="43.60026" lon="1.19083">
        <ele>165</ele>
        <time>2016-05-07T07:59:01Z</time>
      </trkpt>
      <trkpt lat="43.60025" lon="1.19084">
        <ele>166</ele>
        <time>2016-05-07T07:59:02Z</time>
      </trkpt>
      <trkpt lat="43.60022" lon="1.19083">
        <ele>166</ele>
        <time>2016-05-07T07:59:04Z</time>
      </trkpt>
      <trkpt lat="43.60019" lon="1.19084">
        <ele>166</ele>
        <time>2016-05-07T07:59:06Z</time>
      </trkpt>
      <trkpt lat="43.60016" lon="1.19086">
        <ele>166</ele>
        <time>2016-05-07T07:59:08Z</time>
      </trkpt>
      <trkpt lat="43.60015" lon="1.19086">
        <ele>167</ele>
        <time>2016-05-07T07:59:10Z</time>
      </trkpt>
      <trkpt lat="43.60011" lon="1.19085">
        <ele>167</ele>
        <time>2016-05-07T07:59:12Z</time>
      </trkpt>
      <trkpt lat="43.6001" lon="1.19085">
        <ele>167</ele>
        <time>2016-05-07T07:59:13Z</time>
      </trkpt>
      <trkpt lat="43.60003" lon="1.19087">
        <ele>167</ele>
        <time>2016-05-07T07:59:17Z</time>
      </trkpt>
      <trkpt lat="43.59998" lon="1.19089">
        <ele>167</ele>
        <time>2016-05-07T07:59:19Z</time>
      </trkpt>
      <trkpt lat="43.59994" lon="1.19089">
        <ele>167</ele>
        <time>2016-05-07T07:59:22Z</time>
      </trkpt>
      <trkpt lat="43.59993" lon="1.19091">
        <ele>167</ele>
        <time>2016-05-07T07:59:24Z</time>
      </trkpt>
      <trkpt lat="43.5999" lon="1.19091">
        <ele>167</ele>
        <time>2016-05-07T07:59:26Z</time>
      </trkpt>
      <trkpt lat="43.59987" lon="1.19091">
        <ele>167</ele>
        <time>2016-05-07T07:59:28Z</time>
      </trkpt>
      <trkpt lat="43.59982" lon="1.19092">
        <ele>167</ele>
        <time>2016-05-07T07:59:30Z</time>
      </trkpt>
      <trkpt lat="43.59955" lon="1.19093">
        <ele>168</ele>
        <time>2016-05-07T07:59:44Z</time>
      </trkpt>
      <trkpt lat="43.59953" lon="1.19093">
        <ele>168</ele>
        <time>2016-05-07T07:59:45Z</time>
      </trkpt>
      <trkpt lat="43.59952" lon="1.19092">
        <ele>168</ele>
        <time>2016-05-07T07:59:47Z</time>
      </trkpt>
      <trkpt lat="43.59951" lon="1.19092">
        <ele>168</ele>
        <time>2016-05-07T07:59:48Z</time>
      </trkpt>
      <trkpt lat="43.59951" lon="1.19091">
        <ele>168</ele>
        <time>2016-05-07T07:59:49Z</time>
      </trkpt>
      <trkpt lat="43.59948" lon="1.19091">
        <ele>168</ele>
        <time>2016-05-07T07:59:51Z</time>
      </trkpt>
      <trkpt lat="43.59945" lon="1.1909">
        <ele>168</ele>
        <time>2016-05-07T07:59:52Z</time>
      </trkpt>
      <trkpt lat="43.59942" lon="1.19089">
        <ele>168</ele>
        <time>2016-05-07T07:59:54Z</time>
      </trkpt>
      <trkpt lat="43.59939" lon="1.19088">
        <ele>168</ele>
        <time>2016-05-07T07:59:56Z</time>
      </trkpt>
      <trkpt lat="43.59935" lon="1.19086">
        <ele>168</ele>
        <time>2016-05-07T07:59:58Z</time>
      </trkpt>
      <trkpt lat="43.59933" lon="1.19086">
        <ele>168</ele>
        <time>2016-05-07T07:59:59Z</time>
      </trkpt>
      <trkpt lat="43.5993" lon="1.19086">
        <ele>168</ele>
        <time>2016-05-07T08:00:01Z</time>
      </trkpt>
      <trkpt lat="43.59919" lon="1.19083">
        <ele>168</ele>
        <time>2016-05-07T08:00:07Z</time>
      </trkpt>
      <trkpt lat="43.59904" lon="1.19078">
        <ele>168</ele>
        <time>2016-05-07T08:00:15Z</time>
      </trkpt>
      <trkpt lat="43.59902" lon="1.19077">
        <ele>168</ele>
        <time>2016-05-07T08:00:17Z</time>
      </trkpt>
      <trkpt lat="43.59901" lon="1.19078">
        <ele>168</ele>
        <time>2016-05-07T08:00:18Z</time>
      </trkpt>
      <trkpt lat="43.599" lon="1.19078">
        <ele>168</ele>
        <time>2016-05-07T08:00:20Z</time>
      </trkpt>
      <trkpt lat="43.59899" lon="1.19078">
        <ele>168</ele>
        <time>2016-05-07T08:00:21Z</time>
      </trkpt>
      <trkpt lat="43.59896" lon="1.1908">
        <ele>168</ele>
        <time>2016-05-07T08:00:23Z</time>
      </trkpt>
      <trkpt lat="43.59894" lon="1.1908">
        <ele>168</ele>
        <time>2016-05-07T08:00:24Z</time>
      </trkpt>
      <trkpt lat="43.59891" lon="1.19078">
        <ele>168</ele>
        <time>2016-05-07T08:00:26Z</time>
      </trkpt>
      <trkpt lat="43.59889" lon="1.19077">
        <ele>168</ele>
        <time>2016-05-07T08:00:28Z</time>
      </trkpt>
      <trkpt lat="43.59887" lon="1.19077">
        <ele>168</ele>
        <time>2016-05-07T08:00:29Z</time>
      </trkpt>
      <trkpt lat="43.59884" lon="1.19077">
        <ele>168</ele>
        <time>2016-05-07T08:00:31Z</time>
      </trkpt>
      <trkpt lat="43.59884" lon="1.19077">
        <ele>168</ele>
        <time>2016-05-07T08:00:32Z</time>
      </trkpt>
      <trkpt lat="43.5988" lon="1.19078">
        <ele>168</ele>
        <time>2016-05-07T08:00:34Z</time>
      </trkpt>
      <trkpt lat="43.59877" lon="1.19078">
        <ele>168</ele>
        <time>2016-05-07T08:00:36Z</time>
      </trkpt>
      <trkpt lat="43.59874" lon="1.19079">
        <ele>168</ele>
        <time>2016-05-07T08:00:38Z</time>
      </trkpt>
      <trkpt lat="43.59864" lon="1.19077">
        <ele>168</ele>
        <time>2016-05-07T08:00:42Z</time>
      </trkpt>
      <trkpt lat="43.59864" lon="1.19075">
        <ele>168</ele>
        <time>2016-05-07T08:00:43Z</time>
      </trkpt>
      <trkpt lat="43.59863" lon="1.19072">
        <ele>168</ele>
        <time>2016-05-07T08:00:44Z</time>
      </trkpt>
      <trkpt lat="43.59861" lon="1.19066">
        <ele>168</ele>
        <time>2016-05-07T08:00:46Z</time>
      </trkpt>
      <trkpt lat="43.5986" lon="1.1906">
        <ele>168</ele>
        <time>2016-05-07T08:00:48Z</time>
      </trkpt>
      <trkpt lat="43.59863" lon="1.19055">
        <ele>168</ele>
        <time>2016-05-07T08:00:50Z</time>
      </trkpt>
      <trkpt lat="43.59864" lon="1.19051">
        <ele>168</ele>
        <time>2016-05-07T08:00:52Z</time>
      </trkpt>
      <trkpt lat="43.59867" lon="1.19047">
        <ele>168</ele>
        <time>2016-05-07T08:00:54Z</time>
      </trkpt>
      <trkpt lat="43.59872" lon="1.19041">
        <ele>168</ele>
        <time>2016-05-07T08:00:57Z</time>
      </trkpt>
      <trkpt lat="43.59876" lon="1.19034">
        <ele>168</ele>
        <time>2016-05-07T08:01:00Z</time>
      </trkpt>
      <trkpt lat="43.59878" lon="1.19029">
        <ele>168</ele>
        <time>2016-05-07T08:01:02Z</time>
      </trkpt>
      <trkpt lat="43.5988" lon="1.19025">
        <ele>168</ele>
        <time>2016-05-07T08:01:04Z</time>
      </trkpt>
      <trkpt lat="43.59881" lon="1.19021">
        <ele>168</ele>
        <time>2016-05-07T08:01:06Z</time>
      </trkpt>
      <trkpt lat="43.59882" lon="1.19019">
        <ele>167</ele>
        <time>2016-05-07T08:01:07Z</time>
      </trkpt>
      <trkpt lat="43.59885" lon="1.19016">
        <ele>167</ele>
        <time>2016-05-07T08:01:09Z</time>
      </trkpt>
      <trkpt lat="43.59886" lon="1.19011">
        <ele>167</ele>
        <time>2016-05-07T08:01:11Z</time>
      </trkpt>
      <trkpt lat="43.59887" lon="1.19007">
        <ele>167</ele>
        <time>2016-05-07T08:01:13Z</time>
      </trkpt>
      <trkpt lat="43.59888" lon="1.19004">
        <ele>167</ele>
        <time>2016-05-07T08:01:14Z</time>
      </trkpt>
      <trkpt lat="43.59889" lon="1.19">
        <ele>167</ele>
        <time>2016-05-07T08:01:16Z</time>
      </trkpt>
      <trkpt lat="43.5989" lon="1.18996">
        <ele>167</ele>
        <time>2016-05-07T08:01:18Z</time>
      </trkpt>
      <trkpt lat="43.59891" lon="1.18994">
        <ele>167</ele>
        <time>2016-05-07T08:01:19Z</time>
      </trkpt>
      <trkpt lat="43.59891" lon="1.18989">
        <ele>167</ele>
        <time>2016-05-07T08:01:21Z</time>
      </trkpt>
      <trkpt lat="43.59891" lon="1.18985">
        <ele>167</ele>
        <time>2016-05-07T08:01:23Z</time>
      </trkpt>
      <trkpt lat="43.59892" lon="1.1898">
        <ele>167</ele>
        <time>2016-05-07T08:01:25Z</time>
      </trkpt>
      <trkpt lat="43.59895" lon="1.18975">
        <ele>167</ele>
        <time>2016-05-07T08:01:27Z</time>
      </trkpt>
      <trkpt lat="43.59897" lon="1.18972">
        <ele>167</ele>
        <time>2016-05-07T08:01:29Z</time>
      </trkpt>
      <trkpt lat="43.59899" lon="1.18968">
        <ele>167</ele>
        <time>2016-05-07T08:01:31Z</time>
      </trkpt>
      <trkpt lat="43.59901" lon="1.18964">
        <ele>166</ele>
        <time>2016-05-07T08:01:33Z</time>
      </trkpt>
      <trkpt lat="43.59902" lon="1.1896">
        <ele>166</ele>
        <time>2016-05-07T08:01:35Z</time>
      </trkpt>
      <trkpt lat="43.59903" lon="1.18958">
        <ele>166</ele>
        <time>2016-05-07T08:01:36Z</time>
      </trkpt>
      <trkpt lat="43.59905" lon="1.18955">
        <ele>166</ele>
        <time>2016-05-07T08:01:38Z</time>
      </trkpt>
      <trkpt lat="43.59906" lon="1.18952">
        <ele>166</ele>
        <time>2016-05-07T08:01:40Z</time>
      </trkpt>
      <trkpt lat="43.59907" lon="1.1895">
        <ele>166</ele>
        <time>2016-05-07T08:01:41Z</time>
      </trkpt>
      <trkpt lat="43.59908" lon="1.18948">
        <ele>166</ele>
        <time>2016-05-07T08:01:42Z</time>
      </trkpt>
      <trkpt lat="43.5991" lon="1.18944">
        <ele>166</ele>
        <time>2016-05-07T08:01:44Z</time>
      </trkpt>
      <trkpt lat="43.59911" lon="1.18942">
        <ele>166</ele>
        <time>2016-05-07T08:01:45Z</time>
      </trkpt>
      <trkpt lat="43.59912" lon="1.18938">
        <ele>166</ele>
        <time>2016-05-07T08:01:47Z</time>
      </trkpt>
      <trkpt lat="43.59913" lon="1.18936">
        <ele>166</ele>
        <time>2016-05-07T08:01:48Z</time>
      </trkpt>
      <trkpt lat="43.59914" lon="1.18931">
        <ele>166</ele>
        <time>2016-05-07T08:01:50Z</time>
      </trkpt>
      <trkpt lat="43.59917" lon="1.18922">
        <ele>167</ele>
        <time>2016-05-07T08:01:54Z</time>
      </trkpt>
      <trkpt lat="43.59922" lon="1.18916">
        <ele>167</ele>
        <time>2016-05-07T08:01:57Z</time>
      </trkpt>
      <trkpt lat="43.59923" lon="1.18915">
        <ele>167</ele>
        <time>2016-05-07T08:01:58Z</time>
      </trkpt>
      <trkpt lat="43.59924" lon="1.18912">
        <ele>167</ele>
        <time>2016-05-07T08:02:00Z</time>
      </trkpt>
      <trkpt lat="43.59926" lon="1.18909">
        <ele>167</ele>
        <time>2016-05-07T08:02:02Z</time>
      </trkpt>
      <trkpt lat="43.59927" lon="1.18907">
        <ele>167</ele>
        <time>2016-05-07T08:02:04Z</time>
      </trkpt>
      <trkpt lat="43.59927" lon="1.18905">
        <ele>167</ele>
        <time>2016-05-07T08:02:05Z</time>
      </trkpt>
      <trkpt lat="43.59928" lon="1.18903">
        <ele>167</ele>
        <time>2016-05-07T08:02:06Z</time>
      </trkpt>
      <trkpt lat="43.5993" lon="1.189">
        <ele>167</ele>
        <time>2016-05-07T08:02:08Z</time>
      </trkpt>
      <trkpt lat="43.59932" lon="1.18896">
        <ele>167</ele>
        <time>2016-05-07T08:02:10Z</time>
      </trkpt>
      <trkpt lat="43.59934" lon="1.18892">
        <ele>167</ele>
        <time>2016-05-07T08:02:12Z</time>
      </trkpt>
      <trkpt lat="43.59935" lon="1.18888">
        <ele>167</ele>
        <time>2016-05-07T08:02:14Z</time>
      </trkpt>
      <trkpt lat="43.59935" lon="1.18885">
        <ele>168</ele>
        <time>2016-05-07T08:02:15Z</time>
      </trkpt>
      <trkpt lat="43.59935" lon="1.18881">
        <ele>168</ele>
        <time>2016-05-07T08:02:17Z</time>
      </trkpt>
      <trkpt lat="43.59936" lon="1.18877">
        <ele>168</ele>
        <time>2016-05-07T08:02:19Z</time>
      </trkpt>
      <trkpt lat="43.59937" lon="1.18872">
        <ele>168</ele>
        <time>2016-05-07T08:02:21Z</time>
      </trkpt>
      <trkpt lat="43.59938" lon="1.18868">
        <ele>169</ele>
        <time>2016-05-07T08:02:23Z</time>
      </trkpt>
      <trkpt lat="43.59941" lon="1.18863">
        <ele>169</ele>
        <time>2016-05-07T08:02:25Z</time>
      </trkpt>
      <trkpt lat="43.59943" lon="1.18859">
        <ele>169</ele>
        <time>2016-05-07T08:02:27Z</time>
      </trkpt>
      <trkpt lat="43.59944" lon="1.18857">
        <ele>169</ele>
        <time>2016-05-07T08:02:28Z</time>
      </trkpt>
      <trkpt lat="43.59944" lon="1.18854">
        <ele>169</ele>
        <time>2016-05-07T08:02:29Z</time>
      </trkpt>
      <trkpt lat="43.59945" lon="1.1885">
        <ele>169</ele>
        <time>2016-05-07T08:02:31Z</time>
      </trkpt>
      <trkpt lat="43.59945" lon="1.18848">
        <ele>169</ele>
        <time>2016-05-07T08:02:32Z</time>
      </trkpt>
      <trkpt lat="43.59947" lon="1.18844">
        <ele>169</ele>
        <time>2016-05-07T08:02:34Z</time>
      </trkpt>
      <trkpt lat="43.59948" lon="1.1884">
        <ele>169</ele>
        <time>2016-05-07T08:02:36Z</time>
      </trkpt>
      <trkpt lat="43.59948" lon="1.18838">
        <ele>169</ele>
        <time>2016-05-07T08:02:37Z</time>
      </trkpt>
      <trkpt lat="43.5995" lon="1.18834">
        <ele>169</ele>
        <time>2016-05-07T08:02:39Z</time>
      </trkpt>
      <trkpt lat="43.59951" lon="1.18832">
        <ele>169</ele>
        <time>2016-05-07T08:02:40Z</time>
      </trkpt>
      <trkpt lat="43.59953" lon="1.18829">
        <ele>169</ele>
        <time>2016-05-07T08:02:42Z</time>
      </trkpt>
      <trkpt lat="43.59955" lon="1.18824">
        <ele>169</ele>
        <time>2016-05-07T08:02:44Z</time>
      </trkpt>
      <trkpt lat="43.59956" lon="1.18822">
        <ele>169</ele>
        <time>2016-05-07T08:02:45Z</time>
      </trkpt>
      <trkpt lat="43.59958" lon="1.18818">
        <ele>169</ele>
        <time>2016-05-07T08:02:47Z</time>
      </trkpt>
      <trkpt lat="43.59959" lon="1.18816">
        <ele>169</ele>
        <time>2016-05-07T08:02:48Z</time>
      </trkpt>
      <trkpt lat="43.59961" lon="1.18813">
        <ele>170</ele>
        <time>2016-05-07T08:02:50Z</time>
      </trkpt>
      <trkpt lat="43.59964" lon="1.18811">
        <ele>170</ele>
        <time>2016-05-07T08:02:52Z</time>
      </trkpt>
      <trkpt lat="43.59965" lon="1.18809">
        <ele>170</ele>
        <time>2016-05-07T08:02:53Z</time>
      </trkpt>
      <trkpt lat="43.59965" lon="1.18806">
        <ele>170</ele>
        <time>2016-05-07T08:02:54Z</time>
      </trkpt>
      <trkpt lat="43.59966" lon="1.18802">
        <ele>170</ele>
        <time>2016-05-07T08:02:56Z</time>
      </trkpt>
      <trkpt lat="43.59966" lon="1.18799">
        <ele>170</ele>
        <time>2016-05-07T08:02:57Z</time>
      </trkpt>
      <trkpt lat="43.59967" lon="1.18796">
        <ele>170</ele>
        <time>2016-05-07T08:02:59Z</time>
      </trkpt>
      <trkpt lat="43.59969" lon="1.18792">
        <ele>170</ele>
        <time>2016-05-07T08:03:01Z</time>
      </trkpt>
      <trkpt lat="43.59971" lon="1.18788">
        <ele>170</ele>
        <time>2016-05-07T08:03:03Z</time>
      </trkpt>
      <trkpt lat="43.59972" lon="1.18787">
        <ele>170</ele>
        <time>2016-05-07T08:03:04Z</time>
      </trkpt>
      <trkpt lat="43.59975" lon="1.18784">
        <ele>171</ele>
        <time>2016-05-07T08:03:06Z</time>
      </trkpt>
      <trkpt lat="43.59977" lon="1.18781">
        <ele>171</ele>
        <time>2016-05-07T08:03:08Z</time>
      </trkpt>
      <trkpt lat="43.59978" lon="1.18777">
        <ele>171</ele>
        <time>2016-05-07T08:03:10Z</time>
      </trkpt>
      <trkpt lat="43.59979" lon="1.18773">
        <ele>171</ele>
        <time>2016-05-07T08:03:12Z</time>
      </trkpt>
      <trkpt lat="43.5998" lon="1.18771">
        <ele>171</ele>
        <time>2016-05-07T08:03:13Z</time>
      </trkpt>
      <trkpt lat="43.5998" lon="1.18769">
        <ele>171</ele>
        <time>2016-05-07T08:03:14Z</time>
      </trkpt>
      <trkpt lat="43.59982" lon="1.18765">
        <ele>171</ele>
        <time>2016-05-07T08:03:16Z</time>
      </trkpt>
      <trkpt lat="43.59984" lon="1.18761">
        <ele>171</ele>
        <time>2016-05-07T08:03:18Z</time>
      </trkpt>
      <trkpt lat="43.59985" lon="1.18757">
        <ele>171</ele>
        <time>2016-05-07T08:03:20Z</time>
      </trkpt>
      <trkpt lat="43.59989" lon="1.18754">
        <ele>171</ele>
        <time>2016-05-07T08:03:22Z</time>
      </trkpt>
      <trkpt lat="43.5999" lon="1.18749">
        <ele>172</ele>
        <time>2016-05-07T08:03:24Z</time>
      </trkpt>
      <trkpt lat="43.59991" lon="1.18747">
        <ele>172</ele>
        <time>2016-05-07T08:03:25Z</time>
      </trkpt>
      <trkpt lat="43.59993" lon="1.18744">
        <ele>172</ele>
        <time>2016-05-07T08:03:27Z</time>
      </trkpt>
      <trkpt lat="43.59995" lon="1.1874">
        <ele>172</ele>
        <time>2016-05-07T08:03:29Z</time>
      </trkpt>
      <trkpt lat="43.59997" lon="1.18737">
        <ele>172</ele>
        <time>2016-05-07T08:03:31Z</time>
      </trkpt>
      <trkpt lat="43.59996" lon="1.18735">
        <ele>172</ele>
        <time>2016-05-07T08:03:33Z</time>
      </trkpt>
      <trkpt lat="43.59993" lon="1.18734">
        <ele>172</ele>
        <time>2016-05-07T08:03:35Z</time>
      </trkpt>
      <trkpt lat="43.59992" lon="1.18732">
        <ele>172</ele>
        <time>2016-05-07T08:03:37Z</time>
      </trkpt>
      <trkpt lat="43.59992" lon="1.18731">
        <ele>172</ele>
        <time>2016-05-07T08:03:38Z</time>
      </trkpt>
      <trkpt lat="43.5999" lon="1.18731">
        <ele>172</ele>
        <time>2016-05-07T08:03:40Z</time>
      </trkpt>
      <trkpt lat="43.59988" lon="1.18732">
        <ele>172</ele>
        <time>2016-05-07T08:03:42Z</time>
      </trkpt>
      <trkpt lat="43.59989" lon="1.18733">
        <ele>172</ele>
        <time>2016-05-07T08:03:43Z</time>
      </trkpt>
      <trkpt lat="43.59991" lon="1.18733">
        <ele>172</ele>
        <time>2016-05-07T08:03:45Z</time>
      </trkpt>
      <trkpt lat="43.59992" lon="1.18733">
        <ele>172</ele>
        <time>2016-05-07T08:03:46Z</time>
      </trkpt>
      <trkpt lat="43.59994" lon="1.18734">
        <ele>171</ele>
        <time>2016-05-07T08:03:48Z</time>
      </trkpt>
      <trkpt lat="43.59997" lon="1.18735">
        <ele>171</ele>
        <time>2016-05-07T08:03:50Z</time>
      </trkpt>
      <trkpt lat="43.59999" lon="1.18737">
        <ele>171</ele>
        <time>2016-05-07T08:03:52Z</time>
      </trkpt>
      <trkpt lat="43.6" lon="1.18738">
        <ele>171</ele>
        <time>2016-05-07T08:03:54Z</time>
      </trkpt>
      <trkpt lat="43.60001" lon="1.18739">
        <ele>171</ele>
        <time>2016-05-07T08:03:55Z</time>
      </trkpt>
      <trkpt lat="43.60001" lon="1.18741">
        <ele>171</ele>
        <time>2016-05-07T08:03:57Z</time>
      </trkpt>
      <trkpt lat="43.60001" lon="1.18742">
        <ele>171</ele>
        <time>2016-05-07T08:03:58Z</time>
      </trkpt>
      <trkpt lat="43.60002" lon="1.18745">
        <ele>171</ele>
        <time>2016-05-07T08:04:00Z</time>
      </trkpt>
      <trkpt lat="43.60004" lon="1.18747">
        <ele>171</ele>
        <time>2016-05-07T08:04:02Z</time>
      </trkpt>
      <trkpt lat="43.60005" lon="1.18749">
        <ele>171</ele>
        <time>2016-05-07T08:04:03Z</time>
      </trkpt>
      <trkpt lat="43.60006" lon="1.1875">
        <ele>171</ele>
        <time>2016-05-07T08:04:05Z</time>
      </trkpt>
      <trkpt lat="43.60008" lon="1.1875">
        <ele>171</ele>
        <time>2016-05-07T08:04:06Z</time>
      </trkpt>
      <trkpt lat="43.60008" lon="1.1875">
        <ele>171</ele>
        <time>2016-05-07T08:04:07Z</time>
      </trkpt>
      <trkpt lat="43.6001" lon="1.18751">
        <ele>171</ele>
        <time>2016-05-07T08:04:09Z</time>
      </trkpt>
      <trkpt lat="43.60012" lon="1.18752">
        <ele>171</ele>
        <time>2016-05-07T08:04:11Z</time>
      </trkpt>
      <trkpt lat="43.60012" lon="1.18753">
        <ele>171</ele>
        <time>2016-05-07T08:04:12Z</time>
      </trkpt>
      <trkpt lat="43.60014" lon="1.18755">
        <ele>171</ele>
        <time>2016-05-07T08:04:14Z</time>
      </trkpt>
      <trkpt lat="43.60016" lon="1.18755">
        <ele>171</ele>
        <time>2016-05-07T08:04:16Z</time>
      </trkpt>
      <trkpt lat="43.60016" lon="1.18753">
        <ele>171</ele>
        <time>2016-05-07T08:04:18Z</time>
      </trkpt>
      <trkpt lat="43.60014" lon="1.18751">
        <ele>171</ele>
        <time>2016-05-07T08:04:20Z</time>
      </trkpt>
      <trkpt lat="43.60012" lon="1.18751">
        <ele>171</ele>
        <time>2016-05-07T08:04:22Z</time>
      </trkpt>
      <trkpt lat="43.60011" lon="1.1875">
        <ele>171</ele>
        <time>2016-05-07T08:04:23Z</time>
      </trkpt>
      <trkpt lat="43.6001" lon="1.1875">
        <ele>171</ele>
        <time>2016-05-07T08:04:24Z</time>
      </trkpt>
      <trkpt lat="43.60009" lon="1.18748">
        <ele>171</ele>
        <time>2016-05-07T08:04:26Z</time>
      </trkpt>
      <trkpt lat="43.60008" lon="1.18748">
        <ele>171</ele>
        <time>2016-05-07T08:04:27Z</time>
      </trkpt>
      <trkpt lat="43.60008" lon="1.18747">
        <ele>171</ele>
        <time>2016-05-07T08:04:29Z</time>
      </trkpt>
      <trkpt lat="43.60007" lon="1.18746">
        <ele>171</ele>
        <time>2016-05-07T08:04:30Z</time>
      </trkpt>
      <trkpt lat="43.60005" lon="1.18745">
        <ele>171</ele>
        <time>2016-05-07T08:04:32Z</time>
      </trkpt>
      <trkpt lat="43.60006" lon="1.18745">
        <ele>171</ele>
        <time>2016-05-07T08:04:33Z</time>
      </trkpt>
      <trkpt lat="43.60005" lon="1.18745">
        <ele>171</ele>
        <time>2016-05-07T08:04:35Z</time>
      </trkpt>
      <trkpt lat="43.60004" lon="1.18745">
        <ele>171</ele>
        <time>2016-05-07T08:04:37Z</time>
      </trkpt>
      <trkpt lat="43.60004" lon="1.18744">
        <ele>172</ele>
        <time>2016-05-07T08:04:38Z</time>
      </trkpt>
      <trkpt lat="43.60003" lon="1.18744">
        <ele>172</ele>
        <time>2016-05-07T08:04:39Z</time>
      </trkpt>
      <trkpt lat="43.60002" lon="1.18742">
        <ele>172</ele>
        <time>2016-05-07T08:04:41Z</time>
      </trkpt>
      <trkpt lat="43.59999" lon="1.18741">
        <ele>172</ele>
        <time>2016-05-07T08:04:43Z</time>
      </trkpt>
      <trkpt lat="43.59997" lon="1.18741">
        <ele>172</ele>
        <time>2016-05-07T08:04:45Z</time>
      </trkpt>
      <trkpt lat="43.59996" lon="1.18741">
        <ele>173</ele>
        <time>2016-05-07T08:04:46Z</time>
      </trkpt>
      <trkpt lat="43.59996" lon="1.18743">
        <ele>173</ele>
        <time>2016-05-07T08:04:48Z</time>
      </trkpt>
      <trkpt lat="43.59996" lon="1.18743">
        <ele>173</ele>
        <time>2016-05-07T08:04:49Z</time>
      </trkpt>
      <trkpt lat="43.59995" lon="1.18743">
        <ele>173</ele>
        <time>2016-05-07T08:04:51Z</time>
      </trkpt>
      <trkpt lat="43.59992" lon="1.1874">
        <ele>173</ele>
        <time>2016-05-07T08:05:08Z</time>
      </trkpt>
      <trkpt lat="43.59991" lon="1.18739">
        <ele>173</ele>
        <time>2016-05-07T08:05:10Z</time>
      </trkpt>
      <trkpt lat="43.5999" lon="1.1874">
        <ele>173</ele>
        <time>2016-05-07T08:05:12Z</time>
      </trkpt>
      <trkpt lat="43.5999" lon="1.1874">
        <ele>173</ele>
        <time>2016-05-07T08:05:14Z</time>
      </trkpt>
      <trkpt lat="43.5999" lon="1.1874">
        <ele>174</ele>
        <time>2016-05-07T08:05:29Z</time>
      </trkpt>
      <trkpt lat="43.5999" lon="1.1874">
        <ele>174</ele>
        <time>2016-05-07T08:05:30Z</time>
      </trkpt>
      <trkpt lat="43.5999" lon="1.1874">
        <ele>174</ele>
        <time>2016-05-07T08:05:46Z</time>
      </trkpt>
      <trkpt lat="43.5999" lon="1.1874">
        <ele>174</ele>
        <time>2016-05-07T08:05:48Z</time>
      </trkpt>
      <trkpt lat="43.5999" lon="1.1874">
        <ele>174</ele>
        <time>2016-05-07T08:06:03Z</time>
      </trkpt>
      <trkpt lat="43.5999" lon="1.1874">
        <ele>174</ele>
        <time>2016-05-07T08:06:05Z</time>
      </trkpt>
      <trkpt lat="43.5999" lon="1.1874">
        <ele>174</ele>
        <time>2016-05-07T08:06:21Z</time>
      </trkpt>
      <trkpt lat="43.5999" lon="1.1874">
        <ele>174</ele>
        <time>2016-05-07T08:06:22Z</time>
      </trkpt>
      <trkpt lat="43.59992" lon="1.18741">
        <ele>175</ele>
        <time>2016-05-07T08:06:30Z</time>
      </trkpt>
      <trkpt lat="43.59994" lon="1.18742">
        <ele>176</ele>
        <time>2016-05-07T08:06:31Z</time>
      </trkpt>
      <trkpt lat="43.59993" lon="1.18742">
        <ele>177</ele>
        <time>2016-05-07T08:06:33Z</time>
      </trkpt>
      <trkpt lat="43.59993" lon="1.1874">
        <ele>178</ele>
        <time>2016-05-07T08:06:34Z</time>
      </trkpt>
      <trkpt lat="43.59993" lon="1.1874">
        <ele>179</ele>
        <time>2016-05-07T08:06:56Z</time>
      </trkpt>
      <trkpt lat="43.59992" lon="1.18741">
        <ele>183</ele>
        <time>2016-05-07T08:07:04Z</time>
      </trkpt>
      <trkpt lat="43.59992" lon="1.18742">
        <ele>188</ele>
        <time>2016-05-07T08:07:06Z</time>
      </trkpt>
      <trkpt lat="43.6" lon="1.18733">
        <ele>195</ele>
        <time>2016-05-07T08:07:08Z</time>
      </trkpt>
      <trkpt lat="43.60001" lon="1.18734">
        <ele>201</ele>
        <time>2016-05-07T08:07:10Z</time>
      </trkpt>
      <trkpt lat="43.59994" lon="1.18743">
        <ele>205</ele>
        <time>2016-05-07T08:07:17Z</time>
      </trkpt>
      <trkpt lat="43.59993" lon="1.18741">
        <ele>204</ele>
        <time>2016-05-07T08:07:18Z</time>
      </trkpt>
      <trkpt lat="43.59993" lon="1.1874">
        <ele>201</ele>
        <time>2016-05-07T08:07:20Z</time>
      </trkpt>
      <trkpt lat="43.59993" lon="1.1874">
        <ele>197</ele>
        <time>2016-05-07T08:07:47Z</time>
      </trkpt>
      <trkpt lat="43.59994" lon="1.18736">
        <ele>192</ele>
        <time>2016-05-07T08:07:51Z</time>
      </trkpt>
      <trkpt lat="43.6" lon="1.1874">
        <ele>190</ele>
        <time>2016-05-07T08:07:53Z</time>
      </trkpt>
      <trkpt lat="43.6" lon="1.18739">
        <ele>189</ele>
        <time>2016-05-07T08:07:54Z</time>
      </trkpt>
      <trkpt lat="43.6" lon="1.18736">
        <ele>188</ele>
        <time>2016-05-07T08:07:56Z</time>
      </trkpt>
      <trkpt lat="43.6" lon="1.18737">
        <ele>188</ele>
        <time>2016-05-07T08:07:57Z</time>
      </trkpt>
      <trkpt lat="43.59998" lon="1.18737">
        <ele>188</ele>
        <time>2016-05-07T08:07:59Z</time>
      </trkpt>
      <trkpt lat="43.59998" lon="1.18739">
        <ele>187</ele>
        <time>2016-05-07T08:08:16Z</time>
      </trkpt>
      <trkpt lat="43.59998" lon="1.18739">
        <ele>187</ele>
        <time>2016-05-07T08:08:32Z</time>
      </trkpt>
      <trkpt lat="43.59978" lon="1.18745">
        <ele>187</ele>
        <time>2016-05-07T08:08:35Z</time>
      </trkpt>
      <trkpt lat="43.59983" lon="1.18749">
        <ele>187</ele>
        <time>2016-05-07T08:08:38Z</time>
      </trkpt>
      <trkpt lat="43.59995" lon="1.18736">
        <ele>187</ele>
        <time>2016-05-07T08:08:59Z</time>
      </trkpt>
      <trkpt lat="43.59995" lon="1.18738">
        <ele>188</ele>
        <time>2016-05-07T08:09:05Z</time>
      </trkpt>
      <trkpt lat="43.59995" lon="1.18738">
        <ele>188</ele>
        <time>2016-05-07T08:09:19Z</time>
      </trkpt>
      <trkpt lat="43.59995" lon="1.18738">
        <ele>188</ele>
        <time>2016-05-07T08:09:21Z</time>
      </trkpt>
      <trkpt lat="43.59993" lon="1.18743">
        <ele>187</ele>
        <time>2016-05-07T08:09:30Z</time>
      </trkpt>
      <trkpt lat="43.59989" lon="1.18742">
        <ele>187</ele>
        <time>2016-05-07T08:09:38Z</time>
      </trkpt>
      <trkpt lat="43.59992" lon="1.18741">
        <ele>187</ele>
        <time>2016-05-07T08:09:42Z</time>
      </trkpt>
      <trkpt lat="43.59994" lon="1.18741">
        <ele>187</ele>
        <time>2016-05-07T08:09:46Z</time>
      </trkpt>
      <trkpt lat="43.59991" lon="1.18743">
        <ele>187</ele>
        <time>2016-05-07T08:09:50Z</time>
      </trkpt>
      <trkpt lat="43.59992" lon="1.18743">
        <ele>187</ele>
        <time>2016-05-07T08:09:55Z</time>
      </trkpt>
      <trkpt lat="43.59992" lon="1.18743">
        <ele>187</ele>
        <time>2016-05-07T08:10:12Z</time>
      </trkpt>
      <trkpt lat="43.59992" lon="1.18743">
        <ele>187</ele>
        <time>2016-05-07T08:10:13Z</time>
      </trkpt>
      <trkpt lat="43.59998" lon="1.18743">
        <ele>187</ele>
        <time>2016-05-07T08:10:19Z</time>
      </trkpt>
      <trkpt lat="43.59998" lon="1.18743">
        <ele>187</ele>
        <time>2016-05-07T08:10:21Z</time>
      </trkpt>
      <trkpt lat="43.59992" lon="1.1874">
        <ele>186</ele>
        <time>2016-05-07T08:10:32Z</time>
      </trkpt>
      <trkpt lat="43.59991" lon="1.18739">
        <ele>186</ele>
        <time>2016-05-07T08:10:34Z</time>
      </trkpt>
      <trkpt lat="43.5999" lon="1.18736">
        <ele>186</ele>
        <time>2016-05-07T08:10:37Z</time>
      </trkpt>
      <trkpt lat="43.59989" lon="1.18733">
        <ele>186</ele>
        <time>2016-05-07T08:10:39Z</time>
      </trkpt>
      <trkpt lat="43.59983" lon="1.18729">
        <ele>186</ele>
        <time>2016-05-07T08:10:43Z</time>
      </trkpt>
      <trkpt lat="43.59981" lon="1.18728">
        <ele>186</ele>
        <time>2016-05-07T08:10:44Z</time>
      </trkpt>
      <trkpt lat="43.5998" lon="1.18726">
        <ele>186</ele>
        <time>2016-05-07T08:10:46Z</time>
      </trkpt>
      <trkpt lat="43.59979" lon="1.18725">
        <ele>186</ele>
        <time>2016-05-07T08:10:47Z</time>
      </trkpt>
      <trkpt lat="43.59976" lon="1.18721">
        <ele>186</ele>
        <time>2016-05-07T08:10:51Z</time>
      </trkpt>
      <trkpt lat="43.59975" lon="1.18718">
        <ele>186</ele>
        <time>2016-05-07T08:10:53Z</time>
      </trkpt>
      <trkpt lat="43.59974" lon="1.18718">
        <ele>186</ele>
        <time>2016-05-07T08:10:54Z</time>
      </trkpt>
      <trkpt lat="43.59972" lon="1.18715">
        <ele>186</ele>
        <time>2016-05-07T08:10:56Z</time>
      </trkpt>
      <trkpt lat="43.59971" lon="1.18714">
        <ele>186</ele>
        <time>2016-05-07T08:10:57Z</time>
      </trkpt>
      <trkpt lat="43.59969" lon="1.18713">
        <ele>186</ele>
        <time>2016-05-07T08:10:59Z</time>
      </trkpt>
      <trkpt lat="43.59967" lon="1.18712">
        <ele>186</ele>
        <time>2016-05-07T08:11:01Z</time>
      </trkpt>
      <trkpt lat="43.59963" lon="1.18709">
        <ele>186</ele>
        <time>2016-05-07T08:11:04Z</time>
      </trkpt>
      <trkpt lat="43.59961" lon="1.18707">
        <ele>186</ele>
        <time>2016-05-07T08:11:07Z</time>
      </trkpt>
      <trkpt lat="43.59959" lon="1.18706">
        <ele>186</ele>
        <time>2016-05-07T08:11:08Z</time>
      </trkpt>
      <trkpt lat="43.59958" lon="1.18702">
        <ele>186</ele>
        <time>2016-05-07T08:11:10Z</time>
      </trkpt>
      <trkpt lat="43.59957" lon="1.18701">
        <ele>186</ele>
        <time>2016-05-07T08:11:12Z</time>
      </trkpt>
      <trkpt lat="43.59954" lon="1.18699">
        <ele>186</ele>
        <time>2016-05-07T08:11:15Z</time>
      </trkpt>
      <trkpt lat="43.5995" lon="1.18695">
        <ele>186</ele>
        <time>2016-05-07T08:11:19Z</time>
      </trkpt>
      <trkpt lat="43.59948" lon="1.18693">
        <ele>186</ele>
        <time>2016-05-07T08:11:21Z</time>
      </trkpt>
      <trkpt lat="43.59946" lon="1.18692">
        <ele>186</ele>
        <time>2016-05-07T08:11:23Z</time>
      </trkpt>
      <trkpt lat="43.59942" lon="1.18688">
        <ele>186</ele>
        <time>2016-05-07T08:11:27Z</time>
      </trkpt>
      <trkpt lat="43.59937" lon="1.18684">
        <ele>186</ele>
        <time>2016-05-07T08:11:31Z</time>
      </trkpt>
      <trkpt lat="43.59935" lon="1.18683">
        <ele>186</ele>
        <time>2016-05-07T08:11:32Z</time>
      </trkpt>
      <trkpt lat="43.59931" lon="1.1868">
        <ele>186</ele>
        <time>2016-05-07T08:11:36Z</time>
      </trkpt>
      <trkpt lat="43.59928" lon="1.18678">
        <ele>186</ele>
        <time>2016-05-07T08:11:38Z</time>
      </trkpt>
      <trkpt lat="43.59927" lon="1.18677">
        <ele>186</ele>
        <time>2016-05-07T08:11:39Z</time>
      </trkpt>
      <trkpt lat="43.59925" lon="1.18677">
        <ele>186</ele>
        <time>2016-05-07T08:11:40Z</time>
      </trkpt>
      <trkpt lat="43.59921" lon="1.18674">
        <ele>186</ele>
        <time>2016-05-07T08:11:43Z</time>
      </trkpt>
      <trkpt lat="43.59919" lon="1.18671">
        <ele>186</ele>
        <time>2016-05-07T08:11:46Z</time>
      </trkpt>
      <trkpt lat="43.59916" lon="1.1867">
        <ele>186</ele>
        <time>2016-05-07T08:11:48Z</time>
      </trkpt>
      <trkpt lat="43.59914" lon="1.18669">
        <ele>186</ele>
        <time>2016-05-07T08:11:50Z</time>
      </trkpt>
      <trkpt lat="43.59912" lon="1.18667">
        <ele>186</ele>
        <time>2016-05-07T08:11:52Z</time>
      </trkpt>
      <trkpt lat="43.59909" lon="1.18665">
        <ele>186</ele>
        <time>2016-05-07T08:11:54Z</time>
      </trkpt>
      <trkpt lat="43.59904" lon="1.18661">
        <ele>186</ele>
        <time>2016-05-07T08:11:58Z</time>
      </trkpt>
      <trkpt lat="43.59901" lon="1.18659">
        <ele>186</ele>
        <time>2016-05-07T08:12:00Z</time>
      </trkpt>
      <trkpt lat="43.59899" lon="1.18658">
        <ele>186</ele>
        <time>2016-05-07T08:12:02Z</time>
      </trkpt>
      <trkpt lat="43.59897" lon="1.18656">
        <ele>187</ele>
        <time>2016-05-07T08:12:04Z</time>
      </trkpt>
      <trkpt lat="43.59892" lon="1.18651">
        <ele>187</ele>
        <time>2016-05-07T08:12:09Z</time>
      </trkpt>
      <trkpt lat="43.59891" lon="1.1865">
        <ele>187</ele>
        <time>2016-05-07T08:12:10Z</time>
      </trkpt>
      <trkpt lat="43.59889" lon="1.18647">
        <ele>187</ele>
        <time>2016-05-07T08:12:12Z</time>
      </trkpt>
      <trkpt lat="43.59886" lon="1.18644">
        <ele>187</ele>
        <time>2016-05-07T08:12:14Z</time>
      </trkpt>
      <trkpt lat="43.59884" lon="1.18643">
        <ele>187</ele>
        <time>2016-05-07T08:12:16Z</time>
      </trkpt>
      <trkpt lat="43.59872" lon="1.18633">
        <ele>187</ele>
        <time>2016-05-07T08:12:24Z</time>
      </trkpt>
      <trkpt lat="43.5987" lon="1.18633">
        <ele>187</ele>
        <time>2016-05-07T08:12:25Z</time>
      </trkpt>
      <trkpt lat="43.59869" lon="1.18633">
        <ele>187</ele>
        <time>2016-05-07T08:12:26Z</time>
      </trkpt>
      <trkpt lat="43.59869" lon="1.18632">
        <ele>187</ele>
        <time>2016-05-07T08:12:27Z</time>
      </trkpt>
      <trkpt lat="43.59863" lon="1.18628">
        <ele>187</ele>
        <time>2016-05-07T08:12:32Z</time>
      </trkpt>
      <trkpt lat="43.59862" lon="1.18627">
        <ele>187</ele>
        <time>2016-05-07T08:12:33Z</time>
      </trkpt>
      <trkpt lat="43.59858" lon="1.18623">
        <ele>187</ele>
        <time>2016-05-07T08:12:37Z</time>
      </trkpt>
      <trkpt lat="43.59855" lon="1.18619">
        <ele>187</ele>
        <time>2016-05-07T08:12:40Z</time>
      </trkpt>
      <trkpt lat="43.5985" lon="1.18614">
        <ele>187</ele>
        <time>2016-05-07T08:12:44Z</time>
      </trkpt>
      <trkpt lat="43.59848" lon="1.18613">
        <ele>187</ele>
        <time>2016-05-07T08:12:46Z</time>
      </trkpt>
      <trkpt lat="43.59844" lon="1.18611">
        <ele>187</ele>
        <time>2016-05-07T08:12:49Z</time>
      </trkpt>
      <trkpt lat="43.59843" lon="1.18609">
        <ele>187</ele>
        <time>2016-05-07T08:12:51Z</time>
      </trkpt>
      <trkpt lat="43.5984" lon="1.18608">
        <ele>187</ele>
        <time>2016-05-07T08:12:53Z</time>
      </trkpt>
      <trkpt lat="43.5983" lon="1.18596">
        <ele>187</ele>
        <time>2016-05-07T08:12:59Z</time>
      </trkpt>
      <trkpt lat="43.59817" lon="1.18591">
        <ele>187</ele>
        <time>2016-05-07T08:13:07Z</time>
      </trkpt>
      <trkpt lat="43.59814" lon="1.18589">
        <ele>187</ele>
        <time>2016-05-07T08:13:09Z</time>
      </trkpt>
      <trkpt lat="43.59813" lon="1.18587">
        <ele>186</ele>
        <time>2016-05-07T08:13:10Z</time>
      </trkpt>
      <trkpt lat="43.59807" lon="1.18582">
        <ele>186</ele>
        <time>2016-05-07T08:13:15Z</time>
      </trkpt>
      <trkpt lat="43.59803" lon="1.18577">
        <ele>186</ele>
        <time>2016-05-07T08:13:18Z</time>
      </trkpt>
      <trkpt lat="43.59802" lon="1.18574">
        <ele>185</ele>
        <time>2016-05-07T08:13:20Z</time>
      </trkpt>
      <trkpt lat="43.59799" lon="1.18573">
        <ele>185</ele>
        <time>2016-05-07T08:13:21Z</time>
      </trkpt>
      <trkpt lat="43.59795" lon="1.1857">
        <ele>185</ele>
        <time>2016-05-07T08:13:24Z</time>
      </trkpt>
      <trkpt lat="43.59794" lon="1.18569">
        <ele>185</ele>
        <time>2016-05-07T08:13:25Z</time>
      </trkpt>
      <trkpt lat="43.59788" lon="1.18565">
        <ele>185</ele>
        <time>2016-05-07T08:13:28Z</time>
      </trkpt>
      <trkpt lat="43.59773" lon="1.18556">
        <ele>185</ele>
        <time>2016-05-07T08:13:35Z</time>
      </trkpt>
      <trkpt lat="43.59765" lon="1.18549">
        <ele>185</ele>
        <time>2016-05-07T08:13:40Z</time>
      </trkpt>
      <trkpt lat="43.59759" lon="1.18545">
        <ele>184</ele>
        <time>2016-05-07T08:13:44Z</time>
      </trkpt>
      <trkpt lat="43.59758" lon="1.18544">
        <ele>184</ele>
        <time>2016-05-07T08:13:45Z</time>
      </trkpt>
      <trkpt lat="43.59755" lon="1.18542">
        <ele>184</ele>
        <time>2016-05-07T08:13:47Z</time>
      </trkpt>
      <trkpt lat="43.59752" lon="1.18539">
        <ele>184</ele>
        <time>2016-05-07T08:13:49Z</time>
      </trkpt>
      <trkpt lat="43.59749" lon="1.18537">
        <ele>184</ele>
        <time>2016-05-07T08:13:51Z</time>
      </trkpt>
      <trkpt lat="43.59746" lon="1.18535">
        <ele>184</ele>
        <time>2016-05-07T08:13:53Z</time>
      </trkpt>
      <trkpt lat="43.59746" lon="1.18534">
        <ele>184</ele>
        <time>2016-05-07T08:13:54Z</time>
      </trkpt>
      <trkpt lat="43.59745" lon="1.18533">
        <ele>184</ele>
        <time>2016-05-07T08:13:55Z</time>
      </trkpt>
      <trkpt lat="43.59742" lon="1.18532">
        <ele>184</ele>
        <time>2016-05-07T08:13:57Z</time>
      </trkpt>
      <trkpt lat="43.59741" lon="1.18531">
        <ele>184</ele>
        <time>2016-05-07T08:13:58Z</time>
      </trkpt>
      <trkpt lat="43.59738" lon="1.18529">
        <ele>185</ele>
        <time>2016-05-07T08:14:00Z</time>
      </trkpt>
      <trkpt lat="43.59735" lon="1.18527">
        <ele>185</ele>
        <time>2016-05-07T08:14:02Z</time>
      </trkpt>
      <trkpt lat="43.59732" lon="1.18524">
        <ele>185</ele>
        <time>2016-05-07T08:14:04Z</time>
      </trkpt>
      <trkpt lat="43.59731" lon="1.18521">
        <ele>185</ele>
        <time>2016-05-07T08:14:06Z</time>
      </trkpt>
      <trkpt lat="43.59728" lon="1.18518">
        <ele>185</ele>
        <time>2016-05-07T08:14:08Z</time>
      </trkpt>
      <trkpt lat="43.59727" lon="1.18517">
        <ele>185</ele>
        <time>2016-05-07T08:14:09Z</time>
      </trkpt>
      <trkpt lat="43.59724" lon="1.18513">
        <ele>185</ele>
        <time>2016-05-07T08:14:11Z</time>
      </trkpt>
      <trkpt lat="43.59722" lon="1.18511">
        <ele>185</ele>
        <time>2016-05-07T08:14:13Z</time>
      </trkpt>
      <trkpt lat="43.59719" lon="1.18508">
        <ele>185</ele>
        <time>2016-05-07T08:14:15Z</time>
      </trkpt>
      <trkpt lat="43.59718" lon="1.18507">
        <ele>185</ele>
        <time>2016-05-07T08:14:16Z</time>
      </trkpt>
      <trkpt lat="43.59716" lon="1.18505">
        <ele>185</ele>
        <time>2016-05-07T08:14:18Z</time>
      </trkpt>
      <trkpt lat="43.59715" lon="1.18505">
        <ele>185</ele>
        <time>2016-05-07T08:14:19Z</time>
      </trkpt>
      <trkpt lat="43.59712" lon="1.18503">
        <ele>185</ele>
        <time>2016-05-07T08:14:21Z</time>
      </trkpt>
      <trkpt lat="43.59711" lon="1.18502">
        <ele>185</ele>
        <time>2016-05-07T08:14:22Z</time>
      </trkpt>
      <trkpt lat="43.59709" lon="1.18499">
        <ele>185</ele>
        <time>2016-05-07T08:14:24Z</time>
      </trkpt>
      <trkpt lat="43.59708" lon="1.18494">
        <ele>185</ele>
        <time>2016-05-07T08:14:27Z</time>
      </trkpt>
      <trkpt lat="43.59707" lon="1.1849">
        <ele>185</ele>
        <time>2016-05-07T08:14:28Z</time>
      </trkpt>
      <trkpt lat="43.59705" lon="1.18486">
        <ele>185</ele>
        <time>2016-05-07T08:14:30Z</time>
      </trkpt>
      <trkpt lat="43.59705" lon="1.18481">
        <ele>185</ele>
        <time>2016-05-07T08:14:32Z</time>
      </trkpt>
      <trkpt lat="43.59706" lon="1.18479">
        <ele>185</ele>
        <time>2016-05-07T08:14:33Z</time>
      </trkpt>
      <trkpt lat="43.59707" lon="1.18475">
        <ele>185</ele>
        <time>2016-05-07T08:14:35Z</time>
      </trkpt>
      <trkpt lat="43.59706" lon="1.18473">
        <ele>185</ele>
        <time>2016-05-07T08:14:36Z</time>
      </trkpt>
      <trkpt lat="43.59706" lon="1.1847">
        <ele>185</ele>
        <time>2016-05-07T08:14:38Z</time>
      </trkpt>
      <trkpt lat="43.59705" lon="1.18468">
        <ele>185</ele>
        <time>2016-05-07T08:14:39Z</time>
      </trkpt>
      <trkpt lat="43.59706" lon="1.18465">
        <ele>185</ele>
        <time>2016-05-07T08:14:41Z</time>
      </trkpt>
      <trkpt lat="43.59708" lon="1.18462">
        <ele>184</ele>
        <time>2016-05-07T08:14:42Z</time>
      </trkpt>
      <trkpt lat="43.59708" lon="1.1846">
        <ele>184</ele>
        <time>2016-05-07T08:14:43Z</time>
      </trkpt>
      <trkpt lat="43.5971" lon="1.18456">
        <ele>184</ele>
        <time>2016-05-07T08:14:45Z</time>
      </trkpt>
      <trkpt lat="43.59709" lon="1.18453">
        <ele>184</ele>
        <time>2016-05-07T08:14:46Z</time>
      </trkpt>
      <trkpt lat="43.59709" lon="1.18449">
        <ele>184</ele>
        <time>2016-05-07T08:14:48Z</time>
      </trkpt>
      <trkpt lat="43.59708" lon="1.18445">
        <ele>184</ele>
        <time>2016-05-07T08:14:50Z</time>
      </trkpt>
      <trkpt lat="43.59707" lon="1.1844">
        <ele>184</ele>
        <time>2016-05-07T08:14:52Z</time>
      </trkpt>
      <trkpt lat="43.59707" lon="1.18438">
        <ele>184</ele>
        <time>2016-05-07T08:14:53Z</time>
      </trkpt>
      <trkpt lat="43.59707" lon="1.18435">
        <ele>184</ele>
        <time>2016-05-07T08:14:54Z</time>
      </trkpt>
      <trkpt lat="43.59707" lon="1.18431">
        <ele>184</ele>
        <time>2016-05-07T08:14:56Z</time>
      </trkpt>
      <trkpt lat="43.59707" lon="1.18424">
        <ele>184</ele>
        <time>2016-05-07T08:14:59Z</time>
      </trkpt>
      <trkpt lat="43.59707" lon="1.18418">
        <ele>184</ele>
        <time>2016-05-07T08:15:01Z</time>
      </trkpt>
      <trkpt lat="43.59709" lon="1.18412">
        <ele>184</ele>
        <time>2016-05-07T08:15:04Z</time>
      </trkpt>
      <trkpt lat="43.5971" lon="1.18408">
        <ele>184</ele>
        <time>2016-05-07T08:15:06Z</time>
      </trkpt>
      <trkpt lat="43.59712" lon="1.18405">
        <ele>184</ele>
        <time>2016-05-07T08:15:08Z</time>
      </trkpt>
      <trkpt lat="43.59714" lon="1.18401">
        <ele>184</ele>
        <time>2016-05-07T08:15:10Z</time>
      </trkpt>
      <trkpt lat="43.59716" lon="1.18398">
        <ele>184</ele>
        <time>2016-05-07T08:15:12Z</time>
      </trkpt>
      <trkpt lat="43.59719" lon="1.18392">
        <ele>184</ele>
        <time>2016-05-07T08:15:15Z</time>
      </trkpt>
      <trkpt lat="43.59721" lon="1.18387">
        <ele>184</ele>
        <time>2016-05-07T08:15:17Z</time>
      </trkpt>
      <trkpt lat="43.59723" lon="1.18383">
        <ele>184</ele>
        <time>2016-05-07T08:15:19Z</time>
      </trkpt>
      <trkpt lat="43.59728" lon="1.18375">
        <ele>184</ele>
        <time>2016-05-07T08:15:23Z</time>
      </trkpt>
      <trkpt lat="43.59728" lon="1.18372">
        <ele>184</ele>
        <time>2016-05-07T08:15:24Z</time>
      </trkpt>
      <trkpt lat="43.59729" lon="1.18368">
        <ele>184</ele>
        <time>2016-05-07T08:15:26Z</time>
      </trkpt>
      <trkpt lat="43.59729" lon="1.18366">
        <ele>184</ele>
        <time>2016-05-07T08:15:27Z</time>
      </trkpt>
      <trkpt lat="43.59728" lon="1.18363">
        <ele>184</ele>
        <time>2016-05-07T08:15:28Z</time>
      </trkpt>
      <trkpt lat="43.59731" lon="1.18358">
        <ele>184</ele>
        <time>2016-05-07T08:15:30Z</time>
      </trkpt>
      <trkpt lat="43.59732" lon="1.18355">
        <ele>184</ele>
        <time>2016-05-07T08:15:31Z</time>
      </trkpt>
      <trkpt lat="43.59732" lon="1.18354">
        <ele>184</ele>
        <time>2016-05-07T08:15:32Z</time>
      </trkpt>
      <trkpt lat="43.59735" lon="1.18349">
        <ele>184</ele>
        <time>2016-05-07T08:15:34Z</time>
      </trkpt>
      <trkpt lat="43.59736" lon="1.18348">
        <ele>184</ele>
        <time>2016-05-07T08:15:35Z</time>
      </trkpt>
      <trkpt lat="43.59736" lon="1.18346">
        <ele>184</ele>
        <time>2016-05-07T08:15:36Z</time>
      </trkpt>
      <trkpt lat="43.59738" lon="1.18343">
        <ele>184</ele>
        <time>2016-05-07T08:15:38Z</time>
      </trkpt>
      <trkpt lat="43.59737" lon="1.18337">
        <ele>184</ele>
        <time>2016-05-07T08:15:40Z</time>
      </trkpt>
      <trkpt lat="43.59739" lon="1.18329">
        <ele>184</ele>
        <time>2016-05-07T08:15:44Z</time>
      </trkpt>
      <trkpt lat="43.59744" lon="1.1832">
        <ele>185</ele>
        <time>2016-05-07T08:15:48Z</time>
      </trkpt>
      <trkpt lat="43.59745" lon="1.18318">
        <ele>185</ele>
        <time>2016-05-07T08:15:49Z</time>
      </trkpt>
      <trkpt lat="43.59745" lon="1.18314">
        <ele>185</ele>
        <time>2016-05-07T08:15:51Z</time>
      </trkpt>
      <trkpt lat="43.59745" lon="1.18312">
        <ele>185</ele>
        <time>2016-05-07T08:15:52Z</time>
      </trkpt>
      <trkpt lat="43.59745" lon="1.1831">
        <ele>185</ele>
        <time>2016-05-07T08:15:53Z</time>
      </trkpt>
      <trkpt lat="43.59743" lon="1.18305">
        <ele>185</ele>
        <time>2016-05-07T08:15:55Z</time>
      </trkpt>
      <trkpt lat="43.59744" lon="1.18299">
        <ele>185</ele>
        <time>2016-05-07T08:15:57Z</time>
      </trkpt>
      <trkpt lat="43.59745" lon="1.18295">
        <ele>185</ele>
        <time>2016-05-07T08:15:59Z</time>
      </trkpt>
      <trkpt lat="43.59745" lon="1.18291">
        <ele>185</ele>
        <time>2016-05-07T08:16:01Z</time>
      </trkpt>
      <trkpt lat="43.59743" lon="1.1829">
        <ele>186</ele>
        <time>2016-05-07T08:16:02Z</time>
      </trkpt>
      <trkpt lat="43.59744" lon="1.18288">
        <ele>186</ele>
        <time>2016-05-07T08:16:03Z</time>
      </trkpt>
      <trkpt lat="43.59744" lon="1.18283">
        <ele>186</ele>
        <time>2016-05-07T08:16:05Z</time>
      </trkpt>
      <trkpt lat="43.59744" lon="1.1828">
        <ele>186</ele>
        <time>2016-05-07T08:16:06Z</time>
      </trkpt>
      <trkpt lat="43.59742" lon="1.18274">
        <ele>186</ele>
        <time>2016-05-07T08:16:08Z</time>
      </trkpt>
      <trkpt lat="43.59747" lon="1.18264">
        <ele>187</ele>
        <time>2016-05-07T08:16:12Z</time>
      </trkpt>
      <trkpt lat="43.59748" lon="1.18261">
        <ele>187</ele>
        <time>2016-05-07T08:16:13Z</time>
      </trkpt>
      <trkpt lat="43.59749" lon="1.18259">
        <ele>187</ele>
        <time>2016-05-07T08:16:14Z</time>
      </trkpt>
      <trkpt lat="43.59751" lon="1.18255">
        <ele>187</ele>
        <time>2016-05-07T08:16:16Z</time>
      </trkpt>
      <trkpt lat="43.59752" lon="1.18254">
        <ele>187</ele>
        <time>2016-05-07T08:16:17Z</time>
      </trkpt>
      <trkpt lat="43.59754" lon="1.18249">
        <ele>188</ele>
        <time>2016-05-07T08:16:19Z</time>
      </trkpt>
      <trkpt lat="43.59755" lon="1.18243">
        <ele>188</ele>
        <time>2016-05-07T08:16:21Z</time>
      </trkpt>
      <trkpt lat="43.59755" lon="1.1824">
        <ele>188</ele>
        <time>2016-05-07T08:16:23Z</time>
      </trkpt>
      <trkpt lat="43.59755" lon="1.18238">
        <ele>188</ele>
        <time>2016-05-07T08:16:24Z</time>
      </trkpt>
      <trkpt lat="43.59757" lon="1.18234">
        <ele>188</ele>
        <time>2016-05-07T08:16:26Z</time>
      </trkpt>
      <trkpt lat="43.59758" lon="1.1823">
        <ele>188</ele>
        <time>2016-05-07T08:16:28Z</time>
      </trkpt>
      <trkpt lat="43.59758" lon="1.18228">
        <ele>188</ele>
        <time>2016-05-07T08:16:29Z</time>
      </trkpt>
      <trkpt lat="43.59758" lon="1.18225">
        <ele>188</ele>
        <time>2016-05-07T08:16:31Z</time>
      </trkpt>
      <trkpt lat="43.5976" lon="1.18222">
        <ele>188</ele>
        <time>2016-05-07T08:16:33Z</time>
      </trkpt>
      <trkpt lat="43.59761" lon="1.18218">
        <ele>188</ele>
        <time>2016-05-07T08:16:35Z</time>
      </trkpt>
      <trkpt lat="43.59761" lon="1.18217">
        <ele>188</ele>
        <time>2016-05-07T08:16:36Z</time>
      </trkpt>
      <trkpt lat="43.59761" lon="1.18212">
        <ele>188</ele>
        <time>2016-05-07T08:16:38Z</time>
      </trkpt>
      <trkpt lat="43.59762" lon="1.18207">
        <ele>188</ele>
        <time>2016-05-07T08:16:40Z</time>
      </trkpt>
      <trkpt lat="43.59762" lon="1.18202">
        <ele>189</ele>
        <time>2016-05-07T08:16:42Z</time>
      </trkpt>
      <trkpt lat="43.59763" lon="1.18199">
        <ele>189</ele>
        <time>2016-05-07T08:16:43Z</time>
      </trkpt>
      <trkpt lat="43.59762" lon="1.18195">
        <ele>189</ele>
        <time>2016-05-07T08:16:45Z</time>
      </trkpt>
      <trkpt lat="43.5976" lon="1.1819">
        <ele>189</ele>
        <time>2016-05-07T08:16:47Z</time>
      </trkpt>
      <trkpt lat="43.5976" lon="1.18186">
        <ele>189</ele>
        <time>2016-05-07T08:16:49Z</time>
      </trkpt>
      <trkpt lat="43.5976" lon="1.18184">
        <ele>189</ele>
        <time>2016-05-07T08:16:50Z</time>
      </trkpt>
      <trkpt lat="43.59761" lon="1.18182">
        <ele>189</ele>
        <time>2016-05-07T08:16:51Z</time>
      </trkpt>
      <trkpt lat="43.59761" lon="1.18178">
        <ele>190</ele>
        <time>2016-05-07T08:16:53Z</time>
      </trkpt>
      <trkpt lat="43.5976" lon="1.18173">
        <ele>190</ele>
        <time>2016-05-07T08:16:55Z</time>
      </trkpt>
      <trkpt lat="43.59758" lon="1.18171">
        <ele>190</ele>
        <time>2016-05-07T08:16:56Z</time>
      </trkpt>
      <trkpt lat="43.59758" lon="1.1817">
        <ele>190</ele>
        <time>2016-05-07T08:16:57Z</time>
      </trkpt>
      <trkpt lat="43.59756" lon="1.18165">
        <ele>191</ele>
        <time>2016-05-07T08:16:59Z</time>
      </trkpt>
      <trkpt lat="43.59756" lon="1.18161">
        <ele>191</ele>
        <time>2016-05-07T08:17:01Z</time>
      </trkpt>
      <trkpt lat="43.59755" lon="1.18152">
        <ele>191</ele>
        <time>2016-05-07T08:17:05Z</time>
      </trkpt>
      <trkpt lat="43.59755" lon="1.18151">
        <ele>191</ele>
        <time>2016-05-07T08:17:06Z</time>
      </trkpt>
      <trkpt lat="43.59755" lon="1.18148">
        <ele>191</ele>
        <time>2016-05-07T08:17:08Z</time>
      </trkpt>
      <trkpt lat="43.59754" lon="1.18145">
        <ele>191</ele>
        <time>2016-05-07T08:17:10Z</time>
      </trkpt>
      <trkpt lat="43.59754" lon="1.18141">
        <ele>191</ele>
        <time>2016-05-07T08:17:12Z</time>
      </trkpt>
      <trkpt lat="43.59753" lon="1.18137">
        <ele>191</ele>
        <time>2016-05-07T08:17:14Z</time>
      </trkpt>
      <trkpt lat="43.59753" lon="1.18133">
        <ele>191</ele>
        <time>2016-05-07T08:17:16Z</time>
      </trkpt>
      <trkpt lat="43.59752" lon="1.18128">
        <ele>191</ele>
        <time>2016-05-07T08:17:18Z</time>
      </trkpt>
      <trkpt lat="43.59752" lon="1.18123">
        <ele>191</ele>
        <time>2016-05-07T08:17:20Z</time>
      </trkpt>
      <trkpt lat="43.5975" lon="1.18122">
        <ele>191</ele>
        <time>2016-05-07T08:17:21Z</time>
      </trkpt>
      <trkpt lat="43.59749" lon="1.18118">
        <ele>191</ele>
        <time>2016-05-07T08:17:23Z</time>
      </trkpt>
      <trkpt lat="43.59749" lon="1.18115">
        <ele>191</ele>
        <time>2016-05-07T08:17:24Z</time>
      </trkpt>
      <trkpt lat="43.59747" lon="1.18111">
        <ele>191</ele>
        <time>2016-05-07T08:17:26Z</time>
      </trkpt>
      <trkpt lat="43.59746" lon="1.18107">
        <ele>191</ele>
        <time>2016-05-07T08:17:27Z</time>
      </trkpt>
      <trkpt lat="43.59746" lon="1.18105">
        <ele>191</ele>
        <time>2016-05-07T08:17:28Z</time>
      </trkpt>
      <trkpt lat="43.59745" lon="1.18101">
        <ele>191</ele>
        <time>2016-05-07T08:17:30Z</time>
      </trkpt>
      <trkpt lat="43.59744" lon="1.18098">
        <ele>191</ele>
        <time>2016-05-07T08:17:31Z</time>
      </trkpt>
      <trkpt lat="43.59744" lon="1.18095">
        <ele>191</ele>
        <time>2016-05-07T08:17:32Z</time>
      </trkpt>
      <trkpt lat="43.59742" lon="1.18093">
        <ele>191</ele>
        <time>2016-05-07T08:17:34Z</time>
      </trkpt>
      <trkpt lat="43.5974" lon="1.18089">
        <ele>191</ele>
        <time>2016-05-07T08:17:37Z</time>
      </trkpt>
      <trkpt lat="43.5974" lon="1.18089">
        <ele>191</ele>
        <time>2016-05-07T08:17:37Z</time>
      </trkpt>
      <trkpt lat="43.5974" lon="1.18085">
        <ele>192</ele>
        <time>2016-05-07T08:17:39Z</time>
      </trkpt>
      <trkpt lat="43.5974" lon="1.18078">
        <ele>192</ele>
        <time>2016-05-07T08:17:41Z</time>
      </trkpt>
      <trkpt lat="43.5974" lon="1.18073">
        <ele>192</ele>
        <time>2016-05-07T08:17:43Z</time>
      </trkpt>
      <trkpt lat="43.59739" lon="1.18069">
        <ele>192</ele>
        <time>2016-05-07T08:17:45Z</time>
      </trkpt>
      <trkpt lat="43.59739" lon="1.18068">
        <ele>192</ele>
        <time>2016-05-07T08:17:46Z</time>
      </trkpt>
      <trkpt lat="43.59739" lon="1.18063">
        <ele>192</ele>
        <time>2016-05-07T08:17:48Z</time>
      </trkpt>
      <trkpt lat="43.59738" lon="1.1806">
        <ele>192</ele>
        <time>2016-05-07T08:17:50Z</time>
      </trkpt>
      <trkpt lat="43.59738" lon="1.18052">
        <ele>192</ele>
        <time>2016-05-07T08:17:54Z</time>
      </trkpt>
      <trkpt lat="43.59737" lon="1.18051">
        <ele>192</ele>
        <time>2016-05-07T08:17:55Z</time>
      </trkpt>
      <trkpt lat="43.59736" lon="1.18046">
        <ele>192</ele>
        <time>2016-05-07T08:17:57Z</time>
      </trkpt>
      <trkpt lat="43.59737" lon="1.18044">
        <ele>192</ele>
        <time>2016-05-07T08:17:58Z</time>
      </trkpt>
      <trkpt lat="43.59737" lon="1.1804">
        <ele>192</ele>
        <time>2016-05-07T08:18:00Z</time>
      </trkpt>
      <trkpt lat="43.59737" lon="1.18035">
        <ele>192</ele>
        <time>2016-05-07T08:18:02Z</time>
      </trkpt>
      <trkpt lat="43.59737" lon="1.18032">
        <ele>192</ele>
        <time>2016-05-07T08:18:03Z</time>
      </trkpt>
      <trkpt lat="43.59735" lon="1.18027">
        <ele>192</ele>
        <time>2016-05-07T08:18:05Z</time>
      </trkpt>
      <trkpt lat="43.59734" lon="1.18023">
        <ele>193</ele>
        <time>2016-05-07T08:18:07Z</time>
      </trkpt>
      <trkpt lat="43.59734" lon="1.1802">
        <ele>193</ele>
        <time>2016-05-07T08:18:09Z</time>
      </trkpt>
      <trkpt lat="43.59735" lon="1.18018">
        <ele>193</ele>
        <time>2016-05-07T08:18:10Z</time>
      </trkpt>
      <trkpt lat="43.59735" lon="1.18014">
        <ele>193</ele>
        <time>2016-05-07T08:18:12Z</time>
      </trkpt>
      <trkpt lat="43.59736" lon="1.18011">
        <ele>194</ele>
        <time>2016-05-07T08:18:14Z</time>
      </trkpt>
      <trkpt lat="43.59736" lon="1.18009">
        <ele>194</ele>
        <time>2016-05-07T08:18:15Z</time>
      </trkpt>
      <trkpt lat="43.59734" lon="1.18005">
        <ele>194</ele>
        <time>2016-05-07T08:18:17Z</time>
      </trkpt>
      <trkpt lat="43.59734" lon="1.18001">
        <ele>194</ele>
        <time>2016-05-07T08:18:19Z</time>
      </trkpt>
      <trkpt lat="43.59736" lon="1.17993">
        <ele>194</ele>
        <time>2016-05-07T08:18:21Z</time>
      </trkpt>
      <trkpt lat="43.59735" lon="1.17988">
        <ele>194</ele>
        <time>2016-05-07T08:18:23Z</time>
      </trkpt>
      <trkpt lat="43.59735" lon="1.17985">
        <ele>194</ele>
        <time>2016-05-07T08:18:24Z</time>
      </trkpt>
      <trkpt lat="43.59736" lon="1.17982">
        <ele>194</ele>
        <time>2016-05-07T08:18:25Z</time>
      </trkpt>
      <trkpt lat="43.59735" lon="1.17977">
        <ele>195</ele>
        <time>2016-05-07T08:18:27Z</time>
      </trkpt>
      <trkpt lat="43.59736" lon="1.17974">
        <ele>195</ele>
        <time>2016-05-07T08:18:28Z</time>
      </trkpt>
      <trkpt lat="43.59736" lon="1.17969">
        <ele>195</ele>
        <time>2016-05-07T08:18:30Z</time>
      </trkpt>
      <trkpt lat="43.59735" lon="1.17965">
        <ele>195</ele>
        <time>2016-05-07T08:18:31Z</time>
      </trkpt>
      <trkpt lat="43.59735" lon="1.17963">
        <ele>195</ele>
        <time>2016-05-07T08:18:32Z</time>
      </trkpt>
      <trkpt lat="43.59734" lon="1.17959">
        <ele>195</ele>
        <time>2016-05-07T08:18:34Z</time>
      </trkpt>
      <trkpt lat="43.59733" lon="1.17955">
        <ele>195</ele>
        <time>2016-05-07T08:18:35Z</time>
      </trkpt>
      <trkpt lat="43.59733" lon="1.17949">
        <ele>195</ele>
        <time>2016-05-07T08:18:37Z</time>
      </trkpt>
      <trkpt lat="43.59733" lon="1.17944">
        <ele>196</ele>
        <time>2016-05-07T08:18:39Z</time>
      </trkpt>
      <trkpt lat="43.59734" lon="1.1794">
        <ele>196</ele>
        <time>2016-05-07T08:18:41Z</time>
      </trkpt>
      <trkpt lat="43.59734" lon="1.17935">
        <ele>196</ele>
        <time>2016-05-07T08:18:43Z</time>
      </trkpt>
      <trkpt lat="43.59734" lon="1.17933">
        <ele>196</ele>
        <time>2016-05-07T08:18:44Z</time>
      </trkpt>
      <trkpt lat="43.59734" lon="1.17928">
        <ele>196</ele>
        <time>2016-05-07T08:18:46Z</time>
      </trkpt>
      <trkpt lat="43.59733" lon="1.17923">
        <ele>196</ele>
        <time>2016-05-07T08:18:47Z</time>
      </trkpt>
      <trkpt lat="43.59732" lon="1.17918">
        <ele>196</ele>
        <time>2016-05-07T08:18:49Z</time>
      </trkpt>
      <trkpt lat="43.59732" lon="1.17916">
        <ele>197</ele>
        <time>2016-05-07T08:18:50Z</time>
      </trkpt>
      <trkpt lat="43.59733" lon="1.17912">
        <ele>197</ele>
        <time>2016-05-07T08:18:52Z</time>
      </trkpt>
      <trkpt lat="43.59734" lon="1.17907">
        <ele>197</ele>
        <time>2016-05-07T08:18:54Z</time>
      </trkpt>
      <trkpt lat="43.59733" lon="1.17904">
        <ele>197</ele>
        <time>2016-05-07T08:18:55Z</time>
      </trkpt>
      <trkpt lat="43.59733" lon="1.17901">
        <ele>197</ele>
        <time>2016-05-07T08:18:57Z</time>
      </trkpt>
      <trkpt lat="43.59733" lon="1.17899">
        <ele>197</ele>
        <time>2016-05-07T08:18:58Z</time>
      </trkpt>
      <trkpt lat="43.59732" lon="1.17895">
        <ele>197</ele>
        <time>2016-05-07T08:19:00Z</time>
      </trkpt>
      <trkpt lat="43.59731" lon="1.17893">
        <ele>197</ele>
        <time>2016-05-07T08:19:01Z</time>
      </trkpt>
      <trkpt lat="43.59731" lon="1.17891">
        <ele>198</ele>
        <time>2016-05-07T08:19:02Z</time>
      </trkpt>
      <trkpt lat="43.59732" lon="1.17889">
        <ele>198</ele>
        <time>2016-05-07T08:19:04Z</time>
      </trkpt>
      <trkpt lat="43.59731" lon="1.17883">
        <ele>198</ele>
        <time>2016-05-07T08:19:06Z</time>
      </trkpt>
      <trkpt lat="43.59731" lon="1.17878">
        <ele>198</ele>
        <time>2016-05-07T08:19:08Z</time>
      </trkpt>
      <trkpt lat="43.59729" lon="1.17873">
        <ele>198</ele>
        <time>2016-05-07T08:19:10Z</time>
      </trkpt>
      <trkpt lat="43.59729" lon="1.17869">
        <ele>199</ele>
        <time>2016-05-07T08:19:12Z</time>
      </trkpt>
      <trkpt lat="43.59729" lon="1.17865">
        <ele>199</ele>
        <time>2016-05-07T08:19:14Z</time>
      </trkpt>
      <trkpt lat="43.59729" lon="1.17862">
        <ele>200</ele>
        <time>2016-05-07T08:19:16Z</time>
      </trkpt>
      <trkpt lat="43.59728" lon="1.1786">
        <ele>200</ele>
        <time>2016-05-07T08:19:17Z</time>
      </trkpt>
      <trkpt lat="43.59725" lon="1.17857">
        <ele>200</ele>
        <time>2016-05-07T08:19:19Z</time>
      </trkpt>
      <trkpt lat="43.59725" lon="1.17854">
        <ele>201</ele>
        <time>2016-05-07T08:19:20Z</time>
      </trkpt>
      <trkpt lat="43.59725" lon="1.17849">
        <ele>201</ele>
        <time>2016-05-07T08:19:22Z</time>
      </trkpt>
      <trkpt lat="43.59725" lon="1.17845">
        <ele>201</ele>
        <time>2016-05-07T08:19:24Z</time>
      </trkpt>
      <trkpt lat="43.59725" lon="1.17842">
        <ele>201</ele>
        <time>2016-05-07T08:19:26Z</time>
      </trkpt>
      <trkpt lat="43.59726" lon="1.17838">
        <ele>201</ele>
        <time>2016-05-07T08:19:28Z</time>
      </trkpt>
      <trkpt lat="43.59726" lon="1.17834">
        <ele>201</ele>
        <time>2016-05-07T08:19:30Z</time>
      </trkpt>
      <trkpt lat="43.59726" lon="1.17831">
        <ele>201</ele>
        <time>2016-05-07T08:19:31Z</time>
      </trkpt>
      <trkpt lat="43.59727" lon="1.17829">
        <ele>201</ele>
        <time>2016-05-07T08:19:32Z</time>
      </trkpt>
      <trkpt lat="43.59728" lon="1.17825">
        <ele>202</ele>
        <time>2016-05-07T08:19:34Z</time>
      </trkpt>
      <trkpt lat="43.5973" lon="1.17819">
        <ele>202</ele>
        <time>2016-05-07T08:19:36Z</time>
      </trkpt>
      <trkpt lat="43.59732" lon="1.17815">
        <ele>202</ele>
        <time>2016-05-07T08:19:38Z</time>
      </trkpt>
      <trkpt lat="43.59731" lon="1.17811">
        <ele>203</ele>
        <time>2016-05-07T08:19:40Z</time>
      </trkpt>
      <trkpt lat="43.59731" lon="1.17808">
        <ele>203</ele>
        <time>2016-05-07T08:19:42Z</time>
      </trkpt>
      <trkpt lat="43.59731" lon="1.17806">
        <ele>204</ele>
        <time>2016-05-07T08:19:43Z</time>
      </trkpt>
      <trkpt lat="43.59732" lon="1.17802">
        <ele>204</ele>
        <time>2016-05-07T08:19:45Z</time>
      </trkpt>
      <trkpt lat="43.59732" lon="1.17798">
        <ele>205</ele>
        <time>2016-05-07T08:19:47Z</time>
      </trkpt>
      <trkpt lat="43.59732" lon="1.17795">
        <ele>205</ele>
        <time>2016-05-07T08:19:49Z</time>
      </trkpt>
      <trkpt lat="43.59732" lon="1.17793">
        <ele>205</ele>
        <time>2016-05-07T08:19:50Z</time>
      </trkpt>
      <trkpt lat="43.59732" lon="1.17789">
        <ele>205</ele>
        <time>2016-05-07T08:19:52Z</time>
      </trkpt>
      <trkpt lat="43.59732" lon="1.17788">
        <ele>205</ele>
        <time>2016-05-07T08:19:53Z</time>
      </trkpt>
      <trkpt lat="43.59733" lon="1.17785">
        <ele>206</ele>
        <time>2016-05-07T08:19:55Z</time>
      </trkpt>
      <trkpt lat="43.59733" lon="1.17783">
        <ele>206</ele>
        <time>2016-05-07T08:19:56Z</time>
      </trkpt>
      <trkpt lat="43.59734" lon="1.17777">
        <ele>206</ele>
        <time>2016-05-07T08:19:58Z</time>
      </trkpt>
      <trkpt lat="43.59734" lon="1.17772">
        <ele>206</ele>
        <time>2016-05-07T08:20:00Z</time>
      </trkpt>
      <trkpt lat="43.59732" lon="1.17767">
        <ele>206</ele>
        <time>2016-05-07T08:20:02Z</time>
      </trkpt>
      <trkpt lat="43.59729" lon="1.17759">
        <ele>207</ele>
        <time>2016-05-07T08:20:04Z</time>
      </trkpt>
      <trkpt lat="43.59728" lon="1.17752">
        <ele>208</ele>
        <time>2016-05-07T08:20:06Z</time>
      </trkpt>
      <trkpt lat="43.59726" lon="1.17743">
        <ele>208</ele>
        <time>2016-05-07T08:20:08Z</time>
      </trkpt>
      <trkpt lat="43.59726" lon="1.17736">
        <ele>209</ele>
        <time>2016-05-07T08:20:10Z</time>
      </trkpt>
      <trkpt lat="43.59726" lon="1.17731">
        <ele>210</ele>
        <time>2016-05-07T08:20:12Z</time>
      </trkpt>
      <trkpt lat="43.59726" lon="1.17728">
        <ele>210</ele>
        <time>2016-05-07T08:20:13Z</time>
      </trkpt>
      <trkpt lat="43.59726" lon="1.17722">
        <ele>211</ele>
        <time>2016-05-07T08:20:15Z</time>
      </trkpt>
      <trkpt lat="43.59724" lon="1.17715">
        <ele>211</ele>
        <time>2016-05-07T08:20:17Z</time>
      </trkpt>
      <trkpt lat="43.59724" lon="1.17709">
        <ele>212</ele>
        <time>2016-05-07T08:20:19Z</time>
      </trkpt>
      <trkpt lat="43.59724" lon="1.17704">
        <ele>212</ele>
        <time>2016-05-07T08:20:21Z</time>
      </trkpt>
      <trkpt lat="43.59725" lon="1.17702">
        <ele>213</ele>
        <time>2016-05-07T08:20:22Z</time>
      </trkpt>
      <trkpt lat="43.59726" lon="1.17697">
        <ele>213</ele>
        <time>2016-05-07T08:20:24Z</time>
      </trkpt>
      <trkpt lat="43.59727" lon="1.17694">
        <ele>214</ele>
        <time>2016-05-07T08:20:25Z</time>
      </trkpt>
      <trkpt lat="43.59734" lon="1.17685">
        <ele>214</ele>
        <time>2016-05-07T08:20:29Z</time>
      </trkpt>
      <trkpt lat="43.59735" lon="1.17683">
        <ele>215</ele>
        <time>2016-05-07T08:20:30Z</time>
      </trkpt>
      <trkpt lat="43.59735" lon="1.17677">
        <ele>215</ele>
        <time>2016-05-07T08:20:32Z</time>
      </trkpt>
      <trkpt lat="43.59736" lon="1.17672">
        <ele>216</ele>
        <time>2016-05-07T08:20:34Z</time>
      </trkpt>
      <trkpt lat="43.59736" lon="1.17667">
        <ele>216</ele>
        <time>2016-05-07T08:20:36Z</time>
      </trkpt>
      <trkpt lat="43.59738" lon="1.17663">
        <ele>216</ele>
        <time>2016-05-07T08:20:38Z</time>
      </trkpt>
      <trkpt lat="43.59738" lon="1.17661">
        <ele>217</ele>
        <time>2016-05-07T08:20:39Z</time>
      </trkpt>
      <trkpt lat="43.5974" lon="1.17657">
        <ele>217</ele>
        <time>2016-05-07T08:20:41Z</time>
      </trkpt>
      <trkpt lat="43.59741" lon="1.17655">
        <ele>217</ele>
        <time>2016-05-07T08:20:42Z</time>
      </trkpt>
      <trkpt lat="43.5974" lon="1.17651">
        <ele>217</ele>
        <time>2016-05-07T08:20:43Z</time>
      </trkpt>
      <trkpt lat="43.59742" lon="1.17646">
        <ele>217</ele>
        <time>2016-05-07T08:20:45Z</time>
      </trkpt>
      <trkpt lat="43.59742" lon="1.17643">
        <ele>218</ele>
        <time>2016-05-07T08:20:46Z</time>
      </trkpt>
      <trkpt lat="43.59744" lon="1.17639">
        <ele>218</ele>
        <time>2016-05-07T08:20:48Z</time>
      </trkpt>
      <trkpt lat="43.59744" lon="1.17636">
        <ele>218</ele>
        <time>2016-05-07T08:20:49Z</time>
      </trkpt>
      <trkpt lat="43.59747" lon="1.17632">
        <ele>218</ele>
        <time>2016-05-07T08:20:51Z</time>
      </trkpt>
      <trkpt lat="43.59747" lon="1.1763">
        <ele>218</ele>
        <time>2016-05-07T08:20:52Z</time>
      </trkpt>
      <trkpt lat="43.5975" lon="1.17627">
        <ele>219</ele>
        <time>2016-05-07T08:20:54Z</time>
      </trkpt>
      <trkpt lat="43.59753" lon="1.17623">
        <ele>219</ele>
        <time>2016-05-07T08:20:56Z</time>
      </trkpt>
      <trkpt lat="43.59753" lon="1.17621">
        <ele>219</ele>
        <time>2016-05-07T08:20:57Z</time>
      </trkpt>
      <trkpt lat="43.59755" lon="1.17616">
        <ele>219</ele>
        <time>2016-05-07T08:20:59Z</time>
      </trkpt>
      <trkpt lat="43.59755" lon="1.17614">
        <ele>219</ele>
        <time>2016-05-07T08:21:00Z</time>
      </trkpt>
      <trkpt lat="43.59757" lon="1.1761">
        <ele>219</ele>
        <time>2016-05-07T08:21:02Z</time>
      </trkpt>
      <trkpt lat="43.59758" lon="1.17606">
        <ele>219</ele>
        <time>2016-05-07T08:21:04Z</time>
      </trkpt>
      <trkpt lat="43.59758" lon="1.17601">
        <ele>220</ele>
        <time>2016-05-07T08:21:06Z</time>
      </trkpt>
      <trkpt lat="43.5976" lon="1.17599">
        <ele>220</ele>
        <time>2016-05-07T08:21:07Z</time>
      </trkpt>
      <trkpt lat="43.5976" lon="1.17594">
        <ele>220</ele>
        <time>2016-05-07T08:21:09Z</time>
      </trkpt>
      <trkpt lat="43.5976" lon="1.17589">
        <ele>220</ele>
        <time>2016-05-07T08:21:11Z</time>
      </trkpt>
      <trkpt lat="43.59761" lon="1.17586">
        <ele>221</ele>
        <time>2016-05-07T08:21:12Z</time>
      </trkpt>
      <trkpt lat="43.59762" lon="1.17582">
        <ele>221</ele>
        <time>2016-05-07T08:21:14Z</time>
      </trkpt>
      <trkpt lat="43.59763" lon="1.17578">
        <ele>221</ele>
        <time>2016-05-07T08:21:16Z</time>
      </trkpt>
      <trkpt lat="43.59764" lon="1.17576">
        <ele>221</ele>
        <time>2016-05-07T08:21:17Z</time>
      </trkpt>
      <trkpt lat="43.59765" lon="1.17573">
        <ele>222</ele>
        <time>2016-05-07T08:21:18Z</time>
      </trkpt>
      <trkpt lat="43.59766" lon="1.17568">
        <ele>222</ele>
        <time>2016-05-07T08:21:20Z</time>
      </trkpt>
      <trkpt lat="43.59767" lon="1.17564">
        <ele>222</ele>
        <time>2016-05-07T08:21:22Z</time>
      </trkpt>
      <trkpt lat="43.59767" lon="1.17559">
        <ele>222</ele>
        <time>2016-05-07T08:21:24Z</time>
      </trkpt>
      <trkpt lat="43.59768" lon="1.17554">
        <ele>222</ele>
        <time>2016-05-07T08:21:26Z</time>
      </trkpt>
      <trkpt lat="43.59771" lon="1.17549">
        <ele>222</ele>
        <time>2016-05-07T08:21:28Z</time>
      </trkpt>
      <trkpt lat="43.59774" lon="1.17545">
        <ele>222</ele>
        <time>2016-05-07T08:21:30Z</time>
      </trkpt>
      <trkpt lat="43.59775" lon="1.17543">
        <ele>222</ele>
        <time>2016-05-07T08:21:31Z</time>
      </trkpt>
      <trkpt lat="43.59778" lon="1.17539">
        <ele>222</ele>
        <time>2016-05-07T08:21:33Z</time>
      </trkpt>
      <trkpt lat="43.59782" lon="1.1753">
        <ele>222</ele>
        <time>2016-05-07T08:21:37Z</time>
      </trkpt>
      <trkpt lat="43.59782" lon="1.17528">
        <ele>222</ele>
        <time>2016-05-07T08:21:38Z</time>
      </trkpt>
      <trkpt lat="43.59783" lon="1.17525">
        <ele>222</ele>
        <time>2016-05-07T08:21:40Z</time>
      </trkpt>
      <trkpt lat="43.59784" lon="1.17521">
        <ele>221</ele>
        <time>2016-05-07T08:21:42Z</time>
      </trkpt>
      <trkpt lat="43.59785" lon="1.17518">
        <ele>221</ele>
        <time>2016-05-07T08:21:43Z</time>
      </trkpt>
      <trkpt lat="43.59785" lon="1.17516">
        <ele>221</ele>
        <time>2016-05-07T08:21:44Z</time>
      </trkpt>
      <trkpt lat="43.59785" lon="1.17511">
        <ele>221</ele>
        <time>2016-05-07T08:21:46Z</time>
      </trkpt>
      <trkpt lat="43.59784" lon="1.17506">
        <ele>220</ele>
        <time>2016-05-07T08:21:48Z</time>
      </trkpt>
      <trkpt lat="43.59785" lon="1.17502">
        <ele>220</ele>
        <time>2016-05-07T08:21:50Z</time>
      </trkpt>
      <trkpt lat="43.59784" lon="1.17501">
        <ele>220</ele>
        <time>2016-05-07T08:21:51Z</time>
      </trkpt>
      <trkpt lat="43.59784" lon="1.17498">
        <ele>220</ele>
        <time>2016-05-07T08:21:53Z</time>
      </trkpt>
      <trkpt lat="43.59786" lon="1.17496">
        <ele>220</ele>
        <time>2016-05-07T08:21:54Z</time>
      </trkpt>
      <trkpt lat="43.59786" lon="1.17492">
        <ele>220</ele>
        <time>2016-05-07T08:21:56Z</time>
      </trkpt>
      <trkpt lat="43.59785" lon="1.17487">
        <ele>220</ele>
        <time>2016-05-07T08:21:58Z</time>
      </trkpt>
      <trkpt lat="43.59784" lon="1.17482">
        <ele>220</ele>
        <time>2016-05-07T08:22:00Z</time>
      </trkpt>
      <trkpt lat="43.59784" lon="1.17478">
        <ele>220</ele>
        <time>2016-05-07T08:22:02Z</time>
      </trkpt>
      <trkpt lat="43.59783" lon="1.17473">
        <ele>220</ele>
        <time>2016-05-07T08:22:04Z</time>
      </trkpt>
      <trkpt lat="43.59784" lon="1.17468">
        <ele>220</ele>
        <time>2016-05-07T08:22:06Z</time>
      </trkpt>
      <trkpt lat="43.59784" lon="1.17464">
        <ele>220</ele>
        <time>2016-05-07T08:22:08Z</time>
      </trkpt>
      <trkpt lat="43.59784" lon="1.17462">
        <ele>220</ele>
        <time>2016-05-07T08:22:09Z</time>
      </trkpt>
      <trkpt lat="43.59786" lon="1.17458">
        <ele>220</ele>
        <time>2016-05-07T08:22:11Z</time>
      </trkpt>
      <trkpt lat="43.59786" lon="1.17455">
        <ele>220</ele>
        <time>2016-05-07T08:22:12Z</time>
      </trkpt>
      <trkpt lat="43.59787" lon="1.17451">
        <ele>220</ele>
        <time>2016-05-07T08:22:14Z</time>
      </trkpt>
      <trkpt lat="43.5979" lon="1.17442">
        <ele>220</ele>
        <time>2016-05-07T08:22:17Z</time>
      </trkpt>
      <trkpt lat="43.59791" lon="1.17438">
        <ele>220</ele>
        <time>2016-05-07T08:22:19Z</time>
      </trkpt>
      <trkpt lat="43.59794" lon="1.17434">
        <ele>219</ele>
        <time>2016-05-07T08:22:21Z</time>
      </trkpt>
      <trkpt lat="43.59796" lon="1.17431">
        <ele>219</ele>
        <time>2016-05-07T08:22:23Z</time>
      </trkpt>
      <trkpt lat="43.59797" lon="1.17429">
        <ele>219</ele>
        <time>2016-05-07T08:22:24Z</time>
      </trkpt>
      <trkpt lat="43.59797" lon="1.17426">
        <ele>219</ele>
        <time>2016-05-07T08:22:25Z</time>
      </trkpt>
      <trkpt lat="43.59798" lon="1.17423">
        <ele>219</ele>
        <time>2016-05-07T08:22:27Z</time>
      </trkpt>
      <trkpt lat="43.59798" lon="1.1742">
        <ele>219</ele>
        <time>2016-05-07T08:22:28Z</time>
      </trkpt>
      <trkpt lat="43.598" lon="1.17417">
        <ele>219</ele>
        <time>2016-05-07T08:22:30Z</time>
      </trkpt>
      <trkpt lat="43.59802" lon="1.17412">
        <ele>219</ele>
        <time>2016-05-07T08:22:32Z</time>
      </trkpt>
      <trkpt lat="43.59803" lon="1.1741">
        <ele>219</ele>
        <time>2016-05-07T08:22:33Z</time>
      </trkpt>
      <trkpt lat="43.59803" lon="1.17406">
        <ele>219</ele>
        <time>2016-05-07T08:22:35Z</time>
      </trkpt>
      <trkpt lat="43.59805" lon="1.17403">
        <ele>219</ele>
        <time>2016-05-07T08:22:37Z</time>
      </trkpt>
      <trkpt lat="43.59806" lon="1.17402">
        <ele>219</ele>
        <time>2016-05-07T08:22:38Z</time>
      </trkpt>
      <trkpt lat="43.59821" lon="1.17391">
        <ele>219</ele>
        <time>2016-05-07T08:22:46Z</time>
      </trkpt>
      <trkpt lat="43.59824" lon="1.17389">
        <ele>220</ele>
        <time>2016-05-07T08:22:48Z</time>
      </trkpt>
      <trkpt lat="43.59833" lon="1.17383">
        <ele>220</ele>
        <time>2016-05-07T08:22:52Z</time>
      </trkpt>
      <trkpt lat="43.59837" lon="1.17381">
        <ele>220</ele>
        <time>2016-05-07T08:22:54Z</time>
      </trkpt>
      <trkpt lat="43.59839" lon="1.17379">
        <ele>219</ele>
        <time>2016-05-07T08:22:56Z</time>
      </trkpt>
      <trkpt lat="43.5984" lon="1.17377">
        <ele>219</ele>
        <time>2016-05-07T08:22:58Z</time>
      </trkpt>
      <trkpt lat="43.59842" lon="1.17375">
        <ele>219</ele>
        <time>2016-05-07T08:23:00Z</time>
      </trkpt>
      <trkpt lat="43.59843" lon="1.17373">
        <ele>219</ele>
        <time>2016-05-07T08:23:01Z</time>
      </trkpt>
      <trkpt lat="43.59845" lon="1.17371">
        <ele>219</ele>
        <time>2016-05-07T08:23:03Z</time>
      </trkpt>
      <trkpt lat="43.59847" lon="1.17369">
        <ele>219</ele>
        <time>2016-05-07T08:23:04Z</time>
      </trkpt>
      <trkpt lat="43.59848" lon="1.17366">
        <ele>219</ele>
        <time>2016-05-07T08:23:06Z</time>
      </trkpt>
      <trkpt lat="43.59848" lon="1.17364">
        <ele>219</ele>
        <time>2016-05-07T08:23:07Z</time>
      </trkpt>
      <trkpt lat="43.59853" lon="1.1736">
        <ele>219</ele>
        <time>2016-05-07T08:23:09Z</time>
      </trkpt>
      <trkpt lat="43.59864" lon="1.17351">
        <ele>219</ele>
        <time>2016-05-07T08:23:15Z</time>
      </trkpt>
      <trkpt lat="43.59867" lon="1.17348">
        <ele>219</ele>
        <time>2016-05-07T08:23:17Z</time>
      </trkpt>
      <trkpt lat="43.59869" lon="1.17345">
        <ele>219</ele>
        <time>2016-05-07T08:23:19Z</time>
      </trkpt>
      <trkpt lat="43.59872" lon="1.17342">
        <ele>219</ele>
        <time>2016-05-07T08:23:21Z</time>
      </trkpt>
      <trkpt lat="43.59875" lon="1.17339">
        <ele>219</ele>
        <time>2016-05-07T08:23:23Z</time>
      </trkpt>
      <trkpt lat="43.59879" lon="1.17336">
        <ele>219</ele>
        <time>2016-05-07T08:23:25Z</time>
      </trkpt>
      <trkpt lat="43.5988" lon="1.17332">
        <ele>218</ele>
        <time>2016-05-07T08:23:27Z</time>
      </trkpt>
      <trkpt lat="43.59881" lon="1.1733">
        <ele>218</ele>
        <time>2016-05-07T08:23:28Z</time>
      </trkpt>
      <trkpt lat="43.59882" lon="1.17327">
        <ele>218</ele>
        <time>2016-05-07T08:23:29Z</time>
      </trkpt>
      <trkpt lat="43.59884" lon="1.17324">
        <ele>218</ele>
        <time>2016-05-07T08:23:31Z</time>
      </trkpt>
      <trkpt lat="43.59885" lon="1.17322">
        <ele>218</ele>
        <time>2016-05-07T08:23:33Z</time>
      </trkpt>
      <trkpt lat="43.59885" lon="1.17323">
        <ele>218</ele>
        <time>2016-05-07T08:23:34Z</time>
      </trkpt>
      <trkpt lat="43.59885" lon="1.17325">
        <ele>218</ele>
        <time>2016-05-07T08:23:36Z</time>
      </trkpt>
      <trkpt lat="43.59885" lon="1.17326">
        <ele>218</ele>
        <time>2016-05-07T08:23:37Z</time>
      </trkpt>
      <trkpt lat="43.59884" lon="1.17328">
        <ele>218</ele>
        <time>2016-05-07T08:23:39Z</time>
      </trkpt>
      <trkpt lat="43.59882" lon="1.17329">
        <ele>218</ele>
        <time>2016-05-07T08:23:40Z</time>
      </trkpt>
      <trkpt lat="43.59881" lon="1.17333">
        <ele>218</ele>
        <time>2016-05-07T08:23:42Z</time>
      </trkpt>
      <trkpt lat="43.59879" lon="1.17334">
        <ele>218</ele>
        <time>2016-05-07T08:23:43Z</time>
      </trkpt>
      <trkpt lat="43.59877" lon="1.17337">
        <ele>218</ele>
        <time>2016-05-07T08:23:45Z</time>
      </trkpt>
      <trkpt lat="43.59876" lon="1.17338">
        <ele>218</ele>
        <time>2016-05-07T08:23:46Z</time>
      </trkpt>
      <trkpt lat="43.59875" lon="1.1734">
        <ele>218</ele>
        <time>2016-05-07T08:23:47Z</time>
      </trkpt>
      <trkpt lat="43.59872" lon="1.17344">
        <ele>218</ele>
        <time>2016-05-07T08:23:49Z</time>
      </trkpt>
      <trkpt lat="43.5987" lon="1.17347">
        <ele>217</ele>
        <time>2016-05-07T08:23:51Z</time>
      </trkpt>
      <trkpt lat="43.59869" lon="1.17352">
        <ele>217</ele>
        <time>2016-05-07T08:23:54Z</time>
      </trkpt>
      <trkpt lat="43.59868" lon="1.17353">
        <ele>217</ele>
        <time>2016-05-07T08:23:55Z</time>
      </trkpt>
      <trkpt lat="43.59867" lon="1.17356">
        <ele>217</ele>
        <time>2016-05-07T08:23:57Z</time>
      </trkpt>
      <trkpt lat="43.59866" lon="1.17358">
        <ele>217</ele>
        <time>2016-05-07T08:23:58Z</time>
      </trkpt>
      <trkpt lat="43.59864" lon="1.17361">
        <ele>217</ele>
        <time>2016-05-07T08:24:00Z</time>
      </trkpt>
      <trkpt lat="43.59863" lon="1.17362">
        <ele>217</ele>
        <time>2016-05-07T08:24:01Z</time>
      </trkpt>
      <trkpt lat="43.59861" lon="1.17363">
        <ele>217</ele>
        <time>2016-05-07T08:24:03Z</time>
      </trkpt>
      <trkpt lat="43.5986" lon="1.17364">
        <ele>217</ele>
        <time>2016-05-07T08:24:04Z</time>
      </trkpt>
      <trkpt lat="43.59857" lon="1.17365">
        <ele>217</ele>
        <time>2016-05-07T08:24:06Z</time>
      </trkpt>
      <trkpt lat="43.59855" lon="1.17367">
        <ele>217</ele>
        <time>2016-05-07T08:24:08Z</time>
      </trkpt>
      <trkpt lat="43.59852" lon="1.17369">
        <ele>217</ele>
        <time>2016-05-07T08:24:10Z</time>
      </trkpt>
      <trkpt lat="43.59851" lon="1.1737">
        <ele>217</ele>
        <time>2016-05-07T08:24:11Z</time>
      </trkpt>
      <trkpt lat="43.59848" lon="1.17375">
        <ele>217</ele>
        <time>2016-05-07T08:24:13Z</time>
      </trkpt>
      <trkpt lat="43.59843" lon="1.17379">
        <ele>217</ele>
        <time>2016-05-07T08:24:16Z</time>
      </trkpt>
      <trkpt lat="43.59835" lon="1.17385">
        <ele>216</ele>
        <time>2016-05-07T08:24:21Z</time>
      </trkpt>
      <trkpt lat="43.59832" lon="1.17387">
        <ele>216</ele>
        <time>2016-05-07T08:24:23Z</time>
      </trkpt>
      <trkpt lat="43.59829" lon="1.17389">
        <ele>216</ele>
        <time>2016-05-07T08:24:25Z</time>
      </trkpt>
      <trkpt lat="43.59829" lon="1.1739">
        <ele>216</ele>
        <time>2016-05-07T08:24:26Z</time>
      </trkpt>
      <trkpt lat="43.59825" lon="1.17393">
        <ele>216</ele>
        <time>2016-05-07T08:24:28Z</time>
      </trkpt>
      <trkpt lat="43.59819" lon="1.17398">
        <ele>216</ele>
        <time>2016-05-07T08:24:32Z</time>
      </trkpt>
      <trkpt lat="43.59814" lon="1.17401">
        <ele>215</ele>
        <time>2016-05-07T08:24:34Z</time>
      </trkpt>
      <trkpt lat="43.59803" lon="1.17414">
        <ele>215</ele>
        <time>2016-05-07T08:24:41Z</time>
      </trkpt>
      <trkpt lat="43.59801" lon="1.17416">
        <ele>215</ele>
        <time>2016-05-07T08:24:42Z</time>
      </trkpt>
      <trkpt lat="43.59798" lon="1.1742">
        <ele>215</ele>
        <time>2016-05-07T08:24:44Z</time>
      </trkpt>
      <trkpt lat="43.59797" lon="1.17422">
        <ele>215</ele>
        <time>2016-05-07T08:24:46Z</time>
      </trkpt>
      <trkpt lat="43.59797" lon="1.17425">
        <ele>215</ele>
        <time>2016-05-07T08:24:48Z</time>
      </trkpt>
      <trkpt lat="43.59796" lon="1.17429">
        <ele>215</ele>
        <time>2016-05-07T08:24:50Z</time>
      </trkpt>
      <trkpt lat="43.59794" lon="1.17432">
        <ele>216</ele>
        <time>2016-05-07T08:24:52Z</time>
      </trkpt>
      <trkpt lat="43.59791" lon="1.17435">
        <ele>216</ele>
        <time>2016-05-07T08:24:54Z</time>
      </trkpt>
      <trkpt lat="43.5979" lon="1.17439">
        <ele>216</ele>
        <time>2016-05-07T08:24:56Z</time>
      </trkpt>
      <trkpt lat="43.59787" lon="1.17443">
        <ele>216</ele>
        <time>2016-05-07T08:24:58Z</time>
      </trkpt>
      <trkpt lat="43.59787" lon="1.17446">
        <ele>216</ele>
        <time>2016-05-07T08:25:00Z</time>
      </trkpt>
      <trkpt lat="43.59786" lon="1.17449">
        <ele>216</ele>
        <time>2016-05-07T08:25:01Z</time>
      </trkpt>
      <trkpt lat="43.59786" lon="1.17454">
        <ele>216</ele>
        <time>2016-05-07T08:25:03Z</time>
      </trkpt>
      <trkpt lat="43.59785" lon="1.17456">
        <ele>215</ele>
        <time>2016-05-07T08:25:04Z</time>
      </trkpt>
      <trkpt lat="43.59784" lon="1.17459">
        <ele>215</ele>
        <time>2016-05-07T08:25:06Z</time>
      </trkpt>
      <trkpt lat="43.59784" lon="1.17461">
        <ele>215</ele>
        <time>2016-05-07T08:25:07Z</time>
      </trkpt>
      <trkpt lat="43.59784" lon="1.17461">
        <ele>215</ele>
        <time>2016-05-07T08:25:09Z</time>
      </trkpt>
      <trkpt lat="43.59785" lon="1.17461">
        <ele>215</ele>
        <time>2016-05-07T08:25:11Z</time>
      </trkpt>
      <trkpt lat="43.59787" lon="1.17466">
        <ele>214</ele>
        <time>2016-05-07T08:25:17Z</time>
      </trkpt>
      <trkpt lat="43.59787" lon="1.17467">
        <ele>214</ele>
        <time>2016-05-07T08:25:18Z</time>
      </trkpt>
      <trkpt lat="43.59787" lon="1.17469">
        <ele>214</ele>
        <time>2016-05-07T08:25:20Z</time>
      </trkpt>
      <trkpt lat="43.59787" lon="1.17469">
        <ele>213</ele>
        <time>2016-05-07T08:25:22Z</time>
      </trkpt>
      <trkpt lat="43.59787" lon="1.17468">
        <ele>213</ele>
        <time>2016-05-07T08:25:23Z</time>
      </trkpt>
      <trkpt lat="43.59786" lon="1.17467">
        <ele>213</ele>
        <time>2016-05-07T08:25:25Z</time>
      </trkpt>
      <trkpt lat="43.59787" lon="1.17466">
        <ele>214</ele>
        <time>2016-05-07T08:25:27Z</time>
      </trkpt>
      <trkpt lat="43.59787" lon="1.17466">
        <ele>214</ele>
        <time>2016-05-07T08:25:29Z</time>
      </trkpt>
      <trkpt lat="43.59786" lon="1.17464">
        <ele>214</ele>
        <time>2016-05-07T08:25:32Z</time>
      </trkpt>
      <trkpt lat="43.59786" lon="1.17463">
        <ele>215</ele>
        <time>2016-05-07T08:25:33Z</time>
      </trkpt>
      <trkpt lat="43.59786" lon="1.17462">
        <ele>215</ele>
        <time>2016-05-07T08:25:34Z</time>
      </trkpt>
      <trkpt lat="43.59787" lon="1.17461">
        <ele>215</ele>
        <time>2016-05-07T08:25:36Z</time>
      </trkpt>
      <trkpt lat="43.59787" lon="1.1746">
        <ele>215</ele>
        <time>2016-05-07T08:25:37Z</time>
      </trkpt>
      <trkpt lat="43.59788" lon="1.17458">
        <ele>215</ele>
        <time>2016-05-07T08:25:39Z</time>
      </trkpt>
      <trkpt lat="43.59789" lon="1.17457">
        <ele>215</ele>
        <time>2016-05-07T08:25:40Z</time>
      </trkpt>
      <trkpt lat="43.59789" lon="1.17452">
        <ele>216</ele>
        <time>2016-05-07T08:25:42Z</time>
      </trkpt>
      <trkpt lat="43.59789" lon="1.17451">
        <ele>216</ele>
        <time>2016-05-07T08:25:43Z</time>
      </trkpt>
      <trkpt lat="43.5979" lon="1.17448">
        <ele>216</ele>
        <time>2016-05-07T08:25:45Z</time>
      </trkpt>
      <trkpt lat="43.59795" lon="1.17445">
        <ele>216</ele>
        <time>2016-05-07T08:25:47Z</time>
      </trkpt>
      <trkpt lat="43.59796" lon="1.17442">
        <ele>216</ele>
        <time>2016-05-07T08:25:49Z</time>
      </trkpt>
      <trkpt lat="43.59797" lon="1.1744">
        <ele>217</ele>
        <time>2016-05-07T08:25:51Z</time>
      </trkpt>
      <trkpt lat="43.59798" lon="1.17437">
        <ele>217</ele>
        <time>2016-05-07T08:25:53Z</time>
      </trkpt>
      <trkpt lat="43.59799" lon="1.17436">
        <ele>217</ele>
        <time>2016-05-07T08:25:54Z</time>
      </trkpt>
      <trkpt lat="43.59799" lon="1.17433">
        <ele>217</ele>
        <time>2016-05-07T08:25:56Z</time>
      </trkpt>
      <trkpt lat="43.598" lon="1.17433">
        <ele>217</ele>
        <time>2016-05-07T08:25:57Z</time>
      </trkpt>
      <trkpt lat="43.59801" lon="1.17432">
        <ele>217</ele>
        <time>2016-05-07T08:25:59Z</time>
      </trkpt>
      <trkpt lat="43.59801" lon="1.1743">
        <ele>218</ele>
        <time>2016-05-07T08:26:00Z</time>
      </trkpt>
      <trkpt lat="43.59801" lon="1.17427">
        <ele>218</ele>
        <time>2016-05-07T08:26:02Z</time>
      </trkpt>
      <trkpt lat="43.59803" lon="1.17424">
        <ele>218</ele>
        <time>2016-05-07T08:26:04Z</time>
      </trkpt>
      <trkpt lat="43.59803" lon="1.17423">
        <ele>218</ele>
        <time>2016-05-07T08:26:05Z</time>
      </trkpt>
      <trkpt lat="43.59805" lon="1.17421">
        <ele>218</ele>
        <time>2016-05-07T08:26:07Z</time>
      </trkpt>
      <trkpt lat="43.59807" lon="1.1742">
        <ele>218</ele>
        <time>2016-05-07T08:26:09Z</time>
      </trkpt>
      <trkpt lat="43.59808" lon="1.17419">
        <ele>218</ele>
        <time>2016-05-07T08:26:10Z</time>
      </trkpt>
      <trkpt lat="43.5981" lon="1.17417">
        <ele>218</ele>
        <time>2016-05-07T08:26:12Z</time>
      </trkpt>
      <trkpt lat="43.5981" lon="1.17416">
        <ele>219</ele>
        <time>2016-05-07T08:26:13Z</time>
      </trkpt>
      <trkpt lat="43.59813" lon="1.17411">
        <ele>219</ele>
        <time>2016-05-07T08:26:16Z</time>
      </trkpt>
      <trkpt lat="43.59813" lon="1.17409">
        <ele>219</ele>
        <time>2016-05-07T08:26:18Z</time>
      </trkpt>
      <trkpt lat="43.59814" lon="1.17408">
        <ele>219</ele>
        <time>2016-05-07T08:26:19Z</time>
      </trkpt>
      <trkpt lat="43.59815" lon="1.17405">
        <ele>219</ele>
        <time>2016-05-07T08:26:21Z</time>
      </trkpt>
      <trkpt lat="43.59816" lon="1.17404">
        <ele>219</ele>
        <time>2016-05-07T08:26:22Z</time>
      </trkpt>
      <trkpt lat="43.59818" lon="1.17403">
        <ele>220</ele>
        <time>2016-05-07T08:26:24Z</time>
      </trkpt>
      <trkpt lat="43.59817" lon="1.17401">
        <ele>220</ele>
        <time>2016-05-07T08:26:25Z</time>
      </trkpt>
      <trkpt lat="43.59818" lon="1.17398">
        <ele>220</ele>
        <time>2016-05-07T08:26:27Z</time>
      </trkpt>
      <trkpt lat="43.59819" lon="1.17397">
        <ele>220</ele>
        <time>2016-05-07T08:26:29Z</time>
      </trkpt>
      <trkpt lat="43.59822" lon="1.17395">
        <ele>220</ele>
        <time>2016-05-07T08:26:31Z</time>
      </trkpt>
      <trkpt lat="43.59823" lon="1.17394">
        <ele>220</ele>
        <time>2016-05-07T08:26:32Z</time>
      </trkpt>
      <trkpt lat="43.59826" lon="1.17392">
        <ele>220</ele>
        <time>2016-05-07T08:26:34Z</time>
      </trkpt>
      <trkpt lat="43.59828" lon="1.17391">
        <ele>220</ele>
        <time>2016-05-07T08:26:36Z</time>
      </trkpt>
      <trkpt lat="43.59829" lon="1.17389">
        <ele>220</ele>
        <time>2016-05-07T08:26:37Z</time>
      </trkpt>
      <trkpt lat="43.59831" lon="1.17388">
        <ele>220</ele>
        <time>2016-05-07T08:26:39Z</time>
      </trkpt>
      <trkpt lat="43.59834" lon="1.17386">
        <ele>220</ele>
        <time>2016-05-07T08:26:41Z</time>
      </trkpt>
      <trkpt lat="43.59835" lon="1.17385">
        <ele>220</ele>
        <time>2016-05-07T08:26:42Z</time>
      </trkpt>
      <trkpt lat="43.59835" lon="1.17384">
        <ele>220</ele>
        <time>2016-05-07T08:26:44Z</time>
      </trkpt>
      <trkpt lat="43.59836" lon="1.17382">
        <ele>220</ele>
        <time>2016-05-07T08:26:46Z</time>
      </trkpt>
      <trkpt lat="43.59837" lon="1.17381">
        <ele>220</ele>
        <time>2016-05-07T08:26:47Z</time>
      </trkpt>
      <trkpt lat="43.59839" lon="1.1738">
        <ele>220</ele>
        <time>2016-05-07T08:26:49Z</time>
      </trkpt>
      <trkpt lat="43.5984" lon="1.1738">
        <ele>219</ele>
        <time>2016-05-07T08:26:50Z</time>
      </trkpt>
      <trkpt lat="43.59842" lon="1.17379">
        <ele>220</ele>
        <time>2016-05-07T08:26:52Z</time>
      </trkpt>
      <trkpt lat="43.59843" lon="1.17377">
        <ele>220</ele>
        <time>2016-05-07T08:26:54Z</time>
      </trkpt>
      <trkpt lat="43.59845" lon="1.17377">
        <ele>220</ele>
        <time>2016-05-07T08:26:56Z</time>
      </trkpt>
      <trkpt lat="43.59847" lon="1.17376">
        <ele>220</ele>
        <time>2016-05-07T08:26:58Z</time>
      </trkpt>
      <trkpt lat="43.59849" lon="1.17375">
        <ele>220</ele>
        <time>2016-05-07T08:26:59Z</time>
      </trkpt>
      <trkpt lat="43.59851" lon="1.17373">
        <ele>220</ele>
        <time>2016-05-07T08:27:01Z</time>
      </trkpt>
      <trkpt lat="43.59852" lon="1.17372">
        <ele>220</ele>
        <time>2016-05-07T08:27:02Z</time>
      </trkpt>
      <trkpt lat="43.59853" lon="1.17371">
        <ele>220</ele>
        <time>2016-05-07T08:27:04Z</time>
      </trkpt>
      <trkpt lat="43.59856" lon="1.17368">
        <ele>220</ele>
        <time>2016-05-07T08:27:06Z</time>
      </trkpt>
      <trkpt lat="43.59864" lon="1.17363">
        <ele>220</ele>
        <time>2016-05-07T08:27:12Z</time>
      </trkpt>
      <trkpt lat="43.59866" lon="1.1736">
        <ele>220</ele>
        <time>2016-05-07T08:27:14Z</time>
      </trkpt>
      <trkpt lat="43.59867" lon="1.17356">
        <ele>220</ele>
        <time>2016-05-07T08:27:16Z</time>
      </trkpt>
      <trkpt lat="43.59869" lon="1.17353">
        <ele>220</ele>
        <time>2016-05-07T08:27:18Z</time>
      </trkpt>
      <trkpt lat="43.59872" lon="1.17347">
        <ele>220</ele>
        <time>2016-05-07T08:27:21Z</time>
      </trkpt>
      <trkpt lat="43.59872" lon="1.17345">
        <ele>220</ele>
        <time>2016-05-07T08:27:22Z</time>
      </trkpt>
      <trkpt lat="43.59873" lon="1.17343">
        <ele>220</ele>
        <time>2016-05-07T08:27:24Z</time>
      </trkpt>
      <trkpt lat="43.59876" lon="1.17341">
        <ele>220</ele>
        <time>2016-05-07T08:27:26Z</time>
      </trkpt>
      <trkpt lat="43.59877" lon="1.1734">
        <ele>220</ele>
        <time>2016-05-07T08:27:27Z</time>
      </trkpt>
      <trkpt lat="43.59879" lon="1.17337">
        <ele>220</ele>
        <time>2016-05-07T08:27:29Z</time>
      </trkpt>
      <trkpt lat="43.59879" lon="1.17334">
        <ele>220</ele>
        <time>2016-05-07T08:27:31Z</time>
      </trkpt>
      <trkpt lat="43.59881" lon="1.17332">
        <ele>220</ele>
        <time>2016-05-07T08:27:33Z</time>
      </trkpt>
      <trkpt lat="43.59882" lon="1.17331">
        <ele>220</ele>
        <time>2016-05-07T08:27:34Z</time>
      </trkpt>
      <trkpt lat="43.59882" lon="1.17329">
        <ele>221</ele>
        <time>2016-05-07T08:27:35Z</time>
      </trkpt>
      <trkpt lat="43.59882" lon="1.17326">
        <ele>221</ele>
        <time>2016-05-07T08:27:37Z</time>
      </trkpt>
      <trkpt lat="43.59882" lon="1.17324">
        <ele>221</ele>
        <time>2016-05-07T08:27:38Z</time>
      </trkpt>
      <trkpt lat="43.59884" lon="1.17324">
        <ele>221</ele>
        <time>2016-05-07T08:27:39Z</time>
      </trkpt>
      <trkpt lat="43.59886" lon="1.17322">
        <ele>221</ele>
        <time>2016-05-07T08:27:41Z</time>
      </trkpt>
      <trkpt lat="43.59888" lon="1.17321">
        <ele>221</ele>
        <time>2016-05-07T08:27:44Z</time>
      </trkpt>
      <trkpt lat="43.59888" lon="1.17319">
        <ele>222</ele>
        <time>2016-05-07T08:27:46Z</time>
      </trkpt>
      <trkpt lat="43.59888" lon="1.17315">
        <ele>222</ele>
        <time>2016-05-07T08:27:48Z</time>
      </trkpt>
      <trkpt lat="43.59889" lon="1.17313">
        <ele>222</ele>
        <time>2016-05-07T08:27:50Z</time>
      </trkpt>
      <trkpt lat="43.5989" lon="1.17311">
        <ele>222</ele>
        <time>2016-05-07T08:27:52Z</time>
      </trkpt>
      <trkpt lat="43.5989" lon="1.1731">
        <ele>222</ele>
        <time>2016-05-07T08:27:53Z</time>
      </trkpt>
      <trkpt lat="43.59891" lon="1.17309">
        <ele>222</ele>
        <time>2016-05-07T08:27:54Z</time>
      </trkpt>
      <trkpt lat="43.59892" lon="1.17306">
        <ele>222</ele>
        <time>2016-05-07T08:27:56Z</time>
      </trkpt>
      <trkpt lat="43.59892" lon="1.17305">
        <ele>222</ele>
        <time>2016-05-07T08:27:57Z</time>
      </trkpt>
      <trkpt lat="43.59892" lon="1.17303">
        <ele>222</ele>
        <time>2016-05-07T08:27:59Z</time>
      </trkpt>
      <trkpt lat="43.59892" lon="1.17301">
        <ele>222</ele>
        <time>2016-05-07T08:28:00Z</time>
      </trkpt>
      <trkpt lat="43.59892" lon="1.17297">
        <ele>222</ele>
        <time>2016-05-07T08:28:02Z</time>
      </trkpt>
      <trkpt lat="43.59893" lon="1.17296">
        <ele>222</ele>
        <time>2016-05-07T08:28:03Z</time>
      </trkpt>
      <trkpt lat="43.59895" lon="1.17294">
        <ele>222</ele>
        <time>2016-05-07T08:28:04Z</time>
      </trkpt>
      <trkpt lat="43.59898" lon="1.17292">
        <ele>222</ele>
        <time>2016-05-07T08:28:06Z</time>
      </trkpt>
      <trkpt lat="43.599" lon="1.17291">
        <ele>222</ele>
        <time>2016-05-07T08:28:08Z</time>
      </trkpt>
      <trkpt lat="43.59901" lon="1.17288">
        <ele>222</ele>
        <time>2016-05-07T08:28:10Z</time>
      </trkpt>
      <trkpt lat="43.59901" lon="1.17285">
        <ele>222</ele>
        <time>2016-05-07T08:28:11Z</time>
      </trkpt>
      <trkpt lat="43.59901" lon="1.17282">
        <ele>222</ele>
        <time>2016-05-07T08:28:13Z</time>
      </trkpt>
      <trkpt lat="43.59901" lon="1.17281">
        <ele>222</ele>
        <time>2016-05-07T08:28:14Z</time>
      </trkpt>
      <trkpt lat="43.59904" lon="1.17278">
        <ele>222</ele>
        <time>2016-05-07T08:28:16Z</time>
      </trkpt>
      <trkpt lat="43.59905" lon="1.17277">
        <ele>222</ele>
        <time>2016-05-07T08:28:17Z</time>
      </trkpt>
      <trkpt lat="43.59907" lon="1.17275">
        <ele>222</ele>
        <time>2016-05-07T08:28:19Z</time>
      </trkpt>
      <trkpt lat="43.59908" lon="1.17273">
        <ele>222</ele>
        <time>2016-05-07T08:28:20Z</time>
      </trkpt>
      <trkpt lat="43.59913" lon="1.17271">
        <ele>222</ele>
        <time>2016-05-07T08:28:23Z</time>
      </trkpt>
      <trkpt lat="43.59914" lon="1.1727">
        <ele>222</ele>
        <time>2016-05-07T08:28:24Z</time>
      </trkpt>
      <trkpt lat="43.59915" lon="1.17268">
        <ele>222</ele>
        <time>2016-05-07T08:28:26Z</time>
      </trkpt>
      <trkpt lat="43.59917" lon="1.17268">
        <ele>222</ele>
        <time>2016-05-07T08:28:27Z</time>
      </trkpt>
      <trkpt lat="43.59918" lon="1.17266">
        <ele>222</ele>
        <time>2016-05-07T08:28:29Z</time>
      </trkpt>
      <trkpt lat="43.59918" lon="1.17264">
        <ele>222</ele>
        <time>2016-05-07T08:28:30Z</time>
      </trkpt>
      <trkpt lat="43.59918" lon="1.17263">
        <ele>222</ele>
        <time>2016-05-07T08:28:31Z</time>
      </trkpt>
      <trkpt lat="43.59919" lon="1.17261">
        <ele>223</ele>
        <time>2016-05-07T08:28:33Z</time>
      </trkpt>
      <trkpt lat="43.59919" lon="1.17259">
        <ele>223</ele>
        <time>2016-05-07T08:28:34Z</time>
      </trkpt>
      <trkpt lat="43.59921" lon="1.17257">
        <ele>223</ele>
        <time>2016-05-07T08:28:36Z</time>
      </trkpt>
      <trkpt lat="43.59922" lon="1.17256">
        <ele>223</ele>
        <time>2016-05-07T08:28:37Z</time>
      </trkpt>
      <trkpt lat="43.59924" lon="1.17254">
        <ele>223</ele>
        <time>2016-05-07T08:28:39Z</time>
      </trkpt>
      <trkpt lat="43.59926" lon="1.17253">
        <ele>223</ele>
        <time>2016-05-07T08:28:40Z</time>
      </trkpt>
      <trkpt lat="43.59929" lon="1.17251">
        <ele>223</ele>
        <time>2016-05-07T08:28:42Z</time>
      </trkpt>
      <trkpt lat="43.59929" lon="1.17249">
        <ele>223</ele>
        <time>2016-05-07T08:28:44Z</time>
      </trkpt>
      <trkpt lat="43.5993" lon="1.17246">
        <ele>223</ele>
        <time>2016-05-07T08:28:46Z</time>
      </trkpt>
      <trkpt lat="43.59932" lon="1.17244">
        <ele>223</ele>
        <time>2016-05-07T08:28:47Z</time>
      </trkpt>
      <trkpt lat="43.59933" lon="1.17243">
        <ele>223</ele>
        <time>2016-05-07T08:28:48Z</time>
      </trkpt>
      <trkpt lat="43.59937" lon="1.17239">
        <ele>222</ele>
        <time>2016-05-07T08:28:51Z</time>
      </trkpt>
      <trkpt lat="43.59939" lon="1.17236">
        <ele>222</ele>
        <time>2016-05-07T08:28:52Z</time>
      </trkpt>
      <trkpt lat="43.59939" lon="1.17229">
        <ele>222</ele>
        <time>2016-05-07T08:28:54Z</time>
      </trkpt>
      <trkpt lat="43.5994" lon="1.17227">
        <ele>222</ele>
        <time>2016-05-07T08:28:55Z</time>
      </trkpt>
      <trkpt lat="43.59942" lon="1.17224">
        <ele>222</ele>
        <time>2016-05-07T08:28:57Z</time>
      </trkpt>
      <trkpt lat="43.59942" lon="1.17221">
        <ele>222</ele>
        <time>2016-05-07T08:28:58Z</time>
      </trkpt>
      <trkpt lat="43.59943" lon="1.17217">
        <ele>222</ele>
        <time>2016-05-07T08:29:00Z</time>
      </trkpt>
      <trkpt lat="43.59944" lon="1.17212">
        <ele>222</ele>
        <time>2016-05-07T08:29:02Z</time>
      </trkpt>
      <trkpt lat="43.59946" lon="1.1721">
        <ele>222</ele>
        <time>2016-05-07T08:29:03Z</time>
      </trkpt>
      <trkpt lat="43.59946" lon="1.17208">
        <ele>222</ele>
        <time>2016-05-07T08:29:04Z</time>
      </trkpt>
      <trkpt lat="43.59949" lon="1.17205">
        <ele>222</ele>
        <time>2016-05-07T08:29:06Z</time>
      </trkpt>
      <trkpt lat="43.5995" lon="1.17203">
        <ele>222</ele>
        <time>2016-05-07T08:29:07Z</time>
      </trkpt>
      <trkpt lat="43.59951" lon="1.17201">
        <ele>222</ele>
        <time>2016-05-07T08:29:08Z</time>
      </trkpt>
      <trkpt lat="43.59951" lon="1.17198">
        <ele>222</ele>
        <time>2016-05-07T08:29:10Z</time>
      </trkpt>
      <trkpt lat="43.59952" lon="1.17195">
        <ele>222</ele>
        <time>2016-05-07T08:29:12Z</time>
      </trkpt>
      <trkpt lat="43.59953" lon="1.17193">
        <ele>222</ele>
        <time>2016-05-07T08:29:13Z</time>
      </trkpt>
      <trkpt lat="43.59953" lon="1.17187">
        <ele>222</ele>
        <time>2016-05-07T08:29:15Z</time>
      </trkpt>
      <trkpt lat="43.59958" lon="1.17178">
        <ele>222</ele>
        <time>2016-05-07T08:29:19Z</time>
      </trkpt>
      <trkpt lat="43.59959" lon="1.17176">
        <ele>222</ele>
        <time>2016-05-07T08:29:20Z</time>
      </trkpt>
      <trkpt lat="43.59959" lon="1.17173">
        <ele>222</ele>
        <time>2016-05-07T08:29:22Z</time>
      </trkpt>
      <trkpt lat="43.59961" lon="1.17171">
        <ele>222</ele>
        <time>2016-05-07T08:29:23Z</time>
      </trkpt>
      <trkpt lat="43.59963" lon="1.17167">
        <ele>221</ele>
        <time>2016-05-07T08:29:25Z</time>
      </trkpt>
      <trkpt lat="43.59963" lon="1.17165">
        <ele>221</ele>
        <time>2016-05-07T08:29:26Z</time>
      </trkpt>
      <trkpt lat="43.59965" lon="1.17161">
        <ele>221</ele>
        <time>2016-05-07T08:29:28Z</time>
      </trkpt>
      <trkpt lat="43.59967" lon="1.17158">
        <ele>221</ele>
        <time>2016-05-07T08:29:29Z</time>
      </trkpt>
      <trkpt lat="43.59968" lon="1.17156">
        <ele>221</ele>
        <time>2016-05-07T08:29:30Z</time>
      </trkpt>
      <trkpt lat="43.59969" lon="1.17151">
        <ele>221</ele>
        <time>2016-05-07T08:29:32Z</time>
      </trkpt>
      <trkpt lat="43.59969" lon="1.17147">
        <ele>221</ele>
        <time>2016-05-07T08:29:34Z</time>
      </trkpt>
      <trkpt lat="43.59971" lon="1.17145">
        <ele>221</ele>
        <time>2016-05-07T08:29:35Z</time>
      </trkpt>
      <trkpt lat="43.59972" lon="1.17139">
        <ele>221</ele>
        <time>2016-05-07T08:29:37Z</time>
      </trkpt>
      <trkpt lat="43.59975" lon="1.17138">
        <ele>221</ele>
        <time>2016-05-07T08:29:38Z</time>
      </trkpt>
      <trkpt lat="43.59977" lon="1.17132">
        <ele>221</ele>
        <time>2016-05-07T08:29:40Z</time>
      </trkpt>
      <trkpt lat="43.5998" lon="1.17128">
        <ele>221</ele>
        <time>2016-05-07T08:29:42Z</time>
      </trkpt>
      <trkpt lat="43.5998" lon="1.17125">
        <ele>221</ele>
        <time>2016-05-07T08:29:43Z</time>
      </trkpt>
      <trkpt lat="43.59981" lon="1.17119">
        <ele>221</ele>
        <time>2016-05-07T08:29:45Z</time>
      </trkpt>
      <trkpt lat="43.59982" lon="1.17116">
        <ele>221</ele>
        <time>2016-05-07T08:29:47Z</time>
      </trkpt>
      <trkpt lat="43.59983" lon="1.17115">
        <ele>221</ele>
        <time>2016-05-07T08:29:48Z</time>
      </trkpt>
      <trkpt lat="43.59986" lon="1.17112">
        <ele>222</ele>
        <time>2016-05-07T08:29:50Z</time>
      </trkpt>
      <trkpt lat="43.59986" lon="1.17109">
        <ele>222</ele>
        <time>2016-05-07T08:29:51Z</time>
      </trkpt>
      <trkpt lat="43.59987" lon="1.17106">
        <ele>222</ele>
        <time>2016-05-07T08:29:52Z</time>
      </trkpt>
      <trkpt lat="43.59988" lon="1.17102">
        <ele>222</ele>
        <time>2016-05-07T08:29:54Z</time>
      </trkpt>
      <trkpt lat="43.59989" lon="1.17099">
        <ele>222</ele>
        <time>2016-05-07T08:29:55Z</time>
      </trkpt>
      <trkpt lat="43.59995" lon="1.17095">
        <ele>222</ele>
        <time>2016-05-07T08:29:58Z</time>
      </trkpt>
      <trkpt lat="43.59997" lon="1.17094">
        <ele>222</ele>
        <time>2016-05-07T08:29:59Z</time>
      </trkpt>
      <trkpt lat="43.6" lon="1.17091">
        <ele>222</ele>
        <time>2016-05-07T08:30:01Z</time>
      </trkpt>
      <trkpt lat="43.60001" lon="1.17089">
        <ele>222</ele>
        <time>2016-05-07T08:30:02Z</time>
      </trkpt>
      <trkpt lat="43.60004" lon="1.17085">
        <ele>222</ele>
        <time>2016-05-07T08:30:04Z</time>
      </trkpt>
      <trkpt lat="43.60005" lon="1.17083">
        <ele>222</ele>
        <time>2016-05-07T08:30:05Z</time>
      </trkpt>
      <trkpt lat="43.60007" lon="1.17081">
        <ele>222</ele>
        <time>2016-05-07T08:30:06Z</time>
      </trkpt>
      <trkpt lat="43.60009" lon="1.17078">
        <ele>222</ele>
        <time>2016-05-07T08:30:08Z</time>
      </trkpt>
      <trkpt lat="43.60011" lon="1.17076">
        <ele>222</ele>
        <time>2016-05-07T08:30:09Z</time>
      </trkpt>
      <trkpt lat="43.60014" lon="1.17072">
        <ele>222</ele>
        <time>2016-05-07T08:30:11Z</time>
      </trkpt>
      <trkpt lat="43.60027" lon="1.17062">
        <ele>222</ele>
        <time>2016-05-07T08:30:17Z</time>
      </trkpt>
      <trkpt lat="43.60028" lon="1.17061">
        <ele>222</ele>
        <time>2016-05-07T08:30:18Z</time>
      </trkpt>
      <trkpt lat="43.6003" lon="1.17058">
        <ele>222</ele>
        <time>2016-05-07T08:30:20Z</time>
      </trkpt>
      <trkpt lat="43.6003" lon="1.17056">
        <ele>222</ele>
        <time>2016-05-07T08:30:21Z</time>
      </trkpt>
      <trkpt lat="43.6003" lon="1.17054">
        <ele>222</ele>
        <time>2016-05-07T08:30:22Z</time>
      </trkpt>
      <trkpt lat="43.60033" lon="1.17051">
        <ele>222</ele>
        <time>2016-05-07T08:30:24Z</time>
      </trkpt>
      <trkpt lat="43.60034" lon="1.1705">
        <ele>222</ele>
        <time>2016-05-07T08:30:25Z</time>
      </trkpt>
      <trkpt lat="43.60037" lon="1.17048">
        <ele>222</ele>
        <time>2016-05-07T08:30:27Z</time>
      </trkpt>
      <trkpt lat="43.60037" lon="1.17047">
        <ele>222</ele>
        <time>2016-05-07T08:30:28Z</time>
      </trkpt>
      <trkpt lat="43.60038" lon="1.17046">
        <ele>222</ele>
        <time>2016-05-07T08:30:29Z</time>
      </trkpt>
      <trkpt lat="43.6004" lon="1.17043">
        <ele>222</ele>
        <time>2016-05-07T08:30:31Z</time>
      </trkpt>
      <trkpt lat="43.6004" lon="1.17041">
        <ele>221</ele>
        <time>2016-05-07T08:30:32Z</time>
      </trkpt>
      <trkpt lat="43.60041" lon="1.17039">
        <ele>221</ele>
        <time>2016-05-07T08:30:34Z</time>
      </trkpt>
      <trkpt lat="43.60042" lon="1.17038">
        <ele>221</ele>
        <time>2016-05-07T08:30:35Z</time>
      </trkpt>
      <trkpt lat="43.60045" lon="1.17036">
        <ele>221</ele>
        <time>2016-05-07T08:30:37Z</time>
      </trkpt>
      <trkpt lat="43.60046" lon="1.17035">
        <ele>221</ele>
        <time>2016-05-07T08:30:38Z</time>
      </trkpt>
      <trkpt lat="43.60049" lon="1.17032">
        <ele>221</ele>
        <time>2016-05-07T08:30:40Z</time>
      </trkpt>
      <trkpt lat="43.6005" lon="1.1703">
        <ele>221</ele>
        <time>2016-05-07T08:30:41Z</time>
      </trkpt>
      <trkpt lat="43.60053" lon="1.17028">
        <ele>221</ele>
        <time>2016-05-07T08:30:43Z</time>
      </trkpt>
      <trkpt lat="43.60053" lon="1.17025">
        <ele>221</ele>
        <time>2016-05-07T08:30:44Z</time>
      </trkpt>
      <trkpt lat="43.60054" lon="1.17024">
        <ele>221</ele>
        <time>2016-05-07T08:30:45Z</time>
      </trkpt>
      <trkpt lat="43.60057" lon="1.17022">
        <ele>220</ele>
        <time>2016-05-07T08:30:47Z</time>
      </trkpt>
      <trkpt lat="43.60058" lon="1.17019">
        <ele>220</ele>
        <time>2016-05-07T08:30:48Z</time>
      </trkpt>
      <trkpt lat="43.60059" lon="1.17018">
        <ele>220</ele>
        <time>2016-05-07T08:30:50Z</time>
      </trkpt>
      <trkpt lat="43.60059" lon="1.17016">
        <ele>220</ele>
        <time>2016-05-07T08:30:51Z</time>
      </trkpt>
      <trkpt lat="43.6006" lon="1.17014">
        <ele>220</ele>
        <time>2016-05-07T08:30:53Z</time>
      </trkpt>
      <trkpt lat="43.60059" lon="1.17013">
        <ele>220</ele>
        <time>2016-05-07T08:30:54Z</time>
      </trkpt>
      <trkpt lat="43.60059" lon="1.17013">
        <ele>220</ele>
        <time>2016-05-07T08:30:56Z</time>
      </trkpt>
      <trkpt lat="43.6006" lon="1.17013">
        <ele>220</ele>
        <time>2016-05-07T08:30:57Z</time>
      </trkpt>
      <trkpt lat="43.60061" lon="1.17014">
        <ele>220</ele>
        <time>2016-05-07T08:30:59Z</time>
      </trkpt>
      <trkpt lat="43.60062" lon="1.17015">
        <ele>220</ele>
        <time>2016-05-07T08:31:00Z</time>
      </trkpt>
      <trkpt lat="43.60062" lon="1.17017">
        <ele>220</ele>
        <time>2016-05-07T08:31:02Z</time>
      </trkpt>
      <trkpt lat="43.60062" lon="1.1702">
        <ele>220</ele>
        <time>2016-05-07T08:31:04Z</time>
      </trkpt>
      <trkpt lat="43.60061" lon="1.17021">
        <ele>220</ele>
        <time>2016-05-07T08:31:06Z</time>
      </trkpt>
      <trkpt lat="43.6006" lon="1.17027">
        <ele>220</ele>
        <time>2016-05-07T08:31:08Z</time>
      </trkpt>
      <trkpt lat="43.60061" lon="1.1703">
        <ele>220</ele>
        <time>2016-05-07T08:31:10Z</time>
      </trkpt>
      <trkpt lat="43.60062" lon="1.17025">
        <ele>221</ele>
        <time>2016-05-07T08:31:13Z</time>
      </trkpt>
      <trkpt lat="43.60062" lon="1.17023">
        <ele>221</ele>
        <time>2016-05-07T08:31:14Z</time>
      </trkpt>
      <trkpt lat="43.60063" lon="1.1702">
        <ele>221</ele>
        <time>2016-05-07T08:31:16Z</time>
      </trkpt>
      <trkpt lat="43.60064" lon="1.17016">
        <ele>221</ele>
        <time>2016-05-07T08:31:18Z</time>
      </trkpt>
      <trkpt lat="43.60065" lon="1.17015">
        <ele>221</ele>
        <time>2016-05-07T08:31:19Z</time>
      </trkpt>
      <trkpt lat="43.60065" lon="1.17013">
        <ele>221</ele>
        <time>2016-05-07T08:31:20Z</time>
      </trkpt>
      <trkpt lat="43.60067" lon="1.1701">
        <ele>221</ele>
        <time>2016-05-07T08:31:22Z</time>
      </trkpt>
      <trkpt lat="43.60068" lon="1.17007">
        <ele>221</ele>
        <time>2016-05-07T08:31:24Z</time>
      </trkpt>
      <trkpt lat="43.60069" lon="1.17003">
        <ele>221</ele>
        <time>2016-05-07T08:31:26Z</time>
      </trkpt>
      <trkpt lat="43.60069" lon="1.17001">
        <ele>221</ele>
        <time>2016-05-07T08:31:27Z</time>
      </trkpt>
      <trkpt lat="43.6007" lon="1.16997">
        <ele>221</ele>
        <time>2016-05-07T08:31:29Z</time>
      </trkpt>
      <trkpt lat="43.60071" lon="1.16995">
        <ele>221</ele>
        <time>2016-05-07T08:31:30Z</time>
      </trkpt>
      <trkpt lat="43.60072" lon="1.16993">
        <ele>221</ele>
        <time>2016-05-07T08:31:31Z</time>
      </trkpt>
      <trkpt lat="43.60075" lon="1.16986">
        <ele>221</ele>
        <time>2016-05-07T08:31:33Z</time>
      </trkpt>
      <trkpt lat="43.60078" lon="1.16975">
        <ele>221</ele>
        <time>2016-05-07T08:31:37Z</time>
      </trkpt>
      <trkpt lat="43.60078" lon="1.1697">
        <ele>221</ele>
        <time>2016-05-07T08:31:39Z</time>
      </trkpt>
      <trkpt lat="43.6008" lon="1.16966">
        <ele>221</ele>
        <time>2016-05-07T08:31:41Z</time>
      </trkpt>
      <trkpt lat="43.60083" lon="1.16961">
        <ele>222</ele>
        <time>2016-05-07T08:31:43Z</time>
      </trkpt>
      <trkpt lat="43.60083" lon="1.1696">
        <ele>222</ele>
        <time>2016-05-07T08:31:44Z</time>
      </trkpt>
      <trkpt lat="43.60085" lon="1.16956">
        <ele>222</ele>
        <time>2016-05-07T08:31:46Z</time>
      </trkpt>
      <trkpt lat="43.60087" lon="1.16953">
        <ele>222</ele>
        <time>2016-05-07T08:31:48Z</time>
      </trkpt>
      <trkpt lat="43.60088" lon="1.16951">
        <ele>222</ele>
        <time>2016-05-07T08:31:49Z</time>
      </trkpt>
      <trkpt lat="43.60088" lon="1.16946">
        <ele>222</ele>
        <time>2016-05-07T08:31:51Z</time>
      </trkpt>
      <trkpt lat="43.60088" lon="1.16944">
        <ele>222</ele>
        <time>2016-05-07T08:31:52Z</time>
      </trkpt>
      <trkpt lat="43.6009" lon="1.16943">
        <ele>222</ele>
        <time>2016-05-07T08:31:53Z</time>
      </trkpt>
      <trkpt lat="43.60092" lon="1.1694">
        <ele>222</ele>
        <time>2016-05-07T08:31:55Z</time>
      </trkpt>
      <trkpt lat="43.60092" lon="1.16936">
        <ele>222</ele>
        <time>2016-05-07T08:31:57Z</time>
      </trkpt>
      <trkpt lat="43.60095" lon="1.16934">
        <ele>222</ele>
        <time>2016-05-07T08:31:59Z</time>
      </trkpt>
      <trkpt lat="43.60097" lon="1.16931">
        <ele>222</ele>
        <time>2016-05-07T08:32:00Z</time>
      </trkpt>
      <trkpt lat="43.60098" lon="1.16928">
        <ele>222</ele>
        <time>2016-05-07T08:32:02Z</time>
      </trkpt>
      <trkpt lat="43.60099" lon="1.16925">
        <ele>222</ele>
        <time>2016-05-07T08:32:04Z</time>
      </trkpt>
      <trkpt lat="43.601" lon="1.16923">
        <ele>222</ele>
        <time>2016-05-07T08:32:05Z</time>
      </trkpt>
      <trkpt lat="43.60101" lon="1.16919">
        <ele>222</ele>
        <time>2016-05-07T08:32:07Z</time>
      </trkpt>
      <trkpt lat="43.60104" lon="1.16913">
        <ele>222</ele>
        <time>2016-05-07T08:32:10Z</time>
      </trkpt>
      <trkpt lat="43.60105" lon="1.16912">
        <ele>222</ele>
        <time>2016-05-07T08:32:11Z</time>
      </trkpt>
      <trkpt lat="43.60104" lon="1.16908">
        <ele>222</ele>
        <time>2016-05-07T08:32:12Z</time>
      </trkpt>
      <trkpt lat="43.60106" lon="1.16903">
        <ele>222</ele>
        <time>2016-05-07T08:32:14Z</time>
      </trkpt>
      <trkpt lat="43.60106" lon="1.16901">
        <ele>222</ele>
        <time>2016-05-07T08:32:15Z</time>
      </trkpt>
      <trkpt lat="43.60106" lon="1.16898">
        <ele>222</ele>
        <time>2016-05-07T08:32:16Z</time>
      </trkpt>
      <trkpt lat="43.60109" lon="1.16893">
        <ele>222</ele>
        <time>2016-05-07T08:32:18Z</time>
      </trkpt>
      <trkpt lat="43.6011" lon="1.16891">
        <ele>222</ele>
        <time>2016-05-07T08:32:19Z</time>
      </trkpt>
      <trkpt lat="43.6011" lon="1.16888">
        <ele>221</ele>
        <time>2016-05-07T08:32:20Z</time>
      </trkpt>
      <trkpt lat="43.60111" lon="1.16884">
        <ele>221</ele>
        <time>2016-05-07T08:32:22Z</time>
      </trkpt>
      <trkpt lat="43.60111" lon="1.16881">
        <ele>221</ele>
        <time>2016-05-07T08:32:23Z</time>
      </trkpt>
      <trkpt lat="43.60112" lon="1.16876">
        <ele>221</ele>
        <time>2016-05-07T08:32:25Z</time>
      </trkpt>
      <trkpt lat="43.60113" lon="1.16871">
        <ele>221</ele>
        <time>2016-05-07T08:32:27Z</time>
      </trkpt>
      <trkpt lat="43.60116" lon="1.16866">
        <ele>221</ele>
        <time>2016-05-07T08:32:29Z</time>
      </trkpt>
      <trkpt lat="43.60116" lon="1.16863">
        <ele>221</ele>
        <time>2016-05-07T08:32:31Z</time>
      </trkpt>
      <trkpt lat="43.60116" lon="1.1686">
        <ele>221</ele>
        <time>2016-05-07T08:32:32Z</time>
      </trkpt>
      <trkpt lat="43.60116" lon="1.16858">
        <ele>221</ele>
        <time>2016-05-07T08:32:33Z</time>
      </trkpt>
      <trkpt lat="43.60114" lon="1.1685">
        <ele>221</ele>
        <time>2016-05-07T08:32:35Z</time>
      </trkpt>
      <trkpt lat="43.60114" lon="1.16846">
        <ele>221</ele>
        <time>2016-05-07T08:32:37Z</time>
      </trkpt>
      <trkpt lat="43.60115" lon="1.16844">
        <ele>221</ele>
        <time>2016-05-07T08:32:38Z</time>
      </trkpt>
      <trkpt lat="43.60116" lon="1.16838">
        <ele>221</ele>
        <time>2016-05-07T08:32:40Z</time>
      </trkpt>
      <trkpt lat="43.60118" lon="1.16833">
        <ele>221</ele>
        <time>2016-05-07T08:32:42Z</time>
      </trkpt>
      <trkpt lat="43.60119" lon="1.1683">
        <ele>221</ele>
        <time>2016-05-07T08:32:43Z</time>
      </trkpt>
      <trkpt lat="43.6012" lon="1.16825">
        <ele>221</ele>
        <time>2016-05-07T08:32:45Z</time>
      </trkpt>
      <trkpt lat="43.60121" lon="1.16822">
        <ele>220</ele>
        <time>2016-05-07T08:32:46Z</time>
      </trkpt>
      <trkpt lat="43.6012" lon="1.16817">
        <ele>220</ele>
        <time>2016-05-07T08:32:48Z</time>
      </trkpt>
      <trkpt lat="43.60121" lon="1.16815">
        <ele>220</ele>
        <time>2016-05-07T08:32:49Z</time>
      </trkpt>
      <trkpt lat="43.60122" lon="1.16811">
        <ele>220</ele>
        <time>2016-05-07T08:32:51Z</time>
      </trkpt>
      <trkpt lat="43.60122" lon="1.16808">
        <ele>220</ele>
        <time>2016-05-07T08:32:52Z</time>
      </trkpt>
      <trkpt lat="43.60123" lon="1.16804">
        <ele>220</ele>
        <time>2016-05-07T08:32:54Z</time>
      </trkpt>
      <trkpt lat="43.60124" lon="1.16802">
        <ele>220</ele>
        <time>2016-05-07T08:32:55Z</time>
      </trkpt>
      <trkpt lat="43.60123" lon="1.16796">
        <ele>220</ele>
        <time>2016-05-07T08:32:57Z</time>
      </trkpt>
      <trkpt lat="43.60123" lon="1.1679">
        <ele>220</ele>
        <time>2016-05-07T08:32:59Z</time>
      </trkpt>
      <trkpt lat="43.60123" lon="1.16784">
        <ele>220</ele>
        <time>2016-05-07T08:33:01Z</time>
      </trkpt>
      <trkpt lat="43.60123" lon="1.1678">
        <ele>220</ele>
        <time>2016-05-07T08:33:02Z</time>
      </trkpt>
      <trkpt lat="43.60123" lon="1.16774">
        <ele>220</ele>
        <time>2016-05-07T08:33:04Z</time>
      </trkpt>
      <trkpt lat="43.60122" lon="1.16768">
        <ele>220</ele>
        <time>2016-05-07T08:33:06Z</time>
      </trkpt>
      <trkpt lat="43.60122" lon="1.16761">
        <ele>220</ele>
        <time>2016-05-07T08:33:08Z</time>
      </trkpt>
      <trkpt lat="43.60119" lon="1.16755">
        <ele>220</ele>
        <time>2016-05-07T08:33:11Z</time>
      </trkpt>
      <trkpt lat="43.60119" lon="1.16753">
        <ele>220</ele>
        <time>2016-05-07T08:33:12Z</time>
      </trkpt>
      <trkpt lat="43.60118" lon="1.16748">
        <ele>220</ele>
        <time>2016-05-07T08:33:14Z</time>
      </trkpt>
      <trkpt lat="43.60118" lon="1.16742">
        <ele>221</ele>
        <time>2016-05-07T08:33:16Z</time>
      </trkpt>
      <trkpt lat="43.60117" lon="1.16737">
        <ele>221</ele>
        <time>2016-05-07T08:33:18Z</time>
      </trkpt>
      <trkpt lat="43.60117" lon="1.16735">
        <ele>221</ele>
        <time>2016-05-07T08:33:19Z</time>
      </trkpt>
      <trkpt lat="43.60117" lon="1.16732">
        <ele>221</ele>
        <time>2016-05-07T08:33:20Z</time>
      </trkpt>
      <trkpt lat="43.60116" lon="1.16727">
        <ele>221</ele>
        <time>2016-05-07T08:33:22Z</time>
      </trkpt>
      <trkpt lat="43.60116" lon="1.16724">
        <ele>221</ele>
        <time>2016-05-07T08:33:23Z</time>
      </trkpt>
      <trkpt lat="43.60116" lon="1.16719">
        <ele>221</ele>
        <time>2016-05-07T08:33:25Z</time>
      </trkpt>
      <trkpt lat="43.60116" lon="1.16715">
        <ele>221</ele>
        <time>2016-05-07T08:33:27Z</time>
      </trkpt>
      <trkpt lat="43.60115" lon="1.16711">
        <ele>221</ele>
        <time>2016-05-07T08:33:29Z</time>
      </trkpt>
      <trkpt lat="43.60115" lon="1.16705">
        <ele>221</ele>
        <time>2016-05-07T08:33:31Z</time>
      </trkpt>
      <trkpt lat="43.60114" lon="1.16703">
        <ele>221</ele>
        <time>2016-05-07T08:33:32Z</time>
      </trkpt>
      <trkpt lat="43.60115" lon="1.16699">
        <ele>221</ele>
        <time>2016-05-07T08:33:33Z</time>
      </trkpt>
      <trkpt lat="43.60114" lon="1.16694">
        <ele>221</ele>
        <time>2016-05-07T08:33:35Z</time>
      </trkpt>
      <trkpt lat="43.60114" lon="1.16689">
        <ele>221</ele>
        <time>2016-05-07T08:33:37Z</time>
      </trkpt>
      <trkpt lat="43.60113" lon="1.16687">
        <ele>221</ele>
        <time>2016-05-07T08:33:38Z</time>
      </trkpt>
      <trkpt lat="43.60112" lon="1.16685">
        <ele>221</ele>
        <time>2016-05-07T08:33:39Z</time>
      </trkpt>
      <trkpt lat="43.60113" lon="1.1668">
        <ele>221</ele>
        <time>2016-05-07T08:33:41Z</time>
      </trkpt>
      <trkpt lat="43.60114" lon="1.16676">
        <ele>221</ele>
        <time>2016-05-07T08:33:43Z</time>
      </trkpt>
      <trkpt lat="43.60114" lon="1.16673">
        <ele>222</ele>
        <time>2016-05-07T08:33:45Z</time>
      </trkpt>
      <trkpt lat="43.60114" lon="1.16667">
        <ele>222</ele>
        <time>2016-05-07T08:33:47Z</time>
      </trkpt>
      <trkpt lat="43.60114" lon="1.16663">
        <ele>222</ele>
        <time>2016-05-07T08:33:49Z</time>
      </trkpt>
      <trkpt lat="43.60114" lon="1.16658">
        <ele>222</ele>
        <time>2016-05-07T08:33:51Z</time>
      </trkpt>
      <trkpt lat="43.60113" lon="1.16652">
        <ele>222</ele>
        <time>2016-05-07T08:33:53Z</time>
      </trkpt>
      <trkpt lat="43.60111" lon="1.16646">
        <ele>222</ele>
        <time>2016-05-07T08:33:55Z</time>
      </trkpt>
      <trkpt lat="43.60112" lon="1.1664">
        <ele>222</ele>
        <time>2016-05-07T08:33:57Z</time>
      </trkpt>
      <trkpt lat="43.60111" lon="1.16637">
        <ele>222</ele>
        <time>2016-05-07T08:33:58Z</time>
      </trkpt>
      <trkpt lat="43.60111" lon="1.16633">
        <ele>222</ele>
        <time>2016-05-07T08:33:59Z</time>
      </trkpt>
      <trkpt lat="43.60109" lon="1.1663">
        <ele>222</ele>
        <time>2016-05-07T08:34:00Z</time>
      </trkpt>
      <trkpt lat="43.60111" lon="1.16626">
        <ele>222</ele>
        <time>2016-05-07T08:34:02Z</time>
      </trkpt>
      <trkpt lat="43.60114" lon="1.16623">
        <ele>222</ele>
        <time>2016-05-07T08:34:04Z</time>
      </trkpt>
      <trkpt lat="43.60115" lon="1.16619">
        <ele>222</ele>
        <time>2016-05-07T08:34:06Z</time>
      </trkpt>
      <trkpt lat="43.60114" lon="1.16617">
        <ele>222</ele>
        <time>2016-05-07T08:34:07Z</time>
      </trkpt>
      <trkpt lat="43.60115" lon="1.16612">
        <ele>222</ele>
        <time>2016-05-07T08:34:09Z</time>
      </trkpt>
      <trkpt lat="43.60116" lon="1.16609">
        <ele>222</ele>
        <time>2016-05-07T08:34:11Z</time>
      </trkpt>
      <trkpt lat="43.60117" lon="1.16606">
        <ele>222</ele>
        <time>2016-05-07T08:34:13Z</time>
      </trkpt>
      <trkpt lat="43.60118" lon="1.16603">
        <ele>222</ele>
        <time>2016-05-07T08:34:15Z</time>
      </trkpt>
      <trkpt lat="43.60118" lon="1.16601">
        <ele>222</ele>
        <time>2016-05-07T08:34:16Z</time>
      </trkpt>
      <trkpt lat="43.60118" lon="1.16598">
        <ele>222</ele>
        <time>2016-05-07T08:34:18Z</time>
      </trkpt>
      <trkpt lat="43.60117" lon="1.16596">
        <ele>222</ele>
        <time>2016-05-07T08:34:19Z</time>
      </trkpt>
      <trkpt lat="43.60118" lon="1.16592">
        <ele>222</ele>
        <time>2016-05-07T08:34:21Z</time>
      </trkpt>
      <trkpt lat="43.60118" lon="1.16591">
        <ele>222</ele>
        <time>2016-05-07T08:34:22Z</time>
      </trkpt>
      <trkpt lat="43.60119" lon="1.16587">
        <ele>222</ele>
        <time>2016-05-07T08:34:24Z</time>
      </trkpt>
      <trkpt lat="43.60119" lon="1.16583">
        <ele>222</ele>
        <time>2016-05-07T08:34:26Z</time>
      </trkpt>
      <trkpt lat="43.60118" lon="1.1658">
        <ele>222</ele>
        <time>2016-05-07T08:34:28Z</time>
      </trkpt>
      <trkpt lat="43.60117" lon="1.16578">
        <ele>222</ele>
        <time>2016-05-07T08:34:29Z</time>
      </trkpt>
      <trkpt lat="43.60117" lon="1.16575">
        <ele>222</ele>
        <time>2016-05-07T08:34:30Z</time>
      </trkpt>
      <trkpt lat="43.60117" lon="1.16573">
        <ele>222</ele>
        <time>2016-05-07T08:34:31Z</time>
      </trkpt>
      <trkpt lat="43.60117" lon="1.16571">
        <ele>222</ele>
        <time>2016-05-07T08:34:33Z</time>
      </trkpt>
      <trkpt lat="43.60116" lon="1.16567">
        <ele>222</ele>
        <time>2016-05-07T08:34:35Z</time>
      </trkpt>
      <trkpt lat="43.60116" lon="1.16566">
        <ele>222</ele>
        <time>2016-05-07T08:34:36Z</time>
      </trkpt>
      <trkpt lat="43.60115" lon="1.16562">
        <ele>222</ele>
        <time>2016-05-07T08:34:38Z</time>
      </trkpt>
      <trkpt lat="43.60116" lon="1.1656">
        <ele>223</ele>
        <time>2016-05-07T08:34:39Z</time>
      </trkpt>
      <trkpt lat="43.60115" lon="1.16556">
        <ele>223</ele>
        <time>2016-05-07T08:34:41Z</time>
      </trkpt>
      <trkpt lat="43.60115" lon="1.16553">
        <ele>223</ele>
        <time>2016-05-07T08:34:43Z</time>
      </trkpt>
      <trkpt lat="43.60114" lon="1.16551">
        <ele>223</ele>
        <time>2016-05-07T08:34:44Z</time>
      </trkpt>
      <trkpt lat="43.60114" lon="1.16548">
        <ele>223</ele>
        <time>2016-05-07T08:34:46Z</time>
      </trkpt>
      <trkpt lat="43.60115" lon="1.16547">
        <ele>223</ele>
        <time>2016-05-07T08:34:47Z</time>
      </trkpt>
      <trkpt lat="43.60116" lon="1.16544">
        <ele>223</ele>
        <time>2016-05-07T08:34:49Z</time>
      </trkpt>
      <trkpt lat="43.60116" lon="1.16542">
        <ele>223</ele>
        <time>2016-05-07T08:34:50Z</time>
      </trkpt>
      <trkpt lat="43.60117" lon="1.1654">
        <ele>223</ele>
        <time>2016-05-07T08:34:52Z</time>
      </trkpt>
      <trkpt lat="43.60117" lon="1.1654">
        <ele>224</ele>
        <time>2016-05-07T08:34:53Z</time>
      </trkpt>
      <trkpt lat="43.60118" lon="1.16537">
        <ele>224</ele>
        <time>2016-05-07T08:34:55Z</time>
      </trkpt>
      <trkpt lat="43.60119" lon="1.16536">
        <ele>224</ele>
        <time>2016-05-07T08:34:56Z</time>
      </trkpt>
      <trkpt lat="43.6012" lon="1.16534">
        <ele>224</ele>
        <time>2016-05-07T08:34:58Z</time>
      </trkpt>
      <trkpt lat="43.60121" lon="1.16531">
        <ele>224</ele>
        <time>2016-05-07T08:35:00Z</time>
      </trkpt>
      <trkpt lat="43.60119" lon="1.16531">
        <ele>224</ele>
        <time>2016-05-07T08:35:03Z</time>
      </trkpt>
      <trkpt lat="43.60118" lon="1.16533">
        <ele>225</ele>
        <time>2016-05-07T08:35:05Z</time>
      </trkpt>
      <trkpt lat="43.60117" lon="1.16534">
        <ele>225</ele>
        <time>2016-05-07T08:35:07Z</time>
      </trkpt>
      <trkpt lat="43.60117" lon="1.16535">
        <ele>225</ele>
        <time>2016-05-07T08:35:08Z</time>
      </trkpt>
      <trkpt lat="43.60116" lon="1.16536">
        <ele>225</ele>
        <time>2016-05-07T08:35:10Z</time>
      </trkpt>
      <trkpt lat="43.60116" lon="1.16539">
        <ele>225</ele>
        <time>2016-05-07T08:35:12Z</time>
      </trkpt>
      <trkpt lat="43.60114" lon="1.1654">
        <ele>225</ele>
        <time>2016-05-07T08:35:13Z</time>
      </trkpt>
      <trkpt lat="43.60113" lon="1.16542">
        <ele>225</ele>
        <time>2016-05-07T08:35:14Z</time>
      </trkpt>
      <trkpt lat="43.60111" lon="1.16545">
        <ele>226</ele>
        <time>2016-05-07T08:35:17Z</time>
      </trkpt>
      <trkpt lat="43.6011" lon="1.16548">
        <ele>226</ele>
        <time>2016-05-07T08:35:19Z</time>
      </trkpt>
      <trkpt lat="43.60109" lon="1.16549">
        <ele>226</ele>
        <time>2016-05-07T08:35:21Z</time>
      </trkpt>
      <trkpt lat="43.6011" lon="1.16546">
        <ele>226</ele>
        <time>2016-05-07T08:35:25Z</time>
      </trkpt>
      <trkpt lat="43.60109" lon="1.16542">
        <ele>227</ele>
        <time>2016-05-07T08:35:27Z</time>
      </trkpt>
      <trkpt lat="43.6011" lon="1.16541">
        <ele>227</ele>
        <time>2016-05-07T08:35:28Z</time>
      </trkpt>
      <trkpt lat="43.60111" lon="1.1654">
        <ele>227</ele>
        <time>2016-05-07T08:35:29Z</time>
      </trkpt>
      <trkpt lat="43.60112" lon="1.16538">
        <ele>227</ele>
        <time>2016-05-07T08:35:31Z</time>
      </trkpt>
      <trkpt lat="43.60112" lon="1.16537">
        <ele>227</ele>
        <time>2016-05-07T08:35:32Z</time>
      </trkpt>
      <trkpt lat="43.60113" lon="1.16533">
        <ele>228</ele>
        <time>2016-05-07T08:35:34Z</time>
      </trkpt>
      <trkpt lat="43.60114" lon="1.16528">
        <ele>228</ele>
        <time>2016-05-07T08:35:36Z</time>
      </trkpt>
      <trkpt lat="43.60114" lon="1.16522">
        <ele>228</ele>
        <time>2016-05-07T08:35:38Z</time>
      </trkpt>
      <trkpt lat="43.60115" lon="1.1652">
        <ele>228</ele>
        <time>2016-05-07T08:35:39Z</time>
      </trkpt>
      <trkpt lat="43.60116" lon="1.16518">
        <ele>228</ele>
        <time>2016-05-07T08:35:40Z</time>
      </trkpt>
      <trkpt lat="43.60116" lon="1.16514">
        <ele>228</ele>
        <time>2016-05-07T08:35:42Z</time>
      </trkpt>
      <trkpt lat="43.60116" lon="1.16512">
        <ele>228</ele>
        <time>2016-05-07T08:35:43Z</time>
      </trkpt>
      <trkpt lat="43.60115" lon="1.16508">
        <ele>228</ele>
        <time>2016-05-07T08:35:45Z</time>
      </trkpt>
      <trkpt lat="43.60115" lon="1.16506">
        <ele>228</ele>
        <time>2016-05-07T08:35:46Z</time>
      </trkpt>
      <trkpt lat="43.60115" lon="1.16504">
        <ele>228</ele>
        <time>2016-05-07T08:35:48Z</time>
      </trkpt>
      <trkpt lat="43.60115" lon="1.16501">
        <ele>228</ele>
        <time>2016-05-07T08:35:49Z</time>
      </trkpt>
      <trkpt lat="43.60116" lon="1.16498">
        <ele>229</ele>
        <time>2016-05-07T08:35:51Z</time>
      </trkpt>
      <trkpt lat="43.60117" lon="1.16496">
        <ele>229</ele>
        <time>2016-05-07T08:35:52Z</time>
      </trkpt>
      <trkpt lat="43.60116" lon="1.16493">
        <ele>229</ele>
        <time>2016-05-07T08:35:53Z</time>
      </trkpt>
      <trkpt lat="43.60116" lon="1.16489">
        <ele>229</ele>
        <time>2016-05-07T08:35:55Z</time>
      </trkpt>
      <trkpt lat="43.60115" lon="1.16485">
        <ele>229</ele>
        <time>2016-05-07T08:35:57Z</time>
      </trkpt>
      <trkpt lat="43.60113" lon="1.16481">
        <ele>229</ele>
        <time>2016-05-07T08:35:59Z</time>
      </trkpt>
      <trkpt lat="43.60113" lon="1.16476">
        <ele>229</ele>
        <time>2016-05-07T08:36:01Z</time>
      </trkpt>
      <trkpt lat="43.60112" lon="1.16472">
        <ele>229</ele>
        <time>2016-05-07T08:36:03Z</time>
      </trkpt>
      <trkpt lat="43.60109" lon="1.16468">
        <ele>230</ele>
        <time>2016-05-07T08:36:05Z</time>
      </trkpt>
      <trkpt lat="43.60108" lon="1.16463">
        <ele>230</ele>
        <time>2016-05-07T08:36:07Z</time>
      </trkpt>
      <trkpt lat="43.60108" lon="1.16461">
        <ele>230</ele>
        <time>2016-05-07T08:36:08Z</time>
      </trkpt>
      <trkpt lat="43.60107" lon="1.16456">
        <ele>230</ele>
        <time>2016-05-07T08:36:10Z</time>
      </trkpt>
      <trkpt lat="43.60106" lon="1.16454">
        <ele>230</ele>
        <time>2016-05-07T08:36:11Z</time>
      </trkpt>
      <trkpt lat="43.60105" lon="1.1645">
        <ele>230</ele>
        <time>2016-05-07T08:36:13Z</time>
      </trkpt>
      <trkpt lat="43.60104" lon="1.16447">
        <ele>230</ele>
        <time>2016-05-07T08:36:14Z</time>
      </trkpt>
      <trkpt lat="43.60104" lon="1.16444">
        <ele>230</ele>
        <time>2016-05-07T08:36:15Z</time>
      </trkpt>
      <trkpt lat="43.60101" lon="1.16439">
        <ele>230</ele>
        <time>2016-05-07T08:36:17Z</time>
      </trkpt>
      <trkpt lat="43.60101" lon="1.16435">
        <ele>230</ele>
        <time>2016-05-07T08:36:19Z</time>
      </trkpt>
      <trkpt lat="43.60099" lon="1.16431">
        <ele>230</ele>
        <time>2016-05-07T08:36:21Z</time>
      </trkpt>
      <trkpt lat="43.60099" lon="1.16428">
        <ele>230</ele>
        <time>2016-05-07T08:36:23Z</time>
      </trkpt>
      <trkpt lat="43.60099" lon="1.16425">
        <ele>230</ele>
        <time>2016-05-07T08:36:25Z</time>
      </trkpt>
      <trkpt lat="43.60099" lon="1.16423">
        <ele>231</ele>
        <time>2016-05-07T08:36:26Z</time>
      </trkpt>
      <trkpt lat="43.60099" lon="1.16422">
        <ele>231</ele>
        <time>2016-05-07T08:36:27Z</time>
      </trkpt>
      <trkpt lat="43.60099" lon="1.16418">
        <ele>231</ele>
        <time>2016-05-07T08:36:29Z</time>
      </trkpt>
      <trkpt lat="43.601" lon="1.16417">
        <ele>231</ele>
        <time>2016-05-07T08:36:30Z</time>
      </trkpt>
      <trkpt lat="43.60101" lon="1.16412">
        <ele>231</ele>
        <time>2016-05-07T08:36:32Z</time>
      </trkpt>
      <trkpt lat="43.601" lon="1.1641">
        <ele>231</ele>
        <time>2016-05-07T08:36:33Z</time>
      </trkpt>
      <trkpt lat="43.601" lon="1.16408">
        <ele>231</ele>
        <time>2016-05-07T08:36:34Z</time>
      </trkpt>
      <trkpt lat="43.60101" lon="1.16403">
        <ele>231</ele>
        <time>2016-05-07T08:36:36Z</time>
      </trkpt>
      <trkpt lat="43.60102" lon="1.16401">
        <ele>231</ele>
        <time>2016-05-07T08:36:37Z</time>
      </trkpt>
      <trkpt lat="43.60103" lon="1.16397">
        <ele>231</ele>
        <time>2016-05-07T08:36:39Z</time>
      </trkpt>
      <trkpt lat="43.60102" lon="1.16392">
        <ele>231</ele>
        <time>2016-05-07T08:36:41Z</time>
      </trkpt>
      <trkpt lat="43.60103" lon="1.1639">
        <ele>231</ele>
        <time>2016-05-07T08:36:42Z</time>
      </trkpt>
      <trkpt lat="43.60103" lon="1.16388">
        <ele>232</ele>
        <time>2016-05-07T08:36:43Z</time>
      </trkpt>
      <trkpt lat="43.60106" lon="1.16384">
        <ele>232</ele>
        <time>2016-05-07T08:36:45Z</time>
      </trkpt>
      <trkpt lat="43.60106" lon="1.1638">
        <ele>232</ele>
        <time>2016-05-07T08:36:46Z</time>
      </trkpt>
      <trkpt lat="43.60108" lon="1.16375">
        <ele>232</ele>
        <time>2016-05-07T08:36:48Z</time>
      </trkpt>
      <trkpt lat="43.60108" lon="1.16372">
        <ele>232</ele>
        <time>2016-05-07T08:36:49Z</time>
      </trkpt>
      <trkpt lat="43.60109" lon="1.16368">
        <ele>232</ele>
        <time>2016-05-07T08:36:51Z</time>
      </trkpt>
      <trkpt lat="43.60111" lon="1.16365">
        <ele>232</ele>
        <time>2016-05-07T08:36:53Z</time>
      </trkpt>
      <trkpt lat="43.60111" lon="1.16363">
        <ele>232</ele>
        <time>2016-05-07T08:36:54Z</time>
      </trkpt>
      <trkpt lat="43.60111" lon="1.16361">
        <ele>232</ele>
        <time>2016-05-07T08:36:55Z</time>
      </trkpt>
      <trkpt lat="43.60113" lon="1.16358">
        <ele>232</ele>
        <time>2016-05-07T08:36:57Z</time>
      </trkpt>
      <trkpt lat="43.60114" lon="1.16356">
        <ele>232</ele>
        <time>2016-05-07T08:36:58Z</time>
      </trkpt>
      <trkpt lat="43.60115" lon="1.16351">
        <ele>232</ele>
        <time>2016-05-07T08:37:00Z</time>
      </trkpt>
      <trkpt lat="43.60116" lon="1.16349">
        <ele>232</ele>
        <time>2016-05-07T08:37:01Z</time>
      </trkpt>
      <trkpt lat="43.60115" lon="1.16347">
        <ele>232</ele>
        <time>2016-05-07T08:37:02Z</time>
      </trkpt>
      <trkpt lat="43.60115" lon="1.16342">
        <ele>232</ele>
        <time>2016-05-07T08:37:04Z</time>
      </trkpt>
      <trkpt lat="43.60116" lon="1.16339">
        <ele>232</ele>
        <time>2016-05-07T08:37:06Z</time>
      </trkpt>
      <trkpt lat="43.60116" lon="1.16337">
        <ele>232</ele>
        <time>2016-05-07T08:37:07Z</time>
      </trkpt>
      <trkpt lat="43.60117" lon="1.16332">
        <ele>232</ele>
        <time>2016-05-07T08:37:09Z</time>
      </trkpt>
      <trkpt lat="43.60118" lon="1.16329">
        <ele>232</ele>
        <time>2016-05-07T08:37:10Z</time>
      </trkpt>
      <trkpt lat="43.60117" lon="1.16326">
        <ele>232</ele>
        <time>2016-05-07T08:37:12Z</time>
      </trkpt>
      <trkpt lat="43.60117" lon="1.16325">
        <ele>232</ele>
        <time>2016-05-07T08:37:13Z</time>
      </trkpt>
      <trkpt lat="43.60117" lon="1.16322">
        <ele>233</ele>
        <time>2016-05-07T08:37:15Z</time>
      </trkpt>
      <trkpt lat="43.60116" lon="1.16318">
        <ele>233</ele>
        <time>2016-05-07T08:37:17Z</time>
      </trkpt>
      <trkpt lat="43.60116" lon="1.16314">
        <ele>233</ele>
        <time>2016-05-07T08:37:19Z</time>
      </trkpt>
      <trkpt lat="43.60116" lon="1.16312">
        <ele>233</ele>
        <time>2016-05-07T08:37:20Z</time>
      </trkpt>
      <trkpt lat="43.60115" lon="1.16308">
        <ele>233</ele>
        <time>2016-05-07T08:37:22Z</time>
      </trkpt>
      <trkpt lat="43.60115" lon="1.16304">
        <ele>234</ele>
        <time>2016-05-07T08:37:24Z</time>
      </trkpt>
      <trkpt lat="43.60115" lon="1.163">
        <ele>234</ele>
        <time>2016-05-07T08:37:26Z</time>
      </trkpt>
      <trkpt lat="43.60116" lon="1.16299">
        <ele>234</ele>
        <time>2016-05-07T08:37:27Z</time>
      </trkpt>
      <trkpt lat="43.60117" lon="1.16298">
        <ele>234</ele>
        <time>2016-05-07T08:37:28Z</time>
      </trkpt>
      <trkpt lat="43.60118" lon="1.16294">
        <ele>234</ele>
        <time>2016-05-07T08:37:30Z</time>
      </trkpt>
      <trkpt lat="43.60118" lon="1.16292">
        <ele>234</ele>
        <time>2016-05-07T08:37:31Z</time>
      </trkpt>
      <trkpt lat="43.60119" lon="1.16287">
        <ele>234</ele>
        <time>2016-05-07T08:37:33Z</time>
      </trkpt>
      <trkpt lat="43.60116" lon="1.16281">
        <ele>234</ele>
        <time>2016-05-07T08:37:36Z</time>
      </trkpt>
      <trkpt lat="43.60115" lon="1.16278">
        <ele>234</ele>
        <time>2016-05-07T08:37:38Z</time>
      </trkpt>
      <trkpt lat="43.60113" lon="1.16266">
        <ele>234</ele>
        <time>2016-05-07T08:37:42Z</time>
      </trkpt>
      <trkpt lat="43.60112" lon="1.16261">
        <ele>235</ele>
        <time>2016-05-07T08:37:44Z</time>
      </trkpt>
      <trkpt lat="43.60112" lon="1.16255">
        <ele>235</ele>
        <time>2016-05-07T08:37:46Z</time>
      </trkpt>
      <trkpt lat="43.60112" lon="1.16251">
        <ele>235</ele>
        <time>2016-05-07T08:37:48Z</time>
      </trkpt>
      <trkpt lat="43.60111" lon="1.16247">
        <ele>236</ele>
        <time>2016-05-07T08:37:50Z</time>
      </trkpt>
      <trkpt lat="43.60111" lon="1.16243">
        <ele>236</ele>
        <time>2016-05-07T08:37:52Z</time>
      </trkpt>
      <trkpt lat="43.60111" lon="1.1624">
        <ele>236</ele>
        <time>2016-05-07T08:37:54Z</time>
      </trkpt>
      <trkpt lat="43.60111" lon="1.16238">
        <ele>236</ele>
        <time>2016-05-07T08:37:56Z</time>
      </trkpt>
      <trkpt lat="43.60111" lon="1.16234">
        <ele>236</ele>
        <time>2016-05-07T08:37:58Z</time>
      </trkpt>
      <trkpt lat="43.60111" lon="1.1623">
        <ele>236</ele>
        <time>2016-05-07T08:38:00Z</time>
      </trkpt>
      <trkpt lat="43.60111" lon="1.16228">
        <ele>236</ele>
        <time>2016-05-07T08:38:01Z</time>
      </trkpt>
      <trkpt lat="43.60111" lon="1.16224">
        <ele>236</ele>
        <time>2016-05-07T08:38:03Z</time>
      </trkpt>
      <trkpt lat="43.60111" lon="1.16222">
        <ele>236</ele>
        <time>2016-05-07T08:38:05Z</time>
      </trkpt>
      <trkpt lat="43.60112" lon="1.16221">
        <ele>236</ele>
        <time>2016-05-07T08:38:06Z</time>
      </trkpt>
      <trkpt lat="43.60113" lon="1.16218">
        <ele>236</ele>
        <time>2016-05-07T08:38:08Z</time>
      </trkpt>
      <trkpt lat="43.60113" lon="1.16216">
        <ele>236</ele>
        <time>2016-05-07T08:38:10Z</time>
      </trkpt>
      <trkpt lat="43.60113" lon="1.16213">
        <ele>236</ele>
        <time>2016-05-07T08:38:12Z</time>
      </trkpt>
      <trkpt lat="43.60113" lon="1.16213">
        <ele>236</ele>
        <time>2016-05-07T08:38:13Z</time>
      </trkpt>
      <trkpt lat="43.60112" lon="1.16211">
        <ele>236</ele>
        <time>2016-05-07T08:38:15Z</time>
      </trkpt>
      <trkpt lat="43.60112" lon="1.16209">
        <ele>236</ele>
        <time>2016-05-07T08:38:16Z</time>
      </trkpt>
      <trkpt lat="43.60112" lon="1.16209">
        <ele>236</ele>
        <time>2016-05-07T08:38:17Z</time>
      </trkpt>
      <trkpt lat="43.60112" lon="1.16208">
        <ele>236</ele>
        <time>2016-05-07T08:38:19Z</time>
      </trkpt>
      <trkpt lat="43.60112" lon="1.16207">
        <ele>236</ele>
        <time>2016-05-07T08:38:20Z</time>
      </trkpt>
      <trkpt lat="43.60111" lon="1.16206">
        <ele>236</ele>
        <time>2016-05-07T08:38:22Z</time>
      </trkpt>
      <trkpt lat="43.60112" lon="1.16206">
        <ele>236</ele>
        <time>2016-05-07T08:38:23Z</time>
      </trkpt>
      <trkpt lat="43.60112" lon="1.16205">
        <ele>236</ele>
        <time>2016-05-07T08:38:25Z</time>
      </trkpt>
      <trkpt lat="43.60112" lon="1.16205">
        <ele>236</ele>
        <time>2016-05-07T08:38:51Z</time>
      </trkpt>
      <trkpt lat="43.60112" lon="1.16205">
        <ele>236</ele>
        <time>2016-05-07T08:38:53Z</time>
      </trkpt>
      <trkpt lat="43.60112" lon="1.16205">
        <ele>236</ele>
        <time>2016-05-07T08:39:08Z</time>
      </trkpt>
      <trkpt lat="43.6012" lon="1.16222">
        <ele>236</ele>
        <time>2016-05-07T08:39:18Z</time>
      </trkpt>
      <trkpt lat="43.60114" lon="1.16209">
        <ele>236</ele>
        <time>2016-05-07T08:39:21Z</time>
      </trkpt>
      <trkpt lat="43.60112" lon="1.16205">
        <ele>236</ele>
        <time>2016-05-07T08:39:22Z</time>
      </trkpt>
      <trkpt lat="43.60112" lon="1.16205">
        <ele>236</ele>
        <time>2016-05-07T08:39:43Z</time>
      </trkpt>
      <trkpt lat="43.60112" lon="1.16205">
        <ele>236</ele>
        <time>2016-05-07T08:39:45Z</time>
      </trkpt>
      <trkpt lat="43.60112" lon="1.16205">
        <ele>236</ele>
        <time>2016-05-07T08:40:02Z</time>
      </trkpt>
      <trkpt lat="43.60112" lon="1.16205">
        <ele>236</ele>
        <time>2016-05-07T08:40:03Z</time>
      </trkpt>
      <trkpt lat="43.60112" lon="1.16205">
        <ele>236</ele>
        <time>2016-05-07T08:40:20Z</time>
      </trkpt>
      <trkpt lat="43.60112" lon="1.16205">
        <ele>236</ele>
        <time>2016-05-07T08:40:21Z</time>
      </trkpt>
      <trkpt lat="43.60109" lon="1.16206">
        <ele>236</ele>
        <time>2016-05-07T08:40:26Z</time>
      </trkpt>
      <trkpt lat="43.6011" lon="1.16207">
        <ele>236</ele>
        <time>2016-05-07T08:40:28Z</time>
      </trkpt>
      <trkpt lat="43.60111" lon="1.16208">
        <ele>236</ele>
        <time>2016-05-07T08:40:30Z</time>
      </trkpt>
      <trkpt lat="43.60111" lon="1.1621">
        <ele>236</ele>
        <time>2016-05-07T08:40:32Z</time>
      </trkpt>
      <trkpt lat="43.60111" lon="1.1621">
        <ele>236</ele>
        <time>2016-05-07T08:40:34Z</time>
      </trkpt>
      <trkpt lat="43.60111" lon="1.1621">
        <ele>236</ele>
        <time>2016-05-07T08:40:35Z</time>
      </trkpt>
      <trkpt lat="43.60111" lon="1.1621">
        <ele>236</ele>
        <time>2016-05-07T08:40:37Z</time>
      </trkpt>
      <trkpt lat="43.60108" lon="1.16213">
        <ele>236</ele>
        <time>2016-05-07T08:40:54Z</time>
      </trkpt>
      <trkpt lat="43.6011" lon="1.16214">
        <ele>236</ele>
        <time>2016-05-07T08:40:56Z</time>
      </trkpt>
      <trkpt lat="43.60111" lon="1.16215">
        <ele>236</ele>
        <time>2016-05-07T08:40:58Z</time>
      </trkpt>
      <trkpt lat="43.60112" lon="1.16216">
        <ele>236</ele>
        <time>2016-05-07T08:40:59Z</time>
      </trkpt>
      <trkpt lat="43.60112" lon="1.16217">
        <ele>236</ele>
        <time>2016-05-07T08:41:00Z</time>
      </trkpt>
      <trkpt lat="43.60114" lon="1.16217">
        <ele>236</ele>
        <time>2016-05-07T08:41:03Z</time>
      </trkpt>
      <trkpt lat="43.60116" lon="1.16217">
        <ele>236</ele>
        <time>2016-05-07T08:41:05Z</time>
      </trkpt>
      <trkpt lat="43.60117" lon="1.16217">
        <ele>236</ele>
        <time>2016-05-07T08:41:06Z</time>
      </trkpt>
      <trkpt lat="43.60119" lon="1.16217">
        <ele>236</ele>
        <time>2016-05-07T08:41:07Z</time>
      </trkpt>
      <trkpt lat="43.60121" lon="1.16216">
        <ele>236</ele>
        <time>2016-05-07T08:41:09Z</time>
      </trkpt>
      <trkpt lat="43.60124" lon="1.16216">
        <ele>236</ele>
        <time>2016-05-07T08:41:11Z</time>
      </trkpt>
      <trkpt lat="43.60126" lon="1.16216">
        <ele>236</ele>
        <time>2016-05-07T08:41:12Z</time>
      </trkpt>
      <trkpt lat="43.60127" lon="1.16215">
        <ele>237</ele>
        <time>2016-05-07T08:41:14Z</time>
      </trkpt>
      <trkpt lat="43.6013" lon="1.16215">
        <ele>237</ele>
        <time>2016-05-07T08:41:16Z</time>
      </trkpt>
      <trkpt lat="43.60131" lon="1.16215">
        <ele>237</ele>
        <time>2016-05-07T08:41:17Z</time>
      </trkpt>
      <trkpt lat="43.60131" lon="1.16215">
        <ele>237</ele>
        <time>2016-05-07T08:41:18Z</time>
      </trkpt>
      <trkpt lat="43.60132" lon="1.16216">
        <ele>237</ele>
        <time>2016-05-07T08:41:20Z</time>
      </trkpt>
      <trkpt lat="43.60132" lon="1.16216">
        <ele>237</ele>
        <time>2016-05-07T08:41:22Z</time>
      </trkpt>
      <trkpt lat="43.60131" lon="1.16216">
        <ele>237</ele>
        <time>2016-05-07T08:41:23Z</time>
      </trkpt>
      <trkpt lat="43.6013" lon="1.16217">
        <ele>237</ele>
        <time>2016-05-07T08:41:31Z</time>
      </trkpt>
      <trkpt lat="43.6013" lon="1.16217">
        <ele>238</ele>
        <time>2016-05-07T08:41:33Z</time>
      </trkpt>
      <trkpt lat="43.60132" lon="1.16218">
        <ele>238</ele>
        <time>2016-05-07T08:41:35Z</time>
      </trkpt>
      <trkpt lat="43.60134" lon="1.16219">
        <ele>238</ele>
        <time>2016-05-07T08:41:41Z</time>
      </trkpt>
      <trkpt lat="43.60134" lon="1.16219">
        <ele>239</ele>
        <time>2016-05-07T08:41:42Z</time>
      </trkpt>
      <trkpt lat="43.60133" lon="1.1622">
        <ele>239</ele>
        <time>2016-05-07T08:41:44Z</time>
      </trkpt>
      <trkpt lat="43.60133" lon="1.16221">
        <ele>239</ele>
        <time>2016-05-07T08:41:46Z</time>
      </trkpt>
      <trkpt lat="43.60132" lon="1.1622">
        <ele>239</ele>
        <time>2016-05-07T08:41:48Z</time>
      </trkpt>
      <trkpt lat="43.60132" lon="1.1622">
        <ele>239</ele>
        <time>2016-05-07T08:41:50Z</time>
      </trkpt>
      <trkpt lat="43.60127" lon="1.16219">
        <ele>239</ele>
        <time>2016-05-07T08:42:04Z</time>
      </trkpt>
      <trkpt lat="43.60127" lon="1.1622">
        <ele>239</ele>
        <time>2016-05-07T08:42:06Z</time>
      </trkpt>
      <trkpt lat="43.60128" lon="1.16221">
        <ele>239</ele>
        <time>2016-05-07T08:42:07Z</time>
      </trkpt>
      <trkpt lat="43.60128" lon="1.16223">
        <ele>239</ele>
        <time>2016-05-07T08:42:09Z</time>
      </trkpt>
      <trkpt lat="43.60127" lon="1.16223">
        <ele>239</ele>
        <time>2016-05-07T08:42:10Z</time>
      </trkpt>
      <trkpt lat="43.60127" lon="1.16223">
        <ele>239</ele>
        <time>2016-05-07T08:42:12Z</time>
      </trkpt>
      <trkpt lat="43.60126" lon="1.16222">
        <ele>239</ele>
        <time>2016-05-07T08:42:14Z</time>
      </trkpt>
      <trkpt lat="43.60125" lon="1.16223">
        <ele>239</ele>
        <time>2016-05-07T08:42:15Z</time>
      </trkpt>
      <trkpt lat="43.60121" lon="1.16224">
        <ele>240</ele>
        <time>2016-05-07T08:42:18Z</time>
      </trkpt>
      <trkpt lat="43.60121" lon="1.16224">
        <ele>240</ele>
        <time>2016-05-07T08:42:20Z</time>
      </trkpt>
      <trkpt lat="43.6012" lon="1.16225">
        <ele>240</ele>
        <time>2016-05-07T08:42:21Z</time>
      </trkpt>
      <trkpt lat="43.6012" lon="1.16224">
        <ele>240</ele>
        <time>2016-05-07T08:42:23Z</time>
      </trkpt>
      <trkpt lat="43.6012" lon="1.16224">
        <ele>240</ele>
        <time>2016-05-07T08:42:40Z</time>
      </trkpt>
      <trkpt lat="43.6012" lon="1.16224">
        <ele>240</ele>
        <time>2016-05-07T08:42:42Z</time>
      </trkpt>
      <trkpt lat="43.60115" lon="1.16213">
        <ele>240</ele>
        <time>2016-05-07T08:42:54Z</time>
      </trkpt>
      <trkpt lat="43.60115" lon="1.16212">
        <ele>241</ele>
        <time>2016-05-07T08:42:55Z</time>
      </trkpt>
      <trkpt lat="43.60116" lon="1.16213">
        <ele>241</ele>
        <time>2016-05-07T08:42:57Z</time>
      </trkpt>
      <trkpt lat="43.60116" lon="1.16217">
        <ele>242</ele>
        <time>2016-05-07T08:43:13Z</time>
      </trkpt>
      <trkpt lat="43.60115" lon="1.16218">
        <ele>243</ele>
        <time>2016-05-07T08:43:14Z</time>
      </trkpt>
      <trkpt lat="43.60115" lon="1.16218">
        <ele>243</ele>
        <time>2016-05-07T08:43:16Z</time>
      </trkpt>
      <trkpt lat="43.60115" lon="1.16218">
        <ele>243</ele>
        <time>2016-05-07T08:43:17Z</time>
      </trkpt>
      <trkpt lat="43.60115" lon="1.16219">
        <ele>243</ele>
        <time>2016-05-07T08:43:20Z</time>
      </trkpt>
      <trkpt lat="43.60114" lon="1.16223">
        <ele>243</ele>
        <time>2016-05-07T08:43:26Z</time>
      </trkpt>
      <trkpt lat="43.60114" lon="1.16224">
        <ele>243</ele>
        <time>2016-05-07T08:43:27Z</time>
      </trkpt>
      <trkpt lat="43.60113" lon="1.16225">
        <ele>243</ele>
        <time>2016-05-07T08:43:28Z</time>
      </trkpt>
      <trkpt lat="43.60113" lon="1.16227">
        <ele>243</ele>
        <time>2016-05-07T08:43:30Z</time>
      </trkpt>
      <trkpt lat="43.60113" lon="1.16228">
        <ele>243</ele>
        <time>2016-05-07T08:43:31Z</time>
      </trkpt>
      <trkpt lat="43.60113" lon="1.1623">
        <ele>243</ele>
        <time>2016-05-07T08:43:33Z</time>
      </trkpt>
      <trkpt lat="43.60113" lon="1.16232">
        <ele>243</ele>
        <time>2016-05-07T08:43:34Z</time>
      </trkpt>
      <trkpt lat="43.60113" lon="1.16233">
        <ele>243</ele>
        <time>2016-05-07T08:43:35Z</time>
      </trkpt>
      <trkpt lat="43.60113" lon="1.16235">
        <ele>243</ele>
        <time>2016-05-07T08:43:37Z</time>
      </trkpt>
      <trkpt lat="43.60113" lon="1.16237">
        <ele>243</ele>
        <time>2016-05-07T08:43:39Z</time>
      </trkpt>
      <trkpt lat="43.60114" lon="1.16238">
        <ele>243</ele>
        <time>2016-05-07T08:43:41Z</time>
      </trkpt>
      <trkpt lat="43.60114" lon="1.16239">
        <ele>243</ele>
        <time>2016-05-07T08:43:43Z</time>
      </trkpt>
      <trkpt lat="43.60114" lon="1.1624">
        <ele>243</ele>
        <time>2016-05-07T08:43:44Z</time>
      </trkpt>
      <trkpt lat="43.60114" lon="1.16242">
        <ele>243</ele>
        <time>2016-05-07T08:43:46Z</time>
      </trkpt>
      <trkpt lat="43.60114" lon="1.16243">
        <ele>243</ele>
        <time>2016-05-07T08:43:47Z</time>
      </trkpt>
      <trkpt lat="43.60114" lon="1.16245">
        <ele>243</ele>
        <time>2016-05-07T08:43:49Z</time>
      </trkpt>
      <trkpt lat="43.60115" lon="1.16247">
        <ele>243</ele>
        <time>2016-05-07T08:43:51Z</time>
      </trkpt>
      <trkpt lat="43.60115" lon="1.16248">
        <ele>243</ele>
        <time>2016-05-07T08:43:52Z</time>
      </trkpt>
      <trkpt lat="43.60115" lon="1.1625">
        <ele>243</ele>
        <time>2016-05-07T08:43:53Z</time>
      </trkpt>
      <trkpt lat="43.60115" lon="1.16251">
        <ele>243</ele>
        <time>2016-05-07T08:43:54Z</time>
      </trkpt>
      <trkpt lat="43.60115" lon="1.16255">
        <ele>243</ele>
        <time>2016-05-07T08:43:56Z</time>
      </trkpt>
      <trkpt lat="43.60115" lon="1.16256">
        <ele>243</ele>
        <time>2016-05-07T08:43:57Z</time>
      </trkpt>
      <trkpt lat="43.60115" lon="1.16259">
        <ele>243</ele>
        <time>2016-05-07T08:43:59Z</time>
      </trkpt>
      <trkpt lat="43.60115" lon="1.1626">
        <ele>243</ele>
        <time>2016-05-07T08:44:00Z</time>
      </trkpt>
      <trkpt lat="43.60114" lon="1.16263">
        <ele>243</ele>
        <time>2016-05-07T08:44:02Z</time>
      </trkpt>
      <trkpt lat="43.60114" lon="1.16266">
        <ele>243</ele>
        <time>2016-05-07T08:44:04Z</time>
      </trkpt>
      <trkpt lat="43.60115" lon="1.16267">
        <ele>243</ele>
        <time>2016-05-07T08:44:05Z</time>
      </trkpt>
      <trkpt lat="43.60114" lon="1.1627">
        <ele>243</ele>
        <time>2016-05-07T08:44:07Z</time>
      </trkpt>
      <trkpt lat="43.60114" lon="1.16272">
        <ele>243</ele>
        <time>2016-05-07T08:44:08Z</time>
      </trkpt>
      <trkpt lat="43.60114" lon="1.16273">
        <ele>243</ele>
        <time>2016-05-07T08:44:10Z</time>
      </trkpt>
      <trkpt lat="43.60113" lon="1.16276">
        <ele>243</ele>
        <time>2016-05-07T08:44:11Z</time>
      </trkpt>
      <trkpt lat="43.60113" lon="1.16279">
        <ele>243</ele>
        <time>2016-05-07T08:44:13Z</time>
      </trkpt>
      <trkpt lat="43.60112" lon="1.16283">
        <ele>243</ele>
        <time>2016-05-07T08:44:15Z</time>
      </trkpt>
      <trkpt lat="43.60112" lon="1.16285">
        <ele>243</ele>
        <time>2016-05-07T08:44:17Z</time>
      </trkpt>
      <trkpt lat="43.60112" lon="1.16288">
        <ele>243</ele>
        <time>2016-05-07T08:44:19Z</time>
      </trkpt>
      <trkpt lat="43.60112" lon="1.16289">
        <ele>243</ele>
        <time>2016-05-07T08:44:20Z</time>
      </trkpt>
      <trkpt lat="43.60112" lon="1.16292">
        <ele>243</ele>
        <time>2016-05-07T08:44:22Z</time>
      </trkpt>
      <trkpt lat="43.60112" lon="1.16294">
        <ele>243</ele>
        <time>2016-05-07T08:44:23Z</time>
      </trkpt>
      <trkpt lat="43.60111" lon="1.16297">
        <ele>243</ele>
        <time>2016-05-07T08:44:25Z</time>
      </trkpt>
      <trkpt lat="43.60111" lon="1.163">
        <ele>243</ele>
        <time>2016-05-07T08:44:27Z</time>
      </trkpt>
      <trkpt lat="43.60111" lon="1.16301">
        <ele>243</ele>
        <time>2016-05-07T08:44:28Z</time>
      </trkpt>
      <trkpt lat="43.60111" lon="1.16304">
        <ele>243</ele>
        <time>2016-05-07T08:44:30Z</time>
      </trkpt>
      <trkpt lat="43.60111" lon="1.16306">
        <ele>243</ele>
        <time>2016-05-07T08:44:31Z</time>
      </trkpt>
      <trkpt lat="43.60109" lon="1.16314">
        <ele>243</ele>
        <time>2016-05-07T08:44:33Z</time>
      </trkpt>
      <trkpt lat="43.60108" lon="1.16316">
        <ele>243</ele>
        <time>2016-05-07T08:44:34Z</time>
      </trkpt>
      <trkpt lat="43.60108" lon="1.16318">
        <ele>243</ele>
        <time>2016-05-07T08:44:35Z</time>
      </trkpt>
      <trkpt lat="43.60109" lon="1.16319">
        <ele>243</ele>
        <time>2016-05-07T08:44:36Z</time>
      </trkpt>
      <trkpt lat="43.60109" lon="1.16324">
        <ele>243</ele>
        <time>2016-05-07T08:44:38Z</time>
      </trkpt>
      <trkpt lat="43.60109" lon="1.16327">
        <ele>243</ele>
        <time>2016-05-07T08:44:40Z</time>
      </trkpt>
      <trkpt lat="43.60109" lon="1.1633">
        <ele>243</ele>
        <time>2016-05-07T08:44:42Z</time>
      </trkpt>
      <trkpt lat="43.6011" lon="1.16332">
        <ele>243</ele>
        <time>2016-05-07T08:44:44Z</time>
      </trkpt>
      <trkpt lat="43.6011" lon="1.16333">
        <ele>243</ele>
        <time>2016-05-07T08:44:45Z</time>
      </trkpt>
      <trkpt lat="43.60111" lon="1.16337">
        <ele>243</ele>
        <time>2016-05-07T08:44:47Z</time>
      </trkpt>
      <trkpt lat="43.60111" lon="1.16341">
        <ele>243</ele>
        <time>2016-05-07T08:44:49Z</time>
      </trkpt>
      <trkpt lat="43.60111" lon="1.16344">
        <ele>243</ele>
        <time>2016-05-07T08:44:51Z</time>
      </trkpt>
      <trkpt lat="43.60111" lon="1.16345">
        <ele>243</ele>
        <time>2016-05-07T08:44:52Z</time>
      </trkpt>
      <trkpt lat="43.6011" lon="1.16348">
        <ele>243</ele>
        <time>2016-05-07T08:44:54Z</time>
      </trkpt>
      <trkpt lat="43.6011" lon="1.1635">
        <ele>243</ele>
        <time>2016-05-07T08:44:55Z</time>
      </trkpt>
      <trkpt lat="43.6011" lon="1.16351">
        <ele>243</ele>
        <time>2016-05-07T08:44:56Z</time>
      </trkpt>
      <trkpt lat="43.60109" lon="1.16355">
        <ele>243</ele>
        <time>2016-05-07T08:44:58Z</time>
      </trkpt>
      <trkpt lat="43.60108" lon="1.16357">
        <ele>243</ele>
        <time>2016-05-07T08:44:59Z</time>
      </trkpt>
      <trkpt lat="43.60108" lon="1.16363">
        <ele>243</ele>
        <time>2016-05-07T08:45:01Z</time>
      </trkpt>
      <trkpt lat="43.60108" lon="1.16365">
        <ele>243</ele>
        <time>2016-05-07T08:45:02Z</time>
      </trkpt>
      <trkpt lat="43.60106" lon="1.1637">
        <ele>243</ele>
        <time>2016-05-07T08:45:04Z</time>
      </trkpt>
      <trkpt lat="43.60103" lon="1.16374">
        <ele>243</ele>
        <time>2016-05-07T08:45:06Z</time>
      </trkpt>
      <trkpt lat="43.60103" lon="1.16375">
        <ele>243</ele>
        <time>2016-05-07T08:45:07Z</time>
      </trkpt>
      <trkpt lat="43.60103" lon="1.16376">
        <ele>243</ele>
        <time>2016-05-07T08:45:08Z</time>
      </trkpt>
      <trkpt lat="43.60103" lon="1.16381">
        <ele>243</ele>
        <time>2016-05-07T08:45:10Z</time>
      </trkpt>
      <trkpt lat="43.60103" lon="1.16383">
        <ele>243</ele>
        <time>2016-05-07T08:45:11Z</time>
      </trkpt>
      <trkpt lat="43.60103" lon="1.16386">
        <ele>243</ele>
        <time>2016-05-07T08:45:13Z</time>
      </trkpt>
      <trkpt lat="43.60103" lon="1.16389">
        <ele>243</ele>
        <time>2016-05-07T08:45:15Z</time>
      </trkpt>
      <trkpt lat="43.60098" lon="1.16399">
        <ele>243</ele>
        <time>2016-05-07T08:45:19Z</time>
      </trkpt>
      <trkpt lat="43.60097" lon="1.16401">
        <ele>243</ele>
        <time>2016-05-07T08:45:20Z</time>
      </trkpt>
      <trkpt lat="43.60096" lon="1.16404">
        <ele>243</ele>
        <time>2016-05-07T08:45:22Z</time>
      </trkpt>
      <trkpt lat="43.60096" lon="1.16408">
        <ele>243</ele>
        <time>2016-05-07T08:45:24Z</time>
      </trkpt>
      <trkpt lat="43.60097" lon="1.1641">
        <ele>243</ele>
        <time>2016-05-07T08:45:25Z</time>
      </trkpt>
      <trkpt lat="43.60098" lon="1.16413">
        <ele>243</ele>
        <time>2016-05-07T08:45:27Z</time>
      </trkpt>
      <trkpt lat="43.60099" lon="1.16414">
        <ele>243</ele>
        <time>2016-05-07T08:45:28Z</time>
      </trkpt>
      <trkpt lat="43.60097" lon="1.16417">
        <ele>243</ele>
        <time>2016-05-07T08:45:30Z</time>
      </trkpt>
      <trkpt lat="43.60097" lon="1.16421">
        <ele>243</ele>
        <time>2016-05-07T08:45:32Z</time>
      </trkpt>
      <trkpt lat="43.60096" lon="1.16423">
        <ele>243</ele>
        <time>2016-05-07T08:45:34Z</time>
      </trkpt>
      <trkpt lat="43.60093" lon="1.16433">
        <ele>243</ele>
        <time>2016-05-07T08:45:37Z</time>
      </trkpt>
      <trkpt lat="43.60092" lon="1.16434">
        <ele>243</ele>
        <time>2016-05-07T08:45:38Z</time>
      </trkpt>
      <trkpt lat="43.60092" lon="1.16437">
        <ele>243</ele>
        <time>2016-05-07T08:45:40Z</time>
      </trkpt>
      <trkpt lat="43.60092" lon="1.16442">
        <ele>243</ele>
        <time>2016-05-07T08:45:42Z</time>
      </trkpt>
      <trkpt lat="43.60092" lon="1.16444">
        <ele>243</ele>
        <time>2016-05-07T08:45:43Z</time>
      </trkpt>
      <trkpt lat="43.60093" lon="1.16449">
        <ele>243</ele>
        <time>2016-05-07T08:45:45Z</time>
      </trkpt>
      <trkpt lat="43.60095" lon="1.16451">
        <ele>243</ele>
        <time>2016-05-07T08:45:46Z</time>
      </trkpt>
      <trkpt lat="43.60097" lon="1.16454">
        <ele>243</ele>
        <time>2016-05-07T08:45:48Z</time>
      </trkpt>
      <trkpt lat="43.60098" lon="1.16456">
        <ele>243</ele>
        <time>2016-05-07T08:45:49Z</time>
      </trkpt>
      <trkpt lat="43.60099" lon="1.16462">
        <ele>243</ele>
        <time>2016-05-07T08:45:51Z</time>
      </trkpt>
      <trkpt lat="43.60098" lon="1.16465">
        <ele>243</ele>
        <time>2016-05-07T08:45:53Z</time>
      </trkpt>
      <trkpt lat="43.60098" lon="1.16467">
        <ele>243</ele>
        <time>2016-05-07T08:45:54Z</time>
      </trkpt>
      <trkpt lat="43.60098" lon="1.16473">
        <ele>243</ele>
        <time>2016-05-07T08:45:56Z</time>
      </trkpt>
      <trkpt lat="43.60098" lon="1.16475">
        <ele>243</ele>
        <time>2016-05-07T08:45:57Z</time>
      </trkpt>
      <trkpt lat="43.60099" lon="1.16476">
        <ele>243</ele>
        <time>2016-05-07T08:45:58Z</time>
      </trkpt>
      <trkpt lat="43.60101" lon="1.1648">
        <ele>243</ele>
        <time>2016-05-07T08:46:00Z</time>
      </trkpt>
      <trkpt lat="43.60104" lon="1.16489">
        <ele>243</ele>
        <time>2016-05-07T08:46:03Z</time>
      </trkpt>
      <trkpt lat="43.60105" lon="1.16491">
        <ele>243</ele>
        <time>2016-05-07T08:46:04Z</time>
      </trkpt>
      <trkpt lat="43.60106" lon="1.16493">
        <ele>243</ele>
        <time>2016-05-07T08:46:05Z</time>
      </trkpt>
      <trkpt lat="43.60109" lon="1.16497">
        <ele>243</ele>
        <time>2016-05-07T08:46:07Z</time>
      </trkpt>
      <trkpt lat="43.6011" lon="1.16498">
        <ele>243</ele>
        <time>2016-05-07T08:46:08Z</time>
      </trkpt>
      <trkpt lat="43.60112" lon="1.16501">
        <ele>243</ele>
        <time>2016-05-07T08:46:10Z</time>
      </trkpt>
      <trkpt lat="43.60115" lon="1.16505">
        <ele>243</ele>
        <time>2016-05-07T08:46:12Z</time>
      </trkpt>
      <trkpt lat="43.60116" lon="1.16509">
        <ele>243</ele>
        <time>2016-05-07T08:46:14Z</time>
      </trkpt>
      <trkpt lat="43.60116" lon="1.16511">
        <ele>243</ele>
        <time>2016-05-07T08:46:15Z</time>
      </trkpt>
      <trkpt lat="43.60117" lon="1.16515">
        <ele>243</ele>
        <time>2016-05-07T08:46:17Z</time>
      </trkpt>
      <trkpt lat="43.60117" lon="1.16517">
        <ele>243</ele>
        <time>2016-05-07T08:46:18Z</time>
      </trkpt>
      <trkpt lat="43.60116" lon="1.1652">
        <ele>243</ele>
        <time>2016-05-07T08:46:19Z</time>
      </trkpt>
      <trkpt lat="43.60115" lon="1.16522">
        <ele>243</ele>
        <time>2016-05-07T08:46:21Z</time>
      </trkpt>
      <trkpt lat="43.60116" lon="1.16526">
        <ele>243</ele>
        <time>2016-05-07T08:46:23Z</time>
      </trkpt>
      <trkpt lat="43.60115" lon="1.16532">
        <ele>243</ele>
        <time>2016-05-07T08:46:25Z</time>
      </trkpt>
      <trkpt lat="43.60114" lon="1.16535">
        <ele>243</ele>
        <time>2016-05-07T08:46:27Z</time>
      </trkpt>
      <trkpt lat="43.60113" lon="1.16538">
        <ele>243</ele>
        <time>2016-05-07T08:46:28Z</time>
      </trkpt>
      <trkpt lat="43.60112" lon="1.16543">
        <ele>243</ele>
        <time>2016-05-07T08:46:30Z</time>
      </trkpt>
      <trkpt lat="43.60111" lon="1.16546">
        <ele>243</ele>
        <time>2016-05-07T08:46:32Z</time>
      </trkpt>
      <trkpt lat="43.60114" lon="1.16551">
        <ele>243</ele>
        <time>2016-05-07T08:46:35Z</time>
      </trkpt>
      <trkpt lat="43.60114" lon="1.16554">
        <ele>243</ele>
        <time>2016-05-07T08:46:36Z</time>
      </trkpt>
      <trkpt lat="43.60114" lon="1.16558">
        <ele>243</ele>
        <time>2016-05-07T08:46:38Z</time>
      </trkpt>
      <trkpt lat="43.60114" lon="1.16562">
        <ele>243</ele>
        <time>2016-05-07T08:46:40Z</time>
      </trkpt>
      <trkpt lat="43.60113" lon="1.16564">
        <ele>243</ele>
        <time>2016-05-07T08:46:41Z</time>
      </trkpt>
      <trkpt lat="43.60113" lon="1.16569">
        <ele>243</ele>
        <time>2016-05-07T08:46:43Z</time>
      </trkpt>
      <trkpt lat="43.60113" lon="1.16573">
        <ele>244</ele>
        <time>2016-05-07T08:46:45Z</time>
      </trkpt>
      <trkpt lat="43.60114" lon="1.16575">
        <ele>244</ele>
        <time>2016-05-07T08:46:46Z</time>
      </trkpt>
      <trkpt lat="43.60114" lon="1.16576">
        <ele>244</ele>
        <time>2016-05-07T08:46:47Z</time>
      </trkpt>
      <trkpt lat="43.60115" lon="1.16578">
        <ele>244</ele>
        <time>2016-05-07T08:46:49Z</time>
      </trkpt>
      <trkpt lat="43.60116" lon="1.16579">
        <ele>244</ele>
        <time>2016-05-07T08:46:50Z</time>
      </trkpt>
      <trkpt lat="43.60115" lon="1.16582">
        <ele>244</ele>
        <time>2016-05-07T08:46:52Z</time>
      </trkpt>
      <trkpt lat="43.60115" lon="1.16584">
        <ele>244</ele>
        <time>2016-05-07T08:46:54Z</time>
      </trkpt>
      <trkpt lat="43.60116" lon="1.16585">
        <ele>244</ele>
        <time>2016-05-07T08:46:55Z</time>
      </trkpt>
      <trkpt lat="43.60117" lon="1.16587">
        <ele>244</ele>
        <time>2016-05-07T08:46:57Z</time>
      </trkpt>
      <trkpt lat="43.60117" lon="1.16588">
        <ele>244</ele>
        <time>2016-05-07T08:46:58Z</time>
      </trkpt>
      <trkpt lat="43.60118" lon="1.1659">
        <ele>244</ele>
        <time>2016-05-07T08:46:59Z</time>
      </trkpt>
      <trkpt lat="43.60121" lon="1.16595">
        <ele>244</ele>
        <time>2016-05-07T08:47:02Z</time>
      </trkpt>
      <trkpt lat="43.60122" lon="1.16596">
        <ele>244</ele>
        <time>2016-05-07T08:47:03Z</time>
      </trkpt>
      <trkpt lat="43.60123" lon="1.166">
        <ele>244</ele>
        <time>2016-05-07T08:47:05Z</time>
      </trkpt>
      <trkpt lat="43.60125" lon="1.16605">
        <ele>244</ele>
        <time>2016-05-07T08:47:08Z</time>
      </trkpt>
      <trkpt lat="43.60125" lon="1.16605">
        <ele>244</ele>
        <time>2016-05-07T08:47:08Z</time>
      </trkpt>
      <trkpt lat="43.60128" lon="1.16608">
        <ele>244</ele>
        <time>2016-05-07T08:47:10Z</time>
      </trkpt>
      <trkpt lat="43.60138" lon="1.16612">
        <ele>244</ele>
        <time>2016-05-07T08:47:16Z</time>
      </trkpt>
      <trkpt lat="43.60141" lon="1.16613">
        <ele>244</ele>
        <time>2016-05-07T08:47:18Z</time>
      </trkpt>
      <trkpt lat="43.60143" lon="1.16613">
        <ele>244</ele>
        <time>2016-05-07T08:47:19Z</time>
      </trkpt>
      <trkpt lat="43.60145" lon="1.16612">
        <ele>244</ele>
        <time>2016-05-07T08:47:21Z</time>
      </trkpt>
      <trkpt lat="43.60152" lon="1.16611">
        <ele>244</ele>
        <time>2016-05-07T08:47:25Z</time>
      </trkpt>
      <trkpt lat="43.60155" lon="1.16611">
        <ele>245</ele>
        <time>2016-05-07T08:47:27Z</time>
      </trkpt>
      <trkpt lat="43.60156" lon="1.16611">
        <ele>245</ele>
        <time>2016-05-07T08:47:28Z</time>
      </trkpt>
      <trkpt lat="43.60157" lon="1.1661">
        <ele>244</ele>
        <time>2016-05-07T08:47:30Z</time>
      </trkpt>
      <trkpt lat="43.60158" lon="1.1661">
        <ele>244</ele>
        <time>2016-05-07T08:47:31Z</time>
      </trkpt>
      <trkpt lat="43.60159" lon="1.16608">
        <ele>244</ele>
        <time>2016-05-07T08:47:33Z</time>
      </trkpt>
      <trkpt lat="43.60161" lon="1.16608">
        <ele>244</ele>
        <time>2016-05-07T08:47:34Z</time>
      </trkpt>
      <trkpt lat="43.60164" lon="1.16607">
        <ele>244</ele>
        <time>2016-05-07T08:47:36Z</time>
      </trkpt>
      <trkpt lat="43.60167" lon="1.16606">
        <ele>244</ele>
        <time>2016-05-07T08:47:38Z</time>
      </trkpt>
      <trkpt lat="43.60172" lon="1.16606">
        <ele>244</ele>
        <time>2016-05-07T08:47:43Z</time>
      </trkpt>
      <trkpt lat="43.60178" lon="1.16603">
        <ele>244</ele>
        <time>2016-05-07T08:47:50Z</time>
      </trkpt>
      <trkpt lat="43.60181" lon="1.16598">
        <ele>244</ele>
        <time>2016-05-07T08:47:54Z</time>
      </trkpt>
      <trkpt lat="43.60185" lon="1.166">
        <ele>244</ele>
        <time>2016-05-07T08:47:58Z</time>
      </trkpt>
      <trkpt lat="43.6019" lon="1.16602">
        <ele>244</ele>
        <time>2016-05-07T08:48:03Z</time>
      </trkpt>
      <trkpt lat="43.60195" lon="1.166">
        <ele>243</ele>
        <time>2016-05-07T08:48:09Z</time>
      </trkpt>
      <trkpt lat="43.602" lon="1.16598">
        <ele>243</ele>
        <time>2016-05-07T08:48:12Z</time>
      </trkpt>
      <trkpt lat="43.60206" lon="1.16593">
        <ele>243</ele>
        <time>2016-05-07T08:48:18Z</time>
      </trkpt>
      <trkpt lat="43.60212" lon="1.16592">
        <ele>243</ele>
        <time>2016-05-07T08:48:23Z</time>
      </trkpt>
      <trkpt lat="43.60217" lon="1.1659">
        <ele>243</ele>
        <time>2016-05-07T08:48:28Z</time>
      </trkpt>
      <trkpt lat="43.60228" lon="1.16585">
        <ele>243</ele>
        <time>2016-05-07T08:48:35Z</time>
      </trkpt>
      <trkpt lat="43.60233" lon="1.16585">
        <ele>243</ele>
        <time>2016-05-07T08:48:41Z</time>
      </trkpt>
      <trkpt lat="43.60239" lon="1.16581">
        <ele>243</ele>
        <time>2016-05-07T08:48:46Z</time>
      </trkpt>
      <trkpt lat="43.60249" lon="1.16576">
        <ele>243</ele>
        <time>2016-05-07T08:48:52Z</time>
      </trkpt>
      <trkpt lat="43.60254" lon="1.16575">
        <ele>242</ele>
        <time>2016-05-07T08:48:55Z</time>
      </trkpt>
      <trkpt lat="43.60262" lon="1.16575">
        <ele>241</ele>
        <time>2016-05-07T08:49:01Z</time>
      </trkpt>
      <trkpt lat="43.60278" lon="1.1658">
        <ele>240</ele>
        <time>2016-05-07T08:49:12Z</time>
      </trkpt>
      <trkpt lat="43.60281" lon="1.16582">
        <ele>239</ele>
        <time>2016-05-07T08:49:14Z</time>
      </trkpt>
      <trkpt lat="43.60286" lon="1.16584">
        <ele>238</ele>
        <time>2016-05-07T08:49:18Z</time>
      </trkpt>
      <trkpt lat="43.60288" lon="1.16584">
        <ele>238</ele>
        <time>2016-05-07T08:49:20Z</time>
      </trkpt>
      <trkpt lat="43.60289" lon="1.16584">
        <ele>237</ele>
        <time>2016-05-07T08:49:21Z</time>
      </trkpt>
      <trkpt lat="43.60296" lon="1.16583">
        <ele>237</ele>
        <time>2016-05-07T08:49:24Z</time>
      </trkpt>
      <trkpt lat="43.603" lon="1.16583">
        <ele>237</ele>
        <time>2016-05-07T08:49:27Z</time>
      </trkpt>
      <trkpt lat="43.60303" lon="1.16585">
        <ele>237</ele>
        <time>2016-05-07T08:49:29Z</time>
      </trkpt>
      <trkpt lat="43.60304" lon="1.16585">
        <ele>237</ele>
        <time>2016-05-07T08:49:30Z</time>
      </trkpt>
      <trkpt lat="43.60305" lon="1.16585">
        <ele>237</ele>
        <time>2016-05-07T08:49:31Z</time>
      </trkpt>
      <trkpt lat="43.6031" lon="1.16586">
        <ele>237</ele>
        <time>2016-05-07T08:49:35Z</time>
      </trkpt>
      <trkpt lat="43.60311" lon="1.16585">
        <ele>237</ele>
        <time>2016-05-07T08:49:36Z</time>
      </trkpt>
      <trkpt lat="43.60312" lon="1.16585">
        <ele>237</ele>
        <time>2016-05-07T08:49:37Z</time>
      </trkpt>
      <trkpt lat="43.60316" lon="1.16587">
        <ele>236</ele>
        <time>2016-05-07T08:49:40Z</time>
      </trkpt>
      <trkpt lat="43.60321" lon="1.1659">
        <ele>236</ele>
        <time>2016-05-07T08:49:44Z</time>
      </trkpt>
      <trkpt lat="43.60322" lon="1.1659">
        <ele>235</ele>
        <time>2016-05-07T08:49:45Z</time>
      </trkpt>
      <trkpt lat="43.60325" lon="1.16591">
        <ele>235</ele>
        <time>2016-05-07T08:49:47Z</time>
      </trkpt>
      <trkpt lat="43.60328" lon="1.16592">
        <ele>235</ele>
        <time>2016-05-07T08:49:49Z</time>
      </trkpt>
      <trkpt lat="43.60331" lon="1.16592">
        <ele>235</ele>
        <time>2016-05-07T08:49:51Z</time>
      </trkpt>
      <trkpt lat="43.60332" lon="1.16592">
        <ele>235</ele>
        <time>2016-05-07T08:49:52Z</time>
      </trkpt>
      <trkpt lat="43.60334" lon="1.16593">
        <ele>235</ele>
        <time>2016-05-07T08:49:54Z</time>
      </trkpt>
      <trkpt lat="43.60338" lon="1.16596">
        <ele>235</ele>
        <time>2016-05-07T08:49:57Z</time>
      </trkpt>
      <trkpt lat="43.60341" lon="1.16595">
        <ele>234</ele>
        <time>2016-05-07T08:49:59Z</time>
      </trkpt>
      <trkpt lat="43.60345" lon="1.16595">
        <ele>234</ele>
        <time>2016-05-07T08:50:01Z</time>
      </trkpt>
      <trkpt lat="43.60346" lon="1.16596">
        <ele>233</ele>
        <time>2016-05-07T08:50:02Z</time>
      </trkpt>
      <trkpt lat="43.6035" lon="1.16596">
        <ele>233</ele>
        <time>2016-05-07T08:50:04Z</time>
      </trkpt>
      <trkpt lat="43.60357" lon="1.16599">
        <ele>231</ele>
        <time>2016-05-07T08:50:08Z</time>
      </trkpt>
      <trkpt lat="43.6036" lon="1.166">
        <ele>231</ele>
        <time>2016-05-07T08:50:10Z</time>
      </trkpt>
      <trkpt lat="43.60363" lon="1.16602">
        <ele>230</ele>
        <time>2016-05-07T08:50:12Z</time>
      </trkpt>
      <trkpt lat="43.60367" lon="1.16604">
        <ele>230</ele>
        <time>2016-05-07T08:50:15Z</time>
      </trkpt>
      <trkpt lat="43.60367" lon="1.16605">
        <ele>229</ele>
        <time>2016-05-07T08:50:16Z</time>
      </trkpt>
      <trkpt lat="43.60368" lon="1.16605">
        <ele>229</ele>
        <time>2016-05-07T08:50:17Z</time>
      </trkpt>
      <trkpt lat="43.60367" lon="1.16606">
        <ele>228</ele>
        <time>2016-05-07T08:50:19Z</time>
      </trkpt>
      <trkpt lat="43.6037" lon="1.16609">
        <ele>228</ele>
        <time>2016-05-07T08:50:24Z</time>
      </trkpt>
      <trkpt lat="43.60376" lon="1.16614">
        <ele>228</ele>
        <time>2016-05-07T08:50:29Z</time>
      </trkpt>
      <trkpt lat="43.60379" lon="1.16619">
        <ele>228</ele>
        <time>2016-05-07T08:50:31Z</time>
      </trkpt>
      <trkpt lat="43.60384" lon="1.16621">
        <ele>227</ele>
        <time>2016-05-07T08:50:34Z</time>
      </trkpt>
      <trkpt lat="43.60387" lon="1.16623">
        <ele>227</ele>
        <time>2016-05-07T08:50:36Z</time>
      </trkpt>
      <trkpt lat="43.60391" lon="1.16625">
        <ele>228</ele>
        <time>2016-05-07T08:50:39Z</time>
      </trkpt>
      <trkpt lat="43.60394" lon="1.16627">
        <ele>228</ele>
        <time>2016-05-07T08:50:41Z</time>
      </trkpt>
      <trkpt lat="43.60397" lon="1.16629">
        <ele>228</ele>
        <time>2016-05-07T08:50:43Z</time>
      </trkpt>
      <trkpt lat="43.60397" lon="1.16631">
        <ele>228</ele>
        <time>2016-05-07T08:50:44Z</time>
      </trkpt>
      <trkpt lat="43.60399" lon="1.16631">
        <ele>228</ele>
        <time>2016-05-07T08:50:45Z</time>
      </trkpt>
      <trkpt lat="43.60401" lon="1.16633">
        <ele>228</ele>
        <time>2016-05-07T08:50:47Z</time>
      </trkpt>
      <trkpt lat="43.60403" lon="1.16635">
        <ele>228</ele>
        <time>2016-05-07T08:50:49Z</time>
      </trkpt>
      <trkpt lat="43.60409" lon="1.16638">
        <ele>229</ele>
        <time>2016-05-07T08:50:53Z</time>
      </trkpt>
      <trkpt lat="43.6041" lon="1.16638">
        <ele>229</ele>
        <time>2016-05-07T08:50:54Z</time>
      </trkpt>
      <trkpt lat="43.60416" lon="1.16644">
        <ele>229</ele>
        <time>2016-05-07T08:50:59Z</time>
      </trkpt>
      <trkpt lat="43.60418" lon="1.16647">
        <ele>229</ele>
        <time>2016-05-07T08:51:03Z</time>
      </trkpt>
      <trkpt lat="43.60425" lon="1.16644">
        <ele>229</ele>
        <time>2016-05-07T08:51:07Z</time>
      </trkpt>
      <trkpt lat="43.60428" lon="1.16644">
        <ele>229</ele>
        <time>2016-05-07T08:51:09Z</time>
      </trkpt>
      <trkpt lat="43.6043" lon="1.16644">
        <ele>229</ele>
        <time>2016-05-07T08:51:11Z</time>
      </trkpt>
      <trkpt lat="43.60432" lon="1.16644">
        <ele>229</ele>
        <time>2016-05-07T08:51:12Z</time>
      </trkpt>
      <trkpt lat="43.60436" lon="1.16643">
        <ele>229</ele>
        <time>2016-05-07T08:51:15Z</time>
      </trkpt>
      <trkpt lat="43.60437" lon="1.16643">
        <ele>229</ele>
        <time>2016-05-07T08:51:16Z</time>
      </trkpt>
      <trkpt lat="43.6044" lon="1.16645">
        <ele>229</ele>
        <time>2016-05-07T08:51:18Z</time>
      </trkpt>
      <trkpt lat="43.60441" lon="1.16647">
        <ele>229</ele>
        <time>2016-05-07T08:51:19Z</time>
      </trkpt>
      <trkpt lat="43.60447" lon="1.1665">
        <ele>229</ele>
        <time>2016-05-07T08:51:23Z</time>
      </trkpt>
      <trkpt lat="43.60452" lon="1.16656">
        <ele>229</ele>
        <time>2016-05-07T08:51:26Z</time>
      </trkpt>
      <trkpt lat="43.60455" lon="1.16658">
        <ele>229</ele>
        <time>2016-05-07T08:51:28Z</time>
      </trkpt>
      <trkpt lat="43.60464" lon="1.16665">
        <ele>228</ele>
        <time>2016-05-07T08:51:34Z</time>
      </trkpt>
      <trkpt lat="43.60466" lon="1.16667">
        <ele>227</ele>
        <time>2016-05-07T08:51:36Z</time>
      </trkpt>
      <trkpt lat="43.60469" lon="1.1667">
        <ele>227</ele>
        <time>2016-05-07T08:51:38Z</time>
      </trkpt>
      <trkpt lat="43.60469" lon="1.16672">
        <ele>226</ele>
        <time>2016-05-07T08:51:39Z</time>
      </trkpt>
      <trkpt lat="43.60472" lon="1.16675">
        <ele>226</ele>
        <time>2016-05-07T08:51:41Z</time>
      </trkpt>
      <trkpt lat="43.60473" lon="1.16677">
        <ele>226</ele>
        <time>2016-05-07T08:51:42Z</time>
      </trkpt>
      <trkpt lat="43.60478" lon="1.16682">
        <ele>226</ele>
        <time>2016-05-07T08:51:46Z</time>
      </trkpt>
      <trkpt lat="43.60481" lon="1.16684">
        <ele>226</ele>
        <time>2016-05-07T08:51:48Z</time>
      </trkpt>
      <trkpt lat="43.60484" lon="1.16688">
        <ele>226</ele>
        <time>2016-05-07T08:51:50Z</time>
      </trkpt>
      <trkpt lat="43.60486" lon="1.16691">
        <ele>227</ele>
        <time>2016-05-07T08:51:52Z</time>
      </trkpt>
      <trkpt lat="43.60489" lon="1.16692">
        <ele>227</ele>
        <time>2016-05-07T08:51:54Z</time>
      </trkpt>
      <trkpt lat="43.6049" lon="1.16693">
        <ele>227</ele>
        <time>2016-05-07T08:51:55Z</time>
      </trkpt>
      <trkpt lat="43.6049" lon="1.16694">
        <ele>227</ele>
        <time>2016-05-07T08:51:56Z</time>
      </trkpt>
      <trkpt lat="43.60491" lon="1.16695">
        <ele>227</ele>
        <time>2016-05-07T08:51:57Z</time>
      </trkpt>
      <trkpt lat="43.60493" lon="1.16702">
        <ele>227</ele>
        <time>2016-05-07T08:52:00Z</time>
      </trkpt>
      <trkpt lat="43.60494" lon="1.16703">
        <ele>227</ele>
        <time>2016-05-07T08:52:01Z</time>
      </trkpt>
      <trkpt lat="43.60494" lon="1.16704">
        <ele>227</ele>
        <time>2016-05-07T08:52:02Z</time>
      </trkpt>
      <trkpt lat="43.60494" lon="1.16705">
        <ele>227</ele>
        <time>2016-05-07T08:52:03Z</time>
      </trkpt>
      <trkpt lat="43.60497" lon="1.16708">
        <ele>227</ele>
        <time>2016-05-07T08:52:05Z</time>
      </trkpt>
      <trkpt lat="43.60498" lon="1.16711">
        <ele>227</ele>
        <time>2016-05-07T08:52:07Z</time>
      </trkpt>
      <trkpt lat="43.60502" lon="1.16715">
        <ele>227</ele>
        <time>2016-05-07T08:52:09Z</time>
      </trkpt>
      <trkpt lat="43.60507" lon="1.16721">
        <ele>227</ele>
        <time>2016-05-07T08:52:13Z</time>
      </trkpt>
      <trkpt lat="43.60508" lon="1.16726">
        <ele>227</ele>
        <time>2016-05-07T08:52:16Z</time>
      </trkpt>
      <trkpt lat="43.6051" lon="1.16728">
        <ele>227</ele>
        <time>2016-05-07T08:52:17Z</time>
      </trkpt>
      <trkpt lat="43.60511" lon="1.1673">
        <ele>226</ele>
        <time>2016-05-07T08:52:19Z</time>
      </trkpt>
      <trkpt lat="43.60512" lon="1.16729">
        <ele>226</ele>
        <time>2016-05-07T08:52:20Z</time>
      </trkpt>
      <trkpt lat="43.60515" lon="1.16732">
        <ele>226</ele>
        <time>2016-05-07T08:52:21Z</time>
      </trkpt>
      <trkpt lat="43.60518" lon="1.16734">
        <ele>226</ele>
        <time>2016-05-07T08:52:23Z</time>
      </trkpt>
      <trkpt lat="43.60519" lon="1.16735">
        <ele>226</ele>
        <time>2016-05-07T08:52:24Z</time>
      </trkpt>
      <trkpt lat="43.60525" lon="1.16742">
        <ele>226</ele>
        <time>2016-05-07T08:52:29Z</time>
      </trkpt>
      <trkpt lat="43.60528" lon="1.16744">
        <ele>225</ele>
        <time>2016-05-07T08:52:31Z</time>
      </trkpt>
      <trkpt lat="43.60531" lon="1.16744">
        <ele>225</ele>
        <time>2016-05-07T08:52:32Z</time>
      </trkpt>
      <trkpt lat="43.60534" lon="1.16746">
        <ele>225</ele>
        <time>2016-05-07T08:52:34Z</time>
      </trkpt>
      <trkpt lat="43.6054" lon="1.16754">
        <ele>225</ele>
        <time>2016-05-07T08:52:38Z</time>
      </trkpt>
      <trkpt lat="43.60543" lon="1.16757">
        <ele>225</ele>
        <time>2016-05-07T08:52:40Z</time>
      </trkpt>
      <trkpt lat="43.60545" lon="1.16761">
        <ele>225</ele>
        <time>2016-05-07T08:52:42Z</time>
      </trkpt>
      <trkpt lat="43.60546" lon="1.16763">
        <ele>224</ele>
        <time>2016-05-07T08:52:43Z</time>
      </trkpt>
      <trkpt lat="43.6055" lon="1.16766">
        <ele>224</ele>
        <time>2016-05-07T08:52:45Z</time>
      </trkpt>
      <trkpt lat="43.6056" lon="1.16777">
        <ele>224</ele>
        <time>2016-05-07T08:52:52Z</time>
      </trkpt>
      <trkpt lat="43.6056" lon="1.16779">
        <ele>224</ele>
        <time>2016-05-07T08:52:53Z</time>
      </trkpt>
      <trkpt lat="43.60564" lon="1.16783">
        <ele>224</ele>
        <time>2016-05-07T08:52:57Z</time>
      </trkpt>
      <trkpt lat="43.60566" lon="1.16788">
        <ele>224</ele>
        <time>2016-05-07T08:53:00Z</time>
      </trkpt>
      <trkpt lat="43.60569" lon="1.16791">
        <ele>224</ele>
        <time>2016-05-07T08:53:03Z</time>
      </trkpt>
      <trkpt lat="43.60571" lon="1.16795">
        <ele>223</ele>
        <time>2016-05-07T08:53:05Z</time>
      </trkpt>
      <trkpt lat="43.60573" lon="1.16801">
        <ele>223</ele>
        <time>2016-05-07T08:53:08Z</time>
      </trkpt>
      <trkpt lat="43.60573" lon="1.16805">
        <ele>222</ele>
        <time>2016-05-07T08:53:09Z</time>
      </trkpt>
      <trkpt lat="43.60574" lon="1.16807">
        <ele>222</ele>
        <time>2016-05-07T08:53:10Z</time>
      </trkpt>
      <trkpt lat="43.60574" lon="1.16811">
        <ele>222</ele>
        <time>2016-05-07T08:53:12Z</time>
      </trkpt>
      <trkpt lat="43.60574" lon="1.16814">
        <ele>222</ele>
        <time>2016-05-07T08:53:13Z</time>
      </trkpt>
      <trkpt lat="43.60576" lon="1.16818">
        <ele>222</ele>
        <time>2016-05-07T08:53:15Z</time>
      </trkpt>
      <trkpt lat="43.60577" lon="1.16822">
        <ele>222</ele>
        <time>2016-05-07T08:53:17Z</time>
      </trkpt>
      <trkpt lat="43.60577" lon="1.16824">
        <ele>222</ele>
        <time>2016-05-07T08:53:18Z</time>
      </trkpt>
      <trkpt lat="43.60579" lon="1.16826">
        <ele>222</ele>
        <time>2016-05-07T08:53:19Z</time>
      </trkpt>
      <trkpt lat="43.60582" lon="1.16829">
        <ele>222</ele>
        <time>2016-05-07T08:53:22Z</time>
      </trkpt>
      <trkpt lat="43.60584" lon="1.16834">
        <ele>222</ele>
        <time>2016-05-07T08:53:25Z</time>
      </trkpt>
      <trkpt lat="43.60586" lon="1.16838">
        <ele>221</ele>
        <time>2016-05-07T08:53:27Z</time>
      </trkpt>
      <trkpt lat="43.60587" lon="1.16839">
        <ele>221</ele>
        <time>2016-05-07T08:53:28Z</time>
      </trkpt>
      <trkpt lat="43.60588" lon="1.16842">
        <ele>221</ele>
        <time>2016-05-07T08:53:30Z</time>
      </trkpt>
      <trkpt lat="43.6059" lon="1.16845">
        <ele>221</ele>
        <time>2016-05-07T08:53:32Z</time>
      </trkpt>
      <trkpt lat="43.60592" lon="1.16848">
        <ele>221</ele>
        <time>2016-05-07T08:53:34Z</time>
      </trkpt>
      <trkpt lat="43.60593" lon="1.16851">
        <ele>221</ele>
        <time>2016-05-07T08:53:35Z</time>
      </trkpt>
      <trkpt lat="43.60594" lon="1.16855">
        <ele>221</ele>
        <time>2016-05-07T08:53:37Z</time>
      </trkpt>
      <trkpt lat="43.60595" lon="1.16858">
        <ele>221</ele>
        <time>2016-05-07T08:53:38Z</time>
      </trkpt>
      <trkpt lat="43.60597" lon="1.16863">
        <ele>221</ele>
        <time>2016-05-07T08:53:40Z</time>
      </trkpt>
      <trkpt lat="43.60599" lon="1.16868">
        <ele>221</ele>
        <time>2016-05-07T08:53:43Z</time>
      </trkpt>
      <trkpt lat="43.606" lon="1.1687">
        <ele>220</ele>
        <time>2016-05-07T08:53:44Z</time>
      </trkpt>
      <trkpt lat="43.60602" lon="1.16875">
        <ele>220</ele>
        <time>2016-05-07T08:53:46Z</time>
      </trkpt>
      <trkpt lat="43.60604" lon="1.16878">
        <ele>220</ele>
        <time>2016-05-07T08:53:48Z</time>
      </trkpt>
      <trkpt lat="43.60606" lon="1.16882">
        <ele>220</ele>
        <time>2016-05-07T08:53:50Z</time>
      </trkpt>
      <trkpt lat="43.60606" lon="1.16886">
        <ele>220</ele>
        <time>2016-05-07T08:53:52Z</time>
      </trkpt>
      <trkpt lat="43.60611" lon="1.16892">
        <ele>219</ele>
        <time>2016-05-07T08:53:56Z</time>
      </trkpt>
      <trkpt lat="43.60614" lon="1.16894">
        <ele>219</ele>
        <time>2016-05-07T08:53:58Z</time>
      </trkpt>
      <trkpt lat="43.60616" lon="1.16896">
        <ele>218</ele>
        <time>2016-05-07T08:53:59Z</time>
      </trkpt>
      <trkpt lat="43.60621" lon="1.169">
        <ele>218</ele>
        <time>2016-05-07T08:54:02Z</time>
      </trkpt>
      <trkpt lat="43.60622" lon="1.16902">
        <ele>218</ele>
        <time>2016-05-07T08:54:03Z</time>
      </trkpt>
      <trkpt lat="43.60622" lon="1.16904">
        <ele>218</ele>
        <time>2016-05-07T08:54:04Z</time>
      </trkpt>
      <trkpt lat="43.60624" lon="1.16909">
        <ele>217</ele>
        <time>2016-05-07T08:54:06Z</time>
      </trkpt>
      <trkpt lat="43.60626" lon="1.16912">
        <ele>217</ele>
        <time>2016-05-07T08:54:07Z</time>
      </trkpt>
      <trkpt lat="43.60627" lon="1.16918">
        <ele>217</ele>
        <time>2016-05-07T08:54:09Z</time>
      </trkpt>
      <trkpt lat="43.60629" lon="1.16921">
        <ele>217</ele>
        <time>2016-05-07T08:54:10Z</time>
      </trkpt>
      <trkpt lat="43.6063" lon="1.16926">
        <ele>217</ele>
        <time>2016-05-07T08:54:12Z</time>
      </trkpt>
      <trkpt lat="43.60632" lon="1.16927">
        <ele>217</ele>
        <time>2016-05-07T08:54:13Z</time>
      </trkpt>
      <trkpt lat="43.60632" lon="1.16931">
        <ele>216</ele>
        <time>2016-05-07T08:54:15Z</time>
      </trkpt>
      <trkpt lat="43.60634" lon="1.16933">
        <ele>216</ele>
        <time>2016-05-07T08:54:16Z</time>
      </trkpt>
      <trkpt lat="43.60635" lon="1.16935">
        <ele>216</ele>
        <time>2016-05-07T08:54:17Z</time>
      </trkpt>
      <trkpt lat="43.60636" lon="1.16939">
        <ele>216</ele>
        <time>2016-05-07T08:54:19Z</time>
      </trkpt>
      <trkpt lat="43.60639" lon="1.1694">
        <ele>216</ele>
        <time>2016-05-07T08:54:21Z</time>
      </trkpt>
      <trkpt lat="43.6064" lon="1.16944">
        <ele>216</ele>
        <time>2016-05-07T08:54:23Z</time>
      </trkpt>
      <trkpt lat="43.60636" lon="1.16954">
        <ele>215</ele>
        <time>2016-05-07T08:54:27Z</time>
      </trkpt>
      <trkpt lat="43.60635" lon="1.16957">
        <ele>215</ele>
        <time>2016-05-07T08:54:29Z</time>
      </trkpt>
      <trkpt lat="43.60632" lon="1.16959">
        <ele>215</ele>
        <time>2016-05-07T08:54:31Z</time>
      </trkpt>
      <trkpt lat="43.6063" lon="1.16964">
        <ele>215</ele>
        <time>2016-05-07T08:54:33Z</time>
      </trkpt>
      <trkpt lat="43.60629" lon="1.16967">
        <ele>215</ele>
        <time>2016-05-07T08:54:35Z</time>
      </trkpt>
      <trkpt lat="43.60629" lon="1.16971">
        <ele>215</ele>
        <time>2016-05-07T08:54:37Z</time>
      </trkpt>
      <trkpt lat="43.60629" lon="1.16974">
        <ele>215</ele>
        <time>2016-05-07T08:54:38Z</time>
      </trkpt>
      <trkpt lat="43.60629" lon="1.16976">
        <ele>215</ele>
        <time>2016-05-07T08:54:39Z</time>
      </trkpt>
      <trkpt lat="43.60631" lon="1.16979">
        <ele>215</ele>
        <time>2016-05-07T08:54:42Z</time>
      </trkpt>
      <trkpt lat="43.60634" lon="1.16981">
        <ele>215</ele>
        <time>2016-05-07T08:54:44Z</time>
      </trkpt>
      <trkpt lat="43.60634" lon="1.16984">
        <ele>215</ele>
        <time>2016-05-07T08:54:45Z</time>
      </trkpt>
      <trkpt lat="43.60635" lon="1.16986">
        <ele>215</ele>
        <time>2016-05-07T08:54:47Z</time>
      </trkpt>
      <trkpt lat="43.60637" lon="1.1699">
        <ele>215</ele>
        <time>2016-05-07T08:54:49Z</time>
      </trkpt>
      <trkpt lat="43.60638" lon="1.16992">
        <ele>215</ele>
        <time>2016-05-07T08:54:51Z</time>
      </trkpt>
      <trkpt lat="43.6064" lon="1.16997">
        <ele>215</ele>
        <time>2016-05-07T08:54:53Z</time>
      </trkpt>
      <trkpt lat="43.6064" lon="1.17002">
        <ele>215</ele>
        <time>2016-05-07T08:54:55Z</time>
      </trkpt>
      <trkpt lat="43.6064" lon="1.17005">
        <ele>214</ele>
        <time>2016-05-07T08:54:56Z</time>
      </trkpt>
      <trkpt lat="43.6064" lon="1.17012">
        <ele>214</ele>
        <time>2016-05-07T08:54:59Z</time>
      </trkpt>
      <trkpt lat="43.60641" lon="1.17014">
        <ele>214</ele>
        <time>2016-05-07T08:55:00Z</time>
      </trkpt>
      <trkpt lat="43.60641" lon="1.17016">
        <ele>214</ele>
        <time>2016-05-07T08:55:01Z</time>
      </trkpt>
      <trkpt lat="43.60642" lon="1.17019">
        <ele>213</ele>
        <time>2016-05-07T08:55:03Z</time>
      </trkpt>
      <trkpt lat="43.60642" lon="1.17023">
        <ele>213</ele>
        <time>2016-05-07T08:55:05Z</time>
      </trkpt>
      <trkpt lat="43.60642" lon="1.17025">
        <ele>212</ele>
        <time>2016-05-07T08:55:06Z</time>
      </trkpt>
      <trkpt lat="43.60643" lon="1.17034">
        <ele>212</ele>
        <time>2016-05-07T08:55:10Z</time>
      </trkpt>
      <trkpt lat="43.60643" lon="1.17039">
        <ele>212</ele>
        <time>2016-05-07T08:55:12Z</time>
      </trkpt>
      <trkpt lat="43.60644" lon="1.17041">
        <ele>211</ele>
        <time>2016-05-07T08:55:13Z</time>
      </trkpt>
      <trkpt lat="43.60646" lon="1.17044">
        <ele>211</ele>
        <time>2016-05-07T08:55:15Z</time>
      </trkpt>
      <trkpt lat="43.60648" lon="1.17048">
        <ele>211</ele>
        <time>2016-05-07T08:55:16Z</time>
      </trkpt>
      <trkpt lat="43.60653" lon="1.17056">
        <ele>210</ele>
        <time>2016-05-07T08:55:18Z</time>
      </trkpt>
      <trkpt lat="43.60656" lon="1.17062">
        <ele>210</ele>
        <time>2016-05-07T08:55:21Z</time>
      </trkpt>
      <trkpt lat="43.60657" lon="1.17064">
        <ele>210</ele>
        <time>2016-05-07T08:55:22Z</time>
      </trkpt>
      <trkpt lat="43.60659" lon="1.17066">
        <ele>210</ele>
        <time>2016-05-07T08:55:24Z</time>
      </trkpt>
      <trkpt lat="43.6066" lon="1.17068">
        <ele>209</ele>
        <time>2016-05-07T08:55:25Z</time>
      </trkpt>
      <trkpt lat="43.60662" lon="1.17072">
        <ele>209</ele>
        <time>2016-05-07T08:55:27Z</time>
      </trkpt>
      <trkpt lat="43.60661" lon="1.17077">
        <ele>209</ele>
        <time>2016-05-07T08:55:29Z</time>
      </trkpt>
      <trkpt lat="43.60661" lon="1.17082">
        <ele>209</ele>
        <time>2016-05-07T08:55:31Z</time>
      </trkpt>
      <trkpt lat="43.60663" lon="1.17086">
        <ele>209</ele>
        <time>2016-05-07T08:55:33Z</time>
      </trkpt>
      <trkpt lat="43.60665" lon="1.17088">
        <ele>208</ele>
        <time>2016-05-07T08:55:36Z</time>
      </trkpt>
      <trkpt lat="43.60666" lon="1.17091">
        <ele>208</ele>
        <time>2016-05-07T08:55:37Z</time>
      </trkpt>
      <trkpt lat="43.60667" lon="1.17096">
        <ele>208</ele>
        <time>2016-05-07T08:55:39Z</time>
      </trkpt>
      <trkpt lat="43.60668" lon="1.17098">
        <ele>208</ele>
        <time>2016-05-07T08:55:40Z</time>
      </trkpt>
      <trkpt lat="43.60669" lon="1.17101">
        <ele>208</ele>
        <time>2016-05-07T08:55:41Z</time>
      </trkpt>
      <trkpt lat="43.60669" lon="1.17104">
        <ele>208</ele>
        <time>2016-05-07T08:55:42Z</time>
      </trkpt>
      <trkpt lat="43.60669" lon="1.17111">
        <ele>208</ele>
        <time>2016-05-07T08:55:45Z</time>
      </trkpt>
      <trkpt lat="43.60669" lon="1.17113">
        <ele>207</ele>
        <time>2016-05-07T08:55:46Z</time>
      </trkpt>
      <trkpt lat="43.60669" lon="1.17117">
        <ele>207</ele>
        <time>2016-05-07T08:55:48Z</time>
      </trkpt>
      <trkpt lat="43.60669" lon="1.1712">
        <ele>207</ele>
        <time>2016-05-07T08:55:49Z</time>
      </trkpt>
      <trkpt lat="43.60669" lon="1.17122">
        <ele>207</ele>
        <time>2016-05-07T08:55:50Z</time>
      </trkpt>
      <trkpt lat="43.60671" lon="1.17125">
        <ele>207</ele>
        <time>2016-05-07T08:55:52Z</time>
      </trkpt>
      <trkpt lat="43.60673" lon="1.17128">
        <ele>207</ele>
        <time>2016-05-07T08:55:54Z</time>
      </trkpt>
      <trkpt lat="43.60674" lon="1.17131">
        <ele>207</ele>
        <time>2016-05-07T08:55:55Z</time>
      </trkpt>
      <trkpt lat="43.60676" lon="1.17134">
        <ele>207</ele>
        <time>2016-05-07T08:55:57Z</time>
      </trkpt>
      <trkpt lat="43.60679" lon="1.17137">
        <ele>207</ele>
        <time>2016-05-07T08:55:59Z</time>
      </trkpt>
      <trkpt lat="43.60681" lon="1.1714">
        <ele>206</ele>
        <time>2016-05-07T08:56:01Z</time>
      </trkpt>
      <trkpt lat="43.60684" lon="1.17144">
        <ele>206</ele>
        <time>2016-05-07T08:56:04Z</time>
      </trkpt>
      <trkpt lat="43.60688" lon="1.17148">
        <ele>206</ele>
        <time>2016-05-07T08:56:07Z</time>
      </trkpt>
      <trkpt lat="43.6069" lon="1.1715">
        <ele>206</ele>
        <time>2016-05-07T08:56:08Z</time>
      </trkpt>
      <trkpt lat="43.60692" lon="1.17154">
        <ele>206</ele>
        <time>2016-05-07T08:56:10Z</time>
      </trkpt>
      <trkpt lat="43.60694" lon="1.17158">
        <ele>206</ele>
        <time>2016-05-07T08:56:12Z</time>
      </trkpt>
      <trkpt lat="43.60696" lon="1.17164">
        <ele>206</ele>
        <time>2016-05-07T08:56:14Z</time>
      </trkpt>
      <trkpt lat="43.60697" lon="1.17169">
        <ele>205</ele>
        <time>2016-05-07T08:56:16Z</time>
      </trkpt>
      <trkpt lat="43.60698" lon="1.17171">
        <ele>205</ele>
        <time>2016-05-07T08:56:17Z</time>
      </trkpt>
      <trkpt lat="43.60699" lon="1.17176">
        <ele>205</ele>
        <time>2016-05-07T08:56:19Z</time>
      </trkpt>
      <trkpt lat="43.60699" lon="1.17179">
        <ele>205</ele>
        <time>2016-05-07T08:56:21Z</time>
      </trkpt>
      <trkpt lat="43.60698" lon="1.17181">
        <ele>205</ele>
        <time>2016-05-07T08:56:22Z</time>
      </trkpt>
      <trkpt lat="43.60699" lon="1.17186">
        <ele>205</ele>
        <time>2016-05-07T08:56:24Z</time>
      </trkpt>
      <trkpt lat="43.60698" lon="1.17192">
        <ele>205</ele>
        <time>2016-05-07T08:56:26Z</time>
      </trkpt>
      <trkpt lat="43.60698" lon="1.17196">
        <ele>205</ele>
        <time>2016-05-07T08:56:28Z</time>
      </trkpt>
      <trkpt lat="43.607" lon="1.17199">
        <ele>205</ele>
        <time>2016-05-07T08:56:30Z</time>
      </trkpt>
      <trkpt lat="43.607" lon="1.17203">
        <ele>205</ele>
        <time>2016-05-07T08:56:32Z</time>
      </trkpt>
      <trkpt lat="43.60701" lon="1.17206">
        <ele>205</ele>
        <time>2016-05-07T08:56:34Z</time>
      </trkpt>
      <trkpt lat="43.60702" lon="1.17209">
        <ele>205</ele>
        <time>2016-05-07T08:56:36Z</time>
      </trkpt>
      <trkpt lat="43.60704" lon="1.17211">
        <ele>205</ele>
        <time>2016-05-07T08:56:38Z</time>
      </trkpt>
      <trkpt lat="43.60706" lon="1.17216">
        <ele>204</ele>
        <time>2016-05-07T08:56:41Z</time>
      </trkpt>
      <trkpt lat="43.60706" lon="1.17217">
        <ele>204</ele>
        <time>2016-05-07T08:56:42Z</time>
      </trkpt>
      <trkpt lat="43.60708" lon="1.17222">
        <ele>204</ele>
        <time>2016-05-07T08:56:44Z</time>
      </trkpt>
      <trkpt lat="43.60708" lon="1.17225">
        <ele>204</ele>
        <time>2016-05-07T08:56:45Z</time>
      </trkpt>
      <trkpt lat="43.60709" lon="1.17227">
        <ele>204</ele>
        <time>2016-05-07T08:56:46Z</time>
      </trkpt>
      <trkpt lat="43.60711" lon="1.1723">
        <ele>204</ele>
        <time>2016-05-07T08:56:48Z</time>
      </trkpt>
      <trkpt lat="43.60713" lon="1.17231">
        <ele>204</ele>
        <time>2016-05-07T08:56:49Z</time>
      </trkpt>
      <trkpt lat="43.60714" lon="1.17236">
        <ele>204</ele>
        <time>2016-05-07T08:56:51Z</time>
      </trkpt>
      <trkpt lat="43.60717" lon="1.1724">
        <ele>204</ele>
        <time>2016-05-07T08:56:53Z</time>
      </trkpt>
      <trkpt lat="43.60716" lon="1.1725">
        <ele>204</ele>
        <time>2016-05-07T08:56:56Z</time>
      </trkpt>
      <trkpt lat="43.60716" lon="1.17252">
        <ele>204</ele>
        <time>2016-05-07T08:56:57Z</time>
      </trkpt>
      <trkpt lat="43.60716" lon="1.17256">
        <ele>204</ele>
        <time>2016-05-07T08:56:59Z</time>
      </trkpt>
      <trkpt lat="43.60719" lon="1.17258">
        <ele>204</ele>
        <time>2016-05-07T08:57:01Z</time>
      </trkpt>
      <trkpt lat="43.60721" lon="1.17261">
        <ele>204</ele>
        <time>2016-05-07T08:57:03Z</time>
      </trkpt>
      <trkpt lat="43.60723" lon="1.17263">
        <ele>204</ele>
        <time>2016-05-07T08:57:04Z</time>
      </trkpt>
      <trkpt lat="43.60724" lon="1.17267">
        <ele>204</ele>
        <time>2016-05-07T08:57:06Z</time>
      </trkpt>
      <trkpt lat="43.60725" lon="1.17269">
        <ele>204</ele>
        <time>2016-05-07T08:57:07Z</time>
      </trkpt>
      <trkpt lat="43.60724" lon="1.17273">
        <ele>204</ele>
        <time>2016-05-07T08:57:09Z</time>
      </trkpt>
      <trkpt lat="43.60725" lon="1.17274">
        <ele>204</ele>
        <time>2016-05-07T08:57:10Z</time>
      </trkpt>
      <trkpt lat="43.60726" lon="1.17282">
        <ele>204</ele>
        <time>2016-05-07T08:57:14Z</time>
      </trkpt>
      <trkpt lat="43.60727" lon="1.17282">
        <ele>204</ele>
        <time>2016-05-07T08:57:15Z</time>
      </trkpt>
      <trkpt lat="43.60729" lon="1.17284">
        <ele>204</ele>
        <time>2016-05-07T08:57:17Z</time>
      </trkpt>
      <trkpt lat="43.60731" lon="1.17285">
        <ele>204</ele>
        <time>2016-05-07T08:57:18Z</time>
      </trkpt>
      <trkpt lat="43.60733" lon="1.17286">
        <ele>203</ele>
        <time>2016-05-07T08:57:20Z</time>
      </trkpt>
      <trkpt lat="43.60735" lon="1.17287">
        <ele>203</ele>
        <time>2016-05-07T08:57:21Z</time>
      </trkpt>
      <trkpt lat="43.60744" lon="1.17293">
        <ele>203</ele>
        <time>2016-05-07T08:57:27Z</time>
      </trkpt>
      <trkpt lat="43.60746" lon="1.17296">
        <ele>203</ele>
        <time>2016-05-07T08:57:28Z</time>
      </trkpt>
      <trkpt lat="43.60746" lon="1.17302">
        <ele>203</ele>
        <time>2016-05-07T08:57:30Z</time>
      </trkpt>
      <trkpt lat="43.60749" lon="1.17305">
        <ele>203</ele>
        <time>2016-05-07T08:57:32Z</time>
      </trkpt>
      <trkpt lat="43.60751" lon="1.17308">
        <ele>203</ele>
        <time>2016-05-07T08:57:34Z</time>
      </trkpt>
      <trkpt lat="43.60756" lon="1.1731">
        <ele>204</ele>
        <time>2016-05-07T08:57:36Z</time>
      </trkpt>
      <trkpt lat="43.60757" lon="1.17312">
        <ele>204</ele>
        <time>2016-05-07T08:57:38Z</time>
      </trkpt>
      <trkpt lat="43.60758" lon="1.17314">
        <ele>204</ele>
        <time>2016-05-07T08:57:40Z</time>
      </trkpt>
      <trkpt lat="43.60759" lon="1.17314">
        <ele>204</ele>
        <time>2016-05-07T08:57:42Z</time>
      </trkpt>
      <trkpt lat="43.60761" lon="1.17314">
        <ele>204</ele>
        <time>2016-05-07T08:57:44Z</time>
      </trkpt>
      <trkpt lat="43.60774" lon="1.17314">
        <ele>204</ele>
        <time>2016-05-07T08:57:51Z</time>
      </trkpt>
      <trkpt lat="43.6078" lon="1.17314">
        <ele>203</ele>
        <time>2016-05-07T08:57:55Z</time>
      </trkpt>
      <trkpt lat="43.60782" lon="1.17314">
        <ele>203</ele>
        <time>2016-05-07T08:57:57Z</time>
      </trkpt>
      <trkpt lat="43.60787" lon="1.17313">
        <ele>202</ele>
        <time>2016-05-07T08:57:58Z</time>
      </trkpt>
      <trkpt lat="43.60794" lon="1.17316">
        <ele>202</ele>
        <time>2016-05-07T08:58:02Z</time>
      </trkpt>
      <trkpt lat="43.60794" lon="1.17316">
        <ele>202</ele>
        <time>2016-05-07T08:58:04Z</time>
      </trkpt>
      <trkpt lat="43.60796" lon="1.17318">
        <ele>202</ele>
        <time>2016-05-07T08:58:06Z</time>
      </trkpt>
      <trkpt lat="43.60797" lon="1.17318">
        <ele>202</ele>
        <time>2016-05-07T08:58:08Z</time>
      </trkpt>
      <trkpt lat="43.60798" lon="1.17319">
        <ele>201</ele>
        <time>2016-05-07T08:58:09Z</time>
      </trkpt>
      <trkpt lat="43.60798" lon="1.1732">
        <ele>201</ele>
        <time>2016-05-07T08:58:10Z</time>
      </trkpt>
      <trkpt lat="43.60799" lon="1.17323">
        <ele>201</ele>
        <time>2016-05-07T08:58:12Z</time>
      </trkpt>
      <trkpt lat="43.60799" lon="1.17323">
        <ele>202</ele>
        <time>2016-05-07T08:58:32Z</time>
      </trkpt>
      <trkpt lat="43.60799" lon="1.17323">
        <ele>202</ele>
        <time>2016-05-07T08:58:33Z</time>
      </trkpt>
      <trkpt lat="43.60803" lon="1.17322">
        <ele>203</ele>
        <time>2016-05-07T08:58:41Z</time>
      </trkpt>
      <trkpt lat="43.60803" lon="1.17323">
        <ele>203</ele>
        <time>2016-05-07T08:58:42Z</time>
      </trkpt>
      <trkpt lat="43.60803" lon="1.17324">
        <ele>204</ele>
        <time>2016-05-07T08:58:44Z</time>
      </trkpt>
      <trkpt lat="43.60808" lon="1.17327">
        <ele>205</ele>
        <time>2016-05-07T08:58:51Z</time>
      </trkpt>
      <trkpt lat="43.60808" lon="1.17328">
        <ele>205</ele>
        <time>2016-05-07T08:58:52Z</time>
      </trkpt>
      <trkpt lat="43.60808" lon="1.17329">
        <ele>205</ele>
        <time>2016-05-07T08:58:53Z</time>
      </trkpt>
      <trkpt lat="43.60809" lon="1.17329">
        <ele>205</ele>
        <time>2016-05-07T08:58:55Z</time>
      </trkpt>
      <trkpt lat="43.60812" lon="1.17326">
        <ele>206</ele>
        <time>2016-05-07T08:59:05Z</time>
      </trkpt>
      <trkpt lat="43.60813" lon="1.17324">
        <ele>206</ele>
        <time>2016-05-07T08:59:06Z</time>
      </trkpt>
      <trkpt lat="43.60814" lon="1.17323">
        <ele>206</ele>
        <time>2016-05-07T08:59:08Z</time>
      </trkpt>
      <trkpt lat="43.60815" lon="1.17323">
        <ele>206</ele>
        <time>2016-05-07T08:59:09Z</time>
      </trkpt>
      <trkpt lat="43.60815" lon="1.17322">
        <ele>206</ele>
        <time>2016-05-07T08:59:10Z</time>
      </trkpt>
      <trkpt lat="43.60817" lon="1.17319">
        <ele>206</ele>
        <time>2016-05-07T08:59:18Z</time>
      </trkpt>
      <trkpt lat="43.60819" lon="1.17317">
        <ele>206</ele>
        <time>2016-05-07T08:59:20Z</time>
      </trkpt>
      <trkpt lat="43.60819" lon="1.17316">
        <ele>206</ele>
        <time>2016-05-07T08:59:22Z</time>
      </trkpt>
      <trkpt lat="43.6082" lon="1.17315">
        <ele>206</ele>
        <time>2016-05-07T08:59:23Z</time>
      </trkpt>
      <trkpt lat="43.6082" lon="1.17314">
        <ele>206</ele>
        <time>2016-05-07T08:59:24Z</time>
      </trkpt>
      <trkpt lat="43.60821" lon="1.17312">
        <ele>206</ele>
        <time>2016-05-07T08:59:26Z</time>
      </trkpt>
      <trkpt lat="43.60823" lon="1.17311">
        <ele>206</ele>
        <time>2016-05-07T08:59:27Z</time>
      </trkpt>
      <trkpt lat="43.60823" lon="1.1731">
        <ele>206</ele>
        <time>2016-05-07T08:59:29Z</time>
      </trkpt>
      <trkpt lat="43.60823" lon="1.1731">
        <ele>206</ele>
        <time>2016-05-07T08:59:31Z</time>
      </trkpt>
      <trkpt lat="43.60823" lon="1.17309">
        <ele>206</ele>
        <time>2016-05-07T08:59:32Z</time>
      </trkpt>
      <trkpt lat="43.60823" lon="1.1731">
        <ele>207</ele>
        <time>2016-05-07T08:59:34Z</time>
      </trkpt>
      <trkpt lat="43.60819" lon="1.17319">
        <ele>207</ele>
        <time>2016-05-07T08:59:42Z</time>
      </trkpt>
      <trkpt lat="43.60817" lon="1.17319">
        <ele>207</ele>
        <time>2016-05-07T08:59:43Z</time>
      </trkpt>
      <trkpt lat="43.60817" lon="1.17321">
        <ele>207</ele>
        <time>2016-05-07T08:59:44Z</time>
      </trkpt>
      <trkpt lat="43.60817" lon="1.17324">
        <ele>206</ele>
        <time>2016-05-07T08:59:46Z</time>
      </trkpt>
      <trkpt lat="43.60817" lon="1.17326">
        <ele>206</ele>
        <time>2016-05-07T08:59:47Z</time>
      </trkpt>
      <trkpt lat="43.60817" lon="1.17329">
        <ele>206</ele>
        <time>2016-05-07T08:59:49Z</time>
      </trkpt>
      <trkpt lat="43.60817" lon="1.17331">
        <ele>206</ele>
        <time>2016-05-07T08:59:51Z</time>
      </trkpt>
      <trkpt lat="43.60818" lon="1.17334">
        <ele>206</ele>
        <time>2016-05-07T08:59:53Z</time>
      </trkpt>
      <trkpt lat="43.60819" lon="1.17335">
        <ele>206</ele>
        <time>2016-05-07T08:59:55Z</time>
      </trkpt>
      <trkpt lat="43.60819" lon="1.17338">
        <ele>206</ele>
        <time>2016-05-07T08:59:57Z</time>
      </trkpt>
      <trkpt lat="43.60821" lon="1.17341">
        <ele>206</ele>
        <time>2016-05-07T08:59:59Z</time>
      </trkpt>
      <trkpt lat="43.60822" lon="1.17341">
        <ele>206</ele>
        <time>2016-05-07T09:00:00Z</time>
      </trkpt>
      <trkpt lat="43.60823" lon="1.17343">
        <ele>207</ele>
        <time>2016-05-07T09:00:02Z</time>
      </trkpt>
      <trkpt lat="43.60825" lon="1.17345">
        <ele>207</ele>
        <time>2016-05-07T09:00:04Z</time>
      </trkpt>
      <trkpt lat="43.60826" lon="1.17347">
        <ele>207</ele>
        <time>2016-05-07T09:00:06Z</time>
      </trkpt>
      <trkpt lat="43.60827" lon="1.17348">
        <ele>207</ele>
        <time>2016-05-07T09:00:07Z</time>
      </trkpt>
      <trkpt lat="43.60829" lon="1.1735">
        <ele>207</ele>
        <time>2016-05-07T09:00:09Z</time>
      </trkpt>
      <trkpt lat="43.6083" lon="1.17351">
        <ele>207</ele>
        <time>2016-05-07T09:00:10Z</time>
      </trkpt>
      <trkpt lat="43.60832" lon="1.17352">
        <ele>207</ele>
        <time>2016-05-07T09:00:12Z</time>
      </trkpt>
      <trkpt lat="43.60833" lon="1.17355">
        <ele>208</ele>
        <time>2016-05-07T09:00:13Z</time>
      </trkpt>
      <trkpt lat="43.60845" lon="1.17362">
        <ele>207</ele>
        <time>2016-05-07T09:00:18Z</time>
      </trkpt>
      <trkpt lat="43.60846" lon="1.17363">
        <ele>207</ele>
        <time>2016-05-07T09:00:19Z</time>
      </trkpt>
      <trkpt lat="43.60848" lon="1.17365">
        <ele>208</ele>
        <time>2016-05-07T09:00:21Z</time>
      </trkpt>
      <trkpt lat="43.60849" lon="1.17365">
        <ele>208</ele>
        <time>2016-05-07T09:00:22Z</time>
      </trkpt>
      <trkpt lat="43.6085" lon="1.17367">
        <ele>208</ele>
        <time>2016-05-07T09:00:24Z</time>
      </trkpt>
      <trkpt lat="43.6085" lon="1.17367">
        <ele>208</ele>
        <time>2016-05-07T09:00:25Z</time>
      </trkpt>
      <trkpt lat="43.60851" lon="1.17369">
        <ele>208</ele>
        <time>2016-05-07T09:00:27Z</time>
      </trkpt>
      <trkpt lat="43.60852" lon="1.1737">
        <ele>208</ele>
        <time>2016-05-07T09:00:28Z</time>
      </trkpt>
      <trkpt lat="43.60852" lon="1.17371">
        <ele>208</ele>
        <time>2016-05-07T09:00:29Z</time>
      </trkpt>
      <trkpt lat="43.60851" lon="1.17373">
        <ele>208</ele>
        <time>2016-05-07T09:00:31Z</time>
      </trkpt>
      <trkpt lat="43.60851" lon="1.17373">
        <ele>208</ele>
        <time>2016-05-07T09:00:50Z</time>
      </trkpt>
      <trkpt lat="43.60851" lon="1.17373">
        <ele>208</ele>
        <time>2016-05-07T09:00:52Z</time>
      </trkpt>
      <trkpt lat="43.60854" lon="1.17361">
        <ele>208</ele>
        <time>2016-05-07T09:01:07Z</time>
      </trkpt>
      <trkpt lat="43.60855" lon="1.17362">
        <ele>208</ele>
        <time>2016-05-07T09:01:09Z</time>
      </trkpt>
      <trkpt lat="43.60856" lon="1.17361">
        <ele>208</ele>
        <time>2016-05-07T09:01:10Z</time>
      </trkpt>
      <trkpt lat="43.60856" lon="1.17361">
        <ele>208</ele>
        <time>2016-05-07T09:01:26Z</time>
      </trkpt>
      <trkpt lat="43.60856" lon="1.17361">
        <ele>208</ele>
        <time>2016-05-07T09:01:27Z</time>
      </trkpt>
      <trkpt lat="43.60847" lon="1.17365">
        <ele>208</ele>
        <time>2016-05-07T09:01:36Z</time>
      </trkpt>
      <trkpt lat="43.60846" lon="1.17365">
        <ele>208</ele>
        <time>2016-05-07T09:01:37Z</time>
      </trkpt>
      <trkpt lat="43.60845" lon="1.17365">
        <ele>209</ele>
        <time>2016-05-07T09:01:39Z</time>
      </trkpt>
      <trkpt lat="43.60845" lon="1.17365">
        <ele>209</ele>
        <time>2016-05-07T09:02:02Z</time>
      </trkpt>
      <trkpt lat="43.60824" lon="1.17351">
        <ele>209</ele>
        <time>2016-05-07T09:02:11Z</time>
      </trkpt>
      <trkpt lat="43.60846" lon="1.17369">
        <ele>211</ele>
        <time>2016-05-07T09:02:18Z</time>
      </trkpt>
      <trkpt lat="43.60846" lon="1.17369">
        <ele>211</ele>
        <time>2016-05-07T09:02:36Z</time>
      </trkpt>
      <trkpt lat="43.60843" lon="1.17364">
        <ele>211</ele>
        <time>2016-05-07T09:02:38Z</time>
      </trkpt>
      <trkpt lat="43.60843" lon="1.17365">
        <ele>211</ele>
        <time>2016-05-07T09:02:40Z</time>
      </trkpt>
      <trkpt lat="43.60842" lon="1.17366">
        <ele>211</ele>
        <time>2016-05-07T09:02:41Z</time>
      </trkpt>
      <trkpt lat="43.6084" lon="1.17368">
        <ele>211</ele>
        <time>2016-05-07T09:02:43Z</time>
      </trkpt>
      <trkpt lat="43.60839" lon="1.17369">
        <ele>211</ele>
        <time>2016-05-07T09:02:45Z</time>
      </trkpt>
      <trkpt lat="43.60838" lon="1.1737">
        <ele>211</ele>
        <time>2016-05-07T09:02:46Z</time>
      </trkpt>
      <trkpt lat="43.60837" lon="1.17371">
        <ele>211</ele>
        <time>2016-05-07T09:02:47Z</time>
      </trkpt>
      <trkpt lat="43.60835" lon="1.17373">
        <ele>211</ele>
        <time>2016-05-07T09:02:49Z</time>
      </trkpt>
      <trkpt lat="43.60833" lon="1.17374">
        <ele>211</ele>
        <time>2016-05-07T09:02:51Z</time>
      </trkpt>
      <trkpt lat="43.60832" lon="1.17376">
        <ele>211</ele>
        <time>2016-05-07T09:02:53Z</time>
      </trkpt>
      <trkpt lat="43.6083" lon="1.17377">
        <ele>211</ele>
        <time>2016-05-07T09:02:55Z</time>
      </trkpt>
      <trkpt lat="43.6083" lon="1.17378">
        <ele>211</ele>
        <time>2016-05-07T09:02:57Z</time>
      </trkpt>
      <trkpt lat="43.60829" lon="1.17379">
        <ele>211</ele>
        <time>2016-05-07T09:02:58Z</time>
      </trkpt>
      <trkpt lat="43.60827" lon="1.17382">
        <ele>211</ele>
        <time>2016-05-07T09:03:00Z</time>
      </trkpt>
      <trkpt lat="43.60826" lon="1.17383">
        <ele>211</ele>
        <time>2016-05-07T09:03:01Z</time>
      </trkpt>
      <trkpt lat="43.60825" lon="1.17384">
        <ele>211</ele>
        <time>2016-05-07T09:03:03Z</time>
      </trkpt>
      <trkpt lat="43.60824" lon="1.17384">
        <ele>211</ele>
        <time>2016-05-07T09:03:04Z</time>
      </trkpt>
      <trkpt lat="43.60822" lon="1.17387">
        <ele>211</ele>
        <time>2016-05-07T09:03:06Z</time>
      </trkpt>
      <trkpt lat="43.6082" lon="1.17388">
        <ele>212</ele>
        <time>2016-05-07T09:03:08Z</time>
      </trkpt>
      <trkpt lat="43.6082" lon="1.17389">
        <ele>212</ele>
        <time>2016-05-07T09:03:09Z</time>
      </trkpt>
      <trkpt lat="43.60819" lon="1.1739">
        <ele>212</ele>
        <time>2016-05-07T09:03:10Z</time>
      </trkpt>
      <trkpt lat="43.60817" lon="1.17391">
        <ele>212</ele>
        <time>2016-05-07T09:03:12Z</time>
      </trkpt>
      <trkpt lat="43.60815" lon="1.17393">
        <ele>212</ele>
        <time>2016-05-07T09:03:14Z</time>
      </trkpt>
      <trkpt lat="43.60813" lon="1.17394">
        <ele>212</ele>
        <time>2016-05-07T09:03:16Z</time>
      </trkpt>
      <trkpt lat="43.60811" lon="1.17395">
        <ele>212</ele>
        <time>2016-05-07T09:03:18Z</time>
      </trkpt>
      <trkpt lat="43.60808" lon="1.17396">
        <ele>212</ele>
        <time>2016-05-07T09:03:20Z</time>
      </trkpt>
      <trkpt lat="43.60807" lon="1.17396">
        <ele>212</ele>
        <time>2016-05-07T09:03:21Z</time>
      </trkpt>
      <trkpt lat="43.60806" lon="1.17397">
        <ele>212</ele>
        <time>2016-05-07T09:03:22Z</time>
      </trkpt>
      <trkpt lat="43.60804" lon="1.17399">
        <ele>213</ele>
        <time>2016-05-07T09:03:24Z</time>
      </trkpt>
      <trkpt lat="43.60802" lon="1.17401">
        <ele>213</ele>
        <time>2016-05-07T09:03:26Z</time>
      </trkpt>
      <trkpt lat="43.60798" lon="1.17405">
        <ele>213</ele>
        <time>2016-05-07T09:03:29Z</time>
      </trkpt>
      <trkpt lat="43.60796" lon="1.17408">
        <ele>213</ele>
        <time>2016-05-07T09:03:31Z</time>
      </trkpt>
      <trkpt lat="43.60794" lon="1.17409">
        <ele>213</ele>
        <time>2016-05-07T09:03:32Z</time>
      </trkpt>
      <trkpt lat="43.60793" lon="1.1741">
        <ele>213</ele>
        <time>2016-05-07T09:03:34Z</time>
      </trkpt>
      <trkpt lat="43.60788" lon="1.17412">
        <ele>214</ele>
        <time>2016-05-07T09:03:37Z</time>
      </trkpt>
      <trkpt lat="43.60787" lon="1.17412">
        <ele>214</ele>
        <time>2016-05-07T09:03:38Z</time>
      </trkpt>
      <trkpt lat="43.60786" lon="1.17413">
        <ele>214</ele>
        <time>2016-05-07T09:03:39Z</time>
      </trkpt>
      <trkpt lat="43.60783" lon="1.17415">
        <ele>214</ele>
        <time>2016-05-07T09:03:41Z</time>
      </trkpt>
      <trkpt lat="43.6078" lon="1.17416">
        <ele>214</ele>
        <time>2016-05-07T09:03:43Z</time>
      </trkpt>
      <trkpt lat="43.60778" lon="1.17419">
        <ele>214</ele>
        <time>2016-05-07T09:03:44Z</time>
      </trkpt>
      <trkpt lat="43.60778" lon="1.1742">
        <ele>215</ele>
        <time>2016-05-07T09:03:45Z</time>
      </trkpt>
      <trkpt lat="43.60775" lon="1.17421">
        <ele>215</ele>
        <time>2016-05-07T09:03:47Z</time>
      </trkpt>
      <trkpt lat="43.60773" lon="1.17421">
        <ele>215</ele>
        <time>2016-05-07T09:03:48Z</time>
      </trkpt>
      <trkpt lat="43.6077" lon="1.17423">
        <ele>215</ele>
        <time>2016-05-07T09:03:50Z</time>
      </trkpt>
      <trkpt lat="43.60769" lon="1.17424">
        <ele>215</ele>
        <time>2016-05-07T09:03:51Z</time>
      </trkpt>
      <trkpt lat="43.60767" lon="1.17425">
        <ele>215</ele>
        <time>2016-05-07T09:03:52Z</time>
      </trkpt>
      <trkpt lat="43.60762" lon="1.17427">
        <ele>215</ele>
        <time>2016-05-07T09:03:54Z</time>
      </trkpt>
      <trkpt lat="43.60748" lon="1.17433">
        <ele>216</ele>
        <time>2016-05-07T09:04:02Z</time>
      </trkpt>
      <trkpt lat="43.60745" lon="1.17434">
        <ele>216</ele>
        <time>2016-05-07T09:04:04Z</time>
      </trkpt>
      <trkpt lat="43.60744" lon="1.17434">
        <ele>216</ele>
        <time>2016-05-07T09:04:05Z</time>
      </trkpt>
      <trkpt lat="43.60742" lon="1.17435">
        <ele>216</ele>
        <time>2016-05-07T09:04:07Z</time>
      </trkpt>
      <trkpt lat="43.6074" lon="1.17436">
        <ele>217</ele>
        <time>2016-05-07T09:04:09Z</time>
      </trkpt>
      <trkpt lat="43.60737" lon="1.17437">
        <ele>217</ele>
        <time>2016-05-07T09:04:11Z</time>
      </trkpt>
      <trkpt lat="43.60734" lon="1.17439">
        <ele>217</ele>
        <time>2016-05-07T09:04:13Z</time>
      </trkpt>
      <trkpt lat="43.60731" lon="1.17441">
        <ele>217</ele>
        <time>2016-05-07T09:04:15Z</time>
      </trkpt>
      <trkpt lat="43.60724" lon="1.17448">
        <ele>218</ele>
        <time>2016-05-07T09:04:21Z</time>
      </trkpt>
      <trkpt lat="43.60723" lon="1.1745">
        <ele>218</ele>
        <time>2016-05-07T09:04:23Z</time>
      </trkpt>
      <trkpt lat="43.60724" lon="1.17451">
        <ele>218</ele>
        <time>2016-05-07T09:04:24Z</time>
      </trkpt>
      <trkpt lat="43.60724" lon="1.17452">
        <ele>218</ele>
        <time>2016-05-07T09:04:25Z</time>
      </trkpt>
      <trkpt lat="43.60725" lon="1.17454">
        <ele>218</ele>
        <time>2016-05-07T09:04:27Z</time>
      </trkpt>
      <trkpt lat="43.60725" lon="1.17456">
        <ele>218</ele>
        <time>2016-05-07T09:04:28Z</time>
      </trkpt>
      <trkpt lat="43.60726" lon="1.17459">
        <ele>219</ele>
        <time>2016-05-07T09:04:30Z</time>
      </trkpt>
      <trkpt lat="43.60727" lon="1.1746">
        <ele>219</ele>
        <time>2016-05-07T09:04:31Z</time>
      </trkpt>
      <trkpt lat="43.60728" lon="1.17465">
        <ele>219</ele>
        <time>2016-05-07T09:04:33Z</time>
      </trkpt>
      <trkpt lat="43.60729" lon="1.17469">
        <ele>219</ele>
        <time>2016-05-07T09:04:35Z</time>
      </trkpt>
      <trkpt lat="43.6073" lon="1.17471">
        <ele>219</ele>
        <time>2016-05-07T09:04:36Z</time>
      </trkpt>
      <trkpt lat="43.6073" lon="1.17475">
        <ele>220</ele>
        <time>2016-05-07T09:04:38Z</time>
      </trkpt>
      <trkpt lat="43.6073" lon="1.17479">
        <ele>220</ele>
        <time>2016-05-07T09:04:39Z</time>
      </trkpt>
      <trkpt lat="43.60731" lon="1.17483">
        <ele>220</ele>
        <time>2016-05-07T09:04:41Z</time>
      </trkpt>
      <trkpt lat="43.60732" lon="1.17486">
        <ele>220</ele>
        <time>2016-05-07T09:04:42Z</time>
      </trkpt>
      <trkpt lat="43.60733" lon="1.1749">
        <ele>220</ele>
        <time>2016-05-07T09:04:44Z</time>
      </trkpt>
      <trkpt lat="43.60733" lon="1.17493">
        <ele>221</ele>
        <time>2016-05-07T09:04:45Z</time>
      </trkpt>
      <trkpt lat="43.60734" lon="1.17499">
        <ele>221</ele>
        <time>2016-05-07T09:04:47Z</time>
      </trkpt>
      <trkpt lat="43.60734" lon="1.17501">
        <ele>221</ele>
        <time>2016-05-07T09:04:48Z</time>
      </trkpt>
      <trkpt lat="43.60735" lon="1.17505">
        <ele>221</ele>
        <time>2016-05-07T09:04:50Z</time>
      </trkpt>
      <trkpt lat="43.60737" lon="1.17507">
        <ele>221</ele>
        <time>2016-05-07T09:04:51Z</time>
      </trkpt>
      <trkpt lat="43.60737" lon="1.17509">
        <ele>221</ele>
        <time>2016-05-07T09:04:52Z</time>
      </trkpt>
      <trkpt lat="43.60737" lon="1.17512">
        <ele>221</ele>
        <time>2016-05-07T09:04:54Z</time>
      </trkpt>
      <trkpt lat="43.60737" lon="1.17514">
        <ele>221</ele>
        <time>2016-05-07T09:04:55Z</time>
      </trkpt>
      <trkpt lat="43.60738" lon="1.17516">
        <ele>221</ele>
        <time>2016-05-07T09:04:57Z</time>
      </trkpt>
      <trkpt lat="43.60737" lon="1.17518">
        <ele>221</ele>
        <time>2016-05-07T09:04:58Z</time>
      </trkpt>
      <trkpt lat="43.60737" lon="1.17524">
        <ele>221</ele>
        <time>2016-05-07T09:05:00Z</time>
      </trkpt>
      <trkpt lat="43.60737" lon="1.17528">
        <ele>221</ele>
        <time>2016-05-07T09:05:02Z</time>
      </trkpt>
      <trkpt lat="43.60737" lon="1.17532">
        <ele>221</ele>
        <time>2016-05-07T09:05:04Z</time>
      </trkpt>
      <trkpt lat="43.60738" lon="1.17536">
        <ele>221</ele>
        <time>2016-05-07T09:05:06Z</time>
      </trkpt>
      <trkpt lat="43.60737" lon="1.1754">
        <ele>221</ele>
        <time>2016-05-07T09:05:08Z</time>
      </trkpt>
      <trkpt lat="43.60738" lon="1.17544">
        <ele>221</ele>
        <time>2016-05-07T09:05:10Z</time>
      </trkpt>
      <trkpt lat="43.60739" lon="1.17548">
        <ele>221</ele>
        <time>2016-05-07T09:05:12Z</time>
      </trkpt>
      <trkpt lat="43.6074" lon="1.17551">
        <ele>221</ele>
        <time>2016-05-07T09:05:14Z</time>
      </trkpt>
      <trkpt lat="43.60741" lon="1.17555">
        <ele>221</ele>
        <time>2016-05-07T09:05:16Z</time>
      </trkpt>
      <trkpt lat="43.60744" lon="1.1756">
        <ele>220</ele>
        <time>2016-05-07T09:05:19Z</time>
      </trkpt>
      <trkpt lat="43.60745" lon="1.17563">
        <ele>220</ele>
        <time>2016-05-07T09:05:21Z</time>
      </trkpt>
      <trkpt lat="43.60746" lon="1.17567">
        <ele>220</ele>
        <time>2016-05-07T09:05:23Z</time>
      </trkpt>
      <trkpt lat="43.60747" lon="1.1757">
        <ele>220</ele>
        <time>2016-05-07T09:05:25Z</time>
      </trkpt>
      <trkpt lat="43.60748" lon="1.17574">
        <ele>220</ele>
        <time>2016-05-07T09:05:27Z</time>
      </trkpt>
      <trkpt lat="43.60749" lon="1.17579">
        <ele>220</ele>
        <time>2016-05-07T09:05:29Z</time>
      </trkpt>
      <trkpt lat="43.60752" lon="1.17583">
        <ele>220</ele>
        <time>2016-05-07T09:05:31Z</time>
      </trkpt>
      <trkpt lat="43.60753" lon="1.17587">
        <ele>220</ele>
        <time>2016-05-07T09:05:33Z</time>
      </trkpt>
      <trkpt lat="43.60755" lon="1.1759">
        <ele>221</ele>
        <time>2016-05-07T09:05:35Z</time>
      </trkpt>
      <trkpt lat="43.60755" lon="1.17592">
        <ele>221</ele>
        <time>2016-05-07T09:05:36Z</time>
      </trkpt>
      <trkpt lat="43.60757" lon="1.17594">
        <ele>221</ele>
        <time>2016-05-07T09:05:37Z</time>
      </trkpt>
      <trkpt lat="43.60759" lon="1.17597">
        <ele>221</ele>
        <time>2016-05-07T09:05:39Z</time>
      </trkpt>
      <trkpt lat="43.60759" lon="1.176">
        <ele>221</ele>
        <time>2016-05-07T09:05:40Z</time>
      </trkpt>
      <trkpt lat="43.6076" lon="1.17604">
        <ele>221</ele>
        <time>2016-05-07T09:05:42Z</time>
      </trkpt>
      <trkpt lat="43.60762" lon="1.17607">
        <ele>221</ele>
        <time>2016-05-07T09:05:44Z</time>
      </trkpt>
      <trkpt lat="43.60762" lon="1.17612">
        <ele>221</ele>
        <time>2016-05-07T09:05:46Z</time>
      </trkpt>
      <trkpt lat="43.60764" lon="1.17613">
        <ele>221</ele>
        <time>2016-05-07T09:05:47Z</time>
      </trkpt>
      <trkpt lat="43.60766" lon="1.1762">
        <ele>220</ele>
        <time>2016-05-07T09:05:49Z</time>
      </trkpt>
      <trkpt lat="43.60766" lon="1.17623">
        <ele>220</ele>
        <time>2016-05-07T09:05:50Z</time>
      </trkpt>
      <trkpt lat="43.60769" lon="1.17628">
        <ele>220</ele>
        <time>2016-05-07T09:05:52Z</time>
      </trkpt>
      <trkpt lat="43.6077" lon="1.17632">
        <ele>220</ele>
        <time>2016-05-07T09:05:54Z</time>
      </trkpt>
      <trkpt lat="43.60772" lon="1.17636">
        <ele>220</ele>
        <time>2016-05-07T09:05:56Z</time>
      </trkpt>
      <trkpt lat="43.60775" lon="1.1764">
        <ele>220</ele>
        <time>2016-05-07T09:05:58Z</time>
      </trkpt>
      <trkpt lat="43.60775" lon="1.17643">
        <ele>220</ele>
        <time>2016-05-07T09:05:59Z</time>
      </trkpt>
      <trkpt lat="43.60777" lon="1.17647">
        <ele>220</ele>
        <time>2016-05-07T09:06:01Z</time>
      </trkpt>
      <trkpt lat="43.60777" lon="1.17652">
        <ele>220</ele>
        <time>2016-05-07T09:06:03Z</time>
      </trkpt>
      <trkpt lat="43.60778" lon="1.17653">
        <ele>220</ele>
        <time>2016-05-07T09:06:04Z</time>
      </trkpt>
      <trkpt lat="43.6078" lon="1.17658">
        <ele>220</ele>
        <time>2016-05-07T09:06:06Z</time>
      </trkpt>
      <trkpt lat="43.6078" lon="1.17663">
        <ele>220</ele>
        <time>2016-05-07T09:06:08Z</time>
      </trkpt>
      <trkpt lat="43.60781" lon="1.17665">
        <ele>220</ele>
        <time>2016-05-07T09:06:09Z</time>
      </trkpt>
      <trkpt lat="43.60781" lon="1.17667">
        <ele>220</ele>
        <time>2016-05-07T09:06:10Z</time>
      </trkpt>
      <trkpt lat="43.60782" lon="1.1767">
        <ele>220</ele>
        <time>2016-05-07T09:06:12Z</time>
      </trkpt>
      <trkpt lat="43.60782" lon="1.17676">
        <ele>220</ele>
        <time>2016-05-07T09:06:14Z</time>
      </trkpt>
      <trkpt lat="43.60783" lon="1.17681">
        <ele>220</ele>
        <time>2016-05-07T09:06:16Z</time>
      </trkpt>
      <trkpt lat="43.60783" lon="1.17683">
        <ele>220</ele>
        <time>2016-05-07T09:06:17Z</time>
      </trkpt>
      <trkpt lat="43.60784" lon="1.17684">
        <ele>220</ele>
        <time>2016-05-07T09:06:18Z</time>
      </trkpt>
      <trkpt lat="43.60786" lon="1.17688">
        <ele>220</ele>
        <time>2016-05-07T09:06:20Z</time>
      </trkpt>
      <trkpt lat="43.60786" lon="1.17689">
        <ele>220</ele>
        <time>2016-05-07T09:06:21Z</time>
      </trkpt>
      <trkpt lat="43.60787" lon="1.17691">
        <ele>220</ele>
        <time>2016-05-07T09:06:22Z</time>
      </trkpt>
      <trkpt lat="43.60791" lon="1.17696">
        <ele>220</ele>
        <time>2016-05-07T09:06:25Z</time>
      </trkpt>
      <trkpt lat="43.60792" lon="1.17699">
        <ele>220</ele>
        <time>2016-05-07T09:06:26Z</time>
      </trkpt>
      <trkpt lat="43.60793" lon="1.17704">
        <ele>220</ele>
        <time>2016-05-07T09:06:28Z</time>
      </trkpt>
      <trkpt lat="43.60795" lon="1.17708">
        <ele>220</ele>
        <time>2016-05-07T09:06:30Z</time>
      </trkpt>
      <trkpt lat="43.60796" lon="1.17711">
        <ele>219</ele>
        <time>2016-05-07T09:06:31Z</time>
      </trkpt>
      <trkpt lat="43.60796" lon="1.17714">
        <ele>219</ele>
        <time>2016-05-07T09:06:32Z</time>
      </trkpt>
      <trkpt lat="43.60799" lon="1.17718">
        <ele>219</ele>
        <time>2016-05-07T09:06:34Z</time>
      </trkpt>
      <trkpt lat="43.60801" lon="1.17721">
        <ele>219</ele>
        <time>2016-05-07T09:06:36Z</time>
      </trkpt>
      <trkpt lat="43.60802" lon="1.17723">
        <ele>219</ele>
        <time>2016-05-07T09:06:37Z</time>
      </trkpt>
      <trkpt lat="43.60805" lon="1.17728">
        <ele>219</ele>
        <time>2016-05-07T09:06:39Z</time>
      </trkpt>
      <trkpt lat="43.60807" lon="1.17732">
        <ele>219</ele>
        <time>2016-05-07T09:06:41Z</time>
      </trkpt>
      <trkpt lat="43.60808" lon="1.17734">
        <ele>219</ele>
        <time>2016-05-07T09:06:42Z</time>
      </trkpt>
      <trkpt lat="43.60809" lon="1.17739">
        <ele>219</ele>
        <time>2016-05-07T09:06:44Z</time>
      </trkpt>
      <trkpt lat="43.60809" lon="1.17743">
        <ele>219</ele>
        <time>2016-05-07T09:06:46Z</time>
      </trkpt>
      <trkpt lat="43.60808" lon="1.17749">
        <ele>219</ele>
        <time>2016-05-07T09:06:48Z</time>
      </trkpt>
      <trkpt lat="43.60809" lon="1.17754">
        <ele>219</ele>
        <time>2016-05-07T09:06:50Z</time>
      </trkpt>
      <trkpt lat="43.60809" lon="1.17756">
        <ele>219</ele>
        <time>2016-05-07T09:06:51Z</time>
      </trkpt>
      <trkpt lat="43.60811" lon="1.17759">
        <ele>219</ele>
        <time>2016-05-07T09:06:53Z</time>
      </trkpt>
      <trkpt lat="43.60812" lon="1.17761">
        <ele>219</ele>
        <time>2016-05-07T09:06:54Z</time>
      </trkpt>
      <trkpt lat="43.60817" lon="1.17763">
        <ele>219</ele>
        <time>2016-05-07T09:06:56Z</time>
      </trkpt>
      <trkpt lat="43.60818" lon="1.17766">
        <ele>219</ele>
        <time>2016-05-07T09:06:57Z</time>
      </trkpt>
      <trkpt lat="43.60821" lon="1.17771">
        <ele>219</ele>
        <time>2016-05-07T09:06:59Z</time>
      </trkpt>
      <trkpt lat="43.60823" lon="1.17775">
        <ele>219</ele>
        <time>2016-05-07T09:07:01Z</time>
      </trkpt>
      <trkpt lat="43.60825" lon="1.1778">
        <ele>219</ele>
        <time>2016-05-07T09:07:03Z</time>
      </trkpt>
      <trkpt lat="43.60827" lon="1.17784">
        <ele>219</ele>
        <time>2016-05-07T09:07:05Z</time>
      </trkpt>
      <trkpt lat="43.60828" lon="1.17788">
        <ele>218</ele>
        <time>2016-05-07T09:07:07Z</time>
      </trkpt>
      <trkpt lat="43.60828" lon="1.1779">
        <ele>218</ele>
        <time>2016-05-07T09:07:08Z</time>
      </trkpt>
      <trkpt lat="43.60829" lon="1.17792">
        <ele>218</ele>
        <time>2016-05-07T09:07:09Z</time>
      </trkpt>
      <trkpt lat="43.60829" lon="1.17797">
        <ele>218</ele>
        <time>2016-05-07T09:07:11Z</time>
      </trkpt>
      <trkpt lat="43.6083" lon="1.17801">
        <ele>218</ele>
        <time>2016-05-07T09:07:13Z</time>
      </trkpt>
      <trkpt lat="43.60831" lon="1.17804">
        <ele>218</ele>
        <time>2016-05-07T09:07:14Z</time>
      </trkpt>
      <trkpt lat="43.60832" lon="1.17806">
        <ele>218</ele>
        <time>2016-05-07T09:07:15Z</time>
      </trkpt>
      <trkpt lat="43.60832" lon="1.17808">
        <ele>218</ele>
        <time>2016-05-07T09:07:16Z</time>
      </trkpt>
      <trkpt lat="43.60835" lon="1.17815">
        <ele>217</ele>
        <time>2016-05-07T09:07:19Z</time>
      </trkpt>
      <trkpt lat="43.60835" lon="1.17819">
        <ele>217</ele>
        <time>2016-05-07T09:07:21Z</time>
      </trkpt>
      <trkpt lat="43.60835" lon="1.17821">
        <ele>217</ele>
        <time>2016-05-07T09:07:22Z</time>
      </trkpt>
      <trkpt lat="43.60836" lon="1.17825">
        <ele>217</ele>
        <time>2016-05-07T09:07:24Z</time>
      </trkpt>
      <trkpt lat="43.60838" lon="1.17828">
        <ele>217</ele>
        <time>2016-05-07T09:07:26Z</time>
      </trkpt>
      <trkpt lat="43.60841" lon="1.17828">
        <ele>217</ele>
        <time>2016-05-07T09:07:27Z</time>
      </trkpt>
      <trkpt lat="43.60844" lon="1.17833">
        <ele>216</ele>
        <time>2016-05-07T09:07:29Z</time>
      </trkpt>
      <trkpt lat="43.60847" lon="1.17836">
        <ele>216</ele>
        <time>2016-05-07T09:07:31Z</time>
      </trkpt>
      <trkpt lat="43.60849" lon="1.1784">
        <ele>216</ele>
        <time>2016-05-07T09:07:33Z</time>
      </trkpt>
      <trkpt lat="43.60851" lon="1.17843">
        <ele>216</ele>
        <time>2016-05-07T09:07:35Z</time>
      </trkpt>
      <trkpt lat="43.60853" lon="1.17847">
        <ele>216</ele>
        <time>2016-05-07T09:07:37Z</time>
      </trkpt>
      <trkpt lat="43.60854" lon="1.17848">
        <ele>216</ele>
        <time>2016-05-07T09:07:38Z</time>
      </trkpt>
      <trkpt lat="43.60855" lon="1.1785">
        <ele>216</ele>
        <time>2016-05-07T09:07:39Z</time>
      </trkpt>
      <trkpt lat="43.60857" lon="1.17854">
        <ele>216</ele>
        <time>2016-05-07T09:07:41Z</time>
      </trkpt>
      <trkpt lat="43.60858" lon="1.17857">
        <ele>216</ele>
        <time>2016-05-07T09:07:43Z</time>
      </trkpt>
      <trkpt lat="43.6086" lon="1.1786">
        <ele>216</ele>
        <time>2016-05-07T09:07:45Z</time>
      </trkpt>
      <trkpt lat="43.60872" lon="1.17869">
        <ele>215</ele>
        <time>2016-05-07T09:07:52Z</time>
      </trkpt>
      <trkpt lat="43.60873" lon="1.1787">
        <ele>215</ele>
        <time>2016-05-07T09:07:53Z</time>
      </trkpt>
      <trkpt lat="43.60876" lon="1.17873">
        <ele>215</ele>
        <time>2016-05-07T09:07:55Z</time>
      </trkpt>
      <trkpt lat="43.60877" lon="1.17874">
        <ele>215</ele>
        <time>2016-05-07T09:07:56Z</time>
      </trkpt>
      <trkpt lat="43.6088" lon="1.17878">
        <ele>215</ele>
        <time>2016-05-07T09:07:58Z</time>
      </trkpt>
      <trkpt lat="43.60885" lon="1.17879">
        <ele>215</ele>
        <time>2016-05-07T09:08:01Z</time>
      </trkpt>
      <trkpt lat="43.60888" lon="1.17883">
        <ele>215</ele>
        <time>2016-05-07T09:08:04Z</time>
      </trkpt>
      <trkpt lat="43.60898" lon="1.17888">
        <ele>215</ele>
        <time>2016-05-07T09:08:10Z</time>
      </trkpt>
      <trkpt lat="43.609" lon="1.1789">
        <ele>215</ele>
        <time>2016-05-07T09:08:12Z</time>
      </trkpt>
      <trkpt lat="43.60903" lon="1.1789">
        <ele>215</ele>
        <time>2016-05-07T09:08:14Z</time>
      </trkpt>
      <trkpt lat="43.60906" lon="1.17889">
        <ele>215</ele>
        <time>2016-05-07T09:08:16Z</time>
      </trkpt>
      <trkpt lat="43.60908" lon="1.17889">
        <ele>216</ele>
        <time>2016-05-07T09:08:18Z</time>
      </trkpt>
      <trkpt lat="43.60911" lon="1.17891">
        <ele>217</ele>
        <time>2016-05-07T09:08:21Z</time>
      </trkpt>
      <trkpt lat="43.60912" lon="1.1789">
        <ele>217</ele>
        <time>2016-05-07T09:08:22Z</time>
      </trkpt>
      <trkpt lat="43.60912" lon="1.17892">
        <ele>217</ele>
        <time>2016-05-07T09:08:24Z</time>
      </trkpt>
      <trkpt lat="43.6091" lon="1.17897">
        <ele>218</ele>
        <time>2016-05-07T09:08:26Z</time>
      </trkpt>
      <trkpt lat="43.6091" lon="1.17897">
        <ele>218</ele>
        <time>2016-05-07T09:08:27Z</time>
      </trkpt>
      <trkpt lat="43.6091" lon="1.17896">
        <ele>219</ele>
        <time>2016-05-07T09:08:31Z</time>
      </trkpt>
      <trkpt lat="43.6091" lon="1.17896">
        <ele>219</ele>
        <time>2016-05-07T09:08:52Z</time>
      </trkpt>
      <trkpt lat="43.6091" lon="1.17896">
        <ele>219</ele>
        <time>2016-05-07T09:08:53Z</time>
      </trkpt>
      <trkpt lat="43.60918" lon="1.1789">
        <ele>219</ele>
        <time>2016-05-07T09:09:04Z</time>
      </trkpt>
      <trkpt lat="43.60918" lon="1.1789">
        <ele>219</ele>
        <time>2016-05-07T09:09:05Z</time>
      </trkpt>
      <trkpt lat="43.60918" lon="1.17889">
        <ele>218</ele>
        <time>2016-05-07T09:09:06Z</time>
      </trkpt>
      <trkpt lat="43.60919" lon="1.17887">
        <ele>218</ele>
        <time>2016-05-07T09:09:08Z</time>
      </trkpt>
      <trkpt lat="43.6092" lon="1.17885">
        <ele>218</ele>
        <time>2016-05-07T09:09:10Z</time>
      </trkpt>
      <trkpt lat="43.60922" lon="1.17884">
        <ele>218</ele>
        <time>2016-05-07T09:09:12Z</time>
      </trkpt>
      <trkpt lat="43.60923" lon="1.17884">
        <ele>218</ele>
        <time>2016-05-07T09:09:14Z</time>
      </trkpt>
      <trkpt lat="43.60925" lon="1.17883">
        <ele>219</ele>
        <time>2016-05-07T09:09:16Z</time>
      </trkpt>
      <trkpt lat="43.60926" lon="1.17883">
        <ele>219</ele>
        <time>2016-05-07T09:09:17Z</time>
      </trkpt>
      <trkpt lat="43.60928" lon="1.17882">
        <ele>219</ele>
        <time>2016-05-07T09:09:19Z</time>
      </trkpt>
      <trkpt lat="43.60937" lon="1.17883">
        <ele>219</ele>
        <time>2016-05-07T09:09:24Z</time>
      </trkpt>
      <trkpt lat="43.60939" lon="1.17882">
        <ele>219</ele>
        <time>2016-05-07T09:09:25Z</time>
      </trkpt>
      <trkpt lat="43.60942" lon="1.17881">
        <ele>219</ele>
        <time>2016-05-07T09:09:27Z</time>
      </trkpt>
      <trkpt lat="43.60943" lon="1.17881">
        <ele>220</ele>
        <time>2016-05-07T09:09:28Z</time>
      </trkpt>
      <trkpt lat="43.60945" lon="1.1788">
        <ele>220</ele>
        <time>2016-05-07T09:09:30Z</time>
      </trkpt>
      <trkpt lat="43.60947" lon="1.17878">
        <ele>220</ele>
        <time>2016-05-07T09:09:32Z</time>
      </trkpt>
      <trkpt lat="43.60947" lon="1.17877">
        <ele>220</ele>
        <time>2016-05-07T09:09:33Z</time>
      </trkpt>
      <trkpt lat="43.6095" lon="1.17875">
        <ele>220</ele>
        <time>2016-05-07T09:09:35Z</time>
      </trkpt>
      <trkpt lat="43.60951" lon="1.17874">
        <ele>220</ele>
        <time>2016-05-07T09:09:36Z</time>
      </trkpt>
      <trkpt lat="43.60955" lon="1.17872">
        <ele>220</ele>
        <time>2016-05-07T09:09:39Z</time>
      </trkpt>
      <trkpt lat="43.60956" lon="1.17871">
        <ele>220</ele>
        <time>2016-05-07T09:09:40Z</time>
      </trkpt>
      <trkpt lat="43.60958" lon="1.17871">
        <ele>220</ele>
        <time>2016-05-07T09:09:42Z</time>
      </trkpt>
      <trkpt lat="43.60957" lon="1.17871">
        <ele>220</ele>
        <time>2016-05-07T09:09:44Z</time>
      </trkpt>
      <trkpt lat="43.60959" lon="1.17869">
        <ele>220</ele>
        <time>2016-05-07T09:09:46Z</time>
      </trkpt>
      <trkpt lat="43.6096" lon="1.17866">
        <ele>220</ele>
        <time>2016-05-07T09:09:48Z</time>
      </trkpt>
      <trkpt lat="43.60962" lon="1.17863">
        <ele>220</ele>
        <time>2016-05-07T09:09:50Z</time>
      </trkpt>
      <trkpt lat="43.60967" lon="1.17861">
        <ele>220</ele>
        <time>2016-05-07T09:09:52Z</time>
      </trkpt>
      <trkpt lat="43.60969" lon="1.17861">
        <ele>220</ele>
        <time>2016-05-07T09:09:53Z</time>
      </trkpt>
      <trkpt lat="43.60971" lon="1.17859">
        <ele>220</ele>
        <time>2016-05-07T09:09:54Z</time>
      </trkpt>
      <trkpt lat="43.60974" lon="1.17857">
        <ele>220</ele>
        <time>2016-05-07T09:09:56Z</time>
      </trkpt>
      <trkpt lat="43.60975" lon="1.17856">
        <ele>220</ele>
        <time>2016-05-07T09:09:57Z</time>
      </trkpt>
      <trkpt lat="43.60976" lon="1.17855">
        <ele>219</ele>
        <time>2016-05-07T09:09:58Z</time>
      </trkpt>
      <trkpt lat="43.6098" lon="1.17854">
        <ele>219</ele>
        <time>2016-05-07T09:10:00Z</time>
      </trkpt>
      <trkpt lat="43.60985" lon="1.17852">
        <ele>219</ele>
        <time>2016-05-07T09:10:03Z</time>
      </trkpt>
      <trkpt lat="43.60988" lon="1.17851">
        <ele>219</ele>
        <time>2016-05-07T09:10:04Z</time>
      </trkpt>
      <trkpt lat="43.60989" lon="1.17851">
        <ele>219</ele>
        <time>2016-05-07T09:10:06Z</time>
      </trkpt>
      <trkpt lat="43.60991" lon="1.1785">
        <ele>219</ele>
        <time>2016-05-07T09:10:07Z</time>
      </trkpt>
      <trkpt lat="43.60999" lon="1.17847">
        <ele>219</ele>
        <time>2016-05-07T09:10:12Z</time>
      </trkpt>
      <trkpt lat="43.61" lon="1.17847">
        <ele>219</ele>
        <time>2016-05-07T09:10:13Z</time>
      </trkpt>
      <trkpt lat="43.61002" lon="1.17846">
        <ele>219</ele>
        <time>2016-05-07T09:10:15Z</time>
      </trkpt>
      <trkpt lat="43.61004" lon="1.17845">
        <ele>219</ele>
        <time>2016-05-07T09:10:17Z</time>
      </trkpt>
      <trkpt lat="43.61005" lon="1.17843">
        <ele>219</ele>
        <time>2016-05-07T09:10:18Z</time>
      </trkpt>
      <trkpt lat="43.61007" lon="1.1784">
        <ele>219</ele>
        <time>2016-05-07T09:10:19Z</time>
      </trkpt>
      <trkpt lat="43.61012" lon="1.17837">
        <ele>219</ele>
        <time>2016-05-07T09:10:22Z</time>
      </trkpt>
      <trkpt lat="43.61013" lon="1.17834">
        <ele>219</ele>
        <time>2016-05-07T09:10:23Z</time>
      </trkpt>
      <trkpt lat="43.61015" lon="1.17832">
        <ele>218</ele>
        <time>2016-05-07T09:10:25Z</time>
      </trkpt>
      <trkpt lat="43.61016" lon="1.17831">
        <ele>218</ele>
        <time>2016-05-07T09:10:26Z</time>
      </trkpt>
      <trkpt lat="43.61017" lon="1.1783">
        <ele>218</ele>
        <time>2016-05-07T09:10:27Z</time>
      </trkpt>
      <trkpt lat="43.61018" lon="1.17828">
        <ele>218</ele>
        <time>2016-05-07T09:10:29Z</time>
      </trkpt>
      <trkpt lat="43.6102" lon="1.17827">
        <ele>218</ele>
        <time>2016-05-07T09:10:30Z</time>
      </trkpt>
      <trkpt lat="43.61022" lon="1.17824">
        <ele>218</ele>
        <time>2016-05-07T09:10:32Z</time>
      </trkpt>
      <trkpt lat="43.61024" lon="1.17823">
        <ele>218</ele>
        <time>2016-05-07T09:10:33Z</time>
      </trkpt>
      <trkpt lat="43.6103" lon="1.1782">
        <ele>218</ele>
        <time>2016-05-07T09:10:36Z</time>
      </trkpt>
      <trkpt lat="43.61033" lon="1.17818">
        <ele>218</ele>
        <time>2016-05-07T09:10:38Z</time>
      </trkpt>
      <trkpt lat="43.61044" lon="1.17814">
        <ele>217</ele>
        <time>2016-05-07T09:10:44Z</time>
      </trkpt>
      <trkpt lat="43.61046" lon="1.17814">
        <ele>217</ele>
        <time>2016-05-07T09:10:45Z</time>
      </trkpt>
      <trkpt lat="43.61047" lon="1.17813">
        <ele>217</ele>
        <time>2016-05-07T09:10:46Z</time>
      </trkpt>
      <trkpt lat="43.61051" lon="1.17812">
        <ele>217</ele>
        <time>2016-05-07T09:10:48Z</time>
      </trkpt>
      <trkpt lat="43.61063" lon="1.17808">
        <ele>216</ele>
        <time>2016-05-07T09:10:54Z</time>
      </trkpt>
      <trkpt lat="43.61065" lon="1.17807">
        <ele>216</ele>
        <time>2016-05-07T09:10:55Z</time>
      </trkpt>
      <trkpt lat="43.61068" lon="1.17805">
        <ele>216</ele>
        <time>2016-05-07T09:10:58Z</time>
      </trkpt>
      <trkpt lat="43.6107" lon="1.17804">
        <ele>216</ele>
        <time>2016-05-07T09:10:59Z</time>
      </trkpt>
      <trkpt lat="43.61074" lon="1.17803">
        <ele>216</ele>
        <time>2016-05-07T09:11:01Z</time>
      </trkpt>
      <trkpt lat="43.61075" lon="1.17803">
        <ele>215</ele>
        <time>2016-05-07T09:11:02Z</time>
      </trkpt>
      <trkpt lat="43.61077" lon="1.17802">
        <ele>215</ele>
        <time>2016-05-07T09:11:04Z</time>
      </trkpt>
      <trkpt lat="43.61082" lon="1.178">
        <ele>215</ele>
        <time>2016-05-07T09:11:06Z</time>
      </trkpt>
      <trkpt lat="43.61084" lon="1.17799">
        <ele>214</ele>
        <time>2016-05-07T09:11:07Z</time>
      </trkpt>
      <trkpt lat="43.61089" lon="1.17796">
        <ele>214</ele>
        <time>2016-05-07T09:11:11Z</time>
      </trkpt>
      <trkpt lat="43.61095" lon="1.17792">
        <ele>214</ele>
        <time>2016-05-07T09:11:14Z</time>
      </trkpt>
      <trkpt lat="43.61102" lon="1.17789">
        <ele>213</ele>
        <time>2016-05-07T09:11:18Z</time>
      </trkpt>
      <trkpt lat="43.61104" lon="1.17788">
        <ele>213</ele>
        <time>2016-05-07T09:11:20Z</time>
      </trkpt>
      <trkpt lat="43.61105" lon="1.17788">
        <ele>213</ele>
        <time>2016-05-07T09:11:21Z</time>
      </trkpt>
      <trkpt lat="43.61109" lon="1.17788">
        <ele>213</ele>
        <time>2016-05-07T09:11:23Z</time>
      </trkpt>
      <trkpt lat="43.61112" lon="1.17787">
        <ele>213</ele>
        <time>2016-05-07T09:11:25Z</time>
      </trkpt>
      <trkpt lat="43.61113" lon="1.17786">
        <ele>212</ele>
        <time>2016-05-07T09:11:26Z</time>
      </trkpt>
      <trkpt lat="43.61115" lon="1.17783">
        <ele>212</ele>
        <time>2016-05-07T09:11:28Z</time>
      </trkpt>
      <trkpt lat="43.61121" lon="1.17779">
        <ele>212</ele>
        <time>2016-05-07T09:11:32Z</time>
      </trkpt>
      <trkpt lat="43.61122" lon="1.17777">
        <ele>212</ele>
        <time>2016-05-07T09:11:33Z</time>
      </trkpt>
      <trkpt lat="43.61125" lon="1.17776">
        <ele>212</ele>
        <time>2016-05-07T09:11:35Z</time>
      </trkpt>
      <trkpt lat="43.6113" lon="1.17778">
        <ele>211</ele>
        <time>2016-05-07T09:11:38Z</time>
      </trkpt>
      <trkpt lat="43.61131" lon="1.17779">
        <ele>211</ele>
        <time>2016-05-07T09:11:39Z</time>
      </trkpt>
      <trkpt lat="43.61134" lon="1.17783">
        <ele>211</ele>
        <time>2016-05-07T09:11:41Z</time>
      </trkpt>
      <trkpt lat="43.6114" lon="1.17787">
        <ele>211</ele>
        <time>2016-05-07T09:11:44Z</time>
      </trkpt>
      <trkpt lat="43.61141" lon="1.17791">
        <ele>211</ele>
        <time>2016-05-07T09:11:46Z</time>
      </trkpt>
      <trkpt lat="43.61141" lon="1.17797">
        <ele>211</ele>
        <time>2016-05-07T09:11:48Z</time>
      </trkpt>
      <trkpt lat="43.61141" lon="1.17803">
        <ele>211</ele>
        <time>2016-05-07T09:11:50Z</time>
      </trkpt>
      <trkpt lat="43.61142" lon="1.17809">
        <ele>210</ele>
        <time>2016-05-07T09:11:52Z</time>
      </trkpt>
      <trkpt lat="43.61142" lon="1.17815">
        <ele>210</ele>
        <time>2016-05-07T09:11:54Z</time>
      </trkpt>
      <trkpt lat="43.61143" lon="1.17821">
        <ele>210</ele>
        <time>2016-05-07T09:11:56Z</time>
      </trkpt>
      <trkpt lat="43.61143" lon="1.17826">
        <ele>210</ele>
        <time>2016-05-07T09:11:58Z</time>
      </trkpt>
      <trkpt lat="43.61144" lon="1.17828">
        <ele>210</ele>
        <time>2016-05-07T09:11:59Z</time>
      </trkpt>
      <trkpt lat="43.61145" lon="1.17831">
        <ele>209</ele>
        <time>2016-05-07T09:12:01Z</time>
      </trkpt>
      <trkpt lat="43.61146" lon="1.17833">
        <ele>209</ele>
        <time>2016-05-07T09:12:02Z</time>
      </trkpt>
      <trkpt lat="43.61147" lon="1.17836">
        <ele>209</ele>
        <time>2016-05-07T09:12:04Z</time>
      </trkpt>
      <trkpt lat="43.61147" lon="1.1784">
        <ele>209</ele>
        <time>2016-05-07T09:12:06Z</time>
      </trkpt>
      <trkpt lat="43.6115" lon="1.17843">
        <ele>209</ele>
        <time>2016-05-07T09:12:08Z</time>
      </trkpt>
      <trkpt lat="43.6115" lon="1.17845">
        <ele>209</ele>
        <time>2016-05-07T09:12:09Z</time>
      </trkpt>
      <trkpt lat="43.61153" lon="1.17849">
        <ele>209</ele>
        <time>2016-05-07T09:12:11Z</time>
      </trkpt>
      <trkpt lat="43.61155" lon="1.17852">
        <ele>209</ele>
        <time>2016-05-07T09:12:13Z</time>
      </trkpt>
      <trkpt lat="43.61155" lon="1.17853">
        <ele>209</ele>
        <time>2016-05-07T09:12:14Z</time>
      </trkpt>
      <trkpt lat="43.61157" lon="1.17855">
        <ele>208</ele>
        <time>2016-05-07T09:12:16Z</time>
      </trkpt>
      <trkpt lat="43.61158" lon="1.17865">
        <ele>208</ele>
        <time>2016-05-07T09:12:18Z</time>
      </trkpt>
      <trkpt lat="43.6116" lon="1.17877">
        <ele>208</ele>
        <time>2016-05-07T09:12:21Z</time>
      </trkpt>
      <trkpt lat="43.61161" lon="1.17887">
        <ele>208</ele>
        <time>2016-05-07T09:12:26Z</time>
      </trkpt>
      <trkpt lat="43.61165" lon="1.17893">
        <ele>208</ele>
        <time>2016-05-07T09:12:31Z</time>
      </trkpt>
      <trkpt lat="43.61168" lon="1.17899">
        <ele>208</ele>
        <time>2016-05-07T09:12:35Z</time>
      </trkpt>
      <trkpt lat="43.6117" lon="1.17905">
        <ele>208</ele>
        <time>2016-05-07T09:12:37Z</time>
      </trkpt>
      <trkpt lat="43.61172" lon="1.17913">
        <ele>208</ele>
        <time>2016-05-07T09:12:40Z</time>
      </trkpt>
      <trkpt lat="43.61174" lon="1.17922">
        <ele>208</ele>
        <time>2016-05-07T09:12:44Z</time>
      </trkpt>
      <trkpt lat="43.61174" lon="1.1793">
        <ele>208</ele>
        <time>2016-05-07T09:12:47Z</time>
      </trkpt>
      <trkpt lat="43.61178" lon="1.17938">
        <ele>208</ele>
        <time>2016-05-07T09:12:51Z</time>
      </trkpt>
      <trkpt lat="43.61179" lon="1.17946">
        <ele>208</ele>
        <time>2016-05-07T09:12:55Z</time>
      </trkpt>
      <trkpt lat="43.61184" lon="1.17951">
        <ele>208</ele>
        <time>2016-05-07T09:12:58Z</time>
      </trkpt>
      <trkpt lat="43.61187" lon="1.1796">
        <ele>208</ele>
        <time>2016-05-07T09:13:03Z</time>
      </trkpt>
      <trkpt lat="43.61192" lon="1.17967">
        <ele>209</ele>
        <time>2016-05-07T09:13:06Z</time>
      </trkpt>
      <trkpt lat="43.61196" lon="1.17974">
        <ele>209</ele>
        <time>2016-05-07T09:13:09Z</time>
      </trkpt>
      <trkpt lat="43.61196" lon="1.17982">
        <ele>209</ele>
        <time>2016-05-07T09:13:12Z</time>
      </trkpt>
      <trkpt lat="43.61198" lon="1.17991">
        <ele>209</ele>
        <time>2016-05-07T09:13:16Z</time>
      </trkpt>
      <trkpt lat="43.612" lon="1.17998">
        <ele>209</ele>
        <time>2016-05-07T09:13:19Z</time>
      </trkpt>
      <trkpt lat="43.61202" lon="1.18004">
        <ele>209</ele>
        <time>2016-05-07T09:13:22Z</time>
      </trkpt>
      <trkpt lat="43.61203" lon="1.18008">
        <ele>209</ele>
        <time>2016-05-07T09:13:24Z</time>
      </trkpt>
      <trkpt lat="43.61205" lon="1.18016">
        <ele>209</ele>
        <time>2016-05-07T09:13:27Z</time>
      </trkpt>
      <trkpt lat="43.61207" lon="1.18023">
        <ele>208</ele>
        <time>2016-05-07T09:13:30Z</time>
      </trkpt>
      <trkpt lat="43.61209" lon="1.18031">
        <ele>208</ele>
        <time>2016-05-07T09:13:33Z</time>
      </trkpt>
      <trkpt lat="43.61211" lon="1.1804">
        <ele>208</ele>
        <time>2016-05-07T09:13:37Z</time>
      </trkpt>
      <trkpt lat="43.61212" lon="1.18047">
        <ele>208</ele>
        <time>2016-05-07T09:13:40Z</time>
      </trkpt>
      <trkpt lat="43.61213" lon="1.1805">
        <ele>208</ele>
        <time>2016-05-07T09:13:41Z</time>
      </trkpt>
      <trkpt lat="43.61216" lon="1.18055">
        <ele>208</ele>
        <time>2016-05-07T09:13:43Z</time>
      </trkpt>
      <trkpt lat="43.61217" lon="1.18059">
        <ele>208</ele>
        <time>2016-05-07T09:13:45Z</time>
      </trkpt>
      <trkpt lat="43.61222" lon="1.1807">
        <ele>208</ele>
        <time>2016-05-07T09:13:50Z</time>
      </trkpt>
      <trkpt lat="43.61225" lon="1.18073">
        <ele>208</ele>
        <time>2016-05-07T09:13:52Z</time>
      </trkpt>
      <trkpt lat="43.61225" lon="1.18081">
        <ele>208</ele>
        <time>2016-05-07T09:13:54Z</time>
      </trkpt>
      <trkpt lat="43.61227" lon="1.18087">
        <ele>207</ele>
        <time>2016-05-07T09:13:56Z</time>
      </trkpt>
      <trkpt lat="43.61228" lon="1.18089">
        <ele>207</ele>
        <time>2016-05-07T09:13:57Z</time>
      </trkpt>
      <trkpt lat="43.61229" lon="1.18096">
        <ele>207</ele>
        <time>2016-05-07T09:14:00Z</time>
      </trkpt>
      <trkpt lat="43.6123" lon="1.181">
        <ele>207</ele>
        <time>2016-05-07T09:14:02Z</time>
      </trkpt>
      <trkpt lat="43.6123" lon="1.18102">
        <ele>207</ele>
        <time>2016-05-07T09:14:03Z</time>
      </trkpt>
      <trkpt lat="43.61233" lon="1.18108">
        <ele>206</ele>
        <time>2016-05-07T09:14:05Z</time>
      </trkpt>
      <trkpt lat="43.61234" lon="1.18111">
        <ele>206</ele>
        <time>2016-05-07T09:14:06Z</time>
      </trkpt>
      <trkpt lat="43.61235" lon="1.18116">
        <ele>206</ele>
        <time>2016-05-07T09:14:08Z</time>
      </trkpt>
      <trkpt lat="43.6124" lon="1.18129">
        <ele>206</ele>
        <time>2016-05-07T09:14:14Z</time>
      </trkpt>
      <trkpt lat="43.61241" lon="1.18137">
        <ele>206</ele>
        <time>2016-05-07T09:14:16Z</time>
      </trkpt>
      <trkpt lat="43.61244" lon="1.18145">
        <ele>206</ele>
        <time>2016-05-07T09:14:20Z</time>
      </trkpt>
      <trkpt lat="43.61244" lon="1.18148">
        <ele>206</ele>
        <time>2016-05-07T09:14:21Z</time>
      </trkpt>
      <trkpt lat="43.61246" lon="1.18156">
        <ele>206</ele>
        <time>2016-05-07T09:14:24Z</time>
      </trkpt>
      <trkpt lat="43.61247" lon="1.18159">
        <ele>205</ele>
        <time>2016-05-07T09:14:26Z</time>
      </trkpt>
      <trkpt lat="43.61249" lon="1.18165">
        <ele>205</ele>
        <time>2016-05-07T09:14:29Z</time>
      </trkpt>
      <trkpt lat="43.61253" lon="1.18172">
        <ele>205</ele>
        <time>2016-05-07T09:14:33Z</time>
      </trkpt>
      <trkpt lat="43.61253" lon="1.18176">
        <ele>205</ele>
        <time>2016-05-07T09:14:35Z</time>
      </trkpt>
      <trkpt lat="43.61254" lon="1.1818">
        <ele>205</ele>
        <time>2016-05-07T09:14:37Z</time>
      </trkpt>
      <trkpt lat="43.61253" lon="1.18183">
        <ele>204</ele>
        <time>2016-05-07T09:14:38Z</time>
      </trkpt>
      <trkpt lat="43.61254" lon="1.18186">
        <ele>204</ele>
        <time>2016-05-07T09:14:42Z</time>
      </trkpt>
      <trkpt lat="43.61255" lon="1.18186">
        <ele>204</ele>
        <time>2016-05-07T09:14:45Z</time>
      </trkpt>
      <trkpt lat="43.61257" lon="1.18186">
        <ele>204</ele>
        <time>2016-05-07T09:14:47Z</time>
      </trkpt>
      <trkpt lat="43.6126" lon="1.18186">
        <ele>203</ele>
        <time>2016-05-07T09:14:50Z</time>
      </trkpt>
      <trkpt lat="43.6126" lon="1.18186">
        <ele>203</ele>
        <time>2016-05-07T09:14:51Z</time>
      </trkpt>
      <trkpt lat="43.61261" lon="1.18187">
        <ele>203</ele>
        <time>2016-05-07T09:14:55Z</time>
      </trkpt>
      <trkpt lat="43.61261" lon="1.18175">
        <ele>203</ele>
        <time>2016-05-07T09:15:19Z</time>
      </trkpt>
      <trkpt lat="43.6126" lon="1.18172">
        <ele>203</ele>
        <time>2016-05-07T09:15:21Z</time>
      </trkpt>
      <trkpt lat="43.61258" lon="1.1818">
        <ele>204</ele>
        <time>2016-05-07T09:15:32Z</time>
      </trkpt>
      <trkpt lat="43.61258" lon="1.1818">
        <ele>204</ele>
        <time>2016-05-07T09:15:34Z</time>
      </trkpt>
      <trkpt lat="43.61258" lon="1.1818">
        <ele>205</ele>
        <time>2016-05-07T09:15:36Z</time>
      </trkpt>
      <trkpt lat="43.61258" lon="1.1818">
        <ele>205</ele>
        <time>2016-05-07T09:15:58Z</time>
      </trkpt>
      <trkpt lat="43.61258" lon="1.1818">
        <ele>206</ele>
        <time>2016-05-07T09:16:00Z</time>
      </trkpt>
      <trkpt lat="43.61258" lon="1.1818">
        <ele>206</ele>
        <time>2016-05-07T09:16:16Z</time>
      </trkpt>
      <trkpt lat="43.61258" lon="1.1818">
        <ele>206</ele>
        <time>2016-05-07T09:16:18Z</time>
      </trkpt>
      <trkpt lat="43.61258" lon="1.1818">
        <ele>206</ele>
        <time>2016-05-07T09:16:33Z</time>
      </trkpt>
      <trkpt lat="43.61258" lon="1.1818">
        <ele>206</ele>
        <time>2016-05-07T09:16:35Z</time>
      </trkpt>
      <trkpt lat="43.61258" lon="1.1818">
        <ele>206</ele>
        <time>2016-05-07T09:16:49Z</time>
      </trkpt>
      <trkpt lat="43.61258" lon="1.1818">
        <ele>206</ele>
        <time>2016-05-07T09:16:50Z</time>
      </trkpt>
      <trkpt lat="43.61258" lon="1.1818">
        <ele>206</ele>
        <time>2016-05-07T09:17:06Z</time>
      </trkpt>
      <trkpt lat="43.61258" lon="1.1818">
        <ele>206</ele>
        <time>2016-05-07T09:17:07Z</time>
      </trkpt>
      <trkpt lat="43.61258" lon="1.1818">
        <ele>206</ele>
        <time>2016-05-07T09:17:24Z</time>
      </trkpt>
      <trkpt lat="43.61258" lon="1.1818">
        <ele>206</ele>
        <time>2016-05-07T09:17:25Z</time>
      </trkpt>
      <trkpt lat="43.61269" lon="1.18193">
        <ele>210</ele>
        <time>2016-05-07T09:18:30Z</time>
      </trkpt>
      <trkpt lat="43.61272" lon="1.18196">
        <ele>212</ele>
        <time>2016-05-07T09:18:32Z</time>
      </trkpt>
      <trkpt lat="43.61276" lon="1.18206">
        <ele>213</ele>
        <time>2016-05-07T09:18:35Z</time>
      </trkpt>
      <trkpt lat="43.61278" lon="1.1821">
        <ele>213</ele>
        <time>2016-05-07T09:18:37Z</time>
      </trkpt>
      <trkpt lat="43.61281" lon="1.18212">
        <ele>213</ele>
        <time>2016-05-07T09:18:39Z</time>
      </trkpt>
      <trkpt lat="43.61284" lon="1.18213">
        <ele>213</ele>
        <time>2016-05-07T09:18:40Z</time>
      </trkpt>
      <trkpt lat="43.61285" lon="1.18214">
        <ele>213</ele>
        <time>2016-05-07T09:18:41Z</time>
      </trkpt>
      <trkpt lat="43.61286" lon="1.18216">
        <ele>213</ele>
        <time>2016-05-07T09:18:43Z</time>
      </trkpt>
      <trkpt lat="43.61289" lon="1.18217">
        <ele>213</ele>
        <time>2016-05-07T09:18:45Z</time>
      </trkpt>
      <trkpt lat="43.61289" lon="1.18219">
        <ele>213</ele>
        <time>2016-05-07T09:18:46Z</time>
      </trkpt>
      <trkpt lat="43.61292" lon="1.18222">
        <ele>213</ele>
        <time>2016-05-07T09:18:48Z</time>
      </trkpt>
      <trkpt lat="43.61294" lon="1.18224">
        <ele>213</ele>
        <time>2016-05-07T09:18:50Z</time>
      </trkpt>
      <trkpt lat="43.61295" lon="1.18224">
        <ele>213</ele>
        <time>2016-05-07T09:18:51Z</time>
      </trkpt>
      <trkpt lat="43.61297" lon="1.18225">
        <ele>213</ele>
        <time>2016-05-07T09:18:52Z</time>
      </trkpt>
      <trkpt lat="43.61299" lon="1.18227">
        <ele>213</ele>
        <time>2016-05-07T09:18:54Z</time>
      </trkpt>
      <trkpt lat="43.613" lon="1.18228">
        <ele>213</ele>
        <time>2016-05-07T09:18:55Z</time>
      </trkpt>
      <trkpt lat="43.61304" lon="1.1823">
        <ele>213</ele>
        <time>2016-05-07T09:18:57Z</time>
      </trkpt>
      <trkpt lat="43.61306" lon="1.18231">
        <ele>213</ele>
        <time>2016-05-07T09:18:58Z</time>
      </trkpt>
      <trkpt lat="43.61307" lon="1.18232">
        <ele>213</ele>
        <time>2016-05-07T09:18:59Z</time>
      </trkpt>
      <trkpt lat="43.6131" lon="1.18233">
        <ele>213</ele>
        <time>2016-05-07T09:19:01Z</time>
      </trkpt>
      <trkpt lat="43.61311" lon="1.18233">
        <ele>213</ele>
        <time>2016-05-07T09:19:02Z</time>
      </trkpt>
      <trkpt lat="43.61318" lon="1.18235">
        <ele>213</ele>
        <time>2016-05-07T09:19:06Z</time>
      </trkpt>
      <trkpt lat="43.61319" lon="1.18236">
        <ele>213</ele>
        <time>2016-05-07T09:19:07Z</time>
      </trkpt>
      <trkpt lat="43.61322" lon="1.18238">
        <ele>213</ele>
        <time>2016-05-07T09:19:09Z</time>
      </trkpt>
      <trkpt lat="43.6133" lon="1.18239">
        <ele>213</ele>
        <time>2016-05-07T09:19:12Z</time>
      </trkpt>
      <trkpt lat="43.61334" lon="1.18239">
        <ele>213</ele>
        <time>2016-05-07T09:19:14Z</time>
      </trkpt>
      <trkpt lat="43.61337" lon="1.18239">
        <ele>213</ele>
        <time>2016-05-07T09:19:16Z</time>
      </trkpt>
      <trkpt lat="43.61341" lon="1.18239">
        <ele>213</ele>
        <time>2016-05-07T09:19:18Z</time>
      </trkpt>
      <trkpt lat="43.61342" lon="1.18238">
        <ele>213</ele>
        <time>2016-05-07T09:19:19Z</time>
      </trkpt>
      <trkpt lat="43.61345" lon="1.18238">
        <ele>212</ele>
        <time>2016-05-07T09:19:21Z</time>
      </trkpt>
      <trkpt lat="43.61347" lon="1.18236">
        <ele>212</ele>
        <time>2016-05-07T09:19:23Z</time>
      </trkpt>
      <trkpt lat="43.61353" lon="1.18234">
        <ele>211</ele>
        <time>2016-05-07T09:19:26Z</time>
      </trkpt>
      <trkpt lat="43.61358" lon="1.18233">
        <ele>211</ele>
        <time>2016-05-07T09:19:28Z</time>
      </trkpt>
      <trkpt lat="43.61363" lon="1.1823">
        <ele>210</ele>
        <time>2016-05-07T09:19:31Z</time>
      </trkpt>
      <trkpt lat="43.61364" lon="1.18229">
        <ele>209</ele>
        <time>2016-05-07T09:19:33Z</time>
      </trkpt>
      <trkpt lat="43.61372" lon="1.18226">
        <ele>209</ele>
        <time>2016-05-07T09:19:37Z</time>
      </trkpt>
      <trkpt lat="43.61377" lon="1.18224">
        <ele>209</ele>
        <time>2016-05-07T09:19:40Z</time>
      </trkpt>
      <trkpt lat="43.61382" lon="1.18223">
        <ele>208</ele>
        <time>2016-05-07T09:19:43Z</time>
      </trkpt>
      <trkpt lat="43.61389" lon="1.18223">
        <ele>208</ele>
        <time>2016-05-07T09:19:47Z</time>
      </trkpt>
      <trkpt lat="43.61391" lon="1.18222">
        <ele>208</ele>
        <time>2016-05-07T09:19:48Z</time>
      </trkpt>
      <trkpt lat="43.61393" lon="1.1822">
        <ele>208</ele>
        <time>2016-05-07T09:19:50Z</time>
      </trkpt>
      <trkpt lat="43.61396" lon="1.18219">
        <ele>207</ele>
        <time>2016-05-07T09:19:52Z</time>
      </trkpt>
      <trkpt lat="43.61402" lon="1.18213">
        <ele>207</ele>
        <time>2016-05-07T09:19:55Z</time>
      </trkpt>
      <trkpt lat="43.61403" lon="1.18212">
        <ele>206</ele>
        <time>2016-05-07T09:19:56Z</time>
      </trkpt>
      <trkpt lat="43.61417" lon="1.1821">
        <ele>205</ele>
        <time>2016-05-07T09:20:01Z</time>
      </trkpt>
      <trkpt lat="43.6142" lon="1.18209">
        <ele>205</ele>
        <time>2016-05-07T09:20:03Z</time>
      </trkpt>
      <trkpt lat="43.61421" lon="1.18208">
        <ele>204</ele>
        <time>2016-05-07T09:20:04Z</time>
      </trkpt>
      <trkpt lat="43.61423" lon="1.18208">
        <ele>204</ele>
        <time>2016-05-07T09:20:05Z</time>
      </trkpt>
      <trkpt lat="43.61425" lon="1.18206">
        <ele>203</ele>
        <time>2016-05-07T09:20:07Z</time>
      </trkpt>
      <trkpt lat="43.61428" lon="1.18204">
        <ele>203</ele>
        <time>2016-05-07T09:20:09Z</time>
      </trkpt>
      <trkpt lat="43.61432" lon="1.18203">
        <ele>203</ele>
        <time>2016-05-07T09:20:11Z</time>
      </trkpt>
      <trkpt lat="43.61433" lon="1.18202">
        <ele>202</ele>
        <time>2016-05-07T09:20:12Z</time>
      </trkpt>
      <trkpt lat="43.61436" lon="1.18201">
        <ele>202</ele>
        <time>2016-05-07T09:20:13Z</time>
      </trkpt>
      <trkpt lat="43.61439" lon="1.18201">
        <ele>202</ele>
        <time>2016-05-07T09:20:15Z</time>
      </trkpt>
      <trkpt lat="43.61442" lon="1.18202">
        <ele>202</ele>
        <time>2016-05-07T09:20:17Z</time>
      </trkpt>
      <trkpt lat="43.61443" lon="1.18202">
        <ele>201</ele>
        <time>2016-05-07T09:20:18Z</time>
      </trkpt>
      <trkpt lat="43.61447" lon="1.18201">
        <ele>201</ele>
        <time>2016-05-07T09:20:20Z</time>
      </trkpt>
      <trkpt lat="43.61448" lon="1.18201">
        <ele>201</ele>
        <time>2016-05-07T09:20:21Z</time>
      </trkpt>
      <trkpt lat="43.61455" lon="1.182">
        <ele>200</ele>
        <time>2016-05-07T09:20:25Z</time>
      </trkpt>
      <trkpt lat="43.61457" lon="1.18199">
        <ele>200</ele>
        <time>2016-05-07T09:20:27Z</time>
      </trkpt>
      <trkpt lat="43.61458" lon="1.18197">
        <ele>199</ele>
        <time>2016-05-07T09:20:28Z</time>
      </trkpt>
      <trkpt lat="43.61462" lon="1.18195">
        <ele>199</ele>
        <time>2016-05-07T09:20:30Z</time>
      </trkpt>
      <trkpt lat="43.61464" lon="1.18194">
        <ele>198</ele>
        <time>2016-05-07T09:20:32Z</time>
      </trkpt>
      <trkpt lat="43.61466" lon="1.18193">
        <ele>198</ele>
        <time>2016-05-07T09:20:34Z</time>
      </trkpt>
      <trkpt lat="43.6147" lon="1.18194">
        <ele>197</ele>
        <time>2016-05-07T09:20:37Z</time>
      </trkpt>
      <trkpt lat="43.61472" lon="1.18193">
        <ele>197</ele>
        <time>2016-05-07T09:20:39Z</time>
      </trkpt>
      <trkpt lat="43.61479" lon="1.18193">
        <ele>196</ele>
        <time>2016-05-07T09:20:42Z</time>
      </trkpt>
      <trkpt lat="43.61483" lon="1.18193">
        <ele>196</ele>
        <time>2016-05-07T09:20:44Z</time>
      </trkpt>
      <trkpt lat="43.61486" lon="1.18191">
        <ele>195</ele>
        <time>2016-05-07T09:20:46Z</time>
      </trkpt>
      <trkpt lat="43.61491" lon="1.1819">
        <ele>195</ele>
        <time>2016-05-07T09:20:49Z</time>
      </trkpt>
      <trkpt lat="43.61495" lon="1.18188">
        <ele>194</ele>
        <time>2016-05-07T09:20:51Z</time>
      </trkpt>
      <trkpt lat="43.61503" lon="1.18186">
        <ele>194</ele>
        <time>2016-05-07T09:20:54Z</time>
      </trkpt>
      <trkpt lat="43.6152" lon="1.18187">
        <ele>192</ele>
        <time>2016-05-07T09:21:01Z</time>
      </trkpt>
      <trkpt lat="43.61523" lon="1.18186">
        <ele>192</ele>
        <time>2016-05-07T09:21:03Z</time>
      </trkpt>
      <trkpt lat="43.61528" lon="1.18185">
        <ele>192</ele>
        <time>2016-05-07T09:21:06Z</time>
      </trkpt>
      <trkpt lat="43.6153" lon="1.18185">
        <ele>191</ele>
        <time>2016-05-07T09:21:07Z</time>
      </trkpt>
      <trkpt lat="43.61534" lon="1.18184">
        <ele>191</ele>
        <time>2016-05-07T09:21:09Z</time>
      </trkpt>
      <trkpt lat="43.61543" lon="1.18181">
        <ele>190</ele>
        <time>2016-05-07T09:21:14Z</time>
      </trkpt>
      <trkpt lat="43.61549" lon="1.18179">
        <ele>190</ele>
        <time>2016-05-07T09:21:17Z</time>
      </trkpt>
      <trkpt lat="43.61551" lon="1.18178">
        <ele>189</ele>
        <time>2016-05-07T09:21:18Z</time>
      </trkpt>
      <trkpt lat="43.61552" lon="1.18177">
        <ele>189</ele>
        <time>2016-05-07T09:21:19Z</time>
      </trkpt>
      <trkpt lat="43.61554" lon="1.18176">
        <ele>189</ele>
        <time>2016-05-07T09:21:21Z</time>
      </trkpt>
      <trkpt lat="43.61556" lon="1.18175">
        <ele>189</ele>
        <time>2016-05-07T09:21:22Z</time>
      </trkpt>
      <trkpt lat="43.61559" lon="1.18175">
        <ele>189</ele>
        <time>2016-05-07T09:21:24Z</time>
      </trkpt>
      <trkpt lat="43.61567" lon="1.18174">
        <ele>188</ele>
        <time>2016-05-07T09:21:27Z</time>
      </trkpt>
      <trkpt lat="43.6157" lon="1.18174">
        <ele>188</ele>
        <time>2016-05-07T09:21:28Z</time>
      </trkpt>
      <trkpt lat="43.61578" lon="1.18175">
        <ele>187</ele>
        <time>2016-05-07T09:21:31Z</time>
      </trkpt>
      <trkpt lat="43.61592" lon="1.18178">
        <ele>187</ele>
        <time>2016-05-07T09:21:38Z</time>
      </trkpt>
      <trkpt lat="43.61594" lon="1.1818">
        <ele>187</ele>
        <time>2016-05-07T09:21:40Z</time>
      </trkpt>
      <trkpt lat="43.61595" lon="1.18181">
        <ele>186</ele>
        <time>2016-05-07T09:21:41Z</time>
      </trkpt>
      <trkpt lat="43.61596" lon="1.18183">
        <ele>186</ele>
        <time>2016-05-07T09:21:42Z</time>
      </trkpt>
      <trkpt lat="43.61598" lon="1.18186">
        <ele>186</ele>
        <time>2016-05-07T09:21:44Z</time>
      </trkpt>
      <trkpt lat="43.61602" lon="1.18191">
        <ele>186</ele>
        <time>2016-05-07T09:21:46Z</time>
      </trkpt>
      <trkpt lat="43.61605" lon="1.18196">
        <ele>185</ele>
        <time>2016-05-07T09:21:48Z</time>
      </trkpt>
      <trkpt lat="43.61606" lon="1.182">
        <ele>185</ele>
        <time>2016-05-07T09:21:50Z</time>
      </trkpt>
      <trkpt lat="43.61607" lon="1.18202">
        <ele>184</ele>
        <time>2016-05-07T09:21:51Z</time>
      </trkpt>
      <trkpt lat="43.61609" lon="1.18203">
        <ele>184</ele>
        <time>2016-05-07T09:21:52Z</time>
      </trkpt>
      <trkpt lat="43.61612" lon="1.18204">
        <ele>183</ele>
        <time>2016-05-07T09:21:54Z</time>
      </trkpt>
      <trkpt lat="43.61612" lon="1.18204">
        <ele>183</ele>
        <time>2016-05-07T09:21:55Z</time>
      </trkpt>
      <trkpt lat="43.61616" lon="1.18206">
        <ele>182</ele>
        <time>2016-05-07T09:21:57Z</time>
      </trkpt>
      <trkpt lat="43.61619" lon="1.18207">
        <ele>182</ele>
        <time>2016-05-07T09:21:59Z</time>
      </trkpt>
      <trkpt lat="43.61623" lon="1.1821">
        <ele>181</ele>
        <time>2016-05-07T09:22:02Z</time>
      </trkpt>
      <trkpt lat="43.61624" lon="1.18211">
        <ele>181</ele>
        <time>2016-05-07T09:22:03Z</time>
      </trkpt>
      <trkpt lat="43.61626" lon="1.18211">
        <ele>181</ele>
        <time>2016-05-07T09:22:05Z</time>
      </trkpt>
      <trkpt lat="43.61628" lon="1.18212">
        <ele>180</ele>
        <time>2016-05-07T09:22:06Z</time>
      </trkpt>
      <trkpt lat="43.61628" lon="1.18213">
        <ele>180</ele>
        <time>2016-05-07T09:22:08Z</time>
      </trkpt>
      <trkpt lat="43.6163" lon="1.18213">
        <ele>180</ele>
        <time>2016-05-07T09:22:09Z</time>
      </trkpt>
      <trkpt lat="43.61631" lon="1.18213">
        <ele>180</ele>
        <time>2016-05-07T09:22:10Z</time>
      </trkpt>
      <trkpt lat="43.61634" lon="1.18212">
        <ele>181</ele>
        <time>2016-05-07T09:22:12Z</time>
      </trkpt>
      <trkpt lat="43.61637" lon="1.1821">
        <ele>181</ele>
        <time>2016-05-07T09:22:14Z</time>
      </trkpt>
      <trkpt lat="43.61645" lon="1.18208">
        <ele>180</ele>
        <time>2016-05-07T09:22:17Z</time>
      </trkpt>
      <trkpt lat="43.61649" lon="1.18208">
        <ele>180</ele>
        <time>2016-05-07T09:22:19Z</time>
      </trkpt>
      <trkpt lat="43.61651" lon="1.18208">
        <ele>179</ele>
        <time>2016-05-07T09:22:20Z</time>
      </trkpt>
      <trkpt lat="43.61664" lon="1.1821">
        <ele>178</ele>
        <time>2016-05-07T09:22:26Z</time>
      </trkpt>
      <trkpt lat="43.61668" lon="1.18212">
        <ele>177</ele>
        <time>2016-05-07T09:22:28Z</time>
      </trkpt>
      <trkpt lat="43.61669" lon="1.18214">
        <ele>177</ele>
        <time>2016-05-07T09:22:29Z</time>
      </trkpt>
      <trkpt lat="43.6167" lon="1.18215">
        <ele>177</ele>
        <time>2016-05-07T09:22:30Z</time>
      </trkpt>
      <trkpt lat="43.61673" lon="1.18218">
        <ele>176</ele>
        <time>2016-05-07T09:22:32Z</time>
      </trkpt>
      <trkpt lat="43.61675" lon="1.1822">
        <ele>176</ele>
        <time>2016-05-07T09:22:34Z</time>
      </trkpt>
      <trkpt lat="43.61675" lon="1.18221">
        <ele>176</ele>
        <time>2016-05-07T09:22:35Z</time>
      </trkpt>
      <trkpt lat="43.61677" lon="1.18223">
        <ele>176</ele>
        <time>2016-05-07T09:22:36Z</time>
      </trkpt>
      <trkpt lat="43.61683" lon="1.18226">
        <ele>175</ele>
        <time>2016-05-07T09:22:38Z</time>
      </trkpt>
      <trkpt lat="43.61688" lon="1.18232">
        <ele>175</ele>
        <time>2016-05-07T09:22:41Z</time>
      </trkpt>
      <trkpt lat="43.61691" lon="1.18237">
        <ele>175</ele>
        <time>2016-05-07T09:22:43Z</time>
      </trkpt>
      <trkpt lat="43.61694" lon="1.1824">
        <ele>175</ele>
        <time>2016-05-07T09:22:45Z</time>
      </trkpt>
      <trkpt lat="43.61696" lon="1.18242">
        <ele>175</ele>
        <time>2016-05-07T09:22:46Z</time>
      </trkpt>
      <trkpt lat="43.61699" lon="1.18248">
        <ele>175</ele>
        <time>2016-05-07T09:22:48Z</time>
      </trkpt>
      <trkpt lat="43.617" lon="1.18253">
        <ele>175</ele>
        <time>2016-05-07T09:22:50Z</time>
      </trkpt>
      <trkpt lat="43.61697" lon="1.18261">
        <ele>175</ele>
        <time>2016-05-07T09:22:52Z</time>
      </trkpt>
      <trkpt lat="43.61697" lon="1.18267">
        <ele>175</ele>
        <time>2016-05-07T09:22:54Z</time>
      </trkpt>
      <trkpt lat="43.61697" lon="1.18273">
        <ele>175</ele>
        <time>2016-05-07T09:22:56Z</time>
      </trkpt>
      <trkpt lat="43.61697" lon="1.18275">
        <ele>175</ele>
        <time>2016-05-07T09:22:57Z</time>
      </trkpt>
      <trkpt lat="43.61697" lon="1.18281">
        <ele>175</ele>
        <time>2016-05-07T09:22:59Z</time>
      </trkpt>
      <trkpt lat="43.61697" lon="1.18282">
        <ele>174</ele>
        <time>2016-05-07T09:23:00Z</time>
      </trkpt>
      <trkpt lat="43.61697" lon="1.18287">
        <ele>174</ele>
        <time>2016-05-07T09:23:02Z</time>
      </trkpt>
      <trkpt lat="43.61697" lon="1.1829">
        <ele>174</ele>
        <time>2016-05-07T09:23:04Z</time>
      </trkpt>
      <trkpt lat="43.61699" lon="1.18293">
        <ele>174</ele>
        <time>2016-05-07T09:23:06Z</time>
      </trkpt>
      <trkpt lat="43.617" lon="1.18294">
        <ele>173</ele>
        <time>2016-05-07T09:23:07Z</time>
      </trkpt>
      <trkpt lat="43.61702" lon="1.18298">
        <ele>173</ele>
        <time>2016-05-07T09:23:09Z</time>
      </trkpt>
      <trkpt lat="43.61703" lon="1.18299">
        <ele>173</ele>
        <time>2016-05-07T09:23:10Z</time>
      </trkpt>
      <trkpt lat="43.61704" lon="1.18301">
        <ele>173</ele>
        <time>2016-05-07T09:23:11Z</time>
      </trkpt>
      <trkpt lat="43.61706" lon="1.18304">
        <ele>173</ele>
        <time>2016-05-07T09:23:13Z</time>
      </trkpt>
      <trkpt lat="43.61707" lon="1.18306">
        <ele>173</ele>
        <time>2016-05-07T09:23:14Z</time>
      </trkpt>
      <trkpt lat="43.61708" lon="1.18308">
        <ele>173</ele>
        <time>2016-05-07T09:23:16Z</time>
      </trkpt>
      <trkpt lat="43.61706" lon="1.18313">
        <ele>173</ele>
        <time>2016-05-07T09:23:17Z</time>
      </trkpt>
      <trkpt lat="43.61708" lon="1.18317">
        <ele>173</ele>
        <time>2016-05-07T09:23:19Z</time>
      </trkpt>
      <trkpt lat="43.61708" lon="1.18319">
        <ele>173</ele>
        <time>2016-05-07T09:23:20Z</time>
      </trkpt>
      <trkpt lat="43.61709" lon="1.18321">
        <ele>172</ele>
        <time>2016-05-07T09:23:21Z</time>
      </trkpt>
      <trkpt lat="43.61711" lon="1.18325">
        <ele>172</ele>
        <time>2016-05-07T09:23:23Z</time>
      </trkpt>
      <trkpt lat="43.61712" lon="1.18327">
        <ele>172</ele>
        <time>2016-05-07T09:23:24Z</time>
      </trkpt>
      <trkpt lat="43.61712" lon="1.18328">
        <ele>172</ele>
        <time>2016-05-07T09:23:25Z</time>
      </trkpt>
      <trkpt lat="43.61713" lon="1.18331">
        <ele>172</ele>
        <time>2016-05-07T09:23:27Z</time>
      </trkpt>
      <trkpt lat="43.61715" lon="1.18333">
        <ele>171</ele>
        <time>2016-05-07T09:23:29Z</time>
      </trkpt>
      <trkpt lat="43.61717" lon="1.18335">
        <ele>171</ele>
        <time>2016-05-07T09:23:31Z</time>
      </trkpt>
      <trkpt lat="43.61719" lon="1.18337">
        <ele>171</ele>
        <time>2016-05-07T09:23:33Z</time>
      </trkpt>
      <trkpt lat="43.6172" lon="1.18339">
        <ele>171</ele>
        <time>2016-05-07T09:23:35Z</time>
      </trkpt>
      <trkpt lat="43.61721" lon="1.18346">
        <ele>171</ele>
        <time>2016-05-07T09:23:37Z</time>
      </trkpt>
      <trkpt lat="43.61722" lon="1.18351">
        <ele>170</ele>
        <time>2016-05-07T09:23:39Z</time>
      </trkpt>
      <trkpt lat="43.61733" lon="1.18359">
        <ele>170</ele>
        <time>2016-05-07T09:23:45Z</time>
      </trkpt>
      <trkpt lat="43.61734" lon="1.18361">
        <ele>170</ele>
        <time>2016-05-07T09:23:47Z</time>
      </trkpt>
      <trkpt lat="43.61741" lon="1.18367">
        <ele>169</ele>
        <time>2016-05-07T09:23:51Z</time>
      </trkpt>
      <trkpt lat="43.61744" lon="1.18368">
        <ele>169</ele>
        <time>2016-05-07T09:23:53Z</time>
      </trkpt>
      <trkpt lat="43.61746" lon="1.18371">
        <ele>169</ele>
        <time>2016-05-07T09:23:55Z</time>
      </trkpt>
      <trkpt lat="43.61747" lon="1.18373">
        <ele>169</ele>
        <time>2016-05-07T09:23:56Z</time>
      </trkpt>
      <trkpt lat="43.61748" lon="1.18378">
        <ele>169</ele>
        <time>2016-05-07T09:23:58Z</time>
      </trkpt>
      <trkpt lat="43.61749" lon="1.18379">
        <ele>169</ele>
        <time>2016-05-07T09:23:59Z</time>
      </trkpt>
      <trkpt lat="43.61749" lon="1.18384">
        <ele>169</ele>
        <time>2016-05-07T09:24:01Z</time>
      </trkpt>
      <trkpt lat="43.61749" lon="1.18387">
        <ele>169</ele>
        <time>2016-05-07T09:24:02Z</time>
      </trkpt>
      <trkpt lat="43.61747" lon="1.18393">
        <ele>168</ele>
        <time>2016-05-07T09:24:04Z</time>
      </trkpt>
      <trkpt lat="43.61747" lon="1.18395">
        <ele>168</ele>
        <time>2016-05-07T09:24:05Z</time>
      </trkpt>
      <trkpt lat="43.61749" lon="1.18399">
        <ele>168</ele>
        <time>2016-05-07T09:24:07Z</time>
      </trkpt>
      <trkpt lat="43.6175" lon="1.18401">
        <ele>168</ele>
        <time>2016-05-07T09:24:08Z</time>
      </trkpt>
      <trkpt lat="43.61751" lon="1.18405">
        <ele>168</ele>
        <time>2016-05-07T09:24:10Z</time>
      </trkpt>
      <trkpt lat="43.61752" lon="1.18406">
        <ele>168</ele>
        <time>2016-05-07T09:24:12Z</time>
      </trkpt>
      <trkpt lat="43.61752" lon="1.1841">
        <ele>168</ele>
        <time>2016-05-07T09:24:14Z</time>
      </trkpt>
      <trkpt lat="43.61755" lon="1.18411">
        <ele>168</ele>
        <time>2016-05-07T09:24:15Z</time>
      </trkpt>
      <trkpt lat="43.61759" lon="1.18415">
        <ele>169</ele>
        <time>2016-05-07T09:24:18Z</time>
      </trkpt>
      <trkpt lat="43.6176" lon="1.18417">
        <ele>169</ele>
        <time>2016-05-07T09:24:19Z</time>
      </trkpt>
      <trkpt lat="43.61762" lon="1.18418">
        <ele>169</ele>
        <time>2016-05-07T09:24:21Z</time>
      </trkpt>
      <trkpt lat="43.61763" lon="1.18418">
        <ele>169</ele>
        <time>2016-05-07T09:24:22Z</time>
      </trkpt>
      <trkpt lat="43.61766" lon="1.18419">
        <ele>169</ele>
        <time>2016-05-07T09:24:24Z</time>
      </trkpt>
      <trkpt lat="43.61767" lon="1.1842">
        <ele>169</ele>
        <time>2016-05-07T09:24:25Z</time>
      </trkpt>
      <trkpt lat="43.61776" lon="1.18424">
        <ele>168</ele>
        <time>2016-05-07T09:24:31Z</time>
      </trkpt>
      <trkpt lat="43.61778" lon="1.18425">
        <ele>168</ele>
        <time>2016-05-07T09:24:32Z</time>
      </trkpt>
      <trkpt lat="43.61779" lon="1.18426">
        <ele>168</ele>
        <time>2016-05-07T09:24:33Z</time>
      </trkpt>
      <trkpt lat="43.61783" lon="1.18428">
        <ele>168</ele>
        <time>2016-05-07T09:24:35Z</time>
      </trkpt>
      <trkpt lat="43.61784" lon="1.18429">
        <ele>168</ele>
        <time>2016-05-07T09:24:36Z</time>
      </trkpt>
      <trkpt lat="43.61784" lon="1.18433">
        <ele>168</ele>
        <time>2016-05-07T09:24:38Z</time>
      </trkpt>
      <trkpt lat="43.61786" lon="1.18435">
        <ele>168</ele>
        <time>2016-05-07T09:24:40Z</time>
      </trkpt>
      <trkpt lat="43.61796" lon="1.18447">
        <ele>168</ele>
        <time>2016-05-07T09:24:45Z</time>
      </trkpt>
      <trkpt lat="43.61801" lon="1.18455">
        <ele>169</ele>
        <time>2016-05-07T09:24:47Z</time>
      </trkpt>
      <trkpt lat="43.61807" lon="1.18462">
        <ele>169</ele>
        <time>2016-05-07T09:24:51Z</time>
      </trkpt>
      <trkpt lat="43.61809" lon="1.18464">
        <ele>169</ele>
        <time>2016-05-07T09:24:53Z</time>
      </trkpt>
      <trkpt lat="43.61813" lon="1.18467">
        <ele>169</ele>
        <time>2016-05-07T09:24:56Z</time>
      </trkpt>
      <trkpt lat="43.61817" lon="1.18469">
        <ele>169</ele>
        <time>2016-05-07T09:24:58Z</time>
      </trkpt>
      <trkpt lat="43.61819" lon="1.18471">
        <ele>168</ele>
        <time>2016-05-07T09:24:59Z</time>
      </trkpt>
      <trkpt lat="43.6182" lon="1.18475">
        <ele>168</ele>
        <time>2016-05-07T09:25:01Z</time>
      </trkpt>
      <trkpt lat="43.61827" lon="1.18479">
        <ele>168</ele>
        <time>2016-05-07T09:25:04Z</time>
      </trkpt>
      <trkpt lat="43.61828" lon="1.18486">
        <ele>168</ele>
        <time>2016-05-07T09:25:06Z</time>
      </trkpt>
      <trkpt lat="43.61829" lon="1.18491">
        <ele>168</ele>
        <time>2016-05-07T09:25:08Z</time>
      </trkpt>
      <trkpt lat="43.61829" lon="1.18493">
        <ele>168</ele>
        <time>2016-05-07T09:25:09Z</time>
      </trkpt>
      <trkpt lat="43.61829" lon="1.18499">
        <ele>168</ele>
        <time>2016-05-07T09:25:11Z</time>
      </trkpt>
      <trkpt lat="43.6183" lon="1.18503">
        <ele>168</ele>
        <time>2016-05-07T09:25:13Z</time>
      </trkpt>
      <trkpt lat="43.61831" lon="1.18506">
        <ele>168</ele>
        <time>2016-05-07T09:25:14Z</time>
      </trkpt>
      <trkpt lat="43.61829" lon="1.18511">
        <ele>169</ele>
        <time>2016-05-07T09:25:16Z</time>
      </trkpt>
      <trkpt lat="43.6183" lon="1.18513">
        <ele>169</ele>
        <time>2016-05-07T09:25:17Z</time>
      </trkpt>
      <trkpt lat="43.61837" lon="1.18518">
        <ele>169</ele>
        <time>2016-05-07T09:25:21Z</time>
      </trkpt>
      <trkpt lat="43.61837" lon="1.18519">
        <ele>169</ele>
        <time>2016-05-07T09:25:23Z</time>
      </trkpt>
      <trkpt lat="43.61838" lon="1.18519">
        <ele>169</ele>
        <time>2016-05-07T09:25:24Z</time>
      </trkpt>
      <trkpt lat="43.6184" lon="1.18521">
        <ele>169</ele>
        <time>2016-05-07T09:25:26Z</time>
      </trkpt>
      <trkpt lat="43.6184" lon="1.18523">
        <ele>169</ele>
        <time>2016-05-07T09:25:27Z</time>
      </trkpt>
      <trkpt lat="43.61842" lon="1.18526">
        <ele>169</ele>
        <time>2016-05-07T09:25:29Z</time>
      </trkpt>
      <trkpt lat="43.61842" lon="1.18529">
        <ele>169</ele>
        <time>2016-05-07T09:25:30Z</time>
      </trkpt>
      <trkpt lat="43.61844" lon="1.18531">
        <ele>168</ele>
        <time>2016-05-07T09:25:32Z</time>
      </trkpt>
      <trkpt lat="43.61844" lon="1.18533">
        <ele>168</ele>
        <time>2016-05-07T09:25:33Z</time>
      </trkpt>
      <trkpt lat="43.61844" lon="1.18534">
        <ele>168</ele>
        <time>2016-05-07T09:25:34Z</time>
      </trkpt>
      <trkpt lat="43.61844" lon="1.18537">
        <ele>168</ele>
        <time>2016-05-07T09:25:36Z</time>
      </trkpt>
      <trkpt lat="43.61845" lon="1.1854">
        <ele>168</ele>
        <time>2016-05-07T09:25:37Z</time>
      </trkpt>
      <trkpt lat="43.61848" lon="1.1854">
        <ele>168</ele>
        <time>2016-05-07T09:25:38Z</time>
      </trkpt>
      <trkpt lat="43.6185" lon="1.18541">
        <ele>168</ele>
        <time>2016-05-07T09:25:40Z</time>
      </trkpt>
      <trkpt lat="43.61852" lon="1.18541">
        <ele>168</ele>
        <time>2016-05-07T09:25:41Z</time>
      </trkpt>
      <trkpt lat="43.61856" lon="1.18543">
        <ele>168</ele>
        <time>2016-05-07T09:25:43Z</time>
      </trkpt>
      <trkpt lat="43.61865" lon="1.18553">
        <ele>168</ele>
        <time>2016-05-07T09:25:48Z</time>
      </trkpt>
      <trkpt lat="43.61868" lon="1.18556">
        <ele>168</ele>
        <time>2016-05-07T09:25:50Z</time>
      </trkpt>
      <trkpt lat="43.61869" lon="1.1856">
        <ele>168</ele>
        <time>2016-05-07T09:25:52Z</time>
      </trkpt>
      <trkpt lat="43.61871" lon="1.18562">
        <ele>168</ele>
        <time>2016-05-07T09:25:53Z</time>
      </trkpt>
      <trkpt lat="43.61871" lon="1.18563">
        <ele>168</ele>
        <time>2016-05-07T09:25:54Z</time>
      </trkpt>
      <trkpt lat="43.61873" lon="1.18567">
        <ele>168</ele>
        <time>2016-05-07T09:25:56Z</time>
      </trkpt>
      <trkpt lat="43.61875" lon="1.1857">
        <ele>168</ele>
        <time>2016-05-07T09:25:58Z</time>
      </trkpt>
      <trkpt lat="43.61878" lon="1.18573">
        <ele>168</ele>
        <time>2016-05-07T09:26:00Z</time>
      </trkpt>
      <trkpt lat="43.61878" lon="1.18576">
        <ele>168</ele>
        <time>2016-05-07T09:26:01Z</time>
      </trkpt>
      <trkpt lat="43.61881" lon="1.1858">
        <ele>168</ele>
        <time>2016-05-07T09:26:03Z</time>
      </trkpt>
      <trkpt lat="43.61881" lon="1.18581">
        <ele>168</ele>
        <time>2016-05-07T09:26:04Z</time>
      </trkpt>
      <trkpt lat="43.61882" lon="1.18582">
        <ele>168</ele>
        <time>2016-05-07T09:26:05Z</time>
      </trkpt>
      <trkpt lat="43.61883" lon="1.18586">
        <ele>168</ele>
        <time>2016-05-07T09:26:07Z</time>
      </trkpt>
      <trkpt lat="43.61884" lon="1.1859">
        <ele>168</ele>
        <time>2016-05-07T09:26:09Z</time>
      </trkpt>
      <trkpt lat="43.61882" lon="1.18593">
        <ele>168</ele>
        <time>2016-05-07T09:26:10Z</time>
      </trkpt>
      <trkpt lat="43.61882" lon="1.18598">
        <ele>168</ele>
        <time>2016-05-07T09:26:12Z</time>
      </trkpt>
      <trkpt lat="43.61883" lon="1.18603">
        <ele>168</ele>
        <time>2016-05-07T09:26:14Z</time>
      </trkpt>
      <trkpt lat="43.61882" lon="1.18607">
        <ele>168</ele>
        <time>2016-05-07T09:26:16Z</time>
      </trkpt>
      <trkpt lat="43.61884" lon="1.18609">
        <ele>168</ele>
        <time>2016-05-07T09:26:17Z</time>
      </trkpt>
      <trkpt lat="43.61886" lon="1.18612">
        <ele>168</ele>
        <time>2016-05-07T09:26:18Z</time>
      </trkpt>
      <trkpt lat="43.61888" lon="1.18617">
        <ele>167</ele>
        <time>2016-05-07T09:26:20Z</time>
      </trkpt>
      <trkpt lat="43.61888" lon="1.1862">
        <ele>167</ele>
        <time>2016-05-07T09:26:21Z</time>
      </trkpt>
      <trkpt lat="43.61889" lon="1.18623">
        <ele>167</ele>
        <time>2016-05-07T09:26:22Z</time>
      </trkpt>
      <trkpt lat="43.61889" lon="1.18626">
        <ele>167</ele>
        <time>2016-05-07T09:26:24Z</time>
      </trkpt>
      <trkpt lat="43.61891" lon="1.18629">
        <ele>167</ele>
        <time>2016-05-07T09:26:26Z</time>
      </trkpt>
      <trkpt lat="43.61892" lon="1.18632">
        <ele>167</ele>
        <time>2016-05-07T09:26:27Z</time>
      </trkpt>
      <trkpt lat="43.61893" lon="1.18636">
        <ele>167</ele>
        <time>2016-05-07T09:26:29Z</time>
      </trkpt>
      <trkpt lat="43.61896" lon="1.18644">
        <ele>167</ele>
        <time>2016-05-07T09:26:32Z</time>
      </trkpt>
      <trkpt lat="43.61897" lon="1.18646">
        <ele>167</ele>
        <time>2016-05-07T09:26:33Z</time>
      </trkpt>
      <trkpt lat="43.61899" lon="1.1865">
        <ele>167</ele>
        <time>2016-05-07T09:26:35Z</time>
      </trkpt>
      <trkpt lat="43.61899" lon="1.18653">
        <ele>168</ele>
        <time>2016-05-07T09:26:36Z</time>
      </trkpt>
      <trkpt lat="43.61899" lon="1.18655">
        <ele>168</ele>
        <time>2016-05-07T09:26:38Z</time>
      </trkpt>
      <trkpt lat="43.619" lon="1.1866">
        <ele>169</ele>
        <time>2016-05-07T09:26:41Z</time>
      </trkpt>
      <trkpt lat="43.619" lon="1.18662">
        <ele>169</ele>
        <time>2016-05-07T09:26:42Z</time>
      </trkpt>
      <trkpt lat="43.619" lon="1.18667">
        <ele>169</ele>
        <time>2016-05-07T09:26:44Z</time>
      </trkpt>
      <trkpt lat="43.619" lon="1.18669">
        <ele>170</ele>
        <time>2016-05-07T09:26:45Z</time>
      </trkpt>
      <trkpt lat="43.619" lon="1.18672">
        <ele>170</ele>
        <time>2016-05-07T09:26:46Z</time>
      </trkpt>
      <trkpt lat="43.619" lon="1.18677">
        <ele>170</ele>
        <time>2016-05-07T09:26:48Z</time>
      </trkpt>
      <trkpt lat="43.61898" lon="1.1868">
        <ele>170</ele>
        <time>2016-05-07T09:26:49Z</time>
      </trkpt>
      <trkpt lat="43.61897" lon="1.18685">
        <ele>170</ele>
        <time>2016-05-07T09:26:51Z</time>
      </trkpt>
      <trkpt lat="43.61902" lon="1.1869">
        <ele>170</ele>
        <time>2016-05-07T09:26:53Z</time>
      </trkpt>
      <trkpt lat="43.61901" lon="1.18694">
        <ele>170</ele>
        <time>2016-05-07T09:26:54Z</time>
      </trkpt>
      <trkpt lat="43.61898" lon="1.18697">
        <ele>170</ele>
        <time>2016-05-07T09:26:56Z</time>
      </trkpt>
      <trkpt lat="43.61896" lon="1.18698">
        <ele>170</ele>
        <time>2016-05-07T09:26:57Z</time>
      </trkpt>
      <trkpt lat="43.61894" lon="1.18699">
        <ele>170</ele>
        <time>2016-05-07T09:26:58Z</time>
      </trkpt>
      <trkpt lat="43.6189" lon="1.18704">
        <ele>170</ele>
        <time>2016-05-07T09:27:00Z</time>
      </trkpt>
      <trkpt lat="43.61887" lon="1.18708">
        <ele>170</ele>
        <time>2016-05-07T09:27:02Z</time>
      </trkpt>
      <trkpt lat="43.61885" lon="1.18712">
        <ele>170</ele>
        <time>2016-05-07T09:27:04Z</time>
      </trkpt>
      <trkpt lat="43.61882" lon="1.18717">
        <ele>170</ele>
        <time>2016-05-07T09:27:06Z</time>
      </trkpt>
      <trkpt lat="43.6188" lon="1.18722">
        <ele>170</ele>
        <time>2016-05-07T09:27:08Z</time>
      </trkpt>
      <trkpt lat="43.61878" lon="1.18725">
        <ele>170</ele>
        <time>2016-05-07T09:27:10Z</time>
      </trkpt>
      <trkpt lat="43.61878" lon="1.18726">
        <ele>170</ele>
        <time>2016-05-07T09:27:11Z</time>
      </trkpt>
      <trkpt lat="43.61877" lon="1.1873">
        <ele>170</ele>
        <time>2016-05-07T09:27:13Z</time>
      </trkpt>
      <trkpt lat="43.61877" lon="1.18732">
        <ele>170</ele>
        <time>2016-05-07T09:27:14Z</time>
      </trkpt>
      <trkpt lat="43.61877" lon="1.18736">
        <ele>171</ele>
        <time>2016-05-07T09:27:16Z</time>
      </trkpt>
      <trkpt lat="43.61877" lon="1.1874">
        <ele>171</ele>
        <time>2016-05-07T09:27:18Z</time>
      </trkpt>
      <trkpt lat="43.61876" lon="1.18745">
        <ele>171</ele>
        <time>2016-05-07T09:27:20Z</time>
      </trkpt>
      <trkpt lat="43.61874" lon="1.18752">
        <ele>171</ele>
        <time>2016-05-07T09:27:22Z</time>
      </trkpt>
      <trkpt lat="43.61872" lon="1.18757">
        <ele>172</ele>
        <time>2016-05-07T09:27:24Z</time>
      </trkpt>
      <trkpt lat="43.61869" lon="1.1876">
        <ele>172</ele>
        <time>2016-05-07T09:27:26Z</time>
      </trkpt>
      <trkpt lat="43.61866" lon="1.18764">
        <ele>173</ele>
        <time>2016-05-07T09:27:28Z</time>
      </trkpt>
      <trkpt lat="43.61865" lon="1.18768">
        <ele>173</ele>
        <time>2016-05-07T09:27:30Z</time>
      </trkpt>
      <trkpt lat="43.61865" lon="1.1877">
        <ele>173</ele>
        <time>2016-05-07T09:27:31Z</time>
      </trkpt>
      <trkpt lat="43.61865" lon="1.18774">
        <ele>173</ele>
        <time>2016-05-07T09:27:33Z</time>
      </trkpt>
      <trkpt lat="43.61864" lon="1.18778">
        <ele>174</ele>
        <time>2016-05-07T09:27:35Z</time>
      </trkpt>
      <trkpt lat="43.61863" lon="1.18783">
        <ele>174</ele>
        <time>2016-05-07T09:27:37Z</time>
      </trkpt>
      <trkpt lat="43.61862" lon="1.18785">
        <ele>174</ele>
        <time>2016-05-07T09:27:38Z</time>
      </trkpt>
      <trkpt lat="43.61861" lon="1.18789">
        <ele>174</ele>
        <time>2016-05-07T09:27:40Z</time>
      </trkpt>
      <trkpt lat="43.61861" lon="1.18794">
        <ele>174</ele>
        <time>2016-05-07T09:27:42Z</time>
      </trkpt>
      <trkpt lat="43.6186" lon="1.18798">
        <ele>175</ele>
        <time>2016-05-07T09:27:44Z</time>
      </trkpt>
      <trkpt lat="43.6186" lon="1.188">
        <ele>175</ele>
        <time>2016-05-07T09:27:45Z</time>
      </trkpt>
      <trkpt lat="43.61857" lon="1.18803">
        <ele>175</ele>
        <time>2016-05-07T09:27:47Z</time>
      </trkpt>
      <trkpt lat="43.61855" lon="1.18805">
        <ele>175</ele>
        <time>2016-05-07T09:27:48Z</time>
      </trkpt>
      <trkpt lat="43.61854" lon="1.18806">
        <ele>175</ele>
        <time>2016-05-07T09:27:49Z</time>
      </trkpt>
      <trkpt lat="43.61852" lon="1.1881">
        <ele>176</ele>
        <time>2016-05-07T09:27:51Z</time>
      </trkpt>
      <trkpt lat="43.61852" lon="1.18812">
        <ele>176</ele>
        <time>2016-05-07T09:27:52Z</time>
      </trkpt>
      <trkpt lat="43.6185" lon="1.18816">
        <ele>176</ele>
        <time>2016-05-07T09:27:54Z</time>
      </trkpt>
      <trkpt lat="43.61851" lon="1.18818">
        <ele>176</ele>
        <time>2016-05-07T09:27:55Z</time>
      </trkpt>
      <trkpt lat="43.61851" lon="1.18822">
        <ele>176</ele>
        <time>2016-05-07T09:27:57Z</time>
      </trkpt>
      <trkpt lat="43.6185" lon="1.18825">
        <ele>176</ele>
        <time>2016-05-07T09:27:59Z</time>
      </trkpt>
      <trkpt lat="43.61849" lon="1.18827">
        <ele>176</ele>
        <time>2016-05-07T09:28:00Z</time>
      </trkpt>
      <trkpt lat="43.61848" lon="1.18829">
        <ele>176</ele>
        <time>2016-05-07T09:28:01Z</time>
      </trkpt>
      <trkpt lat="43.61847" lon="1.18833">
        <ele>176</ele>
        <time>2016-05-07T09:28:03Z</time>
      </trkpt>
      <trkpt lat="43.61846" lon="1.18839">
        <ele>176</ele>
        <time>2016-05-07T09:28:05Z</time>
      </trkpt>
      <trkpt lat="43.61845" lon="1.18844">
        <ele>177</ele>
        <time>2016-05-07T09:28:07Z</time>
      </trkpt>
      <trkpt lat="43.61842" lon="1.18849">
        <ele>177</ele>
        <time>2016-05-07T09:28:09Z</time>
      </trkpt>
      <trkpt lat="43.61841" lon="1.18853">
        <ele>177</ele>
        <time>2016-05-07T09:28:11Z</time>
      </trkpt>
      <trkpt lat="43.6184" lon="1.18856">
        <ele>177</ele>
        <time>2016-05-07T09:28:12Z</time>
      </trkpt>
      <trkpt lat="43.61839" lon="1.18858">
        <ele>177</ele>
        <time>2016-05-07T09:28:13Z</time>
      </trkpt>
      <trkpt lat="43.6184" lon="1.18863">
        <ele>178</ele>
        <time>2016-05-07T09:28:15Z</time>
      </trkpt>
      <trkpt lat="43.6184" lon="1.18868">
        <ele>178</ele>
        <time>2016-05-07T09:28:17Z</time>
      </trkpt>
      <trkpt lat="43.61841" lon="1.18872">
        <ele>178</ele>
        <time>2016-05-07T09:28:19Z</time>
      </trkpt>
      <trkpt lat="43.61843" lon="1.18877">
        <ele>178</ele>
        <time>2016-05-07T09:28:21Z</time>
      </trkpt>
      <trkpt lat="43.61844" lon="1.18881">
        <ele>178</ele>
        <time>2016-05-07T09:28:23Z</time>
      </trkpt>
      <trkpt lat="43.61845" lon="1.18887">
        <ele>178</ele>
        <time>2016-05-07T09:28:25Z</time>
      </trkpt>
      <trkpt lat="43.61845" lon="1.18892">
        <ele>178</ele>
        <time>2016-05-07T09:28:27Z</time>
      </trkpt>
      <trkpt lat="43.61845" lon="1.18896">
        <ele>178</ele>
        <time>2016-05-07T09:28:29Z</time>
      </trkpt>
      <trkpt lat="43.61845" lon="1.18898">
        <ele>178</ele>
        <time>2016-05-07T09:28:30Z</time>
      </trkpt>
      <trkpt lat="43.61841" lon="1.18903">
        <ele>178</ele>
        <time>2016-05-07T09:28:33Z</time>
      </trkpt>
      <trkpt lat="43.61839" lon="1.18907">
        <ele>178</ele>
        <time>2016-05-07T09:28:35Z</time>
      </trkpt>
      <trkpt lat="43.61837" lon="1.18911">
        <ele>178</ele>
        <time>2016-05-07T09:28:37Z</time>
      </trkpt>
      <trkpt lat="43.61836" lon="1.18913">
        <ele>178</ele>
        <time>2016-05-07T09:28:38Z</time>
      </trkpt>
      <trkpt lat="43.61833" lon="1.18917">
        <ele>178</ele>
        <time>2016-05-07T09:28:40Z</time>
      </trkpt>
      <trkpt lat="43.61831" lon="1.18921">
        <ele>179</ele>
        <time>2016-05-07T09:28:42Z</time>
      </trkpt>
      <trkpt lat="43.61831" lon="1.18923">
        <ele>179</ele>
        <time>2016-05-07T09:28:43Z</time>
      </trkpt>
      <trkpt lat="43.61829" lon="1.18927">
        <ele>179</ele>
        <time>2016-05-07T09:28:45Z</time>
      </trkpt>
      <trkpt lat="43.61829" lon="1.1893">
        <ele>179</ele>
        <time>2016-05-07T09:28:47Z</time>
      </trkpt>
      <trkpt lat="43.61828" lon="1.18933">
        <ele>179</ele>
        <time>2016-05-07T09:28:48Z</time>
      </trkpt>
      <trkpt lat="43.61827" lon="1.18937">
        <ele>180</ele>
        <time>2016-05-07T09:28:50Z</time>
      </trkpt>
      <trkpt lat="43.61826" lon="1.18942">
        <ele>180</ele>
        <time>2016-05-07T09:28:52Z</time>
      </trkpt>
      <trkpt lat="43.61826" lon="1.18944">
        <ele>180</ele>
        <time>2016-05-07T09:28:53Z</time>
      </trkpt>
      <trkpt lat="43.61826" lon="1.18948">
        <ele>180</ele>
        <time>2016-05-07T09:28:55Z</time>
      </trkpt>
      <trkpt lat="43.61826" lon="1.1895">
        <ele>180</ele>
        <time>2016-05-07T09:28:56Z</time>
      </trkpt>
      <trkpt lat="43.61825" lon="1.18955">
        <ele>180</ele>
        <time>2016-05-07T09:28:58Z</time>
      </trkpt>
      <trkpt lat="43.61826" lon="1.18959">
        <ele>180</ele>
        <time>2016-05-07T09:29:00Z</time>
      </trkpt>
      <trkpt lat="43.61826" lon="1.18964">
        <ele>180</ele>
        <time>2016-05-07T09:29:02Z</time>
      </trkpt>
      <trkpt lat="43.61825" lon="1.18965">
        <ele>180</ele>
        <time>2016-05-07T09:29:03Z</time>
      </trkpt>
      <trkpt lat="43.61825" lon="1.1897">
        <ele>180</ele>
        <time>2016-05-07T09:29:05Z</time>
      </trkpt>
      <trkpt lat="43.61825" lon="1.18975">
        <ele>180</ele>
        <time>2016-05-07T09:29:07Z</time>
      </trkpt>
      <trkpt lat="43.61825" lon="1.18979">
        <ele>180</ele>
        <time>2016-05-07T09:29:09Z</time>
      </trkpt>
      <trkpt lat="43.61825" lon="1.18981">
        <ele>180</ele>
        <time>2016-05-07T09:29:10Z</time>
      </trkpt>
      <trkpt lat="43.61826" lon="1.18985">
        <ele>180</ele>
        <time>2016-05-07T09:29:12Z</time>
      </trkpt>
      <trkpt lat="43.61826" lon="1.18987">
        <ele>180</ele>
        <time>2016-05-07T09:29:13Z</time>
      </trkpt>
      <trkpt lat="43.61826" lon="1.18989">
        <ele>180</ele>
        <time>2016-05-07T09:29:14Z</time>
      </trkpt>
      <trkpt lat="43.61827" lon="1.18994">
        <ele>179</ele>
        <time>2016-05-07T09:29:16Z</time>
      </trkpt>
      <trkpt lat="43.61827" lon="1.18996">
        <ele>179</ele>
        <time>2016-05-07T09:29:17Z</time>
      </trkpt>
      <trkpt lat="43.61828" lon="1.19">
        <ele>179</ele>
        <time>2016-05-07T09:29:19Z</time>
      </trkpt>
      <trkpt lat="43.61828" lon="1.19005">
        <ele>179</ele>
        <time>2016-05-07T09:29:21Z</time>
      </trkpt>
      <trkpt lat="43.61829" lon="1.19006">
        <ele>179</ele>
        <time>2016-05-07T09:29:22Z</time>
      </trkpt>
      <trkpt lat="43.61829" lon="1.19011">
        <ele>179</ele>
        <time>2016-05-07T09:29:24Z</time>
      </trkpt>
      <trkpt lat="43.61829" lon="1.19015">
        <ele>179</ele>
        <time>2016-05-07T09:29:26Z</time>
      </trkpt>
      <trkpt lat="43.6183" lon="1.1902">
        <ele>179</ele>
        <time>2016-05-07T09:29:28Z</time>
      </trkpt>
      <trkpt lat="43.61831" lon="1.19024">
        <ele>179</ele>
        <time>2016-05-07T09:29:30Z</time>
      </trkpt>
      <trkpt lat="43.61832" lon="1.19026">
        <ele>179</ele>
        <time>2016-05-07T09:29:31Z</time>
      </trkpt>
      <trkpt lat="43.61834" lon="1.19029">
        <ele>180</ele>
        <time>2016-05-07T09:29:33Z</time>
      </trkpt>
      <trkpt lat="43.61836" lon="1.19032">
        <ele>179</ele>
        <time>2016-05-07T09:29:35Z</time>
      </trkpt>
      <trkpt lat="43.61839" lon="1.19034">
        <ele>179</ele>
        <time>2016-05-07T09:29:37Z</time>
      </trkpt>
      <trkpt lat="43.6184" lon="1.19034">
        <ele>179</ele>
        <time>2016-05-07T09:29:39Z</time>
      </trkpt>
      <trkpt lat="43.61842" lon="1.19034">
        <ele>179</ele>
        <time>2016-05-07T09:29:40Z</time>
      </trkpt>
      <trkpt lat="43.61844" lon="1.19034">
        <ele>179</ele>
        <time>2016-05-07T09:29:42Z</time>
      </trkpt>
      <trkpt lat="43.61846" lon="1.19034">
        <ele>179</ele>
        <time>2016-05-07T09:29:44Z</time>
      </trkpt>
      <trkpt lat="43.61847" lon="1.19034">
        <ele>179</ele>
        <time>2016-05-07T09:29:45Z</time>
      </trkpt>
      <trkpt lat="43.61848" lon="1.19033">
        <ele>179</ele>
        <time>2016-05-07T09:29:47Z</time>
      </trkpt>
      <trkpt lat="43.61848" lon="1.19033">
        <ele>179</ele>
        <time>2016-05-07T09:29:48Z</time>
      </trkpt>
      <trkpt lat="43.61849" lon="1.19033">
        <ele>179</ele>
        <time>2016-05-07T09:29:49Z</time>
      </trkpt>
      <trkpt lat="43.61849" lon="1.19032">
        <ele>179</ele>
        <time>2016-05-07T09:29:51Z</time>
      </trkpt>
      <trkpt lat="43.61849" lon="1.19032">
        <ele>179</ele>
        <time>2016-05-07T09:29:53Z</time>
      </trkpt>
      <trkpt lat="43.61853" lon="1.1903">
        <ele>179</ele>
        <time>2016-05-07T09:30:02Z</time>
      </trkpt>
      <trkpt lat="43.61852" lon="1.1903">
        <ele>179</ele>
        <time>2016-05-07T09:30:03Z</time>
      </trkpt>
      <trkpt lat="43.61848" lon="1.19031">
        <ele>179</ele>
        <time>2016-05-07T09:30:06Z</time>
      </trkpt>
      <trkpt lat="43.61847" lon="1.19032">
        <ele>178</ele>
        <time>2016-05-07T09:30:07Z</time>
      </trkpt>
      <trkpt lat="43.61846" lon="1.19033">
        <ele>178</ele>
        <time>2016-05-07T09:30:08Z</time>
      </trkpt>
      <trkpt lat="43.61844" lon="1.19033">
        <ele>177</ele>
        <time>2016-05-07T09:30:10Z</time>
      </trkpt>
      <trkpt lat="43.6184" lon="1.19034">
        <ele>177</ele>
        <time>2016-05-07T09:30:12Z</time>
      </trkpt>
      <trkpt lat="43.61838" lon="1.19034">
        <ele>177</ele>
        <time>2016-05-07T09:30:14Z</time>
      </trkpt>
      <trkpt lat="43.61836" lon="1.19031">
        <ele>177</ele>
        <time>2016-05-07T09:30:16Z</time>
      </trkpt>
      <trkpt lat="43.61835" lon="1.1903">
        <ele>176</ele>
        <time>2016-05-07T09:30:17Z</time>
      </trkpt>
      <trkpt lat="43.61834" lon="1.19028">
        <ele>176</ele>
        <time>2016-05-07T09:30:19Z</time>
      </trkpt>
      <trkpt lat="43.61833" lon="1.19026">
        <ele>176</ele>
        <time>2016-05-07T09:30:21Z</time>
      </trkpt>
      <trkpt lat="43.61832" lon="1.19023">
        <ele>176</ele>
        <time>2016-05-07T09:30:23Z</time>
      </trkpt>
      <trkpt lat="43.61831" lon="1.19021">
        <ele>176</ele>
        <time>2016-05-07T09:30:24Z</time>
      </trkpt>
      <trkpt lat="43.61831" lon="1.19018">
        <ele>176</ele>
        <time>2016-05-07T09:30:25Z</time>
      </trkpt>
      <trkpt lat="43.61831" lon="1.19016">
        <ele>176</ele>
        <time>2016-05-07T09:30:27Z</time>
      </trkpt>
      <trkpt lat="43.61831" lon="1.19014">
        <ele>176</ele>
        <time>2016-05-07T09:30:28Z</time>
      </trkpt>
      <trkpt lat="43.61831" lon="1.1901">
        <ele>176</ele>
        <time>2016-05-07T09:30:30Z</time>
      </trkpt>
      <trkpt lat="43.61831" lon="1.19009">
        <ele>176</ele>
        <time>2016-05-07T09:30:31Z</time>
      </trkpt>
      <trkpt lat="43.6183" lon="1.19008">
        <ele>176</ele>
        <time>2016-05-07T09:30:32Z</time>
      </trkpt>
      <trkpt lat="43.6183" lon="1.19004">
        <ele>176</ele>
        <time>2016-05-07T09:30:34Z</time>
      </trkpt>
      <trkpt lat="43.61829" lon="1.19001">
        <ele>176</ele>
        <time>2016-05-07T09:30:36Z</time>
      </trkpt>
      <trkpt lat="43.6183" lon="1.18999">
        <ele>176</ele>
        <time>2016-05-07T09:30:37Z</time>
      </trkpt>
      <trkpt lat="43.61829" lon="1.18996">
        <ele>176</ele>
        <time>2016-05-07T09:30:39Z</time>
      </trkpt>
      <trkpt lat="43.61828" lon="1.18995">
        <ele>176</ele>
        <time>2016-05-07T09:30:40Z</time>
      </trkpt>
      <trkpt lat="43.61826" lon="1.18992">
        <ele>176</ele>
        <time>2016-05-07T09:30:42Z</time>
      </trkpt>
      <trkpt lat="43.61826" lon="1.18991">
        <ele>176</ele>
        <time>2016-05-07T09:30:43Z</time>
      </trkpt>
      <trkpt lat="43.61824" lon="1.18988">
        <ele>176</ele>
        <time>2016-05-07T09:30:45Z</time>
      </trkpt>
      <trkpt lat="43.61824" lon="1.18989">
        <ele>176</ele>
        <time>2016-05-07T09:30:46Z</time>
      </trkpt>
      <trkpt lat="43.61823" lon="1.18986">
        <ele>176</ele>
        <time>2016-05-07T09:30:48Z</time>
      </trkpt>
      <trkpt lat="43.61823" lon="1.18984">
        <ele>176</ele>
        <time>2016-05-07T09:30:49Z</time>
      </trkpt>
      <trkpt lat="43.61822" lon="1.18983">
        <ele>176</ele>
        <time>2016-05-07T09:30:50Z</time>
      </trkpt>
      <trkpt lat="43.61821" lon="1.1898">
        <ele>176</ele>
        <time>2016-05-07T09:30:52Z</time>
      </trkpt>
      <trkpt lat="43.61821" lon="1.18979">
        <ele>176</ele>
        <time>2016-05-07T09:30:54Z</time>
      </trkpt>
      <trkpt lat="43.61821" lon="1.18979">
        <ele>176</ele>
        <time>2016-05-07T09:30:56Z</time>
      </trkpt>
      <trkpt lat="43.61821" lon="1.18978">
        <ele>176</ele>
        <time>2016-05-07T09:30:57Z</time>
      </trkpt>
      <trkpt lat="43.61822" lon="1.18978">
        <ele>176</ele>
        <time>2016-05-07T09:30:59Z</time>
      </trkpt>
      <trkpt lat="43.61822" lon="1.18978">
        <ele>176</ele>
        <time>2016-05-07T09:31:02Z</time>
      </trkpt>
      <trkpt lat="43.61822" lon="1.18978">
        <ele>176</ele>
        <time>2016-05-07T09:31:18Z</time>
      </trkpt>
      <trkpt lat="43.61822" lon="1.18978">
        <ele>176</ele>
        <time>2016-05-07T09:31:19Z</time>
      </trkpt>
      <trkpt lat="43.61822" lon="1.18978">
        <ele>176</ele>
        <time>2016-05-07T09:31:35Z</time>
      </trkpt>
      <trkpt lat="43.61822" lon="1.18978">
        <ele>177</ele>
        <time>2016-05-07T09:31:37Z</time>
      </trkpt>
      <trkpt lat="43.61822" lon="1.18978">
        <ele>177</ele>
        <time>2016-05-07T09:31:50Z</time>
      </trkpt>
      <trkpt lat="43.61822" lon="1.18978">
        <ele>177</ele>
        <time>2016-05-07T09:31:52Z</time>
      </trkpt>
      <trkpt lat="43.61823" lon="1.18982">
        <ele>176</ele>
        <time>2016-05-07T09:31:54Z</time>
      </trkpt>
      <trkpt lat="43.61824" lon="1.18983">
        <ele>176</ele>
        <time>2016-05-07T09:31:55Z</time>
      </trkpt>
      <trkpt lat="43.61824" lon="1.18985">
        <ele>176</ele>
        <time>2016-05-07T09:31:57Z</time>
      </trkpt>
      <trkpt lat="43.61824" lon="1.18987">
        <ele>176</ele>
        <time>2016-05-07T09:31:58Z</time>
      </trkpt>
      <trkpt lat="43.61824" lon="1.18989">
        <ele>176</ele>
        <time>2016-05-07T09:31:59Z</time>
      </trkpt>
      <trkpt lat="43.61824" lon="1.18992">
        <ele>176</ele>
        <time>2016-05-07T09:32:01Z</time>
      </trkpt>
      <trkpt lat="43.61825" lon="1.18994">
        <ele>176</ele>
        <time>2016-05-07T09:32:03Z</time>
      </trkpt>
      <trkpt lat="43.61825" lon="1.18995">
        <ele>176</ele>
        <time>2016-05-07T09:32:04Z</time>
      </trkpt>
      <trkpt lat="43.61826" lon="1.18998">
        <ele>176</ele>
        <time>2016-05-07T09:32:06Z</time>
      </trkpt>
      <trkpt lat="43.61827" lon="1.19">
        <ele>176</ele>
        <time>2016-05-07T09:32:07Z</time>
      </trkpt>
      <trkpt lat="43.61828" lon="1.19002">
        <ele>176</ele>
        <time>2016-05-07T09:32:08Z</time>
      </trkpt>
      <trkpt lat="43.61828" lon="1.19005">
        <ele>176</ele>
        <time>2016-05-07T09:32:10Z</time>
      </trkpt>
      <trkpt lat="43.61828" lon="1.19006">
        <ele>176</ele>
        <time>2016-05-07T09:32:11Z</time>
      </trkpt>
      <trkpt lat="43.61828" lon="1.19008">
        <ele>176</ele>
        <time>2016-05-07T09:32:13Z</time>
      </trkpt>
      <trkpt lat="43.61829" lon="1.19011">
        <ele>175</ele>
        <time>2016-05-07T09:32:15Z</time>
      </trkpt>
      <trkpt lat="43.61831" lon="1.19013">
        <ele>175</ele>
        <time>2016-05-07T09:32:17Z</time>
      </trkpt>
      <trkpt lat="43.6183" lon="1.19014">
        <ele>175</ele>
        <time>2016-05-07T09:32:18Z</time>
      </trkpt>
      <trkpt lat="43.61831" lon="1.19017">
        <ele>175</ele>
        <time>2016-05-07T09:32:20Z</time>
      </trkpt>
      <trkpt lat="43.61831" lon="1.19019">
        <ele>175</ele>
        <time>2016-05-07T09:32:21Z</time>
      </trkpt>
      <trkpt lat="43.61832" lon="1.19022">
        <ele>175</ele>
        <time>2016-05-07T09:32:23Z</time>
      </trkpt>
      <trkpt lat="43.61832" lon="1.19023">
        <ele>175</ele>
        <time>2016-05-07T09:32:24Z</time>
      </trkpt>
      <trkpt lat="43.61834" lon="1.19025">
        <ele>175</ele>
        <time>2016-05-07T09:32:26Z</time>
      </trkpt>
      <trkpt lat="43.61834" lon="1.19026">
        <ele>175</ele>
        <time>2016-05-07T09:32:27Z</time>
      </trkpt>
      <trkpt lat="43.61835" lon="1.19029">
        <ele>175</ele>
        <time>2016-05-07T09:32:29Z</time>
      </trkpt>
      <trkpt lat="43.61835" lon="1.1903">
        <ele>175</ele>
        <time>2016-05-07T09:32:30Z</time>
      </trkpt>
      <trkpt lat="43.61835" lon="1.19033">
        <ele>175</ele>
        <time>2016-05-07T09:32:32Z</time>
      </trkpt>
      <trkpt lat="43.61836" lon="1.19034">
        <ele>175</ele>
        <time>2016-05-07T09:32:33Z</time>
      </trkpt>
      <trkpt lat="43.61836" lon="1.19034">
        <ele>175</ele>
        <time>2016-05-07T09:32:34Z</time>
      </trkpt>
      <trkpt lat="43.61836" lon="1.19035">
        <ele>175</ele>
        <time>2016-05-07T09:32:36Z</time>
      </trkpt>
      <trkpt lat="43.61836" lon="1.19036">
        <ele>175</ele>
        <time>2016-05-07T09:32:37Z</time>
      </trkpt>
      <trkpt lat="43.61837" lon="1.19036">
        <ele>175</ele>
        <time>2016-05-07T09:32:39Z</time>
      </trkpt>
      <trkpt lat="43.61837" lon="1.19036">
        <ele>175</ele>
        <time>2016-05-07T09:32:40Z</time>
      </trkpt>
      <trkpt lat="43.61838" lon="1.19036">
        <ele>175</ele>
        <time>2016-05-07T09:32:41Z</time>
      </trkpt>
      <trkpt lat="43.61839" lon="1.19037">
        <ele>175</ele>
        <time>2016-05-07T09:32:43Z</time>
      </trkpt>
      <trkpt lat="43.61839" lon="1.19037">
        <ele>175</ele>
        <time>2016-05-07T09:32:58Z</time>
      </trkpt>
      <trkpt lat="43.61839" lon="1.19037">
        <ele>175</ele>
        <time>2016-05-07T09:33:00Z</time>
      </trkpt>
      <trkpt lat="43.61839" lon="1.19037">
        <ele>175</ele>
        <time>2016-05-07T09:33:15Z</time>
      </trkpt>
      <trkpt lat="43.61839" lon="1.19037">
        <ele>175</ele>
        <time>2016-05-07T09:33:17Z</time>
      </trkpt>
      <trkpt lat="43.61839" lon="1.19037">
        <ele>175</ele>
        <time>2016-05-07T09:33:33Z</time>
      </trkpt>
      <trkpt lat="43.61839" lon="1.19037">
        <ele>175</ele>
        <time>2016-05-07T09:33:35Z</time>
      </trkpt>
      <trkpt lat="43.61839" lon="1.19037">
        <ele>175</ele>
        <time>2016-05-07T09:33:50Z</time>
      </trkpt>
      <trkpt lat="43.61839" lon="1.19037">
        <ele>175</ele>
        <time>2016-05-07T09:33:52Z</time>
      </trkpt>
      <trkpt lat="43.61839" lon="1.19037">
        <ele>175</ele>
        <time>2016-05-07T09:34:08Z</time>
      </trkpt>
      <trkpt lat="43.61839" lon="1.19037">
        <ele>175</ele>
        <time>2016-05-07T09:34:10Z</time>
      </trkpt>
      <trkpt lat="43.61839" lon="1.19037">
        <ele>175</ele>
        <time>2016-05-07T09:34:27Z</time>
      </trkpt>
      <trkpt lat="43.61839" lon="1.19037">
        <ele>175</ele>
        <time>2016-05-07T09:34:29Z</time>
      </trkpt>
      <trkpt lat="43.61847" lon="1.19031">
        <ele>175</ele>
        <time>2016-05-07T09:34:42Z</time>
      </trkpt>
      <trkpt lat="43.61847" lon="1.1903">
        <ele>175</ele>
        <time>2016-05-07T09:34:43Z</time>
      </trkpt>
      <trkpt lat="43.61848" lon="1.1903">
        <ele>176</ele>
        <time>2016-05-07T09:34:45Z</time>
      </trkpt>
      <trkpt lat="43.61848" lon="1.1903">
        <ele>176</ele>
        <time>2016-05-07T09:35:02Z</time>
      </trkpt>
      <trkpt lat="43.61848" lon="1.1903">
        <ele>176</ele>
        <time>2016-05-07T09:35:04Z</time>
      </trkpt>
      <trkpt lat="43.61848" lon="1.1903">
        <ele>176</ele>
        <time>2016-05-07T09:35:19Z</time>
      </trkpt>
      <trkpt lat="43.61848" lon="1.1903">
        <ele>176</ele>
        <time>2016-05-07T09:35:21Z</time>
      </trkpt>
      <trkpt lat="43.61848" lon="1.1903">
        <ele>176</ele>
        <time>2016-05-07T09:35:35Z</time>
      </trkpt>
      <trkpt lat="43.61848" lon="1.1903">
        <ele>176</ele>
        <time>2016-05-07T09:35:37Z</time>
      </trkpt>
      <trkpt lat="43.6184" lon="1.19034">
        <ele>176</ele>
        <time>2016-05-07T09:35:50Z</time>
      </trkpt>
      <trkpt lat="43.6184" lon="1.19035">
        <ele>176</ele>
        <time>2016-05-07T09:35:51Z</time>
      </trkpt>
      <trkpt lat="43.6184" lon="1.19035">
        <ele>175</ele>
        <time>2016-05-07T09:35:53Z</time>
      </trkpt>
      <trkpt lat="43.6184" lon="1.19035">
        <ele>175</ele>
        <time>2016-05-07T09:36:12Z</time>
      </trkpt>
      <trkpt lat="43.6184" lon="1.19035">
        <ele>175</ele>
        <time>2016-05-07T09:36:13Z</time>
      </trkpt>
      <trkpt lat="43.6184" lon="1.19035">
        <ele>175</ele>
        <time>2016-05-07T09:36:29Z</time>
      </trkpt>
      <trkpt lat="43.6184" lon="1.19035">
        <ele>175</ele>
        <time>2016-05-07T09:36:30Z</time>
      </trkpt>
      <trkpt lat="43.6184" lon="1.19035">
        <ele>175</ele>
        <time>2016-05-07T09:36:46Z</time>
      </trkpt>
      <trkpt lat="43.6184" lon="1.19035">
        <ele>175</ele>
        <time>2016-05-07T09:36:47Z</time>
      </trkpt>
      <trkpt lat="43.6184" lon="1.19035">
        <ele>175</ele>
        <time>2016-05-07T09:37:03Z</time>
      </trkpt>
      <trkpt lat="43.6184" lon="1.19035">
        <ele>175</ele>
        <time>2016-05-07T09:37:05Z</time>
      </trkpt>
      <trkpt lat="43.6184" lon="1.19035">
        <ele>175</ele>
        <time>2016-05-07T09:37:21Z</time>
      </trkpt>
      <trkpt lat="43.6184" lon="1.19035">
        <ele>175</ele>
        <time>2016-05-07T09:37:23Z</time>
      </trkpt>
      <trkpt lat="43.6184" lon="1.19035">
        <ele>175</ele>
        <time>2016-05-07T09:37:37Z</time>
      </trkpt>
      <trkpt lat="43.6184" lon="1.19035">
        <ele>175</ele>
        <time>2016-05-07T09:37:38Z</time>
      </trkpt>
      <trkpt lat="43.61831" lon="1.19033">
        <ele>175</ele>
        <time>2016-05-07T09:38:10Z</time>
      </trkpt>
      <trkpt lat="43.61829" lon="1.19034">
        <ele>175</ele>
        <time>2016-05-07T09:38:12Z</time>
      </trkpt>
      <trkpt lat="43.61829" lon="1.19035">
        <ele>175</ele>
        <time>2016-05-07T09:38:14Z</time>
      </trkpt>
      <trkpt lat="43.61828" lon="1.19036">
        <ele>175</ele>
        <time>2016-05-07T09:38:16Z</time>
      </trkpt>
      <trkpt lat="43.61826" lon="1.19037">
        <ele>175</ele>
        <time>2016-05-07T09:38:18Z</time>
      </trkpt>
      <trkpt lat="43.61826" lon="1.19038">
        <ele>175</ele>
        <time>2016-05-07T09:38:19Z</time>
      </trkpt>
      <trkpt lat="43.61824" lon="1.1904">
        <ele>175</ele>
        <time>2016-05-07T09:38:21Z</time>
      </trkpt>
      <trkpt lat="43.61824" lon="1.1904">
        <ele>175</ele>
        <time>2016-05-07T09:38:22Z</time>
      </trkpt>
      <trkpt lat="43.61824" lon="1.19043">
        <ele>175</ele>
        <time>2016-05-07T09:38:24Z</time>
      </trkpt>
      <trkpt lat="43.61823" lon="1.19046">
        <ele>175</ele>
        <time>2016-05-07T09:38:26Z</time>
      </trkpt>
      <trkpt lat="43.61822" lon="1.19049">
        <ele>175</ele>
        <time>2016-05-07T09:38:28Z</time>
      </trkpt>
      <trkpt lat="43.61821" lon="1.19051">
        <ele>175</ele>
        <time>2016-05-07T09:38:29Z</time>
      </trkpt>
      <trkpt lat="43.61821" lon="1.19053">
        <ele>175</ele>
        <time>2016-05-07T09:38:30Z</time>
      </trkpt>
      <trkpt lat="43.61821" lon="1.19055">
        <ele>175</ele>
        <time>2016-05-07T09:38:32Z</time>
      </trkpt>
      <trkpt lat="43.61821" lon="1.19058">
        <ele>175</ele>
        <time>2016-05-07T09:38:33Z</time>
      </trkpt>
      <trkpt lat="43.61821" lon="1.19061">
        <ele>175</ele>
        <time>2016-05-07T09:38:35Z</time>
      </trkpt>
      <trkpt lat="43.6182" lon="1.19065">
        <ele>174</ele>
        <time>2016-05-07T09:38:37Z</time>
      </trkpt>
      <trkpt lat="43.6182" lon="1.19068">
        <ele>175</ele>
        <time>2016-05-07T09:38:39Z</time>
      </trkpt>
      <trkpt lat="43.61818" lon="1.19071">
        <ele>175</ele>
        <time>2016-05-07T09:38:41Z</time>
      </trkpt>
      <trkpt lat="43.61817" lon="1.19074">
        <ele>175</ele>
        <time>2016-05-07T09:38:43Z</time>
      </trkpt>
      <trkpt lat="43.61816" lon="1.19075">
        <ele>175</ele>
        <time>2016-05-07T09:38:44Z</time>
      </trkpt>
      <trkpt lat="43.61815" lon="1.19077">
        <ele>175</ele>
        <time>2016-05-07T09:38:46Z</time>
      </trkpt>
      <trkpt lat="43.61815" lon="1.19078">
        <ele>175</ele>
        <time>2016-05-07T09:38:47Z</time>
      </trkpt>
      <trkpt lat="43.61813" lon="1.1908">
        <ele>175</ele>
        <time>2016-05-07T09:38:48Z</time>
      </trkpt>
      <trkpt lat="43.61813" lon="1.19085">
        <ele>175</ele>
        <time>2016-05-07T09:38:50Z</time>
      </trkpt>
      <trkpt lat="43.61813" lon="1.19086">
        <ele>175</ele>
        <time>2016-05-07T09:38:51Z</time>
      </trkpt>
      <trkpt lat="43.61812" lon="1.19088">
        <ele>175</ele>
        <time>2016-05-07T09:38:52Z</time>
      </trkpt>
      <trkpt lat="43.61813" lon="1.19092">
        <ele>175</ele>
        <time>2016-05-07T09:38:55Z</time>
      </trkpt>
      <trkpt lat="43.61812" lon="1.19095">
        <ele>175</ele>
        <time>2016-05-07T09:38:57Z</time>
      </trkpt>
      <trkpt lat="43.61813" lon="1.19097">
        <ele>175</ele>
        <time>2016-05-07T09:38:59Z</time>
      </trkpt>
      <trkpt lat="43.61814" lon="1.19099">
        <ele>175</ele>
        <time>2016-05-07T09:39:00Z</time>
      </trkpt>
      <trkpt lat="43.61814" lon="1.19103">
        <ele>175</ele>
        <time>2016-05-07T09:39:02Z</time>
      </trkpt>
      <trkpt lat="43.61815" lon="1.19106">
        <ele>175</ele>
        <time>2016-05-07T09:39:04Z</time>
      </trkpt>
      <trkpt lat="43.61815" lon="1.1911">
        <ele>175</ele>
        <time>2016-05-07T09:39:06Z</time>
      </trkpt>
      <trkpt lat="43.61815" lon="1.19115">
        <ele>175</ele>
        <time>2016-05-07T09:39:08Z</time>
      </trkpt>
      <trkpt lat="43.61814" lon="1.19117">
        <ele>175</ele>
        <time>2016-05-07T09:39:09Z</time>
      </trkpt>
      <trkpt lat="43.61813" lon="1.1912">
        <ele>175</ele>
        <time>2016-05-07T09:39:11Z</time>
      </trkpt>
      <trkpt lat="43.61811" lon="1.19125">
        <ele>175</ele>
        <time>2016-05-07T09:39:13Z</time>
      </trkpt>
      <trkpt lat="43.6181" lon="1.19129">
        <ele>175</ele>
        <time>2016-05-07T09:39:15Z</time>
      </trkpt>
      <trkpt lat="43.61811" lon="1.19131">
        <ele>175</ele>
        <time>2016-05-07T09:39:16Z</time>
      </trkpt>
      <trkpt lat="43.61811" lon="1.19135">
        <ele>175</ele>
        <time>2016-05-07T09:39:18Z</time>
      </trkpt>
      <trkpt lat="43.61811" lon="1.19136">
        <ele>175</ele>
        <time>2016-05-07T09:39:19Z</time>
      </trkpt>
      <trkpt lat="43.6181" lon="1.19139">
        <ele>175</ele>
        <time>2016-05-07T09:39:20Z</time>
      </trkpt>
      <trkpt lat="43.61809" lon="1.19143">
        <ele>175</ele>
        <time>2016-05-07T09:39:22Z</time>
      </trkpt>
      <trkpt lat="43.61808" lon="1.19147">
        <ele>175</ele>
        <time>2016-05-07T09:39:23Z</time>
      </trkpt>
      <trkpt lat="43.61808" lon="1.19149">
        <ele>175</ele>
        <time>2016-05-07T09:39:24Z</time>
      </trkpt>
      <trkpt lat="43.61808" lon="1.19152">
        <ele>175</ele>
        <time>2016-05-07T09:39:26Z</time>
      </trkpt>
      <trkpt lat="43.61808" lon="1.19155">
        <ele>175</ele>
        <time>2016-05-07T09:39:28Z</time>
      </trkpt>
      <trkpt lat="43.61809" lon="1.19158">
        <ele>175</ele>
        <time>2016-05-07T09:39:30Z</time>
      </trkpt>
      <trkpt lat="43.61808" lon="1.19161">
        <ele>175</ele>
        <time>2016-05-07T09:39:31Z</time>
      </trkpt>
      <trkpt lat="43.61807" lon="1.19166">
        <ele>175</ele>
        <time>2016-05-07T09:39:33Z</time>
      </trkpt>
      <trkpt lat="43.61807" lon="1.19169">
        <ele>175</ele>
        <time>2016-05-07T09:39:34Z</time>
      </trkpt>
      <trkpt lat="43.61805" lon="1.19175">
        <ele>175</ele>
        <time>2016-05-07T09:39:36Z</time>
      </trkpt>
      <trkpt lat="43.61805" lon="1.19177">
        <ele>175</ele>
        <time>2016-05-07T09:39:37Z</time>
      </trkpt>
      <trkpt lat="43.61803" lon="1.19182">
        <ele>175</ele>
        <time>2016-05-07T09:39:39Z</time>
      </trkpt>
      <trkpt lat="43.61802" lon="1.19186">
        <ele>175</ele>
        <time>2016-05-07T09:39:41Z</time>
      </trkpt>
      <trkpt lat="43.61801" lon="1.19187">
        <ele>175</ele>
        <time>2016-05-07T09:39:42Z</time>
      </trkpt>
      <trkpt lat="43.61799" lon="1.19189">
        <ele>175</ele>
        <time>2016-05-07T09:39:44Z</time>
      </trkpt>
      <trkpt lat="43.61797" lon="1.1919">
        <ele>175</ele>
        <time>2016-05-07T09:39:46Z</time>
      </trkpt>
      <trkpt lat="43.61796" lon="1.19192">
        <ele>174</ele>
        <time>2016-05-07T09:39:48Z</time>
      </trkpt>
      <trkpt lat="43.61796" lon="1.19193">
        <ele>174</ele>
        <time>2016-05-07T09:39:49Z</time>
      </trkpt>
      <trkpt lat="43.61795" lon="1.19195">
        <ele>174</ele>
        <time>2016-05-07T09:39:51Z</time>
      </trkpt>
      <trkpt lat="43.61795" lon="1.19196">
        <ele>174</ele>
        <time>2016-05-07T09:39:52Z</time>
      </trkpt>
      <trkpt lat="43.61792" lon="1.19197">
        <ele>174</ele>
        <time>2016-05-07T09:39:54Z</time>
      </trkpt>
      <trkpt lat="43.61791" lon="1.19198">
        <ele>174</ele>
        <time>2016-05-07T09:39:55Z</time>
      </trkpt>
      <trkpt lat="43.61789" lon="1.19198">
        <ele>174</ele>
        <time>2016-05-07T09:39:57Z</time>
      </trkpt>
      <trkpt lat="43.61787" lon="1.19199">
        <ele>174</ele>
        <time>2016-05-07T09:39:59Z</time>
      </trkpt>
      <trkpt lat="43.61786" lon="1.192">
        <ele>174</ele>
        <time>2016-05-07T09:40:00Z</time>
      </trkpt>
      <trkpt lat="43.6178" lon="1.19202">
        <ele>174</ele>
        <time>2016-05-07T09:40:02Z</time>
      </trkpt>
      <trkpt lat="43.61777" lon="1.19204">
        <ele>174</ele>
        <time>2016-05-07T09:40:04Z</time>
      </trkpt>
      <trkpt lat="43.61773" lon="1.19206">
        <ele>174</ele>
        <time>2016-05-07T09:40:06Z</time>
      </trkpt>
      <trkpt lat="43.6177" lon="1.19207">
        <ele>173</ele>
        <time>2016-05-07T09:40:07Z</time>
      </trkpt>
      <trkpt lat="43.61763" lon="1.1921">
        <ele>173</ele>
        <time>2016-05-07T09:40:11Z</time>
      </trkpt>
      <trkpt lat="43.61762" lon="1.19211">
        <ele>173</ele>
        <time>2016-05-07T09:40:12Z</time>
      </trkpt>
      <trkpt lat="43.6176" lon="1.19213">
        <ele>172</ele>
        <time>2016-05-07T09:40:14Z</time>
      </trkpt>
      <trkpt lat="43.61759" lon="1.19212">
        <ele>172</ele>
        <time>2016-05-07T09:40:15Z</time>
      </trkpt>
      <trkpt lat="43.61758" lon="1.19212">
        <ele>172</ele>
        <time>2016-05-07T09:40:17Z</time>
      </trkpt>
      <trkpt lat="43.61758" lon="1.19214">
        <ele>172</ele>
        <time>2016-05-07T09:40:18Z</time>
      </trkpt>
      <trkpt lat="43.61755" lon="1.19217">
        <ele>172</ele>
        <time>2016-05-07T09:40:20Z</time>
      </trkpt>
      <trkpt lat="43.61752" lon="1.1922">
        <ele>172</ele>
        <time>2016-05-07T09:40:22Z</time>
      </trkpt>
      <trkpt lat="43.61749" lon="1.19223">
        <ele>172</ele>
        <time>2016-05-07T09:40:24Z</time>
      </trkpt>
      <trkpt lat="43.61747" lon="1.19226">
        <ele>172</ele>
        <time>2016-05-07T09:40:26Z</time>
      </trkpt>
      <trkpt lat="43.61746" lon="1.19229">
        <ele>172</ele>
        <time>2016-05-07T09:40:28Z</time>
      </trkpt>
      <trkpt lat="43.61743" lon="1.19233">
        <ele>172</ele>
        <time>2016-05-07T09:40:30Z</time>
      </trkpt>
      <trkpt lat="43.61742" lon="1.19237">
        <ele>172</ele>
        <time>2016-05-07T09:40:32Z</time>
      </trkpt>
      <trkpt lat="43.6174" lon="1.19239">
        <ele>172</ele>
        <time>2016-05-07T09:40:34Z</time>
      </trkpt>
      <trkpt lat="43.61739" lon="1.1924">
        <ele>172</ele>
        <time>2016-05-07T09:40:35Z</time>
      </trkpt>
      <trkpt lat="43.61737" lon="1.19242">
        <ele>172</ele>
        <time>2016-05-07T09:40:37Z</time>
      </trkpt>
      <trkpt lat="43.61736" lon="1.19243">
        <ele>172</ele>
        <time>2016-05-07T09:40:38Z</time>
      </trkpt>
      <trkpt lat="43.61733" lon="1.19246">
        <ele>171</ele>
        <time>2016-05-07T09:40:40Z</time>
      </trkpt>
      <trkpt lat="43.61733" lon="1.19247">
        <ele>171</ele>
        <time>2016-05-07T09:40:41Z</time>
      </trkpt>
      <trkpt lat="43.61731" lon="1.19251">
        <ele>171</ele>
        <time>2016-05-07T09:40:43Z</time>
      </trkpt>
      <trkpt lat="43.6173" lon="1.19252">
        <ele>171</ele>
        <time>2016-05-07T09:40:44Z</time>
      </trkpt>
      <trkpt lat="43.61729" lon="1.19255">
        <ele>171</ele>
        <time>2016-05-07T09:40:46Z</time>
      </trkpt>
      <trkpt lat="43.61728" lon="1.19257">
        <ele>171</ele>
        <time>2016-05-07T09:40:48Z</time>
      </trkpt>
      <trkpt lat="43.61728" lon="1.19258">
        <ele>171</ele>
        <time>2016-05-07T09:40:49Z</time>
      </trkpt>
      <trkpt lat="43.61726" lon="1.19258">
        <ele>171</ele>
        <time>2016-05-07T09:40:51Z</time>
      </trkpt>
      <trkpt lat="43.61725" lon="1.19259">
        <ele>171</ele>
        <time>2016-05-07T09:40:52Z</time>
      </trkpt>
      <trkpt lat="43.61722" lon="1.19262">
        <ele>171</ele>
        <time>2016-05-07T09:40:54Z</time>
      </trkpt>
      <trkpt lat="43.61719" lon="1.19264">
        <ele>171</ele>
        <time>2016-05-07T09:40:56Z</time>
      </trkpt>
      <trkpt lat="43.61717" lon="1.19265">
        <ele>171</ele>
        <time>2016-05-07T09:40:58Z</time>
      </trkpt>
      <trkpt lat="43.61717" lon="1.19266">
        <ele>171</ele>
        <time>2016-05-07T09:40:59Z</time>
      </trkpt>
      <trkpt lat="43.61714" lon="1.19266">
        <ele>171</ele>
        <time>2016-05-07T09:41:01Z</time>
      </trkpt>
      <trkpt lat="43.61711" lon="1.1927">
        <ele>170</ele>
        <time>2016-05-07T09:41:03Z</time>
      </trkpt>
      <trkpt lat="43.61708" lon="1.19271">
        <ele>170</ele>
        <time>2016-05-07T09:41:05Z</time>
      </trkpt>
      <trkpt lat="43.61707" lon="1.19271">
        <ele>170</ele>
        <time>2016-05-07T09:41:06Z</time>
      </trkpt>
      <trkpt lat="43.61703" lon="1.1927">
        <ele>169</ele>
        <time>2016-05-07T09:41:09Z</time>
      </trkpt>
      <trkpt lat="43.61702" lon="1.19269">
        <ele>169</ele>
        <time>2016-05-07T09:41:10Z</time>
      </trkpt>
      <trkpt lat="43.61695" lon="1.19269">
        <ele>169</ele>
        <time>2016-05-07T09:41:14Z</time>
      </trkpt>
      <trkpt lat="43.61694" lon="1.19271">
        <ele>168</ele>
        <time>2016-05-07T09:41:15Z</time>
      </trkpt>
      <trkpt lat="43.61691" lon="1.19273">
        <ele>168</ele>
        <time>2016-05-07T09:41:17Z</time>
      </trkpt>
      <trkpt lat="43.61689" lon="1.19274">
        <ele>168</ele>
        <time>2016-05-07T09:41:19Z</time>
      </trkpt>
      <trkpt lat="43.61687" lon="1.19277">
        <ele>167</ele>
        <time>2016-05-07T09:41:21Z</time>
      </trkpt>
      <trkpt lat="43.61686" lon="1.19279">
        <ele>167</ele>
        <time>2016-05-07T09:41:23Z</time>
      </trkpt>
      <trkpt lat="43.61684" lon="1.19282">
        <ele>167</ele>
        <time>2016-05-07T09:41:25Z</time>
      </trkpt>
      <trkpt lat="43.61683" lon="1.19286">
        <ele>167</ele>
        <time>2016-05-07T09:41:27Z</time>
      </trkpt>
      <trkpt lat="43.6168" lon="1.1929">
        <ele>167</ele>
        <time>2016-05-07T09:41:29Z</time>
      </trkpt>
      <trkpt lat="43.6168" lon="1.19292">
        <ele>167</ele>
        <time>2016-05-07T09:41:30Z</time>
      </trkpt>
      <trkpt lat="43.61679" lon="1.19297">
        <ele>166</ele>
        <time>2016-05-07T09:41:32Z</time>
      </trkpt>
      <trkpt lat="43.61678" lon="1.19301">
        <ele>166</ele>
        <time>2016-05-07T09:41:34Z</time>
      </trkpt>
      <trkpt lat="43.61676" lon="1.19304">
        <ele>166</ele>
        <time>2016-05-07T09:41:36Z</time>
      </trkpt>
      <trkpt lat="43.61674" lon="1.19306">
        <ele>166</ele>
        <time>2016-05-07T09:41:38Z</time>
      </trkpt>
      <trkpt lat="43.61673" lon="1.19308">
        <ele>166</ele>
        <time>2016-05-07T09:41:39Z</time>
      </trkpt>
      <trkpt lat="43.61671" lon="1.19312">
        <ele>166</ele>
        <time>2016-05-07T09:41:41Z</time>
      </trkpt>
      <trkpt lat="43.6167" lon="1.19314">
        <ele>166</ele>
        <time>2016-05-07T09:41:42Z</time>
      </trkpt>
      <trkpt lat="43.61669" lon="1.19317">
        <ele>165</ele>
        <time>2016-05-07T09:41:43Z</time>
      </trkpt>
      <trkpt lat="43.61668" lon="1.19319">
        <ele>165</ele>
        <time>2016-05-07T09:41:44Z</time>
      </trkpt>
      <trkpt lat="43.61668" lon="1.19322">
        <ele>165</ele>
        <time>2016-05-07T09:41:46Z</time>
      </trkpt>
      <trkpt lat="43.61666" lon="1.19326">
        <ele>165</ele>
        <time>2016-05-07T09:41:48Z</time>
      </trkpt>
      <trkpt lat="43.61665" lon="1.19328">
        <ele>165</ele>
        <time>2016-05-07T09:41:49Z</time>
      </trkpt>
      <trkpt lat="43.61664" lon="1.19332">
        <ele>165</ele>
        <time>2016-05-07T09:41:51Z</time>
      </trkpt>
      <trkpt lat="43.61663" lon="1.19334">
        <ele>164</ele>
        <time>2016-05-07T09:41:52Z</time>
      </trkpt>
      <trkpt lat="43.61661" lon="1.19338">
        <ele>164</ele>
        <time>2016-05-07T09:41:54Z</time>
      </trkpt>
      <trkpt lat="43.61661" lon="1.1934">
        <ele>164</ele>
        <time>2016-05-07T09:41:55Z</time>
      </trkpt>
      <trkpt lat="43.6166" lon="1.19344">
        <ele>164</ele>
        <time>2016-05-07T09:41:57Z</time>
      </trkpt>
      <trkpt lat="43.61659" lon="1.19345">
        <ele>164</ele>
        <time>2016-05-07T09:41:58Z</time>
      </trkpt>
      <trkpt lat="43.61658" lon="1.19348">
        <ele>164</ele>
        <time>2016-05-07T09:42:00Z</time>
      </trkpt>
      <trkpt lat="43.61657" lon="1.1935">
        <ele>164</ele>
        <time>2016-05-07T09:42:01Z</time>
      </trkpt>
      <trkpt lat="43.61656" lon="1.19351">
        <ele>164</ele>
        <time>2016-05-07T09:42:02Z</time>
      </trkpt>
      <trkpt lat="43.61654" lon="1.19355">
        <ele>164</ele>
        <time>2016-05-07T09:42:04Z</time>
      </trkpt>
      <trkpt lat="43.61653" lon="1.19359">
        <ele>164</ele>
        <time>2016-05-07T09:42:06Z</time>
      </trkpt>
      <trkpt lat="43.61652" lon="1.19361">
        <ele>164</ele>
        <time>2016-05-07T09:42:07Z</time>
      </trkpt>
      <trkpt lat="43.61652" lon="1.19363">
        <ele>165</ele>
        <time>2016-05-07T09:42:08Z</time>
      </trkpt>
      <trkpt lat="43.61651" lon="1.19366">
        <ele>165</ele>
        <time>2016-05-07T09:42:10Z</time>
      </trkpt>
      <trkpt lat="43.61649" lon="1.19369">
        <ele>165</ele>
        <time>2016-05-07T09:42:12Z</time>
      </trkpt>
      <trkpt lat="43.61648" lon="1.19371">
        <ele>165</ele>
        <time>2016-05-07T09:42:13Z</time>
      </trkpt>
      <trkpt lat="43.61647" lon="1.19374">
        <ele>165</ele>
        <time>2016-05-07T09:42:15Z</time>
      </trkpt>
      <trkpt lat="43.61645" lon="1.19377">
        <ele>164</ele>
        <time>2016-05-07T09:42:17Z</time>
      </trkpt>
      <trkpt lat="43.61643" lon="1.19381">
        <ele>164</ele>
        <time>2016-05-07T09:42:19Z</time>
      </trkpt>
      <trkpt lat="43.61642" lon="1.19384">
        <ele>164</ele>
        <time>2016-05-07T09:42:21Z</time>
      </trkpt>
      <trkpt lat="43.61641" lon="1.19386">
        <ele>164</ele>
        <time>2016-05-07T09:42:22Z</time>
      </trkpt>
      <trkpt lat="43.61641" lon="1.19387">
        <ele>163</ele>
        <time>2016-05-07T09:42:23Z</time>
      </trkpt>
      <trkpt lat="43.61639" lon="1.1939">
        <ele>163</ele>
        <time>2016-05-07T09:42:25Z</time>
      </trkpt>
      <trkpt lat="43.61638" lon="1.19394">
        <ele>163</ele>
        <time>2016-05-07T09:42:27Z</time>
      </trkpt>
      <trkpt lat="43.61638" lon="1.19395">
        <ele>163</ele>
        <time>2016-05-07T09:42:28Z</time>
      </trkpt>
      <trkpt lat="43.61636" lon="1.19399">
        <ele>163</ele>
        <time>2016-05-07T09:42:30Z</time>
      </trkpt>
      <trkpt lat="43.61633" lon="1.19403">
        <ele>163</ele>
        <time>2016-05-07T09:42:32Z</time>
      </trkpt>
      <trkpt lat="43.61632" lon="1.19407">
        <ele>163</ele>
        <time>2016-05-07T09:42:34Z</time>
      </trkpt>
      <trkpt lat="43.6163" lon="1.19411">
        <ele>163</ele>
        <time>2016-05-07T09:42:36Z</time>
      </trkpt>
      <trkpt lat="43.6163" lon="1.19412">
        <ele>163</ele>
        <time>2016-05-07T09:42:37Z</time>
      </trkpt>
      <trkpt lat="43.61628" lon="1.19415">
        <ele>163</ele>
        <time>2016-05-07T09:42:39Z</time>
      </trkpt>
      <trkpt lat="43.61627" lon="1.19416">
        <ele>163</ele>
        <time>2016-05-07T09:42:40Z</time>
      </trkpt>
      <trkpt lat="43.61625" lon="1.19419">
        <ele>163</ele>
        <time>2016-05-07T09:42:42Z</time>
      </trkpt>
      <trkpt lat="43.61623" lon="1.19422">
        <ele>163</ele>
        <time>2016-05-07T09:42:44Z</time>
      </trkpt>
      <trkpt lat="43.61622" lon="1.19424">
        <ele>163</ele>
        <time>2016-05-07T09:42:45Z</time>
      </trkpt>
      <trkpt lat="43.61621" lon="1.19428">
        <ele>163</ele>
        <time>2016-05-07T09:42:47Z</time>
      </trkpt>
      <trkpt lat="43.6162" lon="1.1943">
        <ele>163</ele>
        <time>2016-05-07T09:42:48Z</time>
      </trkpt>
      <trkpt lat="43.61618" lon="1.19436">
        <ele>163</ele>
        <time>2016-05-07T09:42:51Z</time>
      </trkpt>
      <trkpt lat="43.61616" lon="1.1944">
        <ele>163</ele>
        <time>2016-05-07T09:42:53Z</time>
      </trkpt>
      <trkpt lat="43.61615" lon="1.19441">
        <ele>162</ele>
        <time>2016-05-07T09:42:54Z</time>
      </trkpt>
      <trkpt lat="43.61614" lon="1.19445">
        <ele>162</ele>
        <time>2016-05-07T09:42:56Z</time>
      </trkpt>
      <trkpt lat="43.61612" lon="1.19449">
        <ele>162</ele>
        <time>2016-05-07T09:42:58Z</time>
      </trkpt>
      <trkpt lat="43.61611" lon="1.19452">
        <ele>162</ele>
        <time>2016-05-07T09:43:00Z</time>
      </trkpt>
      <trkpt lat="43.61609" lon="1.19455">
        <ele>162</ele>
        <time>2016-05-07T09:43:02Z</time>
      </trkpt>
      <trkpt lat="43.61609" lon="1.19459">
        <ele>162</ele>
        <time>2016-05-07T09:43:04Z</time>
      </trkpt>
      <trkpt lat="43.61607" lon="1.19464">
        <ele>163</ele>
        <time>2016-05-07T09:43:06Z</time>
      </trkpt>
      <trkpt lat="43.61605" lon="1.19468">
        <ele>163</ele>
        <time>2016-05-07T09:43:08Z</time>
      </trkpt>
      <trkpt lat="43.61603" lon="1.19471">
        <ele>163</ele>
        <time>2016-05-07T09:43:10Z</time>
      </trkpt>
      <trkpt lat="43.61602" lon="1.19475">
        <ele>163</ele>
        <time>2016-05-07T09:43:12Z</time>
      </trkpt>
      <trkpt lat="43.61601" lon="1.19476">
        <ele>164</ele>
        <time>2016-05-07T09:43:13Z</time>
      </trkpt>
      <trkpt lat="43.616" lon="1.1948">
        <ele>164</ele>
        <time>2016-05-07T09:43:15Z</time>
      </trkpt>
      <trkpt lat="43.61599" lon="1.19484">
        <ele>164</ele>
        <time>2016-05-07T09:43:17Z</time>
      </trkpt>
      <trkpt lat="43.61596" lon="1.19486">
        <ele>164</ele>
        <time>2016-05-07T09:43:19Z</time>
      </trkpt>
      <trkpt lat="43.61594" lon="1.1949">
        <ele>164</ele>
        <time>2016-05-07T09:43:21Z</time>
      </trkpt>
      <trkpt lat="43.61594" lon="1.19492">
        <ele>164</ele>
        <time>2016-05-07T09:43:22Z</time>
      </trkpt>
      <trkpt lat="43.61593" lon="1.19494">
        <ele>165</ele>
        <time>2016-05-07T09:43:23Z</time>
      </trkpt>
      <trkpt lat="43.61591" lon="1.19497">
        <ele>165</ele>
        <time>2016-05-07T09:43:25Z</time>
      </trkpt>
      <trkpt lat="43.61591" lon="1.19499">
        <ele>165</ele>
        <time>2016-05-07T09:43:26Z</time>
      </trkpt>
      <trkpt lat="43.61589" lon="1.19502">
        <ele>165</ele>
        <time>2016-05-07T09:43:28Z</time>
      </trkpt>
      <trkpt lat="43.61588" lon="1.19505">
        <ele>165</ele>
        <time>2016-05-07T09:43:30Z</time>
      </trkpt>
      <trkpt lat="43.61586" lon="1.19507">
        <ele>166</ele>
        <time>2016-05-07T09:43:32Z</time>
      </trkpt>
      <trkpt lat="43.61585" lon="1.1951">
        <ele>166</ele>
        <time>2016-05-07T09:43:34Z</time>
      </trkpt>
      <trkpt lat="43.61585" lon="1.19512">
        <ele>166</ele>
        <time>2016-05-07T09:43:35Z</time>
      </trkpt>
      <trkpt lat="43.61583" lon="1.19515">
        <ele>166</ele>
        <time>2016-05-07T09:43:37Z</time>
      </trkpt>
      <trkpt lat="43.61583" lon="1.19516">
        <ele>166</ele>
        <time>2016-05-07T09:43:38Z</time>
      </trkpt>
      <trkpt lat="43.61581" lon="1.19521">
        <ele>167</ele>
        <time>2016-05-07T09:43:40Z</time>
      </trkpt>
      <trkpt lat="43.61579" lon="1.19525">
        <ele>167</ele>
        <time>2016-05-07T09:43:42Z</time>
      </trkpt>
      <trkpt lat="43.61577" lon="1.1953">
        <ele>167</ele>
        <time>2016-05-07T09:43:44Z</time>
      </trkpt>
      <trkpt lat="43.61575" lon="1.19534">
        <ele>167</ele>
        <time>2016-05-07T09:43:46Z</time>
      </trkpt>
      <trkpt lat="43.61575" lon="1.19536">
        <ele>167</ele>
        <time>2016-05-07T09:43:47Z</time>
      </trkpt>
      <trkpt lat="43.61573" lon="1.1954">
        <ele>167</ele>
        <time>2016-05-07T09:43:49Z</time>
      </trkpt>
      <trkpt lat="43.61572" lon="1.19542">
        <ele>168</ele>
        <time>2016-05-07T09:43:51Z</time>
      </trkpt>
      <trkpt lat="43.61571" lon="1.19544">
        <ele>168</ele>
        <time>2016-05-07T09:43:52Z</time>
      </trkpt>
      <trkpt lat="43.6157" lon="1.19548">
        <ele>168</ele>
        <time>2016-05-07T09:43:54Z</time>
      </trkpt>
      <trkpt lat="43.61569" lon="1.19551">
        <ele>168</ele>
        <time>2016-05-07T09:43:56Z</time>
      </trkpt>
      <trkpt lat="43.61568" lon="1.19554">
        <ele>168</ele>
        <time>2016-05-07T09:43:58Z</time>
      </trkpt>
      <trkpt lat="43.61567" lon="1.19555">
        <ele>168</ele>
        <time>2016-05-07T09:43:59Z</time>
      </trkpt>
      <trkpt lat="43.61565" lon="1.19558">
        <ele>168</ele>
        <time>2016-05-07T09:44:01Z</time>
      </trkpt>
      <trkpt lat="43.61565" lon="1.19559">
        <ele>168</ele>
        <time>2016-05-07T09:44:02Z</time>
      </trkpt>
      <trkpt lat="43.61562" lon="1.19562">
        <ele>168</ele>
        <time>2016-05-07T09:44:04Z</time>
      </trkpt>
      <trkpt lat="43.61561" lon="1.19566">
        <ele>168</ele>
        <time>2016-05-07T09:44:06Z</time>
      </trkpt>
      <trkpt lat="43.6156" lon="1.19568">
        <ele>168</ele>
        <time>2016-05-07T09:44:07Z</time>
      </trkpt>
      <trkpt lat="43.61559" lon="1.19572">
        <ele>168</ele>
        <time>2016-05-07T09:44:09Z</time>
      </trkpt>
      <trkpt lat="43.61559" lon="1.19573">
        <ele>168</ele>
        <time>2016-05-07T09:44:10Z</time>
      </trkpt>
      <trkpt lat="43.61557" lon="1.19575">
        <ele>168</ele>
        <time>2016-05-07T09:44:11Z</time>
      </trkpt>
      <trkpt lat="43.61556" lon="1.19579">
        <ele>168</ele>
        <time>2016-05-07T09:44:13Z</time>
      </trkpt>
      <trkpt lat="43.61555" lon="1.1958">
        <ele>168</ele>
        <time>2016-05-07T09:44:14Z</time>
      </trkpt>
      <trkpt lat="43.61554" lon="1.19582">
        <ele>168</ele>
        <time>2016-05-07T09:44:15Z</time>
      </trkpt>
      <trkpt lat="43.61553" lon="1.19584">
        <ele>168</ele>
        <time>2016-05-07T09:44:16Z</time>
      </trkpt>
      <trkpt lat="43.61552" lon="1.19587">
        <ele>168</ele>
        <time>2016-05-07T09:44:18Z</time>
      </trkpt>
      <trkpt lat="43.61551" lon="1.19589">
        <ele>168</ele>
        <time>2016-05-07T09:44:20Z</time>
      </trkpt>
      <trkpt lat="43.61549" lon="1.19594">
        <ele>168</ele>
        <time>2016-05-07T09:44:22Z</time>
      </trkpt>
      <trkpt lat="43.61548" lon="1.19596">
        <ele>168</ele>
        <time>2016-05-07T09:44:23Z</time>
      </trkpt>
      <trkpt lat="43.61546" lon="1.19599">
        <ele>168</ele>
        <time>2016-05-07T09:44:25Z</time>
      </trkpt>
      <trkpt lat="43.61546" lon="1.19601">
        <ele>168</ele>
        <time>2016-05-07T09:44:26Z</time>
      </trkpt>
      <trkpt lat="43.61544" lon="1.19602">
        <ele>168</ele>
        <time>2016-05-07T09:44:27Z</time>
      </trkpt>
      <trkpt lat="43.61543" lon="1.19606">
        <ele>168</ele>
        <time>2016-05-07T09:44:29Z</time>
      </trkpt>
      <trkpt lat="43.61541" lon="1.19609">
        <ele>168</ele>
        <time>2016-05-07T09:44:30Z</time>
      </trkpt>
      <trkpt lat="43.61539" lon="1.19612">
        <ele>168</ele>
        <time>2016-05-07T09:44:32Z</time>
      </trkpt>
      <trkpt lat="43.61538" lon="1.19614">
        <ele>169</ele>
        <time>2016-05-07T09:44:33Z</time>
      </trkpt>
      <trkpt lat="43.61536" lon="1.19616">
        <ele>169</ele>
        <time>2016-05-07T09:44:35Z</time>
      </trkpt>
      <trkpt lat="43.61533" lon="1.19619">
        <ele>169</ele>
        <time>2016-05-07T09:44:37Z</time>
      </trkpt>
      <trkpt lat="43.61532" lon="1.19623">
        <ele>169</ele>
        <time>2016-05-07T09:44:39Z</time>
      </trkpt>
      <trkpt lat="43.61531" lon="1.19626">
        <ele>169</ele>
        <time>2016-05-07T09:44:41Z</time>
      </trkpt>
      <trkpt lat="43.6153" lon="1.1963">
        <ele>170</ele>
        <time>2016-05-07T09:44:43Z</time>
      </trkpt>
      <trkpt lat="43.61528" lon="1.19634">
        <ele>170</ele>
        <time>2016-05-07T09:44:45Z</time>
      </trkpt>
      <trkpt lat="43.61527" lon="1.19638">
        <ele>170</ele>
        <time>2016-05-07T09:44:47Z</time>
      </trkpt>
      <trkpt lat="43.61525" lon="1.19643">
        <ele>170</ele>
        <time>2016-05-07T09:44:49Z</time>
      </trkpt>
      <trkpt lat="43.61528" lon="1.19646">
        <ele>170</ele>
        <time>2016-05-07T09:44:50Z</time>
      </trkpt>
      <trkpt lat="43.61528" lon="1.19651">
        <ele>170</ele>
        <time>2016-05-07T09:44:52Z</time>
      </trkpt>
      <trkpt lat="43.61527" lon="1.19652">
        <ele>170</ele>
        <time>2016-05-07T09:44:53Z</time>
      </trkpt>
      <trkpt lat="43.61526" lon="1.19657">
        <ele>170</ele>
        <time>2016-05-07T09:44:55Z</time>
      </trkpt>
      <trkpt lat="43.61525" lon="1.19661">
        <ele>170</ele>
        <time>2016-05-07T09:44:57Z</time>
      </trkpt>
      <trkpt lat="43.6152" lon="1.19665">
        <ele>170</ele>
        <time>2016-05-07T09:45:00Z</time>
      </trkpt>
      <trkpt lat="43.61519" lon="1.19666">
        <ele>170</ele>
        <time>2016-05-07T09:45:01Z</time>
      </trkpt>
      <trkpt lat="43.61516" lon="1.19669">
        <ele>170</ele>
        <time>2016-05-07T09:45:03Z</time>
      </trkpt>
      <trkpt lat="43.61515" lon="1.19673">
        <ele>170</ele>
        <time>2016-05-07T09:45:05Z</time>
      </trkpt>
      <trkpt lat="43.61514" lon="1.19677">
        <ele>169</ele>
        <time>2016-05-07T09:45:07Z</time>
      </trkpt>
      <trkpt lat="43.61512" lon="1.1968">
        <ele>169</ele>
        <time>2016-05-07T09:45:09Z</time>
      </trkpt>
      <trkpt lat="43.61511" lon="1.19682">
        <ele>169</ele>
        <time>2016-05-07T09:45:10Z</time>
      </trkpt>
      <trkpt lat="43.61509" lon="1.19686">
        <ele>169</ele>
        <time>2016-05-07T09:45:12Z</time>
      </trkpt>
      <trkpt lat="43.61507" lon="1.19689">
        <ele>169</ele>
        <time>2016-05-07T09:45:13Z</time>
      </trkpt>
      <trkpt lat="43.61505" lon="1.19692">
        <ele>168</ele>
        <time>2016-05-07T09:45:15Z</time>
      </trkpt>
      <trkpt lat="43.61503" lon="1.19695">
        <ele>168</ele>
        <time>2016-05-07T09:45:17Z</time>
      </trkpt>
      <trkpt lat="43.61501" lon="1.19699">
        <ele>168</ele>
        <time>2016-05-07T09:45:19Z</time>
      </trkpt>
      <trkpt lat="43.615" lon="1.19701">
        <ele>168</ele>
        <time>2016-05-07T09:45:20Z</time>
      </trkpt>
      <trkpt lat="43.61499" lon="1.19702">
        <ele>168</ele>
        <time>2016-05-07T09:45:21Z</time>
      </trkpt>
      <trkpt lat="43.61498" lon="1.19707">
        <ele>168</ele>
        <time>2016-05-07T09:45:23Z</time>
      </trkpt>
      <trkpt lat="43.61497" lon="1.19708">
        <ele>168</ele>
        <time>2016-05-07T09:45:24Z</time>
      </trkpt>
      <trkpt lat="43.61496" lon="1.1971">
        <ele>168</ele>
        <time>2016-05-07T09:45:26Z</time>
      </trkpt>
      <trkpt lat="43.61494" lon="1.19712">
        <ele>168</ele>
        <time>2016-05-07T09:45:28Z</time>
      </trkpt>
      <trkpt lat="43.61494" lon="1.19713">
        <ele>168</ele>
        <time>2016-05-07T09:45:29Z</time>
      </trkpt>
      <trkpt lat="43.61494" lon="1.19715">
        <ele>167</ele>
        <time>2016-05-07T09:45:30Z</time>
      </trkpt>
      <trkpt lat="43.61492" lon="1.19719">
        <ele>167</ele>
        <time>2016-05-07T09:45:32Z</time>
      </trkpt>
      <trkpt lat="43.61491" lon="1.19722">
        <ele>167</ele>
        <time>2016-05-07T09:45:34Z</time>
      </trkpt>
      <trkpt lat="43.6149" lon="1.19724">
        <ele>167</ele>
        <time>2016-05-07T09:45:36Z</time>
      </trkpt>
      <trkpt lat="43.61489" lon="1.19726">
        <ele>167</ele>
        <time>2016-05-07T09:45:37Z</time>
      </trkpt>
      <trkpt lat="43.61488" lon="1.19731">
        <ele>167</ele>
        <time>2016-05-07T09:45:39Z</time>
      </trkpt>
      <trkpt lat="43.61487" lon="1.19734">
        <ele>167</ele>
        <time>2016-05-07T09:45:40Z</time>
      </trkpt>
      <trkpt lat="43.61483" lon="1.19741">
        <ele>167</ele>
        <time>2016-05-07T09:45:43Z</time>
      </trkpt>
      <trkpt lat="43.61482" lon="1.19743">
        <ele>166</ele>
        <time>2016-05-07T09:45:44Z</time>
      </trkpt>
      <trkpt lat="43.61481" lon="1.19744">
        <ele>166</ele>
        <time>2016-05-07T09:45:45Z</time>
      </trkpt>
      <trkpt lat="43.6148" lon="1.19746">
        <ele>166</ele>
        <time>2016-05-07T09:45:46Z</time>
      </trkpt>
      <trkpt lat="43.61477" lon="1.1975">
        <ele>166</ele>
        <time>2016-05-07T09:45:48Z</time>
      </trkpt>
      <trkpt lat="43.61476" lon="1.19752">
        <ele>166</ele>
        <time>2016-05-07T09:45:50Z</time>
      </trkpt>
      <trkpt lat="43.61474" lon="1.19753">
        <ele>166</ele>
        <time>2016-05-07T09:45:52Z</time>
      </trkpt>
      <trkpt lat="43.61472" lon="1.19754">
        <ele>166</ele>
        <time>2016-05-07T09:45:53Z</time>
      </trkpt>
      <trkpt lat="43.61471" lon="1.19753">
        <ele>166</ele>
        <time>2016-05-07T09:45:57Z</time>
      </trkpt>
      <trkpt lat="43.61469" lon="1.19755">
        <ele>166</ele>
        <time>2016-05-07T09:45:59Z</time>
      </trkpt>
      <trkpt lat="43.61462" lon="1.19757">
        <ele>165</ele>
        <time>2016-05-07T09:46:03Z</time>
      </trkpt>
      <trkpt lat="43.61459" lon="1.19758">
        <ele>165</ele>
        <time>2016-05-07T09:46:05Z</time>
      </trkpt>
      <trkpt lat="43.61458" lon="1.19759">
        <ele>165</ele>
        <time>2016-05-07T09:46:06Z</time>
      </trkpt>
      <trkpt lat="43.61456" lon="1.19761">
        <ele>165</ele>
        <time>2016-05-07T09:46:08Z</time>
      </trkpt>
      <trkpt lat="43.6145" lon="1.19764">
        <ele>164</ele>
        <time>2016-05-07T09:46:12Z</time>
      </trkpt>
      <trkpt lat="43.61443" lon="1.19765">
        <ele>164</ele>
        <time>2016-05-07T09:46:16Z</time>
      </trkpt>
      <trkpt lat="43.61443" lon="1.19765">
        <ele>164</ele>
        <time>2016-05-07T09:46:17Z</time>
      </trkpt>
      <trkpt lat="43.6144" lon="1.19767">
        <ele>164</ele>
        <time>2016-05-07T09:46:19Z</time>
      </trkpt>
      <trkpt lat="43.61438" lon="1.19768">
        <ele>164</ele>
        <time>2016-05-07T09:46:20Z</time>
      </trkpt>
      <trkpt lat="43.61437" lon="1.1977">
        <ele>164</ele>
        <time>2016-05-07T09:46:22Z</time>
      </trkpt>
      <trkpt lat="43.61436" lon="1.1977">
        <ele>164</ele>
        <time>2016-05-07T09:46:23Z</time>
      </trkpt>
      <trkpt lat="43.61434" lon="1.19772">
        <ele>164</ele>
        <time>2016-05-07T09:46:25Z</time>
      </trkpt>
      <trkpt lat="43.61431" lon="1.19774">
        <ele>164</ele>
        <time>2016-05-07T09:46:27Z</time>
      </trkpt>
      <trkpt lat="43.6143" lon="1.19776">
        <ele>164</ele>
        <time>2016-05-07T09:46:28Z</time>
      </trkpt>
      <trkpt lat="43.61427" lon="1.19779">
        <ele>164</ele>
        <time>2016-05-07T09:46:30Z</time>
      </trkpt>
      <trkpt lat="43.61426" lon="1.19779">
        <ele>164</ele>
        <time>2016-05-07T09:46:31Z</time>
      </trkpt>
      <trkpt lat="43.61422" lon="1.1978">
        <ele>164</ele>
        <time>2016-05-07T09:46:33Z</time>
      </trkpt>
      <trkpt lat="43.61421" lon="1.1978">
        <ele>164</ele>
        <time>2016-05-07T09:46:34Z</time>
      </trkpt>
      <trkpt lat="43.6142" lon="1.19782">
        <ele>164</ele>
        <time>2016-05-07T09:46:35Z</time>
      </trkpt>
      <trkpt lat="43.61417" lon="1.19784">
        <ele>164</ele>
        <time>2016-05-07T09:46:37Z</time>
      </trkpt>
      <trkpt lat="43.61414" lon="1.19787">
        <ele>164</ele>
        <time>2016-05-07T09:46:39Z</time>
      </trkpt>
      <trkpt lat="43.61412" lon="1.19789">
        <ele>164</ele>
        <time>2016-05-07T09:46:41Z</time>
      </trkpt>
      <trkpt lat="43.61411" lon="1.19791">
        <ele>165</ele>
        <time>2016-05-07T09:46:42Z</time>
      </trkpt>
      <trkpt lat="43.6141" lon="1.19794">
        <ele>165</ele>
        <time>2016-05-07T09:46:43Z</time>
      </trkpt>
      <trkpt lat="43.61408" lon="1.19796">
        <ele>165</ele>
        <time>2016-05-07T09:46:45Z</time>
      </trkpt>
      <trkpt lat="43.61405" lon="1.19798">
        <ele>165</ele>
        <time>2016-05-07T09:46:47Z</time>
      </trkpt>
      <trkpt lat="43.61403" lon="1.19801">
        <ele>165</ele>
        <time>2016-05-07T09:46:49Z</time>
      </trkpt>
      <trkpt lat="43.61401" lon="1.19803">
        <ele>165</ele>
        <time>2016-05-07T09:46:51Z</time>
      </trkpt>
      <trkpt lat="43.614" lon="1.19804">
        <ele>165</ele>
        <time>2016-05-07T09:46:52Z</time>
      </trkpt>
      <trkpt lat="43.61398" lon="1.19807">
        <ele>166</ele>
        <time>2016-05-07T09:46:54Z</time>
      </trkpt>
      <trkpt lat="43.61396" lon="1.1981">
        <ele>166</ele>
        <time>2016-05-07T09:46:56Z</time>
      </trkpt>
      <trkpt lat="43.61396" lon="1.19811">
        <ele>166</ele>
        <time>2016-05-07T09:46:57Z</time>
      </trkpt>
      <trkpt lat="43.61396" lon="1.19815">
        <ele>166</ele>
        <time>2016-05-07T09:46:59Z</time>
      </trkpt>
      <trkpt lat="43.61393" lon="1.19818">
        <ele>166</ele>
        <time>2016-05-07T09:47:01Z</time>
      </trkpt>
      <trkpt lat="43.61393" lon="1.1982">
        <ele>166</ele>
        <time>2016-05-07T09:47:02Z</time>
      </trkpt>
      <trkpt lat="43.61392" lon="1.19823">
        <ele>166</ele>
        <time>2016-05-07T09:47:04Z</time>
      </trkpt>
      <trkpt lat="43.61391" lon="1.19825">
        <ele>166</ele>
        <time>2016-05-07T09:47:07Z</time>
      </trkpt>
      <trkpt lat="43.61389" lon="1.19826">
        <ele>166</ele>
        <time>2016-05-07T09:47:10Z</time>
      </trkpt>
      <trkpt lat="43.61389" lon="1.19828">
        <ele>166</ele>
        <time>2016-05-07T09:47:11Z</time>
      </trkpt>
      <trkpt lat="43.61388" lon="1.19829">
        <ele>166</ele>
        <time>2016-05-07T09:47:14Z</time>
      </trkpt>
      <trkpt lat="43.61387" lon="1.19829">
        <ele>166</ele>
        <time>2016-05-07T09:47:15Z</time>
      </trkpt>
      <trkpt lat="43.61385" lon="1.19829">
        <ele>166</ele>
        <time>2016-05-07T09:47:17Z</time>
      </trkpt>
      <trkpt lat="43.61385" lon="1.1983">
        <ele>166</ele>
        <time>2016-05-07T09:47:19Z</time>
      </trkpt>
      <trkpt lat="43.61385" lon="1.1983">
        <ele>166</ele>
        <time>2016-05-07T09:47:20Z</time>
      </trkpt>
      <trkpt lat="43.61384" lon="1.19829">
        <ele>166</ele>
        <time>2016-05-07T09:47:22Z</time>
      </trkpt>
      <trkpt lat="43.61382" lon="1.19829">
        <ele>166</ele>
        <time>2016-05-07T09:47:25Z</time>
      </trkpt>
      <trkpt lat="43.61381" lon="1.19829">
        <ele>166</ele>
        <time>2016-05-07T09:47:27Z</time>
      </trkpt>
      <trkpt lat="43.61383" lon="1.19828">
        <ele>166</ele>
        <time>2016-05-07T09:47:29Z</time>
      </trkpt>
      <trkpt lat="43.61383" lon="1.19828">
        <ele>166</ele>
        <time>2016-05-07T09:47:30Z</time>
      </trkpt>
      <trkpt lat="43.61382" lon="1.19828">
        <ele>166</ele>
        <time>2016-05-07T09:47:31Z</time>
      </trkpt>
      <trkpt lat="43.61383" lon="1.19828">
        <ele>166</ele>
        <time>2016-05-07T09:47:33Z</time>
      </trkpt>
      <trkpt lat="43.61379" lon="1.1983">
        <ele>167</ele>
        <time>2016-05-07T09:47:37Z</time>
      </trkpt>
      <trkpt lat="43.61376" lon="1.19831">
        <ele>167</ele>
        <time>2016-05-07T09:47:38Z</time>
      </trkpt>
      <trkpt lat="43.61376" lon="1.19833">
        <ele>167</ele>
        <time>2016-05-07T09:47:40Z</time>
      </trkpt>
      <trkpt lat="43.61376" lon="1.19833">
        <ele>168</ele>
        <time>2016-05-07T09:47:42Z</time>
      </trkpt>
      <trkpt lat="43.61385" lon="1.19835">
        <ele>168</ele>
        <time>2016-05-07T09:47:50Z</time>
      </trkpt>
      <trkpt lat="43.61386" lon="1.19834">
        <ele>169</ele>
        <time>2016-05-07T09:47:52Z</time>
      </trkpt>
      <trkpt lat="43.61387" lon="1.19834">
        <ele>169</ele>
        <time>2016-05-07T09:47:55Z</time>
      </trkpt>
      <trkpt lat="43.61387" lon="1.19834">
        <ele>170</ele>
        <time>2016-05-07T09:47:56Z</time>
      </trkpt>
      <trkpt lat="43.61387" lon="1.19834">
        <ele>170</ele>
        <time>2016-05-07T09:47:57Z</time>
      </trkpt>
      <trkpt lat="43.61385" lon="1.19836">
        <ele>170</ele>
        <time>2016-05-07T09:47:58Z</time>
      </trkpt>
      <trkpt lat="43.61384" lon="1.19833">
        <ele>170</ele>
        <time>2016-05-07T09:48:04Z</time>
      </trkpt>
      <trkpt lat="43.61383" lon="1.19833">
        <ele>170</ele>
        <time>2016-05-07T09:48:05Z</time>
      </trkpt>
      <trkpt lat="43.6138" lon="1.19834">
        <ele>170</ele>
        <time>2016-05-07T09:48:11Z</time>
      </trkpt>
      <trkpt lat="43.61377" lon="1.19831">
        <ele>170</ele>
        <time>2016-05-07T09:48:33Z</time>
      </trkpt>
      <trkpt lat="43.61377" lon="1.19831">
        <ele>170</ele>
        <time>2016-05-07T09:48:34Z</time>
      </trkpt>
      <trkpt lat="43.61378" lon="1.19831">
        <ele>170</ele>
        <time>2016-05-07T09:48:36Z</time>
      </trkpt>
      <trkpt lat="43.61379" lon="1.19832">
        <ele>170</ele>
        <time>2016-05-07T09:48:37Z</time>
      </trkpt>
      <trkpt lat="43.61377" lon="1.19834">
        <ele>171</ele>
        <time>2016-05-07T09:48:39Z</time>
      </trkpt>
      <trkpt lat="43.61385" lon="1.19833">
        <ele>171</ele>
        <time>2016-05-07T09:49:08Z</time>
      </trkpt>
      <trkpt lat="43.6138" lon="1.1983">
        <ele>171</ele>
        <time>2016-05-07T09:49:19Z</time>
      </trkpt>
      <trkpt lat="43.61382" lon="1.19831">
        <ele>172</ele>
        <time>2016-05-07T09:49:42Z</time>
      </trkpt>
      <trkpt lat="43.6139" lon="1.19832">
        <ele>171</ele>
        <time>2016-05-07T09:50:01Z</time>
      </trkpt>
      <trkpt lat="43.6139" lon="1.19832">
        <ele>171</ele>
        <time>2016-05-07T09:50:03Z</time>
      </trkpt>
      <trkpt lat="43.6138" lon="1.19831">
        <ele>171</ele>
        <time>2016-05-07T09:50:09Z</time>
      </trkpt>
      <trkpt lat="43.6138" lon="1.19832">
        <ele>171</ele>
        <time>2016-05-07T09:50:35Z</time>
      </trkpt>
      <trkpt lat="43.6138" lon="1.19832">
        <ele>171</ele>
        <time>2016-05-07T09:50:36Z</time>
      </trkpt>
      <trkpt lat="43.6138" lon="1.19832">
        <ele>171</ele>
        <time>2016-05-07T09:50:52Z</time>
      </trkpt>
      <trkpt lat="43.6138" lon="1.19832">
        <ele>171</ele>
        <time>2016-05-07T09:50:54Z</time>
      </trkpt>
      <trkpt lat="43.6139" lon="1.19833">
        <ele>169</ele>
        <time>2016-05-07T09:51:00Z</time>
      </trkpt>
      <trkpt lat="43.6139" lon="1.19833">
        <ele>168</ele>
        <time>2016-05-07T09:51:28Z</time>
      </trkpt>
      <trkpt lat="43.6139" lon="1.19833">
        <ele>168</ele>
        <time>2016-05-07T09:51:30Z</time>
      </trkpt>
      <trkpt lat="43.6139" lon="1.19833">
        <ele>168</ele>
        <time>2016-05-07T09:51:44Z</time>
      </trkpt>
      <trkpt lat="43.6139" lon="1.19833">
        <ele>168</ele>
        <time>2016-05-07T09:51:46Z</time>
      </trkpt>
      <trkpt lat="43.61388" lon="1.19833">
        <ele>168</ele>
        <time>2016-05-07T09:51:48Z</time>
      </trkpt>
      <trkpt lat="43.61387" lon="1.19833">
        <ele>168</ele>
        <time>2016-05-07T09:51:54Z</time>
      </trkpt>
      <trkpt lat="43.61386" lon="1.19833">
        <ele>168</ele>
        <time>2016-05-07T09:52:16Z</time>
      </trkpt>
      <trkpt lat="43.61386" lon="1.19833">
        <ele>168</ele>
        <time>2016-05-07T09:52:37Z</time>
      </trkpt>
      <trkpt lat="43.61386" lon="1.19833">
        <ele>169</ele>
        <time>2016-05-07T09:52:39Z</time>
      </trkpt>
      <trkpt lat="43.61386" lon="1.19833">
        <ele>169</ele>
        <time>2016-05-07T09:52:53Z</time>
      </trkpt>
      <trkpt lat="43.61386" lon="1.19833">
        <ele>169</ele>
        <time>2016-05-07T09:52:55Z</time>
      </trkpt>
      <trkpt lat="43.61395" lon="1.19832">
        <ele>169</ele>
        <time>2016-05-07T09:53:10Z</time>
      </trkpt>
      <trkpt lat="43.61396" lon="1.19832">
        <ele>169</ele>
        <time>2016-05-07T09:53:11Z</time>
      </trkpt>
      <trkpt lat="43.61395" lon="1.19832">
        <ele>169</ele>
        <time>2016-05-07T09:53:13Z</time>
      </trkpt>
      <trkpt lat="43.61395" lon="1.19832">
        <ele>169</ele>
        <time>2016-05-07T09:53:30Z</time>
      </trkpt>
      <trkpt lat="43.61395" lon="1.19832">
        <ele>169</ele>
        <time>2016-05-07T09:53:31Z</time>
      </trkpt>
      <trkpt lat="43.61395" lon="1.19832">
        <ele>169</ele>
        <time>2016-05-07T09:53:48Z</time>
      </trkpt>
      <trkpt lat="43.61395" lon="1.19832">
        <ele>169</ele>
        <time>2016-05-07T09:53:49Z</time>
      </trkpt>
      <trkpt lat="43.61395" lon="1.19832">
        <ele>169</ele>
        <time>2016-05-07T09:54:05Z</time>
      </trkpt>
      <trkpt lat="43.61395" lon="1.19832">
        <ele>169</ele>
        <time>2016-05-07T09:54:07Z</time>
      </trkpt>
      <trkpt lat="43.61395" lon="1.19832">
        <ele>169</ele>
        <time>2016-05-07T09:54:22Z</time>
      </trkpt>
      <trkpt lat="43.61395" lon="1.19832">
        <ele>169</ele>
        <time>2016-05-07T09:54:23Z</time>
      </trkpt>
      <trkpt lat="43.61395" lon="1.19832">
        <ele>169</ele>
        <time>2016-05-07T09:54:39Z</time>
      </trkpt>
      <trkpt lat="43.61395" lon="1.19832">
        <ele>169</ele>
        <time>2016-05-07T09:54:41Z</time>
      </trkpt>
      <trkpt lat="43.61395" lon="1.19832">
        <ele>169</ele>
        <time>2016-05-07T09:54:58Z</time>
      </trkpt>
      <trkpt lat="43.61395" lon="1.19832">
        <ele>169</ele>
        <time>2016-05-07T09:55:13Z</time>
      </trkpt>
      <trkpt lat="43.61395" lon="1.19832">
        <ele>169</ele>
        <time>2016-05-07T09:55:15Z</time>
      </trkpt>
      <trkpt lat="43.61395" lon="1.19832">
        <ele>169</ele>
        <time>2016-05-07T09:55:30Z</time>
      </trkpt>
      <trkpt lat="43.61395" lon="1.19832">
        <ele>169</ele>
        <time>2016-05-07T09:55:32Z</time>
      </trkpt>
      <trkpt lat="43.61395" lon="1.19832">
        <ele>169</ele>
        <time>2016-05-07T09:55:47Z</time>
      </trkpt>
      <trkpt lat="43.61395" lon="1.19832">
        <ele>169</ele>
        <time>2016-05-07T09:55:49Z</time>
      </trkpt>
      <trkpt lat="43.61395" lon="1.19832">
        <ele>169</ele>
        <time>2016-05-07T09:56:04Z</time>
      </trkpt>
      <trkpt lat="43.61395" lon="1.19832">
        <ele>169</ele>
        <time>2016-05-07T09:56:05Z</time>
      </trkpt>
      <trkpt lat="43.61395" lon="1.19832">
        <ele>169</ele>
        <time>2016-05-07T09:56:21Z</time>
      </trkpt>
      <trkpt lat="43.61395" lon="1.19832">
        <ele>169</ele>
        <time>2016-05-07T09:56:23Z</time>
      </trkpt>
      <trkpt lat="43.61395" lon="1.19832">
        <ele>169</ele>
        <time>2016-05-07T09:56:38Z</time>
      </trkpt>
      <trkpt lat="43.61395" lon="1.19832">
        <ele>169</ele>
        <time>2016-05-07T09:56:40Z</time>
      </trkpt>
      <trkpt lat="43.61395" lon="1.19832">
        <ele>169</ele>
        <time>2016-05-07T09:56:56Z</time>
      </trkpt>
      <trkpt lat="43.61395" lon="1.19832">
        <ele>169</ele>
        <time>2016-05-07T09:56:57Z</time>
      </trkpt>
      <trkpt lat="43.614" lon="1.19831">
        <ele>170</ele>
        <time>2016-05-07T09:57:07Z</time>
      </trkpt>
      <trkpt lat="43.61401" lon="1.1983">
        <ele>170</ele>
        <time>2016-05-07T09:57:09Z</time>
      </trkpt>
      <trkpt lat="43.61401" lon="1.1983">
        <ele>171</ele>
        <time>2016-05-07T09:57:31Z</time>
      </trkpt>
      <trkpt lat="43.61401" lon="1.1983">
        <ele>171</ele>
        <time>2016-05-07T09:57:33Z</time>
      </trkpt>
      <trkpt lat="43.61399" lon="1.19826">
        <ele>172</ele>
        <time>2016-05-07T09:57:48Z</time>
      </trkpt>
      <trkpt lat="43.614" lon="1.19827">
        <ele>172</ele>
        <time>2016-05-07T09:57:49Z</time>
      </trkpt>
      <trkpt lat="43.614" lon="1.19828">
        <ele>172</ele>
        <time>2016-05-07T09:57:51Z</time>
      </trkpt>
      <trkpt lat="43.61401" lon="1.19829">
        <ele>172</ele>
        <time>2016-05-07T09:57:52Z</time>
      </trkpt>
      <trkpt lat="43.61403" lon="1.19829">
        <ele>173</ele>
        <time>2016-05-07T09:57:54Z</time>
      </trkpt>
      <trkpt lat="43.61404" lon="1.19829">
        <ele>173</ele>
        <time>2016-05-07T09:57:55Z</time>
      </trkpt>
      <trkpt lat="43.61405" lon="1.19828">
        <ele>173</ele>
        <time>2016-05-07T09:57:57Z</time>
      </trkpt>
      <trkpt lat="43.61406" lon="1.19827">
        <ele>173</ele>
        <time>2016-05-07T09:57:59Z</time>
      </trkpt>
      <trkpt lat="43.61409" lon="1.19825">
        <ele>173</ele>
        <time>2016-05-07T09:58:01Z</time>
      </trkpt>
      <trkpt lat="43.61409" lon="1.19824">
        <ele>173</ele>
        <time>2016-05-07T09:58:03Z</time>
      </trkpt>
      <trkpt lat="43.6141" lon="1.19824">
        <ele>173</ele>
        <time>2016-05-07T09:58:04Z</time>
      </trkpt>
      <trkpt lat="43.61412" lon="1.19821">
        <ele>173</ele>
        <time>2016-05-07T09:58:06Z</time>
      </trkpt>
      <trkpt lat="43.61412" lon="1.19818">
        <ele>172</ele>
        <time>2016-05-07T09:58:08Z</time>
      </trkpt>
      <trkpt lat="43.61408" lon="1.19815">
        <ele>172</ele>
        <time>2016-05-07T09:58:10Z</time>
      </trkpt>
      <trkpt lat="43.61408" lon="1.19814">
        <ele>172</ele>
        <time>2016-05-07T09:58:12Z</time>
      </trkpt>
    </trkseg>
  </trk>
</gpx>